<?xml version="1.0" encoding="UTF-8" standalone="no" ?>
<gpx xmlns="http://www.topografix.com/GPX/1/1" xmlns:xsi="http://www.w3.org/2001/XMLSchema-instance" xsi:schemaLocation="http://www.topografix.com/GPX/1/1 http://www.topografix.com/GPX/1/1/gpx.xsd" version="1.1" creator="VisuGPX - https://www.visugpx.com">
  <metadata>
    <name>Champagnat Cyclisme sur route</name>
  </metadata>
  <trk>
    <name><![CDATA[Champagnat Cyclisme sur route_1]]></name>
    <trkseg>
      <trkpt lat="46.48271" lon="5.36838">
        <ele>267.2</ele>
        <time>2022-08-23T12:07:04Z</time>
      </trkpt>
      <trkpt lat="46.48262" lon="5.36824">
        <ele>266.8</ele>
        <time>2022-08-23T12:07:05Z</time>
      </trkpt>
      <trkpt lat="46.48251" lon="5.36813">
        <ele>265.2</ele>
        <time>2022-08-23T12:07:06Z</time>
      </trkpt>
      <trkpt lat="46.48228" lon="5.36794">
        <ele>263.4</ele>
        <time>2022-08-23T12:07:08Z</time>
      </trkpt>
      <trkpt lat="46.48205" lon="5.36776">
        <ele>262.2</ele>
        <time>2022-08-23T12:07:10Z</time>
      </trkpt>
      <trkpt lat="46.48181" lon="5.36757">
        <ele>261</ele>
        <time>2022-08-23T12:07:12Z</time>
      </trkpt>
      <trkpt lat="46.4817" lon="5.36747">
        <ele>259.8</ele>
        <time>2022-08-23T12:07:13Z</time>
      </trkpt>
      <trkpt lat="46.48148" lon="5.36729">
        <ele>257.8</ele>
        <time>2022-08-23T12:07:15Z</time>
      </trkpt>
      <trkpt lat="46.48129" lon="5.36714">
        <ele>256.6</ele>
        <time>2022-08-23T12:07:17Z</time>
      </trkpt>
      <trkpt lat="46.48113" lon="5.36702">
        <ele>255.6</ele>
        <time>2022-08-23T12:07:19Z</time>
      </trkpt>
      <trkpt lat="46.48107" lon="5.36685">
        <ele>254</ele>
        <time>2022-08-23T12:07:21Z</time>
      </trkpt>
      <trkpt lat="46.48112" lon="5.36667">
        <ele>253</ele>
        <time>2022-08-23T12:07:23Z</time>
      </trkpt>
      <trkpt lat="46.48118" lon="5.3666">
        <ele>252.2</ele>
        <time>2022-08-23T12:07:24Z</time>
      </trkpt>
      <trkpt lat="46.48125" lon="5.36654">
        <ele>251.6</ele>
        <time>2022-08-23T12:07:25Z</time>
      </trkpt>
      <trkpt lat="46.48132" lon="5.36647">
        <ele>251.2</ele>
        <time>2022-08-23T12:07:26Z</time>
      </trkpt>
      <trkpt lat="46.4814" lon="5.36644">
        <ele>250.6</ele>
        <time>2022-08-23T12:07:27Z</time>
      </trkpt>
      <trkpt lat="46.48177" lon="5.36617">
        <ele>249.2</ele>
        <time>2022-08-23T12:07:32Z</time>
      </trkpt>
      <trkpt lat="46.48186" lon="5.36611">
        <ele>249</ele>
        <time>2022-08-23T12:07:33Z</time>
      </trkpt>
      <trkpt lat="46.48206" lon="5.36601">
        <ele>248.6</ele>
        <time>2022-08-23T12:07:36Z</time>
      </trkpt>
      <trkpt lat="46.48219" lon="5.36591">
        <ele>248.4</ele>
        <time>2022-08-23T12:07:38Z</time>
      </trkpt>
      <trkpt lat="46.48223" lon="5.36583">
        <ele>248.2</ele>
        <time>2022-08-23T12:07:39Z</time>
      </trkpt>
      <trkpt lat="46.48225" lon="5.36574">
        <ele>248</ele>
        <time>2022-08-23T12:07:40Z</time>
      </trkpt>
      <trkpt lat="46.48233" lon="5.36558">
        <ele>247.6</ele>
        <time>2022-08-23T12:07:42Z</time>
      </trkpt>
      <trkpt lat="46.48238" lon="5.36551">
        <ele>247.6</ele>
        <time>2022-08-23T12:07:43Z</time>
      </trkpt>
      <trkpt lat="46.48266" lon="5.36519">
        <ele>247.2</ele>
        <time>2022-08-23T12:07:48Z</time>
      </trkpt>
      <trkpt lat="46.48276" lon="5.36506">
        <ele>247</ele>
        <time>2022-08-23T12:07:50Z</time>
      </trkpt>
      <trkpt lat="46.48306" lon="5.36474">
        <ele>246.6</ele>
        <time>2022-08-23T12:07:55Z</time>
      </trkpt>
      <trkpt lat="46.48331" lon="5.36446">
        <ele>245.6</ele>
        <time>2022-08-23T12:07:59Z</time>
      </trkpt>
      <trkpt lat="46.48338" lon="5.36439">
        <ele>245.4</ele>
        <time>2022-08-23T12:08:00Z</time>
      </trkpt>
      <trkpt lat="46.48365" lon="5.36409">
        <ele>244.2</ele>
        <time>2022-08-23T12:08:04Z</time>
      </trkpt>
      <trkpt lat="46.48389" lon="5.36382">
        <ele>243.4</ele>
        <time>2022-08-23T12:08:08Z</time>
      </trkpt>
      <trkpt lat="46.48389" lon="5.36382">
        <ele>243.2</ele>
        <time>2022-08-23T12:08:09Z</time>
      </trkpt>
      <trkpt lat="46.48408" lon="5.36365">
        <ele>242.8</ele>
        <time>2022-08-23T12:08:11Z</time>
      </trkpt>
      <trkpt lat="46.48415" lon="5.3636">
        <ele>242.6</ele>
        <time>2022-08-23T12:08:12Z</time>
      </trkpt>
      <trkpt lat="46.48421" lon="5.36356">
        <ele>242.4</ele>
        <time>2022-08-23T12:08:13Z</time>
      </trkpt>
      <trkpt lat="46.48435" lon="5.36351">
        <ele>241.8</ele>
        <time>2022-08-23T12:08:15Z</time>
      </trkpt>
      <trkpt lat="46.48456" lon="5.36347">
        <ele>241.6</ele>
        <time>2022-08-23T12:08:18Z</time>
      </trkpt>
      <trkpt lat="46.48503" lon="5.3634">
        <ele>241.4</ele>
        <time>2022-08-23T12:08:25Z</time>
      </trkpt>
      <trkpt lat="46.48536" lon="5.36334">
        <ele>241</ele>
        <time>2022-08-23T12:08:30Z</time>
      </trkpt>
      <trkpt lat="46.48562" lon="5.3633">
        <ele>241</ele>
        <time>2022-08-23T12:08:34Z</time>
      </trkpt>
      <trkpt lat="46.48617" lon="5.36318">
        <ele>240.2</ele>
        <time>2022-08-23T12:08:42Z</time>
      </trkpt>
      <trkpt lat="46.48617" lon="5.36318">
        <ele>239.8</ele>
        <time>2022-08-23T12:08:43Z</time>
      </trkpt>
      <trkpt lat="46.4863" lon="5.36304">
        <ele>239.4</ele>
        <time>2022-08-23T12:08:44Z</time>
      </trkpt>
      <trkpt lat="46.48635" lon="5.36292">
        <ele>239.4</ele>
        <time>2022-08-23T12:08:45Z</time>
      </trkpt>
      <trkpt lat="46.48637" lon="5.3628">
        <ele>239.2</ele>
        <time>2022-08-23T12:08:46Z</time>
      </trkpt>
      <trkpt lat="46.4864" lon="5.36257">
        <ele>238.4</ele>
        <time>2022-08-23T12:08:48Z</time>
      </trkpt>
      <trkpt lat="46.48641" lon="5.36242">
        <ele>238.2</ele>
        <time>2022-08-23T12:08:49Z</time>
      </trkpt>
      <trkpt lat="46.48643" lon="5.36217">
        <ele>237</ele>
        <time>2022-08-23T12:08:51Z</time>
      </trkpt>
      <trkpt lat="46.48647" lon="5.36166">
        <ele>235.6</ele>
        <time>2022-08-23T12:08:55Z</time>
      </trkpt>
      <trkpt lat="46.48651" lon="5.36132">
        <ele>234.8</ele>
        <time>2022-08-23T12:08:58Z</time>
      </trkpt>
      <trkpt lat="46.48657" lon="5.36105">
        <ele>234.4</ele>
        <time>2022-08-23T12:09:00Z</time>
      </trkpt>
      <trkpt lat="46.48659" lon="5.36094">
        <ele>234.4</ele>
        <time>2022-08-23T12:09:01Z</time>
      </trkpt>
      <trkpt lat="46.48665" lon="5.36063">
        <ele>234.2</ele>
        <time>2022-08-23T12:09:04Z</time>
      </trkpt>
      <trkpt lat="46.48675" lon="5.36017">
        <ele>234.2</ele>
        <time>2022-08-23T12:09:10Z</time>
      </trkpt>
      <trkpt lat="46.48678" lon="5.35992">
        <ele>234.4</ele>
        <time>2022-08-23T12:09:12Z</time>
      </trkpt>
      <trkpt lat="46.4868" lon="5.35969">
        <ele>235</ele>
        <time>2022-08-23T12:09:15Z</time>
      </trkpt>
      <trkpt lat="46.48685" lon="5.35937">
        <ele>235.6</ele>
        <time>2022-08-23T12:09:18Z</time>
      </trkpt>
      <trkpt lat="46.48687" lon="5.35928">
        <ele>235.8</ele>
        <time>2022-08-23T12:09:19Z</time>
      </trkpt>
      <trkpt lat="46.48691" lon="5.3591">
        <ele>236</ele>
        <time>2022-08-23T12:09:21Z</time>
      </trkpt>
      <trkpt lat="46.48701" lon="5.35884">
        <ele>236.2</ele>
        <time>2022-08-23T12:09:24Z</time>
      </trkpt>
      <trkpt lat="46.48717" lon="5.35844">
        <ele>235</ele>
        <time>2022-08-23T12:09:30Z</time>
      </trkpt>
      <trkpt lat="46.48719" lon="5.35839">
        <ele>235</ele>
        <time>2022-08-23T12:09:31Z</time>
      </trkpt>
      <trkpt lat="46.48722" lon="5.35832">
        <ele>234.6</ele>
        <time>2022-08-23T12:09:33Z</time>
      </trkpt>
      <trkpt lat="46.48724" lon="5.35829">
        <ele>234.2</ele>
        <time>2022-08-23T12:09:35Z</time>
      </trkpt>
      <trkpt lat="46.48724" lon="5.35828">
        <ele>233.8</ele>
        <time>2022-08-23T12:09:37Z</time>
      </trkpt>
      <trkpt lat="46.48725" lon="5.35825">
        <ele>232.6</ele>
        <time>2022-08-23T12:09:51Z</time>
      </trkpt>
      <trkpt lat="46.48727" lon="5.35822">
        <ele>232.6</ele>
        <time>2022-08-23T12:09:52Z</time>
      </trkpt>
      <trkpt lat="46.48739" lon="5.35794">
        <ele>232.6</ele>
        <time>2022-08-23T12:09:57Z</time>
      </trkpt>
      <trkpt lat="46.48756" lon="5.35755">
        <ele>232.4</ele>
        <time>2022-08-23T12:10:02Z</time>
      </trkpt>
      <trkpt lat="46.48763" lon="5.35739">
        <ele>232.8</ele>
        <time>2022-08-23T12:10:04Z</time>
      </trkpt>
      <trkpt lat="46.48791" lon="5.35676">
        <ele>232.8</ele>
        <time>2022-08-23T12:10:12Z</time>
      </trkpt>
      <trkpt lat="46.48802" lon="5.35654">
        <ele>232.8</ele>
        <time>2022-08-23T12:10:15Z</time>
      </trkpt>
      <trkpt lat="46.48811" lon="5.3563">
        <ele>232.8</ele>
        <time>2022-08-23T12:10:18Z</time>
      </trkpt>
      <trkpt lat="46.4884" lon="5.35563">
        <ele>233.2</ele>
        <time>2022-08-23T12:10:27Z</time>
      </trkpt>
      <trkpt lat="46.48861" lon="5.35518">
        <ele>233.6</ele>
        <time>2022-08-23T12:10:33Z</time>
      </trkpt>
      <trkpt lat="46.48885" lon="5.35464">
        <ele>233.2</ele>
        <time>2022-08-23T12:10:40Z</time>
      </trkpt>
      <trkpt lat="46.4891" lon="5.35403">
        <ele>233</ele>
        <time>2022-08-23T12:10:47Z</time>
      </trkpt>
      <trkpt lat="46.48942" lon="5.3533">
        <ele>233</ele>
        <time>2022-08-23T12:10:55Z</time>
      </trkpt>
      <trkpt lat="46.48946" lon="5.35321">
        <ele>233</ele>
        <time>2022-08-23T12:10:56Z</time>
      </trkpt>
      <trkpt lat="46.48975" lon="5.35258">
        <ele>232.6</ele>
        <time>2022-08-23T12:11:04Z</time>
      </trkpt>
      <trkpt lat="46.48995" lon="5.35213">
        <ele>232.8</ele>
        <time>2022-08-23T12:11:10Z</time>
      </trkpt>
      <trkpt lat="46.49008" lon="5.35179">
        <ele>233.2</ele>
        <time>2022-08-23T12:11:15Z</time>
      </trkpt>
      <trkpt lat="46.49025" lon="5.3514">
        <ele>233.6</ele>
        <time>2022-08-23T12:11:21Z</time>
      </trkpt>
      <trkpt lat="46.49028" lon="5.35133">
        <ele>233.8</ele>
        <time>2022-08-23T12:11:22Z</time>
      </trkpt>
      <trkpt lat="46.49037" lon="5.35119">
        <ele>234</ele>
        <time>2022-08-23T12:11:24Z</time>
      </trkpt>
      <trkpt lat="46.49042" lon="5.35114">
        <ele>234</ele>
        <time>2022-08-23T12:11:25Z</time>
      </trkpt>
      <trkpt lat="46.49047" lon="5.35109">
        <ele>234</ele>
        <time>2022-08-23T12:11:26Z</time>
      </trkpt>
      <trkpt lat="46.49053" lon="5.35104">
        <ele>234</ele>
        <time>2022-08-23T12:11:27Z</time>
      </trkpt>
      <trkpt lat="46.49063" lon="5.35095">
        <ele>234</ele>
        <time>2022-08-23T12:11:29Z</time>
      </trkpt>
      <trkpt lat="46.49069" lon="5.35089">
        <ele>234</ele>
        <time>2022-08-23T12:11:30Z</time>
      </trkpt>
      <trkpt lat="46.49115" lon="5.35047">
        <ele>233.8</ele>
        <time>2022-08-23T12:11:38Z</time>
      </trkpt>
      <trkpt lat="46.49135" lon="5.35032">
        <ele>233.8</ele>
        <time>2022-08-23T12:11:41Z</time>
      </trkpt>
      <trkpt lat="46.49141" lon="5.35027">
        <ele>233.8</ele>
        <time>2022-08-23T12:11:42Z</time>
      </trkpt>
      <trkpt lat="46.49147" lon="5.35021">
        <ele>233.6</ele>
        <time>2022-08-23T12:11:43Z</time>
      </trkpt>
      <trkpt lat="46.49167" lon="5.35003">
        <ele>233.4</ele>
        <time>2022-08-23T12:11:46Z</time>
      </trkpt>
      <trkpt lat="46.49184" lon="5.34987">
        <ele>233.2</ele>
        <time>2022-08-23T12:11:49Z</time>
      </trkpt>
      <trkpt lat="46.49196" lon="5.34972">
        <ele>233</ele>
        <time>2022-08-23T12:11:51Z</time>
      </trkpt>
      <trkpt lat="46.492" lon="5.34965">
        <ele>233</ele>
        <time>2022-08-23T12:11:52Z</time>
      </trkpt>
      <trkpt lat="46.49215" lon="5.34941">
        <ele>232.8</ele>
        <time>2022-08-23T12:11:55Z</time>
      </trkpt>
      <trkpt lat="46.49226" lon="5.34927">
        <ele>232.8</ele>
        <time>2022-08-23T12:11:57Z</time>
      </trkpt>
      <trkpt lat="46.49238" lon="5.34907">
        <ele>232.4</ele>
        <time>2022-08-23T12:12:00Z</time>
      </trkpt>
      <trkpt lat="46.4927" lon="5.3486">
        <ele>232.4</ele>
        <time>2022-08-23T12:12:07Z</time>
      </trkpt>
      <trkpt lat="46.49285" lon="5.34847">
        <ele>232.6</ele>
        <time>2022-08-23T12:12:10Z</time>
      </trkpt>
      <trkpt lat="46.49295" lon="5.34841">
        <ele>233</ele>
        <time>2022-08-23T12:12:12Z</time>
      </trkpt>
      <trkpt lat="46.49303" lon="5.34838">
        <ele>233</ele>
        <time>2022-08-23T12:12:13Z</time>
      </trkpt>
      <trkpt lat="46.49322" lon="5.34833">
        <ele>232.6</ele>
        <time>2022-08-23T12:12:16Z</time>
      </trkpt>
      <trkpt lat="46.4937" lon="5.34824">
        <ele>232.4</ele>
        <time>2022-08-23T12:12:23Z</time>
      </trkpt>
      <trkpt lat="46.49376" lon="5.34822">
        <ele>232.4</ele>
        <time>2022-08-23T12:12:24Z</time>
      </trkpt>
      <trkpt lat="46.49413" lon="5.34806">
        <ele>232.4</ele>
        <time>2022-08-23T12:12:30Z</time>
      </trkpt>
      <trkpt lat="46.49418" lon="5.34801">
        <ele>232.4</ele>
        <time>2022-08-23T12:12:31Z</time>
      </trkpt>
      <trkpt lat="46.4944" lon="5.34781">
        <ele>232.6</ele>
        <time>2022-08-23T12:12:35Z</time>
      </trkpt>
      <trkpt lat="46.49471" lon="5.34747">
        <ele>231.8</ele>
        <time>2022-08-23T12:12:40Z</time>
      </trkpt>
      <trkpt lat="46.49478" lon="5.34739">
        <ele>231.4</ele>
        <time>2022-08-23T12:12:41Z</time>
      </trkpt>
      <trkpt lat="46.49501" lon="5.34715">
        <ele>230.6</ele>
        <time>2022-08-23T12:12:44Z</time>
      </trkpt>
      <trkpt lat="46.49515" lon="5.34698">
        <ele>230.2</ele>
        <time>2022-08-23T12:12:46Z</time>
      </trkpt>
      <trkpt lat="46.49538" lon="5.3467">
        <ele>228.6</ele>
        <time>2022-08-23T12:12:49Z</time>
      </trkpt>
      <trkpt lat="46.49562" lon="5.34643">
        <ele>227.2</ele>
        <time>2022-08-23T12:12:52Z</time>
      </trkpt>
      <trkpt lat="46.49584" lon="5.34611">
        <ele>226.4</ele>
        <time>2022-08-23T12:12:55Z</time>
      </trkpt>
      <trkpt lat="46.49592" lon="5.34602">
        <ele>226</ele>
        <time>2022-08-23T12:12:56Z</time>
      </trkpt>
      <trkpt lat="46.49599" lon="5.3459">
        <ele>226</ele>
        <time>2022-08-23T12:12:57Z</time>
      </trkpt>
      <trkpt lat="46.49611" lon="5.3457">
        <ele>225</ele>
        <time>2022-08-23T12:12:59Z</time>
      </trkpt>
      <trkpt lat="46.49617" lon="5.34561">
        <ele>224.2</ele>
        <time>2022-08-23T12:13:00Z</time>
      </trkpt>
      <trkpt lat="46.49623" lon="5.34553">
        <ele>223.8</ele>
        <time>2022-08-23T12:13:01Z</time>
      </trkpt>
      <trkpt lat="46.49635" lon="5.34542">
        <ele>222.4</ele>
        <time>2022-08-23T12:13:03Z</time>
      </trkpt>
      <trkpt lat="46.49639" lon="5.3454">
        <ele>222.2</ele>
        <time>2022-08-23T12:13:04Z</time>
      </trkpt>
      <trkpt lat="46.49645" lon="5.34537">
        <ele>221.2</ele>
        <time>2022-08-23T12:13:06Z</time>
      </trkpt>
      <trkpt lat="46.49647" lon="5.34535">
        <ele>220.8</ele>
        <time>2022-08-23T12:13:07Z</time>
      </trkpt>
      <trkpt lat="46.49655" lon="5.34515">
        <ele>220.4</ele>
        <time>2022-08-23T12:13:11Z</time>
      </trkpt>
      <trkpt lat="46.49666" lon="5.34476">
        <ele>220.4</ele>
        <time>2022-08-23T12:13:17Z</time>
      </trkpt>
      <trkpt lat="46.49668" lon="5.34468">
        <ele>220.6</ele>
        <time>2022-08-23T12:13:18Z</time>
      </trkpt>
      <trkpt lat="46.49683" lon="5.34419">
        <ele>221.4</ele>
        <time>2022-08-23T12:13:25Z</time>
      </trkpt>
      <trkpt lat="46.49693" lon="5.34387">
        <ele>222.2</ele>
        <time>2022-08-23T12:13:30Z</time>
      </trkpt>
      <trkpt lat="46.49698" lon="5.34369">
        <ele>223.4</ele>
        <time>2022-08-23T12:13:33Z</time>
      </trkpt>
      <trkpt lat="46.4971" lon="5.34326">
        <ele>224.2</ele>
        <time>2022-08-23T12:13:40Z</time>
      </trkpt>
      <trkpt lat="46.49715" lon="5.34314">
        <ele>224.6</ele>
        <time>2022-08-23T12:13:42Z</time>
      </trkpt>
      <trkpt lat="46.49731" lon="5.34281">
        <ele>225</ele>
        <time>2022-08-23T12:13:47Z</time>
      </trkpt>
      <trkpt lat="46.49758" lon="5.34233">
        <ele>225</ele>
        <time>2022-08-23T12:13:54Z</time>
      </trkpt>
      <trkpt lat="46.4979" lon="5.34181">
        <ele>225</ele>
        <time>2022-08-23T12:14:02Z</time>
      </trkpt>
      <trkpt lat="46.49818" lon="5.34135">
        <ele>225.4</ele>
        <time>2022-08-23T12:14:09Z</time>
      </trkpt>
      <trkpt lat="46.49827" lon="5.34122">
        <ele>225.8</ele>
        <time>2022-08-23T12:14:11Z</time>
      </trkpt>
      <trkpt lat="46.49849" lon="5.34087">
        <ele>226</ele>
        <time>2022-08-23T12:14:16Z</time>
      </trkpt>
      <trkpt lat="46.49885" lon="5.34039">
        <ele>225.6</ele>
        <time>2022-08-23T12:14:23Z</time>
      </trkpt>
      <trkpt lat="46.49915" lon="5.34007">
        <ele>225.4</ele>
        <time>2022-08-23T12:14:29Z</time>
      </trkpt>
      <trkpt lat="46.49947" lon="5.33973">
        <ele>226.8</ele>
        <time>2022-08-23T12:14:36Z</time>
      </trkpt>
      <trkpt lat="46.49969" lon="5.33948">
        <ele>227.4</ele>
        <time>2022-08-23T12:14:41Z</time>
      </trkpt>
      <trkpt lat="46.49979" lon="5.33939">
        <ele>227.6</ele>
        <time>2022-08-23T12:14:43Z</time>
      </trkpt>
      <trkpt lat="46.49983" lon="5.33934">
        <ele>227.6</ele>
        <time>2022-08-23T12:14:44Z</time>
      </trkpt>
      <trkpt lat="46.49988" lon="5.33929">
        <ele>228.2</ele>
        <time>2022-08-23T12:14:45Z</time>
      </trkpt>
      <trkpt lat="46.50002" lon="5.33912">
        <ele>228.6</ele>
        <time>2022-08-23T12:14:48Z</time>
      </trkpt>
      <trkpt lat="46.50028" lon="5.33883">
        <ele>228.6</ele>
        <time>2022-08-23T12:14:53Z</time>
      </trkpt>
      <trkpt lat="46.50039" lon="5.33871">
        <ele>228.6</ele>
        <time>2022-08-23T12:14:55Z</time>
      </trkpt>
      <trkpt lat="46.50073" lon="5.33832">
        <ele>228.4</ele>
        <time>2022-08-23T12:15:01Z</time>
      </trkpt>
      <trkpt lat="46.50111" lon="5.33791">
        <ele>226.8</ele>
        <time>2022-08-23T12:15:07Z</time>
      </trkpt>
      <trkpt lat="46.50117" lon="5.33784">
        <ele>226.6</ele>
        <time>2022-08-23T12:15:08Z</time>
      </trkpt>
      <trkpt lat="46.50148" lon="5.3375">
        <ele>226.2</ele>
        <time>2022-08-23T12:15:13Z</time>
      </trkpt>
      <trkpt lat="46.50177" lon="5.33722">
        <ele>226.2</ele>
        <time>2022-08-23T12:15:18Z</time>
      </trkpt>
      <trkpt lat="46.5021" lon="5.33688">
        <ele>226.6</ele>
        <time>2022-08-23T12:15:24Z</time>
      </trkpt>
      <trkpt lat="46.50243" lon="5.33652">
        <ele>226.8</ele>
        <time>2022-08-23T12:15:30Z</time>
      </trkpt>
      <trkpt lat="46.50287" lon="5.33602">
        <ele>225.8</ele>
        <time>2022-08-23T12:15:38Z</time>
      </trkpt>
      <trkpt lat="46.50299" lon="5.33589">
        <ele>225.6</ele>
        <time>2022-08-23T12:15:40Z</time>
      </trkpt>
      <trkpt lat="46.50305" lon="5.33583">
        <ele>225.4</ele>
        <time>2022-08-23T12:15:41Z</time>
      </trkpt>
      <trkpt lat="46.50352" lon="5.33531">
        <ele>225.2</ele>
        <time>2022-08-23T12:15:49Z</time>
      </trkpt>
      <trkpt lat="46.50399" lon="5.33481">
        <ele>224.8</ele>
        <time>2022-08-23T12:15:57Z</time>
      </trkpt>
      <trkpt lat="46.50417" lon="5.3346">
        <ele>224.2</ele>
        <time>2022-08-23T12:16:00Z</time>
      </trkpt>
      <trkpt lat="46.50449" lon="5.33415">
        <ele>223.4</ele>
        <time>2022-08-23T12:16:06Z</time>
      </trkpt>
      <trkpt lat="46.50454" lon="5.33406">
        <ele>223.2</ele>
        <time>2022-08-23T12:16:07Z</time>
      </trkpt>
      <trkpt lat="46.50463" lon="5.33376">
        <ele>223</ele>
        <time>2022-08-23T12:16:10Z</time>
      </trkpt>
      <trkpt lat="46.50467" lon="5.33345">
        <ele>222.6</ele>
        <time>2022-08-23T12:16:13Z</time>
      </trkpt>
      <trkpt lat="46.50467" lon="5.33323">
        <ele>222.6</ele>
        <time>2022-08-23T12:16:15Z</time>
      </trkpt>
      <trkpt lat="46.5047" lon="5.33276">
        <ele>222.4</ele>
        <time>2022-08-23T12:16:20Z</time>
      </trkpt>
      <trkpt lat="46.50471" lon="5.33259">
        <ele>222.4</ele>
        <time>2022-08-23T12:16:22Z</time>
      </trkpt>
      <trkpt lat="46.50471" lon="5.3325">
        <ele>222.4</ele>
        <time>2022-08-23T12:16:23Z</time>
      </trkpt>
      <trkpt lat="46.50471" lon="5.33242">
        <ele>222.4</ele>
        <time>2022-08-23T12:16:24Z</time>
      </trkpt>
      <trkpt lat="46.50472" lon="5.33197">
        <ele>223</ele>
        <time>2022-08-23T12:16:29Z</time>
      </trkpt>
      <trkpt lat="46.50472" lon="5.33167">
        <ele>223</ele>
        <time>2022-08-23T12:16:32Z</time>
      </trkpt>
      <trkpt lat="46.50471" lon="5.33133">
        <ele>223</ele>
        <time>2022-08-23T12:16:35Z</time>
      </trkpt>
      <trkpt lat="46.50473" lon="5.33057">
        <ele>222.2</ele>
        <time>2022-08-23T12:16:41Z</time>
      </trkpt>
      <trkpt lat="46.50473" lon="5.33043">
        <ele>222</ele>
        <time>2022-08-23T12:16:42Z</time>
      </trkpt>
      <trkpt lat="46.50473" lon="5.33001">
        <ele>220.4</ele>
        <time>2022-08-23T12:16:45Z</time>
      </trkpt>
      <trkpt lat="46.50474" lon="5.32957">
        <ele>219.4</ele>
        <time>2022-08-23T12:16:48Z</time>
      </trkpt>
      <trkpt lat="46.50474" lon="5.32928">
        <ele>218</ele>
        <time>2022-08-23T12:16:50Z</time>
      </trkpt>
      <trkpt lat="46.50474" lon="5.3287">
        <ele>216.8</ele>
        <time>2022-08-23T12:16:54Z</time>
      </trkpt>
      <trkpt lat="46.50475" lon="5.32856">
        <ele>216.6</ele>
        <time>2022-08-23T12:16:55Z</time>
      </trkpt>
      <trkpt lat="46.50475" lon="5.32828">
        <ele>215.8</ele>
        <time>2022-08-23T12:16:57Z</time>
      </trkpt>
      <trkpt lat="46.50476" lon="5.328">
        <ele>214.4</ele>
        <time>2022-08-23T12:16:59Z</time>
      </trkpt>
      <trkpt lat="46.50477" lon="5.32775">
        <ele>213.4</ele>
        <time>2022-08-23T12:17:01Z</time>
      </trkpt>
      <trkpt lat="46.50477" lon="5.32762">
        <ele>213.2</ele>
        <time>2022-08-23T12:17:02Z</time>
      </trkpt>
      <trkpt lat="46.50477" lon="5.32727">
        <ele>212.2</ele>
        <time>2022-08-23T12:17:05Z</time>
      </trkpt>
      <trkpt lat="46.50479" lon="5.32668">
        <ele>211.4</ele>
        <time>2022-08-23T12:17:10Z</time>
      </trkpt>
      <trkpt lat="46.50479" lon="5.32657">
        <ele>211.2</ele>
        <time>2022-08-23T12:17:11Z</time>
      </trkpt>
      <trkpt lat="46.50478" lon="5.32588">
        <ele>210</ele>
        <time>2022-08-23T12:17:17Z</time>
      </trkpt>
      <trkpt lat="46.50475" lon="5.32542">
        <ele>209.2</ele>
        <time>2022-08-23T12:17:21Z</time>
      </trkpt>
      <trkpt lat="46.50474" lon="5.32519">
        <ele>208.8</ele>
        <time>2022-08-23T12:17:23Z</time>
      </trkpt>
      <trkpt lat="46.50467" lon="5.32443">
        <ele>207.8</ele>
        <time>2022-08-23T12:17:30Z</time>
      </trkpt>
      <trkpt lat="46.50466" lon="5.32433">
        <ele>207.8</ele>
        <time>2022-08-23T12:17:31Z</time>
      </trkpt>
      <trkpt lat="46.5045" lon="5.32359">
        <ele>206.8</ele>
        <time>2022-08-23T12:17:38Z</time>
      </trkpt>
      <trkpt lat="46.50448" lon="5.32349">
        <ele>206.6</ele>
        <time>2022-08-23T12:17:39Z</time>
      </trkpt>
      <trkpt lat="46.50433" lon="5.32269">
        <ele>206.2</ele>
        <time>2022-08-23T12:17:47Z</time>
      </trkpt>
      <trkpt lat="46.50432" lon="5.32259">
        <ele>206.4</ele>
        <time>2022-08-23T12:17:48Z</time>
      </trkpt>
      <trkpt lat="46.50432" lon="5.32217">
        <ele>206.4</ele>
        <time>2022-08-23T12:17:52Z</time>
      </trkpt>
      <trkpt lat="46.50433" lon="5.32208">
        <ele>206.4</ele>
        <time>2022-08-23T12:17:53Z</time>
      </trkpt>
      <trkpt lat="46.50437" lon="5.322">
        <ele>206.4</ele>
        <time>2022-08-23T12:17:54Z</time>
      </trkpt>
      <trkpt lat="46.50448" lon="5.32188">
        <ele>206.4</ele>
        <time>2022-08-23T12:17:56Z</time>
      </trkpt>
      <trkpt lat="46.50459" lon="5.32177">
        <ele>206.2</ele>
        <time>2022-08-23T12:17:58Z</time>
      </trkpt>
      <trkpt lat="46.50467" lon="5.32161">
        <ele>206.2</ele>
        <time>2022-08-23T12:18:00Z</time>
      </trkpt>
      <trkpt lat="46.5048" lon="5.32117">
        <ele>206.2</ele>
        <time>2022-08-23T12:18:05Z</time>
      </trkpt>
      <trkpt lat="46.50501" lon="5.32068">
        <ele>206.6</ele>
        <time>2022-08-23T12:18:11Z</time>
      </trkpt>
      <trkpt lat="46.50535" lon="5.32014">
        <ele>206.8</ele>
        <time>2022-08-23T12:18:19Z</time>
      </trkpt>
      <trkpt lat="46.50554" lon="5.31985">
        <ele>207</ele>
        <time>2022-08-23T12:18:24Z</time>
      </trkpt>
      <trkpt lat="46.50557" lon="5.31979">
        <ele>207.2</ele>
        <time>2022-08-23T12:18:25Z</time>
      </trkpt>
      <trkpt lat="46.50567" lon="5.31947">
        <ele>208</ele>
        <time>2022-08-23T12:18:30Z</time>
      </trkpt>
      <trkpt lat="46.5057" lon="5.31942">
        <ele>208.2</ele>
        <time>2022-08-23T12:18:31Z</time>
      </trkpt>
      <trkpt lat="46.50572" lon="5.31936">
        <ele>208.2</ele>
        <time>2022-08-23T12:18:32Z</time>
      </trkpt>
      <trkpt lat="46.50578" lon="5.31914">
        <ele>209</ele>
        <time>2022-08-23T12:18:36Z</time>
      </trkpt>
      <trkpt lat="46.5058" lon="5.31909">
        <ele>209.4</ele>
        <time>2022-08-23T12:18:37Z</time>
      </trkpt>
      <trkpt lat="46.50589" lon="5.31886">
        <ele>210.6</ele>
        <time>2022-08-23T12:18:41Z</time>
      </trkpt>
      <trkpt lat="46.50593" lon="5.31875">
        <ele>211</ele>
        <time>2022-08-23T12:18:43Z</time>
      </trkpt>
      <trkpt lat="46.50595" lon="5.3187">
        <ele>211.2</ele>
        <time>2022-08-23T12:18:44Z</time>
      </trkpt>
      <trkpt lat="46.50602" lon="5.31853">
        <ele>211.6</ele>
        <time>2022-08-23T12:18:47Z</time>
      </trkpt>
      <trkpt lat="46.50608" lon="5.31836">
        <ele>212.2</ele>
        <time>2022-08-23T12:18:50Z</time>
      </trkpt>
      <trkpt lat="46.5061" lon="5.3183">
        <ele>212.8</ele>
        <time>2022-08-23T12:18:51Z</time>
      </trkpt>
      <trkpt lat="46.50616" lon="5.31814">
        <ele>213.6</ele>
        <time>2022-08-23T12:18:54Z</time>
      </trkpt>
      <trkpt lat="46.50618" lon="5.31808">
        <ele>213.8</ele>
        <time>2022-08-23T12:18:55Z</time>
      </trkpt>
      <trkpt lat="46.5062" lon="5.31803">
        <ele>214</ele>
        <time>2022-08-23T12:18:56Z</time>
      </trkpt>
      <trkpt lat="46.5063" lon="5.31775">
        <ele>215</ele>
        <time>2022-08-23T12:19:01Z</time>
      </trkpt>
      <trkpt lat="46.50635" lon="5.31762">
        <ele>215.4</ele>
        <time>2022-08-23T12:19:03Z</time>
      </trkpt>
      <trkpt lat="46.50647" lon="5.31737">
        <ele>215.6</ele>
        <time>2022-08-23T12:19:07Z</time>
      </trkpt>
      <trkpt lat="46.50655" lon="5.31726">
        <ele>215.6</ele>
        <time>2022-08-23T12:19:09Z</time>
      </trkpt>
      <trkpt lat="46.50664" lon="5.31719">
        <ele>215.6</ele>
        <time>2022-08-23T12:19:11Z</time>
      </trkpt>
      <trkpt lat="46.50675" lon="5.31715">
        <ele>215.6</ele>
        <time>2022-08-23T12:19:13Z</time>
      </trkpt>
      <trkpt lat="46.50714" lon="5.31709">
        <ele>215.8</ele>
        <time>2022-08-23T12:19:20Z</time>
      </trkpt>
      <trkpt lat="46.50763" lon="5.31704">
        <ele>216.2</ele>
        <time>2022-08-23T12:19:28Z</time>
      </trkpt>
      <trkpt lat="46.50775" lon="5.31707">
        <ele>216.2</ele>
        <time>2022-08-23T12:19:30Z</time>
      </trkpt>
      <trkpt lat="46.50781" lon="5.3171">
        <ele>216.2</ele>
        <time>2022-08-23T12:19:31Z</time>
      </trkpt>
      <trkpt lat="46.50787" lon="5.31714">
        <ele>216.2</ele>
        <time>2022-08-23T12:19:32Z</time>
      </trkpt>
      <trkpt lat="46.50823" lon="5.31742">
        <ele>216.2</ele>
        <time>2022-08-23T12:19:39Z</time>
      </trkpt>
      <trkpt lat="46.50834" lon="5.31747">
        <ele>216.4</ele>
        <time>2022-08-23T12:19:41Z</time>
      </trkpt>
      <trkpt lat="46.50843" lon="5.31746">
        <ele>216.4</ele>
        <time>2022-08-23T12:19:43Z</time>
      </trkpt>
      <trkpt lat="46.50861" lon="5.31732">
        <ele>216.6</ele>
        <time>2022-08-23T12:19:47Z</time>
      </trkpt>
      <trkpt lat="46.50865" lon="5.31727">
        <ele>217</ele>
        <time>2022-08-23T12:19:48Z</time>
      </trkpt>
      <trkpt lat="46.50884" lon="5.31707">
        <ele>217.4</ele>
        <time>2022-08-23T12:19:52Z</time>
      </trkpt>
      <trkpt lat="46.50904" lon="5.31686">
        <ele>217.4</ele>
        <time>2022-08-23T12:19:56Z</time>
      </trkpt>
      <trkpt lat="46.50941" lon="5.31648">
        <ele>217</ele>
        <time>2022-08-23T12:20:02Z</time>
      </trkpt>
      <trkpt lat="46.50973" lon="5.31615">
        <ele>216.2</ele>
        <time>2022-08-23T12:20:07Z</time>
      </trkpt>
      <trkpt lat="46.5099" lon="5.31597">
        <ele>216</ele>
        <time>2022-08-23T12:20:10Z</time>
      </trkpt>
      <trkpt lat="46.51026" lon="5.31557">
        <ele>216</ele>
        <time>2022-08-23T12:20:17Z</time>
      </trkpt>
      <trkpt lat="46.51031" lon="5.3155">
        <ele>216</ele>
        <time>2022-08-23T12:20:18Z</time>
      </trkpt>
      <trkpt lat="46.51038" lon="5.31533">
        <ele>216</ele>
        <time>2022-08-23T12:20:20Z</time>
      </trkpt>
      <trkpt lat="46.5104" lon="5.31524">
        <ele>216</ele>
        <time>2022-08-23T12:20:21Z</time>
      </trkpt>
      <trkpt lat="46.51056" lon="5.31459">
        <ele>216</ele>
        <time>2022-08-23T12:20:27Z</time>
      </trkpt>
      <trkpt lat="46.51064" lon="5.31424">
        <ele>215</ele>
        <time>2022-08-23T12:20:30Z</time>
      </trkpt>
      <trkpt lat="46.5107" lon="5.31388">
        <ele>214.4</ele>
        <time>2022-08-23T12:20:33Z</time>
      </trkpt>
      <trkpt lat="46.51071" lon="5.31376">
        <ele>214.2</ele>
        <time>2022-08-23T12:20:34Z</time>
      </trkpt>
      <trkpt lat="46.51071" lon="5.31364">
        <ele>214</ele>
        <time>2022-08-23T12:20:35Z</time>
      </trkpt>
      <trkpt lat="46.5107" lon="5.31341">
        <ele>213.4</ele>
        <time>2022-08-23T12:20:37Z</time>
      </trkpt>
      <trkpt lat="46.5107" lon="5.31329">
        <ele>213.2</ele>
        <time>2022-08-23T12:20:38Z</time>
      </trkpt>
      <trkpt lat="46.51071" lon="5.31317">
        <ele>212.8</ele>
        <time>2022-08-23T12:20:39Z</time>
      </trkpt>
      <trkpt lat="46.51074" lon="5.31306">
        <ele>212.8</ele>
        <time>2022-08-23T12:20:40Z</time>
      </trkpt>
      <trkpt lat="46.51085" lon="5.31283">
        <ele>212</ele>
        <time>2022-08-23T12:20:42Z</time>
      </trkpt>
      <trkpt lat="46.51093" lon="5.31275">
        <ele>212</ele>
        <time>2022-08-23T12:20:43Z</time>
      </trkpt>
      <trkpt lat="46.51101" lon="5.31266">
        <ele>211.6</ele>
        <time>2022-08-23T12:20:44Z</time>
      </trkpt>
      <trkpt lat="46.51117" lon="5.31251">
        <ele>211.2</ele>
        <time>2022-08-23T12:20:46Z</time>
      </trkpt>
      <trkpt lat="46.51132" lon="5.31233">
        <ele>210</ele>
        <time>2022-08-23T12:20:48Z</time>
      </trkpt>
      <trkpt lat="46.51161" lon="5.31199">
        <ele>209</ele>
        <time>2022-08-23T12:20:52Z</time>
      </trkpt>
      <trkpt lat="46.51181" lon="5.31173">
        <ele>207.8</ele>
        <time>2022-08-23T12:20:55Z</time>
      </trkpt>
      <trkpt lat="46.51214" lon="5.31135">
        <ele>206.8</ele>
        <time>2022-08-23T12:21:00Z</time>
      </trkpt>
      <trkpt lat="46.51221" lon="5.31126">
        <ele>206.8</ele>
        <time>2022-08-23T12:21:01Z</time>
      </trkpt>
      <trkpt lat="46.51241" lon="5.311">
        <ele>206.6</ele>
        <time>2022-08-23T12:21:04Z</time>
      </trkpt>
      <trkpt lat="46.51256" lon="5.31089">
        <ele>206.4</ele>
        <time>2022-08-23T12:21:06Z</time>
      </trkpt>
      <trkpt lat="46.51282" lon="5.31083">
        <ele>205.8</ele>
        <time>2022-08-23T12:21:09Z</time>
      </trkpt>
      <trkpt lat="46.5129" lon="5.31083">
        <ele>205.6</ele>
        <time>2022-08-23T12:21:10Z</time>
      </trkpt>
      <trkpt lat="46.5135" lon="5.31079">
        <ele>204.6</ele>
        <time>2022-08-23T12:21:18Z</time>
      </trkpt>
      <trkpt lat="46.51404" lon="5.31076">
        <ele>204.8</ele>
        <time>2022-08-23T12:21:26Z</time>
      </trkpt>
      <trkpt lat="46.51464" lon="5.31072">
        <ele>205</ele>
        <time>2022-08-23T12:21:35Z</time>
      </trkpt>
      <trkpt lat="46.51524" lon="5.31075">
        <ele>204.8</ele>
        <time>2022-08-23T12:21:44Z</time>
      </trkpt>
      <trkpt lat="46.51581" lon="5.3108">
        <ele>204.8</ele>
        <time>2022-08-23T12:21:53Z</time>
      </trkpt>
      <trkpt lat="46.51627" lon="5.311">
        <ele>205.2</ele>
        <time>2022-08-23T12:22:01Z</time>
      </trkpt>
      <trkpt lat="46.51637" lon="5.31105">
        <ele>205.4</ele>
        <time>2022-08-23T12:22:03Z</time>
      </trkpt>
      <trkpt lat="46.51646" lon="5.31106">
        <ele>205.6</ele>
        <time>2022-08-23T12:22:05Z</time>
      </trkpt>
      <trkpt lat="46.51651" lon="5.31105">
        <ele>206</ele>
        <time>2022-08-23T12:22:06Z</time>
      </trkpt>
      <trkpt lat="46.51661" lon="5.31103">
        <ele>206</ele>
        <time>2022-08-23T12:22:08Z</time>
      </trkpt>
      <trkpt lat="46.5167" lon="5.31107">
        <ele>206.6</ele>
        <time>2022-08-23T12:22:10Z</time>
      </trkpt>
      <trkpt lat="46.51678" lon="5.31117">
        <ele>206.8</ele>
        <time>2022-08-23T12:22:12Z</time>
      </trkpt>
      <trkpt lat="46.51682" lon="5.31124">
        <ele>207</ele>
        <time>2022-08-23T12:22:13Z</time>
      </trkpt>
      <trkpt lat="46.51685" lon="5.31131">
        <ele>207</ele>
        <time>2022-08-23T12:22:14Z</time>
      </trkpt>
      <trkpt lat="46.51689" lon="5.31138">
        <ele>207</ele>
        <time>2022-08-23T12:22:15Z</time>
      </trkpt>
      <trkpt lat="46.51704" lon="5.31157">
        <ele>207.2</ele>
        <time>2022-08-23T12:22:18Z</time>
      </trkpt>
      <trkpt lat="46.51723" lon="5.31171">
        <ele>207</ele>
        <time>2022-08-23T12:22:21Z</time>
      </trkpt>
      <trkpt lat="46.5173" lon="5.31175">
        <ele>207</ele>
        <time>2022-08-23T12:22:22Z</time>
      </trkpt>
      <trkpt lat="46.51737" lon="5.31177">
        <ele>207</ele>
        <time>2022-08-23T12:22:23Z</time>
      </trkpt>
      <trkpt lat="46.51768" lon="5.31181">
        <ele>206.2</ele>
        <time>2022-08-23T12:22:27Z</time>
      </trkpt>
      <trkpt lat="46.51802" lon="5.31182">
        <ele>205.4</ele>
        <time>2022-08-23T12:22:31Z</time>
      </trkpt>
      <trkpt lat="46.51829" lon="5.31186">
        <ele>204</ele>
        <time>2022-08-23T12:22:34Z</time>
      </trkpt>
      <trkpt lat="46.51837" lon="5.31189">
        <ele>203.8</ele>
        <time>2022-08-23T12:22:35Z</time>
      </trkpt>
      <trkpt lat="46.51852" lon="5.31199">
        <ele>203</ele>
        <time>2022-08-23T12:22:37Z</time>
      </trkpt>
      <trkpt lat="46.51859" lon="5.31205">
        <ele>202.4</ele>
        <time>2022-08-23T12:22:38Z</time>
      </trkpt>
      <trkpt lat="46.51873" lon="5.31219">
        <ele>201.4</ele>
        <time>2022-08-23T12:22:40Z</time>
      </trkpt>
      <trkpt lat="46.51885" lon="5.31236">
        <ele>200.8</ele>
        <time>2022-08-23T12:22:42Z</time>
      </trkpt>
      <trkpt lat="46.51896" lon="5.31253">
        <ele>200.4</ele>
        <time>2022-08-23T12:22:44Z</time>
      </trkpt>
      <trkpt lat="46.51916" lon="5.31285">
        <ele>199.8</ele>
        <time>2022-08-23T12:22:48Z</time>
      </trkpt>
      <trkpt lat="46.51942" lon="5.31324">
        <ele>199.4</ele>
        <time>2022-08-23T12:22:53Z</time>
      </trkpt>
      <trkpt lat="46.51962" lon="5.31354">
        <ele>199.4</ele>
        <time>2022-08-23T12:22:57Z</time>
      </trkpt>
      <trkpt lat="46.52001" lon="5.31412">
        <ele>199.6</ele>
        <time>2022-08-23T12:23:05Z</time>
      </trkpt>
      <trkpt lat="46.52011" lon="5.31426">
        <ele>199.8</ele>
        <time>2022-08-23T12:23:07Z</time>
      </trkpt>
      <trkpt lat="46.52042" lon="5.31472">
        <ele>200.6</ele>
        <time>2022-08-23T12:23:14Z</time>
      </trkpt>
      <trkpt lat="46.52047" lon="5.31478">
        <ele>200.8</ele>
        <time>2022-08-23T12:23:15Z</time>
      </trkpt>
      <trkpt lat="46.52071" lon="5.31513">
        <ele>201.6</ele>
        <time>2022-08-23T12:23:21Z</time>
      </trkpt>
      <trkpt lat="46.52079" lon="5.31525">
        <ele>202.2</ele>
        <time>2022-08-23T12:23:23Z</time>
      </trkpt>
      <trkpt lat="46.5209" lon="5.31542">
        <ele>203</ele>
        <time>2022-08-23T12:23:26Z</time>
      </trkpt>
      <trkpt lat="46.52102" lon="5.31558">
        <ele>203.4</ele>
        <time>2022-08-23T12:23:29Z</time>
      </trkpt>
      <trkpt lat="46.52109" lon="5.31569">
        <ele>204</ele>
        <time>2022-08-23T12:23:31Z</time>
      </trkpt>
      <trkpt lat="46.52132" lon="5.31602">
        <ele>205.2</ele>
        <time>2022-08-23T12:23:37Z</time>
      </trkpt>
      <trkpt lat="46.52159" lon="5.3164">
        <ele>206.4</ele>
        <time>2022-08-23T12:23:44Z</time>
      </trkpt>
      <trkpt lat="46.52167" lon="5.31651">
        <ele>206.6</ele>
        <time>2022-08-23T12:23:46Z</time>
      </trkpt>
      <trkpt lat="46.52184" lon="5.31676">
        <ele>207.4</ele>
        <time>2022-08-23T12:23:51Z</time>
      </trkpt>
      <trkpt lat="46.52195" lon="5.31691">
        <ele>207.8</ele>
        <time>2022-08-23T12:23:54Z</time>
      </trkpt>
      <trkpt lat="46.52227" lon="5.31737">
        <ele>208.6</ele>
        <time>2022-08-23T12:24:03Z</time>
      </trkpt>
      <trkpt lat="46.52234" lon="5.31747">
        <ele>208.8</ele>
        <time>2022-08-23T12:24:05Z</time>
      </trkpt>
      <trkpt lat="46.5226" lon="5.31782">
        <ele>209.6</ele>
        <time>2022-08-23T12:24:12Z</time>
      </trkpt>
      <trkpt lat="46.5227" lon="5.31798">
        <ele>210</ele>
        <time>2022-08-23T12:24:15Z</time>
      </trkpt>
      <trkpt lat="46.52284" lon="5.31818">
        <ele>210.8</ele>
        <time>2022-08-23T12:24:19Z</time>
      </trkpt>
      <trkpt lat="46.52311" lon="5.31857">
        <ele>211.8</ele>
        <time>2022-08-23T12:24:27Z</time>
      </trkpt>
      <trkpt lat="46.52325" lon="5.31876">
        <ele>213</ele>
        <time>2022-08-23T12:24:31Z</time>
      </trkpt>
      <trkpt lat="46.52334" lon="5.3189">
        <ele>213.6</ele>
        <time>2022-08-23T12:24:34Z</time>
      </trkpt>
      <trkpt lat="46.52347" lon="5.3191">
        <ele>214.2</ele>
        <time>2022-08-23T12:24:38Z</time>
      </trkpt>
      <trkpt lat="46.52366" lon="5.31937">
        <ele>214.8</ele>
        <time>2022-08-23T12:24:43Z</time>
      </trkpt>
      <trkpt lat="46.52395" lon="5.31978">
        <ele>215</ele>
        <time>2022-08-23T12:24:49Z</time>
      </trkpt>
      <trkpt lat="46.52435" lon="5.32032">
        <ele>213.4</ele>
        <time>2022-08-23T12:24:56Z</time>
      </trkpt>
      <trkpt lat="46.52441" lon="5.3204">
        <ele>212.8</ele>
        <time>2022-08-23T12:24:57Z</time>
      </trkpt>
      <trkpt lat="46.52476" lon="5.32091">
        <ele>211.6</ele>
        <time>2022-08-23T12:25:03Z</time>
      </trkpt>
      <trkpt lat="46.52506" lon="5.32134">
        <ele>210.4</ele>
        <time>2022-08-23T12:25:08Z</time>
      </trkpt>
      <trkpt lat="46.52519" lon="5.3215">
        <ele>209.8</ele>
        <time>2022-08-23T12:25:10Z</time>
      </trkpt>
      <trkpt lat="46.5254" lon="5.32174">
        <ele>209.2</ele>
        <time>2022-08-23T12:25:13Z</time>
      </trkpt>
      <trkpt lat="46.52554" lon="5.32187">
        <ele>208.4</ele>
        <time>2022-08-23T12:25:15Z</time>
      </trkpt>
      <trkpt lat="46.52562" lon="5.32189">
        <ele>208</ele>
        <time>2022-08-23T12:25:16Z</time>
      </trkpt>
      <trkpt lat="46.52568" lon="5.32187">
        <ele>207.8</ele>
        <time>2022-08-23T12:25:17Z</time>
      </trkpt>
      <trkpt lat="46.52578" lon="5.32173">
        <ele>207.2</ele>
        <time>2022-08-23T12:25:19Z</time>
      </trkpt>
      <trkpt lat="46.52582" lon="5.32164">
        <ele>206.6</ele>
        <time>2022-08-23T12:25:20Z</time>
      </trkpt>
      <trkpt lat="46.52601" lon="5.32121">
        <ele>205.8</ele>
        <time>2022-08-23T12:25:26Z</time>
      </trkpt>
      <trkpt lat="46.52622" lon="5.32072">
        <ele>206.6</ele>
        <time>2022-08-23T12:25:34Z</time>
      </trkpt>
      <trkpt lat="46.52641" lon="5.3202">
        <ele>207.8</ele>
        <time>2022-08-23T12:25:43Z</time>
      </trkpt>
      <trkpt lat="46.52643" lon="5.32015">
        <ele>208</ele>
        <time>2022-08-23T12:25:44Z</time>
      </trkpt>
      <trkpt lat="46.52654" lon="5.31982">
        <ele>209</ele>
        <time>2022-08-23T12:25:50Z</time>
      </trkpt>
      <trkpt lat="46.52655" lon="5.31976">
        <ele>209.2</ele>
        <time>2022-08-23T12:25:51Z</time>
      </trkpt>
      <trkpt lat="46.52659" lon="5.31961">
        <ele>210.2</ele>
        <time>2022-08-23T12:25:54Z</time>
      </trkpt>
      <trkpt lat="46.52665" lon="5.31935">
        <ele>211.2</ele>
        <time>2022-08-23T12:25:59Z</time>
      </trkpt>
      <trkpt lat="46.52666" lon="5.3193">
        <ele>211.2</ele>
        <time>2022-08-23T12:26:00Z</time>
      </trkpt>
      <trkpt lat="46.52671" lon="5.31909">
        <ele>212</ele>
        <time>2022-08-23T12:26:04Z</time>
      </trkpt>
      <trkpt lat="46.52676" lon="5.31887">
        <ele>213.2</ele>
        <time>2022-08-23T12:26:09Z</time>
      </trkpt>
      <trkpt lat="46.52678" lon="5.31882">
        <ele>213.4</ele>
        <time>2022-08-23T12:26:10Z</time>
      </trkpt>
      <trkpt lat="46.52683" lon="5.31864">
        <ele>214.2</ele>
        <time>2022-08-23T12:26:14Z</time>
      </trkpt>
      <trkpt lat="46.52689" lon="5.31844">
        <ele>215</ele>
        <time>2022-08-23T12:26:18Z</time>
      </trkpt>
      <trkpt lat="46.52693" lon="5.31835">
        <ele>215.2</ele>
        <time>2022-08-23T12:26:20Z</time>
      </trkpt>
      <trkpt lat="46.52707" lon="5.31813">
        <ele>216.4</ele>
        <time>2022-08-23T12:26:25Z</time>
      </trkpt>
      <trkpt lat="46.52718" lon="5.31802">
        <ele>217</ele>
        <time>2022-08-23T12:26:28Z</time>
      </trkpt>
      <trkpt lat="46.52731" lon="5.31794">
        <ele>217.2</ele>
        <time>2022-08-23T12:26:31Z</time>
      </trkpt>
      <trkpt lat="46.52749" lon="5.31784">
        <ele>217.4</ele>
        <time>2022-08-23T12:26:35Z</time>
      </trkpt>
      <trkpt lat="46.52754" lon="5.31782">
        <ele>217.4</ele>
        <time>2022-08-23T12:26:36Z</time>
      </trkpt>
      <trkpt lat="46.52758" lon="5.3178">
        <ele>217.4</ele>
        <time>2022-08-23T12:26:37Z</time>
      </trkpt>
      <trkpt lat="46.52768" lon="5.31776">
        <ele>217.4</ele>
        <time>2022-08-23T12:26:39Z</time>
      </trkpt>
      <trkpt lat="46.52819" lon="5.31753">
        <ele>218.2</ele>
        <time>2022-08-23T12:26:49Z</time>
      </trkpt>
      <trkpt lat="46.52862" lon="5.31735">
        <ele>218.2</ele>
        <time>2022-08-23T12:26:56Z</time>
      </trkpt>
      <trkpt lat="46.52898" lon="5.31725">
        <ele>218</ele>
        <time>2022-08-23T12:27:01Z</time>
      </trkpt>
      <trkpt lat="46.52913" lon="5.31728">
        <ele>218</ele>
        <time>2022-08-23T12:27:03Z</time>
      </trkpt>
      <trkpt lat="46.52927" lon="5.31736">
        <ele>217.8</ele>
        <time>2022-08-23T12:27:05Z</time>
      </trkpt>
      <trkpt lat="46.52954" lon="5.31762">
        <ele>217.4</ele>
        <time>2022-08-23T12:27:10Z</time>
      </trkpt>
      <trkpt lat="46.52967" lon="5.31772">
        <ele>217.4</ele>
        <time>2022-08-23T12:27:12Z</time>
      </trkpt>
      <trkpt lat="46.52981" lon="5.31778">
        <ele>217.4</ele>
        <time>2022-08-23T12:27:14Z</time>
      </trkpt>
      <trkpt lat="46.52996" lon="5.31775">
        <ele>217.4</ele>
        <time>2022-08-23T12:27:16Z</time>
      </trkpt>
      <trkpt lat="46.53002" lon="5.31772">
        <ele>217.4</ele>
        <time>2022-08-23T12:27:17Z</time>
      </trkpt>
      <trkpt lat="46.53008" lon="5.31766">
        <ele>217.4</ele>
        <time>2022-08-23T12:27:18Z</time>
      </trkpt>
      <trkpt lat="46.53017" lon="5.3175">
        <ele>217.4</ele>
        <time>2022-08-23T12:27:20Z</time>
      </trkpt>
      <trkpt lat="46.53038" lon="5.31695">
        <ele>216.8</ele>
        <time>2022-08-23T12:27:26Z</time>
      </trkpt>
      <trkpt lat="46.5305" lon="5.31666">
        <ele>216.4</ele>
        <time>2022-08-23T12:27:29Z</time>
      </trkpt>
      <trkpt lat="46.53056" lon="5.31657">
        <ele>216.4</ele>
        <time>2022-08-23T12:27:30Z</time>
      </trkpt>
      <trkpt lat="46.53063" lon="5.31649">
        <ele>216</ele>
        <time>2022-08-23T12:27:31Z</time>
      </trkpt>
      <trkpt lat="46.53079" lon="5.31638">
        <ele>215.2</ele>
        <time>2022-08-23T12:27:33Z</time>
      </trkpt>
      <trkpt lat="46.53098" lon="5.31629">
        <ele>214.4</ele>
        <time>2022-08-23T12:27:35Z</time>
      </trkpt>
      <trkpt lat="46.53108" lon="5.31625">
        <ele>213.8</ele>
        <time>2022-08-23T12:27:36Z</time>
      </trkpt>
      <trkpt lat="46.53136" lon="5.31613">
        <ele>212.6</ele>
        <time>2022-08-23T12:27:39Z</time>
      </trkpt>
      <trkpt lat="46.53145" lon="5.31608">
        <ele>212.4</ele>
        <time>2022-08-23T12:27:40Z</time>
      </trkpt>
      <trkpt lat="46.53163" lon="5.31602">
        <ele>211.6</ele>
        <time>2022-08-23T12:27:42Z</time>
      </trkpt>
      <trkpt lat="46.53192" lon="5.31591">
        <ele>210.4</ele>
        <time>2022-08-23T12:27:45Z</time>
      </trkpt>
      <trkpt lat="46.53201" lon="5.31587">
        <ele>210</ele>
        <time>2022-08-23T12:27:46Z</time>
      </trkpt>
      <trkpt lat="46.5322" lon="5.31579">
        <ele>209.2</ele>
        <time>2022-08-23T12:27:48Z</time>
      </trkpt>
      <trkpt lat="46.53255" lon="5.31559">
        <ele>207.8</ele>
        <time>2022-08-23T12:27:52Z</time>
      </trkpt>
      <trkpt lat="46.53264" lon="5.31553">
        <ele>206.6</ele>
        <time>2022-08-23T12:27:53Z</time>
      </trkpt>
      <trkpt lat="46.53291" lon="5.3153">
        <ele>205.6</ele>
        <time>2022-08-23T12:27:56Z</time>
      </trkpt>
      <trkpt lat="46.53307" lon="5.31515">
        <ele>204.4</ele>
        <time>2022-08-23T12:27:58Z</time>
      </trkpt>
      <trkpt lat="46.53324" lon="5.31501">
        <ele>203.2</ele>
        <time>2022-08-23T12:28:00Z</time>
      </trkpt>
      <trkpt lat="46.53348" lon="5.3148">
        <ele>202.6</ele>
        <time>2022-08-23T12:28:03Z</time>
      </trkpt>
      <trkpt lat="46.53362" lon="5.31467">
        <ele>202.2</ele>
        <time>2022-08-23T12:28:05Z</time>
      </trkpt>
      <trkpt lat="46.53374" lon="5.31453">
        <ele>202</ele>
        <time>2022-08-23T12:28:07Z</time>
      </trkpt>
      <trkpt lat="46.53379" lon="5.31445">
        <ele>201.8</ele>
        <time>2022-08-23T12:28:08Z</time>
      </trkpt>
      <trkpt lat="46.53384" lon="5.31437">
        <ele>201.8</ele>
        <time>2022-08-23T12:28:09Z</time>
      </trkpt>
      <trkpt lat="46.53399" lon="5.31403">
        <ele>201.8</ele>
        <time>2022-08-23T12:28:13Z</time>
      </trkpt>
      <trkpt lat="46.53411" lon="5.31377">
        <ele>202</ele>
        <time>2022-08-23T12:28:16Z</time>
      </trkpt>
      <trkpt lat="46.53427" lon="5.3134">
        <ele>202</ele>
        <time>2022-08-23T12:28:20Z</time>
      </trkpt>
      <trkpt lat="46.53449" lon="5.31293">
        <ele>201</ele>
        <time>2022-08-23T12:28:25Z</time>
      </trkpt>
      <trkpt lat="46.53461" lon="5.31267">
        <ele>200.6</ele>
        <time>2022-08-23T12:28:28Z</time>
      </trkpt>
      <trkpt lat="46.5348" lon="5.31226">
        <ele>200.4</ele>
        <time>2022-08-23T12:28:33Z</time>
      </trkpt>
      <trkpt lat="46.53482" lon="5.31218">
        <ele>200.4</ele>
        <time>2022-08-23T12:28:34Z</time>
      </trkpt>
      <trkpt lat="46.53487" lon="5.31195">
        <ele>200.4</ele>
        <time>2022-08-23T12:28:37Z</time>
      </trkpt>
      <trkpt lat="46.53489" lon="5.3118">
        <ele>200.4</ele>
        <time>2022-08-23T12:28:39Z</time>
      </trkpt>
      <trkpt lat="46.53496" lon="5.31137">
        <ele>200.8</ele>
        <time>2022-08-23T12:28:45Z</time>
      </trkpt>
      <trkpt lat="46.53501" lon="5.31125">
        <ele>201.2</ele>
        <time>2022-08-23T12:28:47Z</time>
      </trkpt>
      <trkpt lat="46.53507" lon="5.31115">
        <ele>201.8</ele>
        <time>2022-08-23T12:28:49Z</time>
      </trkpt>
      <trkpt lat="46.53519" lon="5.31104">
        <ele>202.2</ele>
        <time>2022-08-23T12:28:52Z</time>
      </trkpt>
      <trkpt lat="46.53533" lon="5.31095">
        <ele>203</ele>
        <time>2022-08-23T12:28:55Z</time>
      </trkpt>
      <trkpt lat="46.53538" lon="5.31093">
        <ele>203.4</ele>
        <time>2022-08-23T12:28:56Z</time>
      </trkpt>
      <trkpt lat="46.53572" lon="5.31073">
        <ele>204.4</ele>
        <time>2022-08-23T12:29:03Z</time>
      </trkpt>
      <trkpt lat="46.53577" lon="5.3107">
        <ele>204.6</ele>
        <time>2022-08-23T12:29:04Z</time>
      </trkpt>
      <trkpt lat="46.53611" lon="5.31049">
        <ele>205</ele>
        <time>2022-08-23T12:29:10Z</time>
      </trkpt>
      <trkpt lat="46.53653" lon="5.31026">
        <ele>204.8</ele>
        <time>2022-08-23T12:29:17Z</time>
      </trkpt>
      <trkpt lat="46.53659" lon="5.31025">
        <ele>204.8</ele>
        <time>2022-08-23T12:29:18Z</time>
      </trkpt>
      <trkpt lat="46.53672" lon="5.31024">
        <ele>204.8</ele>
        <time>2022-08-23T12:29:20Z</time>
      </trkpt>
      <trkpt lat="46.53678" lon="5.31025">
        <ele>204.8</ele>
        <time>2022-08-23T12:29:21Z</time>
      </trkpt>
      <trkpt lat="46.53721" lon="5.31033">
        <ele>204.8</ele>
        <time>2022-08-23T12:29:28Z</time>
      </trkpt>
      <trkpt lat="46.53759" lon="5.31024">
        <ele>204.6</ele>
        <time>2022-08-23T12:29:34Z</time>
      </trkpt>
      <trkpt lat="46.53788" lon="5.31015">
        <ele>204.4</ele>
        <time>2022-08-23T12:29:38Z</time>
      </trkpt>
      <trkpt lat="46.53802" lon="5.31003">
        <ele>204.4</ele>
        <time>2022-08-23T12:29:40Z</time>
      </trkpt>
      <trkpt lat="46.53812" lon="5.30984">
        <ele>203.8</ele>
        <time>2022-08-23T12:29:42Z</time>
      </trkpt>
      <trkpt lat="46.53816" lon="5.30973">
        <ele>203.4</ele>
        <time>2022-08-23T12:29:43Z</time>
      </trkpt>
      <trkpt lat="46.5382" lon="5.30963">
        <ele>203.2</ele>
        <time>2022-08-23T12:29:44Z</time>
      </trkpt>
      <trkpt lat="46.53844" lon="5.30904">
        <ele>202.2</ele>
        <time>2022-08-23T12:29:50Z</time>
      </trkpt>
      <trkpt lat="46.53862" lon="5.3086">
        <ele>201.6</ele>
        <time>2022-08-23T12:29:55Z</time>
      </trkpt>
      <trkpt lat="46.53879" lon="5.30817">
        <ele>202.4</ele>
        <time>2022-08-23T12:30:01Z</time>
      </trkpt>
      <trkpt lat="46.53886" lon="5.30797">
        <ele>202.8</ele>
        <time>2022-08-23T12:30:04Z</time>
      </trkpt>
      <trkpt lat="46.5389" lon="5.3078">
        <ele>203.4</ele>
        <time>2022-08-23T12:30:07Z</time>
      </trkpt>
      <trkpt lat="46.53891" lon="5.30774">
        <ele>203.6</ele>
        <time>2022-08-23T12:30:08Z</time>
      </trkpt>
      <trkpt lat="46.53891" lon="5.30768">
        <ele>203.8</ele>
        <time>2022-08-23T12:30:09Z</time>
      </trkpt>
      <trkpt lat="46.53892" lon="5.30743">
        <ele>204.2</ele>
        <time>2022-08-23T12:30:13Z</time>
      </trkpt>
      <trkpt lat="46.53892" lon="5.30731">
        <ele>204.8</ele>
        <time>2022-08-23T12:30:15Z</time>
      </trkpt>
      <trkpt lat="46.53894" lon="5.30695">
        <ele>205.8</ele>
        <time>2022-08-23T12:30:21Z</time>
      </trkpt>
      <trkpt lat="46.53895" lon="5.30688">
        <ele>206</ele>
        <time>2022-08-23T12:30:22Z</time>
      </trkpt>
      <trkpt lat="46.53902" lon="5.30654">
        <ele>206.8</ele>
        <time>2022-08-23T12:30:27Z</time>
      </trkpt>
      <trkpt lat="46.53903" lon="5.30647">
        <ele>207</ele>
        <time>2022-08-23T12:30:28Z</time>
      </trkpt>
      <trkpt lat="46.53916" lon="5.30608">
        <ele>208</ele>
        <time>2022-08-23T12:30:34Z</time>
      </trkpt>
      <trkpt lat="46.53923" lon="5.3059">
        <ele>208.2</ele>
        <time>2022-08-23T12:30:37Z</time>
      </trkpt>
      <trkpt lat="46.53937" lon="5.30564">
        <ele>208.8</ele>
        <time>2022-08-23T12:30:42Z</time>
      </trkpt>
      <trkpt lat="46.53941" lon="5.3056">
        <ele>209.2</ele>
        <time>2022-08-23T12:30:43Z</time>
      </trkpt>
      <trkpt lat="46.53944" lon="5.30556">
        <ele>209.4</ele>
        <time>2022-08-23T12:30:44Z</time>
      </trkpt>
      <trkpt lat="46.53955" lon="5.30545">
        <ele>210</ele>
        <time>2022-08-23T12:30:47Z</time>
      </trkpt>
      <trkpt lat="46.53959" lon="5.30542">
        <ele>210.4</ele>
        <time>2022-08-23T12:30:48Z</time>
      </trkpt>
      <trkpt lat="46.53967" lon="5.30538">
        <ele>210.8</ele>
        <time>2022-08-23T12:30:50Z</time>
      </trkpt>
      <trkpt lat="46.5397" lon="5.30537">
        <ele>210.8</ele>
        <time>2022-08-23T12:30:51Z</time>
      </trkpt>
      <trkpt lat="46.53986" lon="5.3053">
        <ele>211.4</ele>
        <time>2022-08-23T12:30:55Z</time>
      </trkpt>
      <trkpt lat="46.53993" lon="5.30525">
        <ele>212.2</ele>
        <time>2022-08-23T12:30:57Z</time>
      </trkpt>
      <trkpt lat="46.54001" lon="5.3052">
        <ele>212.6</ele>
        <time>2022-08-23T12:30:59Z</time>
      </trkpt>
      <trkpt lat="46.54019" lon="5.30503">
        <ele>213.4</ele>
        <time>2022-08-23T12:31:04Z</time>
      </trkpt>
      <trkpt lat="46.54023" lon="5.30498">
        <ele>213.8</ele>
        <time>2022-08-23T12:31:05Z</time>
      </trkpt>
      <trkpt lat="46.54034" lon="5.30484">
        <ele>214.4</ele>
        <time>2022-08-23T12:31:08Z</time>
      </trkpt>
      <trkpt lat="46.5404" lon="5.30473">
        <ele>214.8</ele>
        <time>2022-08-23T12:31:10Z</time>
      </trkpt>
      <trkpt lat="46.54042" lon="5.30465">
        <ele>214.8</ele>
        <time>2022-08-23T12:31:11Z</time>
      </trkpt>
      <trkpt lat="46.54057" lon="5.30419">
        <ele>215</ele>
        <time>2022-08-23T12:31:17Z</time>
      </trkpt>
      <trkpt lat="46.5407" lon="5.30362">
        <ele>215.2</ele>
        <time>2022-08-23T12:31:24Z</time>
      </trkpt>
      <trkpt lat="46.54083" lon="5.30312">
        <ele>215.2</ele>
        <time>2022-08-23T12:31:31Z</time>
      </trkpt>
      <trkpt lat="46.54085" lon="5.30305">
        <ele>215.2</ele>
        <time>2022-08-23T12:31:32Z</time>
      </trkpt>
      <trkpt lat="46.5409" lon="5.30293">
        <ele>215.2</ele>
        <time>2022-08-23T12:31:35Z</time>
      </trkpt>
      <trkpt lat="46.54091" lon="5.3029">
        <ele>215.4</ele>
        <time>2022-08-23T12:31:39Z</time>
      </trkpt>
      <trkpt lat="46.54091" lon="5.3029">
        <ele>215.6</ele>
        <time>2022-08-23T12:31:40Z</time>
      </trkpt>
      <trkpt lat="46.54093" lon="5.30285">
        <ele>216</ele>
        <time>2022-08-23T12:32:53Z</time>
      </trkpt>
      <trkpt lat="46.54094" lon="5.30281">
        <ele>216</ele>
        <time>2022-08-23T12:32:54Z</time>
      </trkpt>
      <trkpt lat="46.54095" lon="5.30277">
        <ele>216.2</ele>
        <time>2022-08-23T12:32:55Z</time>
      </trkpt>
      <trkpt lat="46.54104" lon="5.3025">
        <ele>216.2</ele>
        <time>2022-08-23T12:32:59Z</time>
      </trkpt>
      <trkpt lat="46.54122" lon="5.30194">
        <ele>216.2</ele>
        <time>2022-08-23T12:33:06Z</time>
      </trkpt>
      <trkpt lat="46.54139" lon="5.30141">
        <ele>216.2</ele>
        <time>2022-08-23T12:33:13Z</time>
      </trkpt>
      <trkpt lat="46.54146" lon="5.30119">
        <ele>216.2</ele>
        <time>2022-08-23T12:33:16Z</time>
      </trkpt>
      <trkpt lat="46.54154" lon="5.30109">
        <ele>215.8</ele>
        <time>2022-08-23T12:33:18Z</time>
      </trkpt>
      <trkpt lat="46.54168" lon="5.30103">
        <ele>215.6</ele>
        <time>2022-08-23T12:33:21Z</time>
      </trkpt>
      <trkpt lat="46.54172" lon="5.30101">
        <ele>215.6</ele>
        <time>2022-08-23T12:33:22Z</time>
      </trkpt>
      <trkpt lat="46.54185" lon="5.30095">
        <ele>215.6</ele>
        <time>2022-08-23T12:33:25Z</time>
      </trkpt>
      <trkpt lat="46.54199" lon="5.30093">
        <ele>215.4</ele>
        <time>2022-08-23T12:33:28Z</time>
      </trkpt>
      <trkpt lat="46.54238" lon="5.30097">
        <ele>215.6</ele>
        <time>2022-08-23T12:33:35Z</time>
      </trkpt>
      <trkpt lat="46.54281" lon="5.30104">
        <ele>215.6</ele>
        <time>2022-08-23T12:33:42Z</time>
      </trkpt>
      <trkpt lat="46.54321" lon="5.3011">
        <ele>215.4</ele>
        <time>2022-08-23T12:33:48Z</time>
      </trkpt>
      <trkpt lat="46.54328" lon="5.30112">
        <ele>215.4</ele>
        <time>2022-08-23T12:33:49Z</time>
      </trkpt>
      <trkpt lat="46.54342" lon="5.30117">
        <ele>215.2</ele>
        <time>2022-08-23T12:33:51Z</time>
      </trkpt>
      <trkpt lat="46.54381" lon="5.30133">
        <ele>214.2</ele>
        <time>2022-08-23T12:33:56Z</time>
      </trkpt>
      <trkpt lat="46.54414" lon="5.30145">
        <ele>213</ele>
        <time>2022-08-23T12:34:00Z</time>
      </trkpt>
      <trkpt lat="46.54431" lon="5.30147">
        <ele>212.6</ele>
        <time>2022-08-23T12:34:02Z</time>
      </trkpt>
      <trkpt lat="46.54448" lon="5.30147">
        <ele>212</ele>
        <time>2022-08-23T12:34:04Z</time>
      </trkpt>
      <trkpt lat="46.54474" lon="5.30142">
        <ele>211</ele>
        <time>2022-08-23T12:34:07Z</time>
      </trkpt>
      <trkpt lat="46.54482" lon="5.30139">
        <ele>210.8</ele>
        <time>2022-08-23T12:34:08Z</time>
      </trkpt>
      <trkpt lat="46.54508" lon="5.30126">
        <ele>209.6</ele>
        <time>2022-08-23T12:34:11Z</time>
      </trkpt>
      <trkpt lat="46.54526" lon="5.30117">
        <ele>209.2</ele>
        <time>2022-08-23T12:34:13Z</time>
      </trkpt>
      <trkpt lat="46.54535" lon="5.30111">
        <ele>208.6</ele>
        <time>2022-08-23T12:34:14Z</time>
      </trkpt>
      <trkpt lat="46.54561" lon="5.30095">
        <ele>207.6</ele>
        <time>2022-08-23T12:34:17Z</time>
      </trkpt>
      <trkpt lat="46.54587" lon="5.30079">
        <ele>206.2</ele>
        <time>2022-08-23T12:34:20Z</time>
      </trkpt>
      <trkpt lat="46.54596" lon="5.30074">
        <ele>205.6</ele>
        <time>2022-08-23T12:34:21Z</time>
      </trkpt>
      <trkpt lat="46.54604" lon="5.30068">
        <ele>205</ele>
        <time>2022-08-23T12:34:22Z</time>
      </trkpt>
      <trkpt lat="46.54641" lon="5.30045">
        <ele>203.6</ele>
        <time>2022-08-23T12:34:26Z</time>
      </trkpt>
      <trkpt lat="46.54659" lon="5.30034">
        <ele>202.6</ele>
        <time>2022-08-23T12:34:28Z</time>
      </trkpt>
      <trkpt lat="46.54669" lon="5.30028">
        <ele>201.6</ele>
        <time>2022-08-23T12:34:29Z</time>
      </trkpt>
      <trkpt lat="46.54688" lon="5.30017">
        <ele>200.2</ele>
        <time>2022-08-23T12:34:31Z</time>
      </trkpt>
      <trkpt lat="46.54716" lon="5.3">
        <ele>199.2</ele>
        <time>2022-08-23T12:34:34Z</time>
      </trkpt>
      <trkpt lat="46.54724" lon="5.29993">
        <ele>198.6</ele>
        <time>2022-08-23T12:34:35Z</time>
      </trkpt>
      <trkpt lat="46.54732" lon="5.29986">
        <ele>197.8</ele>
        <time>2022-08-23T12:34:36Z</time>
      </trkpt>
      <trkpt lat="46.54763" lon="5.29958">
        <ele>196.8</ele>
        <time>2022-08-23T12:34:40Z</time>
      </trkpt>
      <trkpt lat="46.54771" lon="5.29951">
        <ele>196.4</ele>
        <time>2022-08-23T12:34:41Z</time>
      </trkpt>
      <trkpt lat="46.54792" lon="5.2993">
        <ele>195.8</ele>
        <time>2022-08-23T12:34:44Z</time>
      </trkpt>
      <trkpt lat="46.54805" lon="5.29914">
        <ele>195.6</ele>
        <time>2022-08-23T12:34:46Z</time>
      </trkpt>
      <trkpt lat="46.54841" lon="5.29867">
        <ele>195</ele>
        <time>2022-08-23T12:34:52Z</time>
      </trkpt>
      <trkpt lat="46.54854" lon="5.29852">
        <ele>194.8</ele>
        <time>2022-08-23T12:34:54Z</time>
      </trkpt>
      <trkpt lat="46.54881" lon="5.29816">
        <ele>194.6</ele>
        <time>2022-08-23T12:34:59Z</time>
      </trkpt>
      <trkpt lat="46.54916" lon="5.29761">
        <ele>194.4</ele>
        <time>2022-08-23T12:35:06Z</time>
      </trkpt>
      <trkpt lat="46.54942" lon="5.29708">
        <ele>194.2</ele>
        <time>2022-08-23T12:35:12Z</time>
      </trkpt>
      <trkpt lat="46.54955" lon="5.29659">
        <ele>194</ele>
        <time>2022-08-23T12:35:17Z</time>
      </trkpt>
      <trkpt lat="46.54963" lon="5.29614">
        <ele>194</ele>
        <time>2022-08-23T12:35:22Z</time>
      </trkpt>
      <trkpt lat="46.54973" lon="5.29585">
        <ele>194.8</ele>
        <time>2022-08-23T12:35:26Z</time>
      </trkpt>
      <trkpt lat="46.54979" lon="5.29572">
        <ele>195.2</ele>
        <time>2022-08-23T12:35:28Z</time>
      </trkpt>
      <trkpt lat="46.55001" lon="5.29541">
        <ele>196.2</ele>
        <time>2022-08-23T12:35:34Z</time>
      </trkpt>
      <trkpt lat="46.55004" lon="5.29535">
        <ele>196.2</ele>
        <time>2022-08-23T12:35:35Z</time>
      </trkpt>
      <trkpt lat="46.55007" lon="5.2953">
        <ele>196.4</ele>
        <time>2022-08-23T12:35:36Z</time>
      </trkpt>
      <trkpt lat="46.55018" lon="5.29516">
        <ele>197.4</ele>
        <time>2022-08-23T12:35:39Z</time>
      </trkpt>
      <trkpt lat="46.55021" lon="5.29512">
        <ele>197.6</ele>
        <time>2022-08-23T12:35:40Z</time>
      </trkpt>
      <trkpt lat="46.55025" lon="5.29509">
        <ele>197.8</ele>
        <time>2022-08-23T12:35:41Z</time>
      </trkpt>
      <trkpt lat="46.55032" lon="5.29504">
        <ele>197.8</ele>
        <time>2022-08-23T12:35:43Z</time>
      </trkpt>
      <trkpt lat="46.55042" lon="5.29499">
        <ele>198.2</ele>
        <time>2022-08-23T12:35:46Z</time>
      </trkpt>
      <trkpt lat="46.55047" lon="5.29497">
        <ele>198.4</ele>
        <time>2022-08-23T12:35:47Z</time>
      </trkpt>
      <trkpt lat="46.5505" lon="5.29497">
        <ele>198.4</ele>
        <time>2022-08-23T12:35:48Z</time>
      </trkpt>
      <trkpt lat="46.55061" lon="5.29495">
        <ele>199.4</ele>
        <time>2022-08-23T12:35:51Z</time>
      </trkpt>
      <trkpt lat="46.55069" lon="5.29497">
        <ele>199.8</ele>
        <time>2022-08-23T12:35:53Z</time>
      </trkpt>
      <trkpt lat="46.55084" lon="5.29503">
        <ele>200.4</ele>
        <time>2022-08-23T12:35:57Z</time>
      </trkpt>
      <trkpt lat="46.55092" lon="5.29507">
        <ele>201</ele>
        <time>2022-08-23T12:35:59Z</time>
      </trkpt>
      <trkpt lat="46.55112" lon="5.29515">
        <ele>200.8</ele>
        <time>2022-08-23T12:36:04Z</time>
      </trkpt>
      <trkpt lat="46.5512" lon="5.29519">
        <ele>202.2</ele>
        <time>2022-08-23T12:36:06Z</time>
      </trkpt>
      <trkpt lat="46.55137" lon="5.29525">
        <ele>203</ele>
        <time>2022-08-23T12:36:10Z</time>
      </trkpt>
      <trkpt lat="46.55155" lon="5.29533">
        <ele>203.6</ele>
        <time>2022-08-23T12:36:14Z</time>
      </trkpt>
      <trkpt lat="46.55177" lon="5.29541">
        <ele>204</ele>
        <time>2022-08-23T12:36:19Z</time>
      </trkpt>
      <trkpt lat="46.55187" lon="5.29541">
        <ele>204.2</ele>
        <time>2022-08-23T12:36:21Z</time>
      </trkpt>
      <trkpt lat="46.552" lon="5.29538">
        <ele>204.4</ele>
        <time>2022-08-23T12:36:24Z</time>
      </trkpt>
      <trkpt lat="46.55213" lon="5.29532">
        <ele>204.6</ele>
        <time>2022-08-23T12:36:27Z</time>
      </trkpt>
      <trkpt lat="46.55225" lon="5.29526">
        <ele>205.2</ele>
        <time>2022-08-23T12:36:30Z</time>
      </trkpt>
      <trkpt lat="46.55245" lon="5.29513">
        <ele>206.2</ele>
        <time>2022-08-23T12:36:35Z</time>
      </trkpt>
      <trkpt lat="46.55249" lon="5.2951">
        <ele>206.2</ele>
        <time>2022-08-23T12:36:36Z</time>
      </trkpt>
      <trkpt lat="46.55275" lon="5.29496">
        <ele>207</ele>
        <time>2022-08-23T12:36:42Z</time>
      </trkpt>
      <trkpt lat="46.5528" lon="5.29496">
        <ele>207</ele>
        <time>2022-08-23T12:36:43Z</time>
      </trkpt>
      <trkpt lat="46.55286" lon="5.29497">
        <ele>207</ele>
        <time>2022-08-23T12:36:44Z</time>
      </trkpt>
      <trkpt lat="46.55304" lon="5.29506">
        <ele>207</ele>
        <time>2022-08-23T12:36:47Z</time>
      </trkpt>
      <trkpt lat="46.5531" lon="5.29508">
        <ele>207</ele>
        <time>2022-08-23T12:36:48Z</time>
      </trkpt>
      <trkpt lat="46.55331" lon="5.29511">
        <ele>206.8</ele>
        <time>2022-08-23T12:36:51Z</time>
      </trkpt>
      <trkpt lat="46.55345" lon="5.29513">
        <ele>206.8</ele>
        <time>2022-08-23T12:36:53Z</time>
      </trkpt>
      <trkpt lat="46.55373" lon="5.2952">
        <ele>206.4</ele>
        <time>2022-08-23T12:36:57Z</time>
      </trkpt>
      <trkpt lat="46.55417" lon="5.29541">
        <ele>205.8</ele>
        <time>2022-08-23T12:37:04Z</time>
      </trkpt>
      <trkpt lat="46.55468" lon="5.29576">
        <ele>205.6</ele>
        <time>2022-08-23T12:37:13Z</time>
      </trkpt>
      <trkpt lat="46.55518" lon="5.29614">
        <ele>206.2</ele>
        <time>2022-08-23T12:37:22Z</time>
      </trkpt>
      <trkpt lat="46.55567" lon="5.29648">
        <ele>206.6</ele>
        <time>2022-08-23T12:37:31Z</time>
      </trkpt>
      <trkpt lat="46.55605" lon="5.2967">
        <ele>207.2</ele>
        <time>2022-08-23T12:37:38Z</time>
      </trkpt>
      <trkpt lat="46.55655" lon="5.29692">
        <ele>207.6</ele>
        <time>2022-08-23T12:37:47Z</time>
      </trkpt>
      <trkpt lat="46.55666" lon="5.29696">
        <ele>207.6</ele>
        <time>2022-08-23T12:37:49Z</time>
      </trkpt>
      <trkpt lat="46.55687" lon="5.29698">
        <ele>207.6</ele>
        <time>2022-08-23T12:37:53Z</time>
      </trkpt>
      <trkpt lat="46.55707" lon="5.29698">
        <ele>208.6</ele>
        <time>2022-08-23T12:37:57Z</time>
      </trkpt>
      <trkpt lat="46.5572" lon="5.297">
        <ele>209</ele>
        <time>2022-08-23T12:38:00Z</time>
      </trkpt>
      <trkpt lat="46.55724" lon="5.29701">
        <ele>209.4</ele>
        <time>2022-08-23T12:38:01Z</time>
      </trkpt>
      <trkpt lat="46.55736" lon="5.29707">
        <ele>209.8</ele>
        <time>2022-08-23T12:38:04Z</time>
      </trkpt>
      <trkpt lat="46.55744" lon="5.29711">
        <ele>210.4</ele>
        <time>2022-08-23T12:38:06Z</time>
      </trkpt>
      <trkpt lat="46.55754" lon="5.29718">
        <ele>210.8</ele>
        <time>2022-08-23T12:38:09Z</time>
      </trkpt>
      <trkpt lat="46.55762" lon="5.29723">
        <ele>211.4</ele>
        <time>2022-08-23T12:38:11Z</time>
      </trkpt>
      <trkpt lat="46.55769" lon="5.29731">
        <ele>211.8</ele>
        <time>2022-08-23T12:38:13Z</time>
      </trkpt>
      <trkpt lat="46.55773" lon="5.29735">
        <ele>211.8</ele>
        <time>2022-08-23T12:38:14Z</time>
      </trkpt>
      <trkpt lat="46.55779" lon="5.29744">
        <ele>212.4</ele>
        <time>2022-08-23T12:38:16Z</time>
      </trkpt>
      <trkpt lat="46.55789" lon="5.29758">
        <ele>213</ele>
        <time>2022-08-23T12:38:19Z</time>
      </trkpt>
      <trkpt lat="46.558" lon="5.29773">
        <ele>213.4</ele>
        <time>2022-08-23T12:38:22Z</time>
      </trkpt>
      <trkpt lat="46.55833" lon="5.29817">
        <ele>213.6</ele>
        <time>2022-08-23T12:38:31Z</time>
      </trkpt>
      <trkpt lat="46.55865" lon="5.29861">
        <ele>213.6</ele>
        <time>2022-08-23T12:38:39Z</time>
      </trkpt>
      <trkpt lat="46.55899" lon="5.29904">
        <ele>213.4</ele>
        <time>2022-08-23T12:38:45Z</time>
      </trkpt>
      <trkpt lat="46.55928" lon="5.29945">
        <ele>212.2</ele>
        <time>2022-08-23T12:38:50Z</time>
      </trkpt>
      <trkpt lat="46.55934" lon="5.29953">
        <ele>212</ele>
        <time>2022-08-23T12:38:51Z</time>
      </trkpt>
      <trkpt lat="46.55964" lon="5.29993">
        <ele>210.6</ele>
        <time>2022-08-23T12:38:56Z</time>
      </trkpt>
      <trkpt lat="46.55981" lon="5.30015">
        <ele>210.2</ele>
        <time>2022-08-23T12:38:59Z</time>
      </trkpt>
      <trkpt lat="46.56009" lon="5.30052">
        <ele>210.2</ele>
        <time>2022-08-23T12:39:05Z</time>
      </trkpt>
      <trkpt lat="46.56037" lon="5.30089">
        <ele>211.6</ele>
        <time>2022-08-23T12:39:12Z</time>
      </trkpt>
      <trkpt lat="46.56044" lon="5.30099">
        <ele>211.8</ele>
        <time>2022-08-23T12:39:14Z</time>
      </trkpt>
      <trkpt lat="46.56062" lon="5.30123">
        <ele>212.8</ele>
        <time>2022-08-23T12:39:19Z</time>
      </trkpt>
      <trkpt lat="46.56065" lon="5.30128">
        <ele>213</ele>
        <time>2022-08-23T12:39:20Z</time>
      </trkpt>
      <trkpt lat="46.56081" lon="5.30151">
        <ele>214.2</ele>
        <time>2022-08-23T12:39:24Z</time>
      </trkpt>
      <trkpt lat="46.56098" lon="5.30173">
        <ele>214.8</ele>
        <time>2022-08-23T12:39:28Z</time>
      </trkpt>
      <trkpt lat="46.56107" lon="5.30184">
        <ele>215</ele>
        <time>2022-08-23T12:39:30Z</time>
      </trkpt>
      <trkpt lat="46.56124" lon="5.30207">
        <ele>215.2</ele>
        <time>2022-08-23T12:39:34Z</time>
      </trkpt>
      <trkpt lat="46.56146" lon="5.3024">
        <ele>215.6</ele>
        <time>2022-08-23T12:39:40Z</time>
      </trkpt>
      <trkpt lat="46.56167" lon="5.30268">
        <ele>216.4</ele>
        <time>2022-08-23T12:39:45Z</time>
      </trkpt>
      <trkpt lat="46.5618" lon="5.30286">
        <ele>216.2</ele>
        <time>2022-08-23T12:39:48Z</time>
      </trkpt>
      <trkpt lat="46.56213" lon="5.30335">
        <ele>216</ele>
        <time>2022-08-23T12:39:56Z</time>
      </trkpt>
      <trkpt lat="46.56242" lon="5.30389">
        <ele>215.6</ele>
        <time>2022-08-23T12:40:04Z</time>
      </trkpt>
      <trkpt lat="46.56282" lon="5.30443">
        <ele>215.6</ele>
        <time>2022-08-23T12:40:13Z</time>
      </trkpt>
      <trkpt lat="46.56322" lon="5.30498">
        <ele>215.6</ele>
        <time>2022-08-23T12:40:22Z</time>
      </trkpt>
      <trkpt lat="46.56365" lon="5.30558">
        <ele>215.6</ele>
        <time>2022-08-23T12:40:32Z</time>
      </trkpt>
      <trkpt lat="46.56396" lon="5.306">
        <ele>215.4</ele>
        <time>2022-08-23T12:40:39Z</time>
      </trkpt>
      <trkpt lat="46.56403" lon="5.30611">
        <ele>215.2</ele>
        <time>2022-08-23T12:40:41Z</time>
      </trkpt>
      <trkpt lat="46.56405" lon="5.30616">
        <ele>215.4</ele>
        <time>2022-08-23T12:40:42Z</time>
      </trkpt>
      <trkpt lat="46.56406" lon="5.30623">
        <ele>215.2</ele>
        <time>2022-08-23T12:40:44Z</time>
      </trkpt>
      <trkpt lat="46.56406" lon="5.30625">
        <ele>214.8</ele>
        <time>2022-08-23T12:40:45Z</time>
      </trkpt>
      <trkpt lat="46.56406" lon="5.30628">
        <ele>214.6</ele>
        <time>2022-08-23T12:40:46Z</time>
      </trkpt>
      <trkpt lat="46.56411" lon="5.30631">
        <ele>214.4</ele>
        <time>2022-08-23T12:40:48Z</time>
      </trkpt>
      <trkpt lat="46.56419" lon="5.30627">
        <ele>214</ele>
        <time>2022-08-23T12:40:50Z</time>
      </trkpt>
      <trkpt lat="46.56429" lon="5.30626">
        <ele>214</ele>
        <time>2022-08-23T12:40:52Z</time>
      </trkpt>
      <trkpt lat="46.5644" lon="5.30627">
        <ele>213.8</ele>
        <time>2022-08-23T12:40:54Z</time>
      </trkpt>
      <trkpt lat="46.56452" lon="5.30624">
        <ele>213.8</ele>
        <time>2022-08-23T12:40:56Z</time>
      </trkpt>
      <trkpt lat="46.56488" lon="5.30614">
        <ele>214</ele>
        <time>2022-08-23T12:41:02Z</time>
      </trkpt>
      <trkpt lat="46.56535" lon="5.30606">
        <ele>213.6</ele>
        <time>2022-08-23T12:41:09Z</time>
      </trkpt>
      <trkpt lat="46.56562" lon="5.30602">
        <ele>213.4</ele>
        <time>2022-08-23T12:41:13Z</time>
      </trkpt>
      <trkpt lat="46.56582" lon="5.30602">
        <ele>213.2</ele>
        <time>2022-08-23T12:41:16Z</time>
      </trkpt>
      <trkpt lat="46.56641" lon="5.30612">
        <ele>213.4</ele>
        <time>2022-08-23T12:41:25Z</time>
      </trkpt>
      <trkpt lat="46.56677" lon="5.30633">
        <ele>213.6</ele>
        <time>2022-08-23T12:41:31Z</time>
      </trkpt>
      <trkpt lat="46.56719" lon="5.30674">
        <ele>213.6</ele>
        <time>2022-08-23T12:41:38Z</time>
      </trkpt>
      <trkpt lat="46.56743" lon="5.30715">
        <ele>213</ele>
        <time>2022-08-23T12:41:43Z</time>
      </trkpt>
      <trkpt lat="46.5677" lon="5.30768">
        <ele>212.4</ele>
        <time>2022-08-23T12:41:49Z</time>
      </trkpt>
      <trkpt lat="46.56786" lon="5.30806">
        <ele>211.2</ele>
        <time>2022-08-23T12:41:53Z</time>
      </trkpt>
      <trkpt lat="46.56799" lon="5.3086">
        <ele>210</ele>
        <time>2022-08-23T12:41:58Z</time>
      </trkpt>
      <trkpt lat="46.56809" lon="5.30945">
        <ele>209</ele>
        <time>2022-08-23T12:42:06Z</time>
      </trkpt>
      <trkpt lat="46.56806" lon="5.31014">
        <ele>208.6</ele>
        <time>2022-08-23T12:42:13Z</time>
      </trkpt>
      <trkpt lat="46.56807" lon="5.3105">
        <ele>208.6</ele>
        <time>2022-08-23T12:42:17Z</time>
      </trkpt>
      <trkpt lat="46.56808" lon="5.31059">
        <ele>208.6</ele>
        <time>2022-08-23T12:42:18Z</time>
      </trkpt>
      <trkpt lat="46.5682" lon="5.311">
        <ele>209</ele>
        <time>2022-08-23T12:42:23Z</time>
      </trkpt>
      <trkpt lat="46.56827" lon="5.31114">
        <ele>209.2</ele>
        <time>2022-08-23T12:42:25Z</time>
      </trkpt>
      <trkpt lat="46.56839" lon="5.31133">
        <ele>209.4</ele>
        <time>2022-08-23T12:42:28Z</time>
      </trkpt>
      <trkpt lat="46.56864" lon="5.31153">
        <ele>209.8</ele>
        <time>2022-08-23T12:42:33Z</time>
      </trkpt>
      <trkpt lat="46.56874" lon="5.31158">
        <ele>209.8</ele>
        <time>2022-08-23T12:42:35Z</time>
      </trkpt>
      <trkpt lat="46.5689" lon="5.31161">
        <ele>210</ele>
        <time>2022-08-23T12:42:38Z</time>
      </trkpt>
      <trkpt lat="46.56915" lon="5.31163">
        <ele>210.2</ele>
        <time>2022-08-23T12:42:43Z</time>
      </trkpt>
      <trkpt lat="46.56925" lon="5.31165">
        <ele>210.4</ele>
        <time>2022-08-23T12:42:45Z</time>
      </trkpt>
      <trkpt lat="46.56954" lon="5.31184">
        <ele>210.8</ele>
        <time>2022-08-23T12:42:51Z</time>
      </trkpt>
      <trkpt lat="46.56999" lon="5.31225">
        <ele>211.4</ele>
        <time>2022-08-23T12:43:01Z</time>
      </trkpt>
      <trkpt lat="46.57045" lon="5.31266">
        <ele>211.8</ele>
        <time>2022-08-23T12:43:11Z</time>
      </trkpt>
      <trkpt lat="46.57083" lon="5.31294">
        <ele>212.2</ele>
        <time>2022-08-23T12:43:19Z</time>
      </trkpt>
      <trkpt lat="46.57088" lon="5.31296">
        <ele>212.2</ele>
        <time>2022-08-23T12:43:20Z</time>
      </trkpt>
      <trkpt lat="46.57103" lon="5.31301">
        <ele>212.4</ele>
        <time>2022-08-23T12:43:23Z</time>
      </trkpt>
      <trkpt lat="46.57122" lon="5.31301">
        <ele>212.6</ele>
        <time>2022-08-23T12:43:27Z</time>
      </trkpt>
      <trkpt lat="46.57132" lon="5.31301">
        <ele>212.8</ele>
        <time>2022-08-23T12:43:29Z</time>
      </trkpt>
      <trkpt lat="46.57146" lon="5.31301">
        <ele>213.4</ele>
        <time>2022-08-23T12:43:32Z</time>
      </trkpt>
      <trkpt lat="46.57156" lon="5.31302">
        <ele>213.6</ele>
        <time>2022-08-23T12:43:34Z</time>
      </trkpt>
      <trkpt lat="46.57165" lon="5.31306">
        <ele>213.8</ele>
        <time>2022-08-23T12:43:36Z</time>
      </trkpt>
      <trkpt lat="46.57174" lon="5.31311">
        <ele>214</ele>
        <time>2022-08-23T12:43:38Z</time>
      </trkpt>
      <trkpt lat="46.57178" lon="5.31315">
        <ele>214.2</ele>
        <time>2022-08-23T12:43:39Z</time>
      </trkpt>
      <trkpt lat="46.57185" lon="5.31323">
        <ele>214.4</ele>
        <time>2022-08-23T12:43:41Z</time>
      </trkpt>
      <trkpt lat="46.57189" lon="5.31327">
        <ele>214.6</ele>
        <time>2022-08-23T12:43:42Z</time>
      </trkpt>
      <trkpt lat="46.57199" lon="5.31341">
        <ele>214.8</ele>
        <time>2022-08-23T12:43:45Z</time>
      </trkpt>
      <trkpt lat="46.57214" lon="5.31362">
        <ele>215.8</ele>
        <time>2022-08-23T12:43:49Z</time>
      </trkpt>
      <trkpt lat="46.57217" lon="5.31368">
        <ele>216</ele>
        <time>2022-08-23T12:43:50Z</time>
      </trkpt>
      <trkpt lat="46.5722" lon="5.31374">
        <ele>216.2</ele>
        <time>2022-08-23T12:43:51Z</time>
      </trkpt>
      <trkpt lat="46.5723" lon="5.31407">
        <ele>216.8</ele>
        <time>2022-08-23T12:43:56Z</time>
      </trkpt>
      <trkpt lat="46.57233" lon="5.3142">
        <ele>217</ele>
        <time>2022-08-23T12:43:58Z</time>
      </trkpt>
      <trkpt lat="46.57241" lon="5.31448">
        <ele>217.4</ele>
        <time>2022-08-23T12:44:02Z</time>
      </trkpt>
      <trkpt lat="46.57249" lon="5.31469">
        <ele>217.8</ele>
        <time>2022-08-23T12:44:05Z</time>
      </trkpt>
      <trkpt lat="46.57259" lon="5.31487">
        <ele>217.8</ele>
        <time>2022-08-23T12:44:08Z</time>
      </trkpt>
      <trkpt lat="46.57274" lon="5.3151">
        <ele>218.4</ele>
        <time>2022-08-23T12:44:12Z</time>
      </trkpt>
      <trkpt lat="46.57308" lon="5.31564">
        <ele>218.8</ele>
        <time>2022-08-23T12:44:21Z</time>
      </trkpt>
      <trkpt lat="46.57318" lon="5.31577">
        <ele>219.2</ele>
        <time>2022-08-23T12:44:23Z</time>
      </trkpt>
      <trkpt lat="46.57326" lon="5.31589">
        <ele>219.2</ele>
        <time>2022-08-23T12:44:25Z</time>
      </trkpt>
      <trkpt lat="46.57341" lon="5.31605">
        <ele>219.4</ele>
        <time>2022-08-23T12:44:28Z</time>
      </trkpt>
      <trkpt lat="46.57359" lon="5.31616">
        <ele>219.4</ele>
        <time>2022-08-23T12:44:31Z</time>
      </trkpt>
      <trkpt lat="46.57371" lon="5.31619">
        <ele>219.2</ele>
        <time>2022-08-23T12:44:33Z</time>
      </trkpt>
      <trkpt lat="46.5741" lon="5.3162">
        <ele>218.8</ele>
        <time>2022-08-23T12:44:39Z</time>
      </trkpt>
      <trkpt lat="46.57468" lon="5.31617">
        <ele>218.6</ele>
        <time>2022-08-23T12:44:48Z</time>
      </trkpt>
      <trkpt lat="46.57481" lon="5.31617">
        <ele>218.6</ele>
        <time>2022-08-23T12:44:50Z</time>
      </trkpt>
      <trkpt lat="46.57536" lon="5.31608">
        <ele>218.6</ele>
        <time>2022-08-23T12:44:59Z</time>
      </trkpt>
      <trkpt lat="46.57592" lon="5.31601">
        <ele>218.6</ele>
        <time>2022-08-23T12:45:08Z</time>
      </trkpt>
      <trkpt lat="46.57648" lon="5.31592">
        <ele>218.6</ele>
        <time>2022-08-23T12:45:17Z</time>
      </trkpt>
      <trkpt lat="46.57655" lon="5.31591">
        <ele>218.6</ele>
        <time>2022-08-23T12:45:18Z</time>
      </trkpt>
      <trkpt lat="46.57713" lon="5.31575">
        <ele>218.4</ele>
        <time>2022-08-23T12:45:27Z</time>
      </trkpt>
      <trkpt lat="46.57737" lon="5.31559">
        <ele>218</ele>
        <time>2022-08-23T12:45:31Z</time>
      </trkpt>
      <trkpt lat="46.57755" lon="5.31546">
        <ele>217.8</ele>
        <time>2022-08-23T12:45:34Z</time>
      </trkpt>
      <trkpt lat="46.57806" lon="5.31507">
        <ele>217.2</ele>
        <time>2022-08-23T12:45:42Z</time>
      </trkpt>
      <trkpt lat="46.57813" lon="5.31502">
        <ele>217</ele>
        <time>2022-08-23T12:45:43Z</time>
      </trkpt>
      <trkpt lat="46.57849" lon="5.31486">
        <ele>216.4</ele>
        <time>2022-08-23T12:45:48Z</time>
      </trkpt>
      <trkpt lat="46.57885" lon="5.31474">
        <ele>215.8</ele>
        <time>2022-08-23T12:45:53Z</time>
      </trkpt>
      <trkpt lat="46.57927" lon="5.31462">
        <ele>215.4</ele>
        <time>2022-08-23T12:45:59Z</time>
      </trkpt>
      <trkpt lat="46.57982" lon="5.31445">
        <ele>214.8</ele>
        <time>2022-08-23T12:46:07Z</time>
      </trkpt>
      <trkpt lat="46.57996" lon="5.31441">
        <ele>214.6</ele>
        <time>2022-08-23T12:46:09Z</time>
      </trkpt>
      <trkpt lat="46.5805" lon="5.3143">
        <ele>214.2</ele>
        <time>2022-08-23T12:46:17Z</time>
      </trkpt>
      <trkpt lat="46.58057" lon="5.3143">
        <ele>214.2</ele>
        <time>2022-08-23T12:46:18Z</time>
      </trkpt>
      <trkpt lat="46.58102" lon="5.31435">
        <ele>214.2</ele>
        <time>2022-08-23T12:46:25Z</time>
      </trkpt>
      <trkpt lat="46.58127" lon="5.31433">
        <ele>214.4</ele>
        <time>2022-08-23T12:46:29Z</time>
      </trkpt>
      <trkpt lat="46.58139" lon="5.31429">
        <ele>214.4</ele>
        <time>2022-08-23T12:46:31Z</time>
      </trkpt>
      <trkpt lat="46.58175" lon="5.31402">
        <ele>214.2</ele>
        <time>2022-08-23T12:46:37Z</time>
      </trkpt>
      <trkpt lat="46.58214" lon="5.31371">
        <ele>213.8</ele>
        <time>2022-08-23T12:46:43Z</time>
      </trkpt>
      <trkpt lat="46.58233" lon="5.31356">
        <ele>213.6</ele>
        <time>2022-08-23T12:46:46Z</time>
      </trkpt>
      <trkpt lat="46.58272" lon="5.31325">
        <ele>212.8</ele>
        <time>2022-08-23T12:46:52Z</time>
      </trkpt>
      <trkpt lat="46.58304" lon="5.31299">
        <ele>212.2</ele>
        <time>2022-08-23T12:46:57Z</time>
      </trkpt>
      <trkpt lat="46.58323" lon="5.31284">
        <ele>212</ele>
        <time>2022-08-23T12:47:00Z</time>
      </trkpt>
      <trkpt lat="46.58357" lon="5.31264">
        <ele>211.2</ele>
        <time>2022-08-23T12:47:05Z</time>
      </trkpt>
      <trkpt lat="46.58378" lon="5.31255">
        <ele>210.8</ele>
        <time>2022-08-23T12:47:08Z</time>
      </trkpt>
      <trkpt lat="46.58417" lon="5.31238">
        <ele>210.6</ele>
        <time>2022-08-23T12:47:14Z</time>
      </trkpt>
      <trkpt lat="46.58423" lon="5.31235">
        <ele>210.6</ele>
        <time>2022-08-23T12:47:15Z</time>
      </trkpt>
      <trkpt lat="46.58473" lon="5.31214">
        <ele>210.6</ele>
        <time>2022-08-23T12:47:23Z</time>
      </trkpt>
      <trkpt lat="46.58524" lon="5.31191">
        <ele>210.6</ele>
        <time>2022-08-23T12:47:31Z</time>
      </trkpt>
      <trkpt lat="46.58553" lon="5.31172">
        <ele>211</ele>
        <time>2022-08-23T12:47:36Z</time>
      </trkpt>
      <trkpt lat="46.586" lon="5.31128">
        <ele>210.4</ele>
        <time>2022-08-23T12:47:44Z</time>
      </trkpt>
      <trkpt lat="46.58648" lon="5.31078">
        <ele>209.8</ele>
        <time>2022-08-23T12:47:52Z</time>
      </trkpt>
      <trkpt lat="46.58654" lon="5.31072">
        <ele>209.8</ele>
        <time>2022-08-23T12:47:53Z</time>
      </trkpt>
      <trkpt lat="46.58699" lon="5.31025">
        <ele>209.6</ele>
        <time>2022-08-23T12:48:01Z</time>
      </trkpt>
      <trkpt lat="46.58704" lon="5.31019">
        <ele>209.6</ele>
        <time>2022-08-23T12:48:02Z</time>
      </trkpt>
      <trkpt lat="46.58742" lon="5.30979">
        <ele>209.6</ele>
        <time>2022-08-23T12:48:09Z</time>
      </trkpt>
      <trkpt lat="46.58776" lon="5.30943">
        <ele>210.4</ele>
        <time>2022-08-23T12:48:16Z</time>
      </trkpt>
      <trkpt lat="46.58796" lon="5.30922">
        <ele>211.2</ele>
        <time>2022-08-23T12:48:20Z</time>
      </trkpt>
      <trkpt lat="46.58806" lon="5.30915">
        <ele>212</ele>
        <time>2022-08-23T12:48:22Z</time>
      </trkpt>
      <trkpt lat="46.58811" lon="5.30912">
        <ele>212.2</ele>
        <time>2022-08-23T12:48:23Z</time>
      </trkpt>
      <trkpt lat="46.58822" lon="5.30908">
        <ele>212.6</ele>
        <time>2022-08-23T12:48:25Z</time>
      </trkpt>
      <trkpt lat="46.58841" lon="5.30904">
        <ele>213.2</ele>
        <time>2022-08-23T12:48:28Z</time>
      </trkpt>
      <trkpt lat="46.58854" lon="5.30902">
        <ele>213.4</ele>
        <time>2022-08-23T12:48:30Z</time>
      </trkpt>
      <trkpt lat="46.58898" lon="5.30896">
        <ele>213.8</ele>
        <time>2022-08-23T12:48:37Z</time>
      </trkpt>
      <trkpt lat="46.58957" lon="5.30889">
        <ele>214</ele>
        <time>2022-08-23T12:48:46Z</time>
      </trkpt>
      <trkpt lat="46.59007" lon="5.30883">
        <ele>213.2</ele>
        <time>2022-08-23T12:48:53Z</time>
      </trkpt>
      <trkpt lat="46.59015" lon="5.30881">
        <ele>213</ele>
        <time>2022-08-23T12:48:54Z</time>
      </trkpt>
      <trkpt lat="46.59039" lon="5.30878">
        <ele>212.2</ele>
        <time>2022-08-23T12:48:57Z</time>
      </trkpt>
      <trkpt lat="46.59064" lon="5.30874">
        <ele>211</ele>
        <time>2022-08-23T12:49:00Z</time>
      </trkpt>
      <trkpt lat="46.59098" lon="5.3087">
        <ele>210</ele>
        <time>2022-08-23T12:49:04Z</time>
      </trkpt>
      <trkpt lat="46.59125" lon="5.30867">
        <ele>209</ele>
        <time>2022-08-23T12:49:07Z</time>
      </trkpt>
      <trkpt lat="46.59134" lon="5.30866">
        <ele>208.6</ele>
        <time>2022-08-23T12:49:08Z</time>
      </trkpt>
      <trkpt lat="46.5916" lon="5.30862">
        <ele>207.4</ele>
        <time>2022-08-23T12:49:11Z</time>
      </trkpt>
      <trkpt lat="46.59194" lon="5.30858">
        <ele>206.2</ele>
        <time>2022-08-23T12:49:15Z</time>
      </trkpt>
      <trkpt lat="46.59227" lon="5.30854">
        <ele>205.2</ele>
        <time>2022-08-23T12:49:19Z</time>
      </trkpt>
      <trkpt lat="46.59259" lon="5.30849">
        <ele>203.8</ele>
        <time>2022-08-23T12:49:23Z</time>
      </trkpt>
      <trkpt lat="46.59276" lon="5.30847">
        <ele>203.4</ele>
        <time>2022-08-23T12:49:25Z</time>
      </trkpt>
      <trkpt lat="46.59284" lon="5.30846">
        <ele>202.6</ele>
        <time>2022-08-23T12:49:26Z</time>
      </trkpt>
      <trkpt lat="46.59316" lon="5.30842">
        <ele>201.4</ele>
        <time>2022-08-23T12:49:30Z</time>
      </trkpt>
      <trkpt lat="46.59341" lon="5.30839">
        <ele>200.2</ele>
        <time>2022-08-23T12:49:33Z</time>
      </trkpt>
      <trkpt lat="46.59357" lon="5.30837">
        <ele>199.8</ele>
        <time>2022-08-23T12:49:35Z</time>
      </trkpt>
      <trkpt lat="46.59381" lon="5.30833">
        <ele>198.6</ele>
        <time>2022-08-23T12:49:38Z</time>
      </trkpt>
      <trkpt lat="46.59406" lon="5.3083">
        <ele>197.6</ele>
        <time>2022-08-23T12:49:41Z</time>
      </trkpt>
      <trkpt lat="46.59446" lon="5.30824">
        <ele>196.4</ele>
        <time>2022-08-23T12:49:46Z</time>
      </trkpt>
      <trkpt lat="46.59492" lon="5.30818">
        <ele>195.4</ele>
        <time>2022-08-23T12:49:52Z</time>
      </trkpt>
      <trkpt lat="46.59514" lon="5.30816">
        <ele>195</ele>
        <time>2022-08-23T12:49:55Z</time>
      </trkpt>
      <trkpt lat="46.59549" lon="5.30811">
        <ele>194.4</ele>
        <time>2022-08-23T12:50:00Z</time>
      </trkpt>
      <trkpt lat="46.59576" lon="5.30807">
        <ele>194.6</ele>
        <time>2022-08-23T12:50:04Z</time>
      </trkpt>
      <trkpt lat="46.59632" lon="5.308">
        <ele>194.4</ele>
        <time>2022-08-23T12:50:12Z</time>
      </trkpt>
      <trkpt lat="46.59639" lon="5.30799">
        <ele>194.4</ele>
        <time>2022-08-23T12:50:13Z</time>
      </trkpt>
      <trkpt lat="46.59687" lon="5.30794">
        <ele>194.4</ele>
        <time>2022-08-23T12:50:21Z</time>
      </trkpt>
      <trkpt lat="46.59717" lon="5.30794">
        <ele>195.2</ele>
        <time>2022-08-23T12:50:27Z</time>
      </trkpt>
      <trkpt lat="46.59732" lon="5.30793">
        <ele>196</ele>
        <time>2022-08-23T12:50:30Z</time>
      </trkpt>
      <trkpt lat="46.59746" lon="5.30793">
        <ele>196.8</ele>
        <time>2022-08-23T12:50:33Z</time>
      </trkpt>
      <trkpt lat="46.59751" lon="5.30792">
        <ele>197.2</ele>
        <time>2022-08-23T12:50:34Z</time>
      </trkpt>
      <trkpt lat="46.59755" lon="5.30792">
        <ele>197.4</ele>
        <time>2022-08-23T12:50:35Z</time>
      </trkpt>
      <trkpt lat="46.59764" lon="5.3079">
        <ele>198</ele>
        <time>2022-08-23T12:50:37Z</time>
      </trkpt>
      <trkpt lat="46.59774" lon="5.30791">
        <ele>198.6</ele>
        <time>2022-08-23T12:50:39Z</time>
      </trkpt>
      <trkpt lat="46.59783" lon="5.30791">
        <ele>199</ele>
        <time>2022-08-23T12:50:41Z</time>
      </trkpt>
      <trkpt lat="46.59801" lon="5.30798">
        <ele>199.8</ele>
        <time>2022-08-23T12:50:45Z</time>
      </trkpt>
      <trkpt lat="46.59814" lon="5.30804">
        <ele>200.4</ele>
        <time>2022-08-23T12:50:48Z</time>
      </trkpt>
      <trkpt lat="46.59823" lon="5.30807">
        <ele>201</ele>
        <time>2022-08-23T12:50:50Z</time>
      </trkpt>
      <trkpt lat="46.59851" lon="5.30817">
        <ele>201.8</ele>
        <time>2022-08-23T12:50:56Z</time>
      </trkpt>
      <trkpt lat="46.59856" lon="5.30818">
        <ele>202</ele>
        <time>2022-08-23T12:50:57Z</time>
      </trkpt>
      <trkpt lat="46.5987" lon="5.30822">
        <ele>202.8</ele>
        <time>2022-08-23T12:51:00Z</time>
      </trkpt>
      <trkpt lat="46.59884" lon="5.30825">
        <ele>202.8</ele>
        <time>2022-08-23T12:51:03Z</time>
      </trkpt>
      <trkpt lat="46.59898" lon="5.30828">
        <ele>203</ele>
        <time>2022-08-23T12:51:06Z</time>
      </trkpt>
      <trkpt lat="46.59921" lon="5.30833">
        <ele>203.8</ele>
        <time>2022-08-23T12:51:11Z</time>
      </trkpt>
      <trkpt lat="46.59945" lon="5.30837">
        <ele>204.2</ele>
        <time>2022-08-23T12:51:16Z</time>
      </trkpt>
      <trkpt lat="46.59954" lon="5.3084">
        <ele>204.4</ele>
        <time>2022-08-23T12:51:18Z</time>
      </trkpt>
      <trkpt lat="46.59963" lon="5.30844">
        <ele>204.6</ele>
        <time>2022-08-23T12:51:20Z</time>
      </trkpt>
      <trkpt lat="46.59968" lon="5.30847">
        <ele>204.8</ele>
        <time>2022-08-23T12:51:21Z</time>
      </trkpt>
      <trkpt lat="46.59983" lon="5.30864">
        <ele>205.2</ele>
        <time>2022-08-23T12:51:25Z</time>
      </trkpt>
      <trkpt lat="46.60004" lon="5.30888">
        <ele>206.4</ele>
        <time>2022-08-23T12:51:31Z</time>
      </trkpt>
      <trkpt lat="46.60011" lon="5.30897">
        <ele>206.6</ele>
        <time>2022-08-23T12:51:33Z</time>
      </trkpt>
      <trkpt lat="46.60033" lon="5.30921">
        <ele>207.4</ele>
        <time>2022-08-23T12:51:39Z</time>
      </trkpt>
      <trkpt lat="46.60036" lon="5.30926">
        <ele>207.4</ele>
        <time>2022-08-23T12:51:40Z</time>
      </trkpt>
      <trkpt lat="46.60064" lon="5.30956">
        <ele>208.6</ele>
        <time>2022-08-23T12:51:47Z</time>
      </trkpt>
      <trkpt lat="46.60097" lon="5.30994">
        <ele>209.4</ele>
        <time>2022-08-23T12:51:56Z</time>
      </trkpt>
      <trkpt lat="46.601" lon="5.30997">
        <ele>209.4</ele>
        <time>2022-08-23T12:51:57Z</time>
      </trkpt>
      <trkpt lat="46.60103" lon="5.31002">
        <ele>209.6</ele>
        <time>2022-08-23T12:51:58Z</time>
      </trkpt>
      <trkpt lat="46.60107" lon="5.31008">
        <ele>209.8</ele>
        <time>2022-08-23T12:52:00Z</time>
      </trkpt>
      <trkpt lat="46.60111" lon="5.31014">
        <ele>209.8</ele>
        <time>2022-08-23T12:52:02Z</time>
      </trkpt>
      <trkpt lat="46.60118" lon="5.31014">
        <ele>209.8</ele>
        <time>2022-08-23T12:52:04Z</time>
      </trkpt>
      <trkpt lat="46.60129" lon="5.31015">
        <ele>209.8</ele>
        <time>2022-08-23T12:52:06Z</time>
      </trkpt>
      <trkpt lat="46.60135" lon="5.31016">
        <ele>209.8</ele>
        <time>2022-08-23T12:52:07Z</time>
      </trkpt>
      <trkpt lat="46.60182" lon="5.3103">
        <ele>209.2</ele>
        <time>2022-08-23T12:52:14Z</time>
      </trkpt>
      <trkpt lat="46.60236" lon="5.31047">
        <ele>208.8</ele>
        <time>2022-08-23T12:52:22Z</time>
      </trkpt>
      <trkpt lat="46.60272" lon="5.31064">
        <ele>208.4</ele>
        <time>2022-08-23T12:52:27Z</time>
      </trkpt>
      <trkpt lat="46.60294" lon="5.31076">
        <ele>207.8</ele>
        <time>2022-08-23T12:52:30Z</time>
      </trkpt>
      <trkpt lat="46.60301" lon="5.3108">
        <ele>207.8</ele>
        <time>2022-08-23T12:52:31Z</time>
      </trkpt>
      <trkpt lat="46.60322" lon="5.31093">
        <ele>207.2</ele>
        <time>2022-08-23T12:52:34Z</time>
      </trkpt>
      <trkpt lat="46.60334" lon="5.31105">
        <ele>207</ele>
        <time>2022-08-23T12:52:36Z</time>
      </trkpt>
      <trkpt lat="46.60359" lon="5.31142">
        <ele>206.2</ele>
        <time>2022-08-23T12:52:41Z</time>
      </trkpt>
      <trkpt lat="46.60369" lon="5.31169">
        <ele>205.6</ele>
        <time>2022-08-23T12:52:44Z</time>
      </trkpt>
      <trkpt lat="46.60373" lon="5.31189">
        <ele>205.4</ele>
        <time>2022-08-23T12:52:46Z</time>
      </trkpt>
      <trkpt lat="46.60374" lon="5.3123">
        <ele>205.4</ele>
        <time>2022-08-23T12:52:50Z</time>
      </trkpt>
      <trkpt lat="46.60371" lon="5.31259">
        <ele>205</ele>
        <time>2022-08-23T12:52:53Z</time>
      </trkpt>
      <trkpt lat="46.60368" lon="5.31286">
        <ele>205</ele>
        <time>2022-08-23T12:52:56Z</time>
      </trkpt>
      <trkpt lat="46.60362" lon="5.31351">
        <ele>205.6</ele>
        <time>2022-08-23T12:53:04Z</time>
      </trkpt>
      <trkpt lat="46.60363" lon="5.31375">
        <ele>206.2</ele>
        <time>2022-08-23T12:53:07Z</time>
      </trkpt>
      <trkpt lat="46.60366" lon="5.31392">
        <ele>206.4</ele>
        <time>2022-08-23T12:53:09Z</time>
      </trkpt>
      <trkpt lat="46.60368" lon="5.314">
        <ele>206.4</ele>
        <time>2022-08-23T12:53:10Z</time>
      </trkpt>
      <trkpt lat="46.60375" lon="5.31415">
        <ele>206.6</ele>
        <time>2022-08-23T12:53:12Z</time>
      </trkpt>
      <trkpt lat="46.60381" lon="5.31421">
        <ele>206.6</ele>
        <time>2022-08-23T12:53:13Z</time>
      </trkpt>
      <trkpt lat="46.60417" lon="5.31457">
        <ele>206</ele>
        <time>2022-08-23T12:53:19Z</time>
      </trkpt>
      <trkpt lat="46.60447" lon="5.31498">
        <ele>205.4</ele>
        <time>2022-08-23T12:53:25Z</time>
      </trkpt>
      <trkpt lat="46.60484" lon="5.31548">
        <ele>205.2</ele>
        <time>2022-08-23T12:53:33Z</time>
      </trkpt>
      <trkpt lat="46.60518" lon="5.31578">
        <ele>205.6</ele>
        <time>2022-08-23T12:53:40Z</time>
      </trkpt>
      <trkpt lat="46.60563" lon="5.31619">
        <ele>206.6</ele>
        <time>2022-08-23T12:53:50Z</time>
      </trkpt>
      <trkpt lat="46.60581" lon="5.31636">
        <ele>207.2</ele>
        <time>2022-08-23T12:53:54Z</time>
      </trkpt>
      <trkpt lat="46.60601" lon="5.31652">
        <ele>208</ele>
        <time>2022-08-23T12:53:58Z</time>
      </trkpt>
      <trkpt lat="46.60618" lon="5.31661">
        <ele>208.4</ele>
        <time>2022-08-23T12:54:01Z</time>
      </trkpt>
      <trkpt lat="46.60646" lon="5.31675">
        <ele>208.8</ele>
        <time>2022-08-23T12:54:06Z</time>
      </trkpt>
      <trkpt lat="46.60696" lon="5.31695">
        <ele>209</ele>
        <time>2022-08-23T12:54:14Z</time>
      </trkpt>
      <trkpt lat="46.60738" lon="5.31715">
        <ele>208.6</ele>
        <time>2022-08-23T12:54:21Z</time>
      </trkpt>
      <trkpt lat="46.60756" lon="5.31737">
        <ele>208.4</ele>
        <time>2022-08-23T12:54:25Z</time>
      </trkpt>
      <trkpt lat="46.60778" lon="5.31775">
        <ele>208.2</ele>
        <time>2022-08-23T12:54:30Z</time>
      </trkpt>
      <trkpt lat="46.60782" lon="5.31784">
        <ele>208.2</ele>
        <time>2022-08-23T12:54:31Z</time>
      </trkpt>
      <trkpt lat="46.60805" lon="5.31845">
        <ele>207.4</ele>
        <time>2022-08-23T12:54:37Z</time>
      </trkpt>
      <trkpt lat="46.60808" lon="5.31855">
        <ele>207.2</ele>
        <time>2022-08-23T12:54:38Z</time>
      </trkpt>
      <trkpt lat="46.60819" lon="5.31904">
        <ele>206.8</ele>
        <time>2022-08-23T12:54:43Z</time>
      </trkpt>
      <trkpt lat="46.60822" lon="5.31922">
        <ele>206.8</ele>
        <time>2022-08-23T12:54:45Z</time>
      </trkpt>
      <trkpt lat="46.60826" lon="5.31949">
        <ele>207</ele>
        <time>2022-08-23T12:54:48Z</time>
      </trkpt>
      <trkpt lat="46.60831" lon="5.32018">
        <ele>208.4</ele>
        <time>2022-08-23T12:54:55Z</time>
      </trkpt>
      <trkpt lat="46.60837" lon="5.32074">
        <ele>208.2</ele>
        <time>2022-08-23T12:55:00Z</time>
      </trkpt>
      <trkpt lat="46.6084" lon="5.32085">
        <ele>208</ele>
        <time>2022-08-23T12:55:01Z</time>
      </trkpt>
      <trkpt lat="46.60843" lon="5.32095">
        <ele>207.8</ele>
        <time>2022-08-23T12:55:02Z</time>
      </trkpt>
      <trkpt lat="46.60853" lon="5.32112">
        <ele>207.6</ele>
        <time>2022-08-23T12:55:04Z</time>
      </trkpt>
      <trkpt lat="46.60864" lon="5.32128">
        <ele>207.2</ele>
        <time>2022-08-23T12:55:06Z</time>
      </trkpt>
      <trkpt lat="46.60885" lon="5.32154">
        <ele>207</ele>
        <time>2022-08-23T12:55:10Z</time>
      </trkpt>
      <trkpt lat="46.60925" lon="5.32199">
        <ele>207.8</ele>
        <time>2022-08-23T12:55:18Z</time>
      </trkpt>
      <trkpt lat="46.60946" lon="5.32215">
        <ele>208.2</ele>
        <time>2022-08-23T12:55:22Z</time>
      </trkpt>
      <trkpt lat="46.60951" lon="5.32218">
        <ele>208.6</ele>
        <time>2022-08-23T12:55:23Z</time>
      </trkpt>
      <trkpt lat="46.60983" lon="5.32222">
        <ele>209.2</ele>
        <time>2022-08-23T12:55:28Z</time>
      </trkpt>
      <trkpt lat="46.60989" lon="5.32222">
        <ele>209.4</ele>
        <time>2022-08-23T12:55:29Z</time>
      </trkpt>
      <trkpt lat="46.61018" lon="5.32222">
        <ele>209.4</ele>
        <time>2022-08-23T12:55:33Z</time>
      </trkpt>
      <trkpt lat="46.61079" lon="5.32223">
        <ele>209</ele>
        <time>2022-08-23T12:55:41Z</time>
      </trkpt>
      <trkpt lat="46.61103" lon="5.32224">
        <ele>208.2</ele>
        <time>2022-08-23T12:55:44Z</time>
      </trkpt>
      <trkpt lat="46.61143" lon="5.32224">
        <ele>207.4</ele>
        <time>2022-08-23T12:55:49Z</time>
      </trkpt>
      <trkpt lat="46.61151" lon="5.32224">
        <ele>207</ele>
        <time>2022-08-23T12:55:50Z</time>
      </trkpt>
      <trkpt lat="46.61173" lon="5.3222">
        <ele>206.6</ele>
        <time>2022-08-23T12:55:53Z</time>
      </trkpt>
      <trkpt lat="46.61186" lon="5.32213">
        <ele>206.6</ele>
        <time>2022-08-23T12:55:55Z</time>
      </trkpt>
      <trkpt lat="46.61209" lon="5.32194">
        <ele>206.6</ele>
        <time>2022-08-23T12:55:59Z</time>
      </trkpt>
      <trkpt lat="46.61234" lon="5.32178">
        <ele>206.8</ele>
        <time>2022-08-23T12:56:03Z</time>
      </trkpt>
      <trkpt lat="46.61241" lon="5.32176">
        <ele>206.8</ele>
        <time>2022-08-23T12:56:04Z</time>
      </trkpt>
      <trkpt lat="46.61262" lon="5.32174">
        <ele>207</ele>
        <time>2022-08-23T12:56:07Z</time>
      </trkpt>
      <trkpt lat="46.61277" lon="5.32176">
        <ele>207</ele>
        <time>2022-08-23T12:56:09Z</time>
      </trkpt>
      <trkpt lat="46.61316" lon="5.3219">
        <ele>206.8</ele>
        <time>2022-08-23T12:56:14Z</time>
      </trkpt>
      <trkpt lat="46.61348" lon="5.32203">
        <ele>206.2</ele>
        <time>2022-08-23T12:56:18Z</time>
      </trkpt>
      <trkpt lat="46.61364" lon="5.32206">
        <ele>205.8</ele>
        <time>2022-08-23T12:56:20Z</time>
      </trkpt>
      <trkpt lat="46.61373" lon="5.32205">
        <ele>205.6</ele>
        <time>2022-08-23T12:56:21Z</time>
      </trkpt>
      <trkpt lat="46.61398" lon="5.322">
        <ele>205.4</ele>
        <time>2022-08-23T12:56:24Z</time>
      </trkpt>
      <trkpt lat="46.61414" lon="5.32192">
        <ele>204.6</ele>
        <time>2022-08-23T12:56:26Z</time>
      </trkpt>
      <trkpt lat="46.61437" lon="5.32177">
        <ele>203.6</ele>
        <time>2022-08-23T12:56:29Z</time>
      </trkpt>
      <trkpt lat="46.61458" lon="5.32161">
        <ele>203</ele>
        <time>2022-08-23T12:56:32Z</time>
      </trkpt>
      <trkpt lat="46.61474" lon="5.32154">
        <ele>202.6</ele>
        <time>2022-08-23T12:56:34Z</time>
      </trkpt>
      <trkpt lat="46.61482" lon="5.32152">
        <ele>202.4</ele>
        <time>2022-08-23T12:56:35Z</time>
      </trkpt>
      <trkpt lat="46.61491" lon="5.32151">
        <ele>202.4</ele>
        <time>2022-08-23T12:56:36Z</time>
      </trkpt>
      <trkpt lat="46.61508" lon="5.32153">
        <ele>201.6</ele>
        <time>2022-08-23T12:56:38Z</time>
      </trkpt>
      <trkpt lat="46.61524" lon="5.32163">
        <ele>201.4</ele>
        <time>2022-08-23T12:56:40Z</time>
      </trkpt>
      <trkpt lat="46.61537" lon="5.32176">
        <ele>201.2</ele>
        <time>2022-08-23T12:56:42Z</time>
      </trkpt>
      <trkpt lat="46.61563" lon="5.32219">
        <ele>200.6</ele>
        <time>2022-08-23T12:56:47Z</time>
      </trkpt>
      <trkpt lat="46.61594" lon="5.32277">
        <ele>200.4</ele>
        <time>2022-08-23T12:56:54Z</time>
      </trkpt>
      <trkpt lat="46.61599" lon="5.32295">
        <ele>200.4</ele>
        <time>2022-08-23T12:56:56Z</time>
      </trkpt>
      <trkpt lat="46.61602" lon="5.32314">
        <ele>200.4</ele>
        <time>2022-08-23T12:56:58Z</time>
      </trkpt>
      <trkpt lat="46.61615" lon="5.32374">
        <ele>201.2</ele>
        <time>2022-08-23T12:57:05Z</time>
      </trkpt>
      <trkpt lat="46.61633" lon="5.32408">
        <ele>202</ele>
        <time>2022-08-23T12:57:10Z</time>
      </trkpt>
      <trkpt lat="46.61657" lon="5.3243">
        <ele>202.2</ele>
        <time>2022-08-23T12:57:15Z</time>
      </trkpt>
      <trkpt lat="46.61673" lon="5.32438">
        <ele>202.6</ele>
        <time>2022-08-23T12:57:18Z</time>
      </trkpt>
      <trkpt lat="46.61697" lon="5.32452">
        <ele>203.4</ele>
        <time>2022-08-23T12:57:23Z</time>
      </trkpt>
      <trkpt lat="46.61702" lon="5.32455">
        <ele>203.6</ele>
        <time>2022-08-23T12:57:24Z</time>
      </trkpt>
      <trkpt lat="46.61741" lon="5.32476">
        <ele>204.6</ele>
        <time>2022-08-23T12:57:32Z</time>
      </trkpt>
      <trkpt lat="46.61746" lon="5.32479">
        <ele>204.6</ele>
        <time>2022-08-23T12:57:33Z</time>
      </trkpt>
      <trkpt lat="46.61769" lon="5.32495">
        <ele>205.8</ele>
        <time>2022-08-23T12:57:38Z</time>
      </trkpt>
      <trkpt lat="46.61781" lon="5.32506">
        <ele>206.4</ele>
        <time>2022-08-23T12:57:41Z</time>
      </trkpt>
      <trkpt lat="46.61795" lon="5.32518">
        <ele>206.8</ele>
        <time>2022-08-23T12:57:44Z</time>
      </trkpt>
      <trkpt lat="46.6182" lon="5.3254">
        <ele>207</ele>
        <time>2022-08-23T12:57:49Z</time>
      </trkpt>
      <trkpt lat="46.61846" lon="5.32563">
        <ele>208</ele>
        <time>2022-08-23T12:57:55Z</time>
      </trkpt>
      <trkpt lat="46.61863" lon="5.32578">
        <ele>208.8</ele>
        <time>2022-08-23T12:57:59Z</time>
      </trkpt>
      <trkpt lat="46.61867" lon="5.32583">
        <ele>209.2</ele>
        <time>2022-08-23T12:58:00Z</time>
      </trkpt>
      <trkpt lat="46.61906" lon="5.32627">
        <ele>210.2</ele>
        <time>2022-08-23T12:58:09Z</time>
      </trkpt>
      <trkpt lat="46.61914" lon="5.32638">
        <ele>210.2</ele>
        <time>2022-08-23T12:58:11Z</time>
      </trkpt>
      <trkpt lat="46.61945" lon="5.3268">
        <ele>210.2</ele>
        <time>2022-08-23T12:58:18Z</time>
      </trkpt>
      <trkpt lat="46.6198" lon="5.32733">
        <ele>209.4</ele>
        <time>2022-08-23T12:58:26Z</time>
      </trkpt>
      <trkpt lat="46.62013" lon="5.32786">
        <ele>209.2</ele>
        <time>2022-08-23T12:58:34Z</time>
      </trkpt>
      <trkpt lat="46.62042" lon="5.3283">
        <ele>210.2</ele>
        <time>2022-08-23T12:58:42Z</time>
      </trkpt>
      <trkpt lat="46.6205" lon="5.32842">
        <ele>210.4</ele>
        <time>2022-08-23T12:58:44Z</time>
      </trkpt>
      <trkpt lat="46.62077" lon="5.32883">
        <ele>210.8</ele>
        <time>2022-08-23T12:58:51Z</time>
      </trkpt>
      <trkpt lat="46.62111" lon="5.32912">
        <ele>211.2</ele>
        <time>2022-08-23T12:58:58Z</time>
      </trkpt>
      <trkpt lat="46.62142" lon="5.32932">
        <ele>211.4</ele>
        <time>2022-08-23T12:59:04Z</time>
      </trkpt>
      <trkpt lat="46.62154" lon="5.32938">
        <ele>211.4</ele>
        <time>2022-08-23T12:59:06Z</time>
      </trkpt>
      <trkpt lat="46.6216" lon="5.3294">
        <ele>211.4</ele>
        <time>2022-08-23T12:59:07Z</time>
      </trkpt>
      <trkpt lat="46.62166" lon="5.32941">
        <ele>211.4</ele>
        <time>2022-08-23T12:59:08Z</time>
      </trkpt>
      <trkpt lat="46.62179" lon="5.32938">
        <ele>211.4</ele>
        <time>2022-08-23T12:59:10Z</time>
      </trkpt>
      <trkpt lat="46.62185" lon="5.32935">
        <ele>211.4</ele>
        <time>2022-08-23T12:59:11Z</time>
      </trkpt>
      <trkpt lat="46.62212" lon="5.32922">
        <ele>210.6</ele>
        <time>2022-08-23T12:59:15Z</time>
      </trkpt>
      <trkpt lat="46.62219" lon="5.3292">
        <ele>210.4</ele>
        <time>2022-08-23T12:59:16Z</time>
      </trkpt>
      <trkpt lat="46.62227" lon="5.32919">
        <ele>210</ele>
        <time>2022-08-23T12:59:17Z</time>
      </trkpt>
      <trkpt lat="46.6226" lon="5.32918">
        <ele>208.6</ele>
        <time>2022-08-23T12:59:21Z</time>
      </trkpt>
      <trkpt lat="46.62268" lon="5.32918">
        <ele>208.4</ele>
        <time>2022-08-23T12:59:22Z</time>
      </trkpt>
      <trkpt lat="46.62286" lon="5.32917">
        <ele>207.6</ele>
        <time>2022-08-23T12:59:24Z</time>
      </trkpt>
      <trkpt lat="46.62321" lon="5.32916">
        <ele>206.6</ele>
        <time>2022-08-23T12:59:28Z</time>
      </trkpt>
      <trkpt lat="46.62357" lon="5.32913">
        <ele>205.4</ele>
        <time>2022-08-23T12:59:32Z</time>
      </trkpt>
      <trkpt lat="46.62385" lon="5.32909">
        <ele>203.8</ele>
        <time>2022-08-23T12:59:35Z</time>
      </trkpt>
      <trkpt lat="46.62404" lon="5.32907">
        <ele>202.8</ele>
        <time>2022-08-23T12:59:37Z</time>
      </trkpt>
      <trkpt lat="46.62414" lon="5.32905">
        <ele>202.4</ele>
        <time>2022-08-23T12:59:38Z</time>
      </trkpt>
      <trkpt lat="46.62433" lon="5.32903">
        <ele>201.4</ele>
        <time>2022-08-23T12:59:40Z</time>
      </trkpt>
      <trkpt lat="46.62461" lon="5.32899">
        <ele>200</ele>
        <time>2022-08-23T12:59:43Z</time>
      </trkpt>
      <trkpt lat="46.62478" lon="5.32896">
        <ele>199.2</ele>
        <time>2022-08-23T12:59:45Z</time>
      </trkpt>
      <trkpt lat="46.62496" lon="5.32893">
        <ele>198.6</ele>
        <time>2022-08-23T12:59:47Z</time>
      </trkpt>
      <trkpt lat="46.62537" lon="5.32885">
        <ele>197.6</ele>
        <time>2022-08-23T12:59:52Z</time>
      </trkpt>
      <trkpt lat="46.62544" lon="5.32883">
        <ele>197.4</ele>
        <time>2022-08-23T12:59:53Z</time>
      </trkpt>
      <trkpt lat="46.62586" lon="5.32877">
        <ele>197.2</ele>
        <time>2022-08-23T12:59:59Z</time>
      </trkpt>
      <trkpt lat="46.62593" lon="5.32877">
        <ele>197.2</ele>
        <time>2022-08-23T13:00:00Z</time>
      </trkpt>
      <trkpt lat="46.62607" lon="5.32882">
        <ele>197</ele>
        <time>2022-08-23T13:00:02Z</time>
      </trkpt>
      <trkpt lat="46.62613" lon="5.32888">
        <ele>197</ele>
        <time>2022-08-23T13:00:03Z</time>
      </trkpt>
      <trkpt lat="46.62618" lon="5.32896">
        <ele>197</ele>
        <time>2022-08-23T13:00:04Z</time>
      </trkpt>
      <trkpt lat="46.62624" lon="5.32914">
        <ele>197</ele>
        <time>2022-08-23T13:00:06Z</time>
      </trkpt>
      <trkpt lat="46.62633" lon="5.32939">
        <ele>197</ele>
        <time>2022-08-23T13:00:09Z</time>
      </trkpt>
      <trkpt lat="46.62639" lon="5.32954">
        <ele>197.4</ele>
        <time>2022-08-23T13:00:11Z</time>
      </trkpt>
      <trkpt lat="46.62642" lon="5.3296">
        <ele>197.4</ele>
        <time>2022-08-23T13:00:12Z</time>
      </trkpt>
      <trkpt lat="46.62648" lon="5.32973">
        <ele>197.8</ele>
        <time>2022-08-23T13:00:14Z</time>
      </trkpt>
      <trkpt lat="46.62655" lon="5.32983">
        <ele>198.2</ele>
        <time>2022-08-23T13:00:16Z</time>
      </trkpt>
      <trkpt lat="46.6266" lon="5.32987">
        <ele>198.6</ele>
        <time>2022-08-23T13:00:17Z</time>
      </trkpt>
      <trkpt lat="46.62678" lon="5.32997">
        <ele>199</ele>
        <time>2022-08-23T13:00:21Z</time>
      </trkpt>
      <trkpt lat="46.62682" lon="5.32999">
        <ele>199.8</ele>
        <time>2022-08-23T13:00:22Z</time>
      </trkpt>
      <trkpt lat="46.62687" lon="5.32999">
        <ele>200</ele>
        <time>2022-08-23T13:00:23Z</time>
      </trkpt>
      <trkpt lat="46.62696" lon="5.32999">
        <ele>201</ele>
        <time>2022-08-23T13:00:25Z</time>
      </trkpt>
      <trkpt lat="46.627" lon="5.32999">
        <ele>201</ele>
        <time>2022-08-23T13:00:26Z</time>
      </trkpt>
      <trkpt lat="46.62717" lon="5.32997">
        <ele>201.8</ele>
        <time>2022-08-23T13:00:30Z</time>
      </trkpt>
      <trkpt lat="46.62722" lon="5.32998">
        <ele>202.2</ele>
        <time>2022-08-23T13:00:31Z</time>
      </trkpt>
      <trkpt lat="46.6273" lon="5.33">
        <ele>203</ele>
        <time>2022-08-23T13:00:33Z</time>
      </trkpt>
      <trkpt lat="46.62743" lon="5.33004">
        <ele>203.4</ele>
        <time>2022-08-23T13:00:36Z</time>
      </trkpt>
      <trkpt lat="46.62765" lon="5.33011">
        <ele>204.6</ele>
        <time>2022-08-23T13:00:41Z</time>
      </trkpt>
      <trkpt lat="46.62778" lon="5.33015">
        <ele>205</ele>
        <time>2022-08-23T13:00:44Z</time>
      </trkpt>
      <trkpt lat="46.62796" lon="5.33022">
        <ele>205.6</ele>
        <time>2022-08-23T13:00:48Z</time>
      </trkpt>
      <trkpt lat="46.62835" lon="5.33033">
        <ele>206.2</ele>
        <time>2022-08-23T13:00:56Z</time>
      </trkpt>
      <trkpt lat="46.62862" lon="5.33041">
        <ele>206.6</ele>
        <time>2022-08-23T13:01:01Z</time>
      </trkpt>
      <trkpt lat="46.62877" lon="5.33047">
        <ele>207</ele>
        <time>2022-08-23T13:01:04Z</time>
      </trkpt>
      <trkpt lat="46.62883" lon="5.33049">
        <ele>207</ele>
        <time>2022-08-23T13:01:05Z</time>
      </trkpt>
      <trkpt lat="46.62902" lon="5.33066">
        <ele>207.4</ele>
        <time>2022-08-23T13:01:09Z</time>
      </trkpt>
      <trkpt lat="46.62906" lon="5.33071">
        <ele>207.4</ele>
        <time>2022-08-23T13:01:10Z</time>
      </trkpt>
      <trkpt lat="46.62927" lon="5.33098">
        <ele>207.6</ele>
        <time>2022-08-23T13:01:15Z</time>
      </trkpt>
      <trkpt lat="46.62937" lon="5.33106">
        <ele>207.8</ele>
        <time>2022-08-23T13:01:17Z</time>
      </trkpt>
      <trkpt lat="46.62943" lon="5.33108">
        <ele>208</ele>
        <time>2022-08-23T13:01:18Z</time>
      </trkpt>
      <trkpt lat="46.62953" lon="5.33112">
        <ele>208.2</ele>
        <time>2022-08-23T13:01:20Z</time>
      </trkpt>
      <trkpt lat="46.62982" lon="5.33122">
        <ele>209.2</ele>
        <time>2022-08-23T13:01:26Z</time>
      </trkpt>
      <trkpt lat="46.62992" lon="5.33124">
        <ele>209.4</ele>
        <time>2022-08-23T13:01:28Z</time>
      </trkpt>
      <trkpt lat="46.63013" lon="5.33132">
        <ele>210.4</ele>
        <time>2022-08-23T13:01:33Z</time>
      </trkpt>
      <trkpt lat="46.63027" lon="5.33137">
        <ele>210.8</ele>
        <time>2022-08-23T13:01:36Z</time>
      </trkpt>
      <trkpt lat="46.63035" lon="5.33142">
        <ele>211.4</ele>
        <time>2022-08-23T13:01:38Z</time>
      </trkpt>
      <trkpt lat="46.63053" lon="5.33155">
        <ele>212.4</ele>
        <time>2022-08-23T13:01:42Z</time>
      </trkpt>
      <trkpt lat="46.63062" lon="5.33163">
        <ele>212.6</ele>
        <time>2022-08-23T13:01:44Z</time>
      </trkpt>
      <trkpt lat="46.63093" lon="5.33194">
        <ele>213.8</ele>
        <time>2022-08-23T13:01:51Z</time>
      </trkpt>
      <trkpt lat="46.63142" lon="5.3324">
        <ele>214.8</ele>
        <time>2022-08-23T13:02:01Z</time>
      </trkpt>
      <trkpt lat="46.63163" lon="5.33259">
        <ele>214.8</ele>
        <time>2022-08-23T13:02:05Z</time>
      </trkpt>
      <trkpt lat="46.63191" lon="5.33284">
        <ele>214.8</ele>
        <time>2022-08-23T13:02:10Z</time>
      </trkpt>
      <trkpt lat="46.6323" lon="5.33315">
        <ele>214.8</ele>
        <time>2022-08-23T13:02:17Z</time>
      </trkpt>
      <trkpt lat="46.63272" lon="5.33336">
        <ele>214.8</ele>
        <time>2022-08-23T13:02:24Z</time>
      </trkpt>
      <trkpt lat="46.63325" lon="5.3335">
        <ele>215</ele>
        <time>2022-08-23T13:02:32Z</time>
      </trkpt>
      <trkpt lat="46.6337" lon="5.3337">
        <ele>215</ele>
        <time>2022-08-23T13:02:39Z</time>
      </trkpt>
      <trkpt lat="46.63423" lon="5.33411">
        <ele>214.2</ele>
        <time>2022-08-23T13:02:48Z</time>
      </trkpt>
      <trkpt lat="46.63474" lon="5.33455">
        <ele>214.2</ele>
        <time>2022-08-23T13:02:57Z</time>
      </trkpt>
      <trkpt lat="46.6348" lon="5.3346">
        <ele>214.2</ele>
        <time>2022-08-23T13:02:58Z</time>
      </trkpt>
      <trkpt lat="46.63531" lon="5.33501">
        <ele>214</ele>
        <time>2022-08-23T13:03:07Z</time>
      </trkpt>
      <trkpt lat="46.63543" lon="5.33507">
        <ele>214</ele>
        <time>2022-08-23T13:03:09Z</time>
      </trkpt>
      <trkpt lat="46.63562" lon="5.33511">
        <ele>214</ele>
        <time>2022-08-23T13:03:12Z</time>
      </trkpt>
      <trkpt lat="46.6362" lon="5.33519">
        <ele>214</ele>
        <time>2022-08-23T13:03:21Z</time>
      </trkpt>
      <trkpt lat="46.6364" lon="5.33523">
        <ele>213.8</ele>
        <time>2022-08-23T13:03:24Z</time>
      </trkpt>
      <trkpt lat="46.63666" lon="5.3353">
        <ele>213.8</ele>
        <time>2022-08-23T13:03:28Z</time>
      </trkpt>
      <trkpt lat="46.63691" lon="5.33541">
        <ele>213.4</ele>
        <time>2022-08-23T13:03:32Z</time>
      </trkpt>
      <trkpt lat="46.63735" lon="5.33562">
        <ele>213.2</ele>
        <time>2022-08-23T13:03:39Z</time>
      </trkpt>
      <trkpt lat="46.63777" lon="5.3358">
        <ele>213.2</ele>
        <time>2022-08-23T13:03:45Z</time>
      </trkpt>
      <trkpt lat="46.63819" lon="5.33601">
        <ele>213</ele>
        <time>2022-08-23T13:03:51Z</time>
      </trkpt>
      <trkpt lat="46.6385" lon="5.33615">
        <ele>212.6</ele>
        <time>2022-08-23T13:03:55Z</time>
      </trkpt>
      <trkpt lat="46.6388" lon="5.33629">
        <ele>212.2</ele>
        <time>2022-08-23T13:03:59Z</time>
      </trkpt>
      <trkpt lat="46.63924" lon="5.33652">
        <ele>211.4</ele>
        <time>2022-08-23T13:04:05Z</time>
      </trkpt>
      <trkpt lat="46.6394" lon="5.3366">
        <ele>211</ele>
        <time>2022-08-23T13:04:07Z</time>
      </trkpt>
      <trkpt lat="46.63979" lon="5.33679">
        <ele>210.6</ele>
        <time>2022-08-23T13:04:12Z</time>
      </trkpt>
      <trkpt lat="46.63995" lon="5.33687">
        <ele>210.4</ele>
        <time>2022-08-23T13:04:14Z</time>
      </trkpt>
      <trkpt lat="46.6402" lon="5.33699">
        <ele>209.2</ele>
        <time>2022-08-23T13:04:17Z</time>
      </trkpt>
      <trkpt lat="46.64046" lon="5.33711">
        <ele>208.8</ele>
        <time>2022-08-23T13:04:20Z</time>
      </trkpt>
      <trkpt lat="46.64055" lon="5.33715">
        <ele>208</ele>
        <time>2022-08-23T13:04:21Z</time>
      </trkpt>
      <trkpt lat="46.64095" lon="5.33734">
        <ele>206.6</ele>
        <time>2022-08-23T13:04:26Z</time>
      </trkpt>
      <trkpt lat="46.64103" lon="5.33738">
        <ele>206.4</ele>
        <time>2022-08-23T13:04:27Z</time>
      </trkpt>
      <trkpt lat="46.64124" lon="5.33747">
        <ele>205.2</ele>
        <time>2022-08-23T13:04:30Z</time>
      </trkpt>
      <trkpt lat="46.64144" lon="5.33756">
        <ele>203.6</ele>
        <time>2022-08-23T13:04:33Z</time>
      </trkpt>
      <trkpt lat="46.64165" lon="5.33764">
        <ele>202.4</ele>
        <time>2022-08-23T13:04:36Z</time>
      </trkpt>
      <trkpt lat="46.64187" lon="5.33772">
        <ele>201.8</ele>
        <time>2022-08-23T13:04:39Z</time>
      </trkpt>
      <trkpt lat="46.64202" lon="5.3378">
        <ele>201.4</ele>
        <time>2022-08-23T13:04:41Z</time>
      </trkpt>
      <trkpt lat="46.64217" lon="5.3379">
        <ele>200.6</ele>
        <time>2022-08-23T13:04:43Z</time>
      </trkpt>
      <trkpt lat="46.64233" lon="5.33799">
        <ele>200.2</ele>
        <time>2022-08-23T13:04:45Z</time>
      </trkpt>
      <trkpt lat="46.64256" lon="5.3381">
        <ele>199.8</ele>
        <time>2022-08-23T13:04:48Z</time>
      </trkpt>
      <trkpt lat="46.643" lon="5.3383">
        <ele>199.2</ele>
        <time>2022-08-23T13:04:54Z</time>
      </trkpt>
      <trkpt lat="46.64314" lon="5.33837">
        <ele>199.2</ele>
        <time>2022-08-23T13:04:56Z</time>
      </trkpt>
      <trkpt lat="46.64339" lon="5.33849">
        <ele>199.2</ele>
        <time>2022-08-23T13:05:00Z</time>
      </trkpt>
      <trkpt lat="46.64384" lon="5.33867">
        <ele>199.6</ele>
        <time>2022-08-23T13:05:07Z</time>
      </trkpt>
      <trkpt lat="46.64397" lon="5.33874">
        <ele>199.8</ele>
        <time>2022-08-23T13:05:09Z</time>
      </trkpt>
      <trkpt lat="46.64409" lon="5.33883">
        <ele>200.4</ele>
        <time>2022-08-23T13:05:11Z</time>
      </trkpt>
      <trkpt lat="46.64416" lon="5.33887">
        <ele>200.4</ele>
        <time>2022-08-23T13:05:12Z</time>
      </trkpt>
      <trkpt lat="46.64448" lon="5.33902">
        <ele>201.6</ele>
        <time>2022-08-23T13:05:17Z</time>
      </trkpt>
      <trkpt lat="46.64467" lon="5.33911">
        <ele>201.8</ele>
        <time>2022-08-23T13:05:20Z</time>
      </trkpt>
      <trkpt lat="46.64514" lon="5.33935">
        <ele>202.2</ele>
        <time>2022-08-23T13:05:28Z</time>
      </trkpt>
      <trkpt lat="46.64564" lon="5.33965">
        <ele>202</ele>
        <time>2022-08-23T13:05:36Z</time>
      </trkpt>
      <trkpt lat="46.64571" lon="5.3397">
        <ele>202</ele>
        <time>2022-08-23T13:05:37Z</time>
      </trkpt>
      <trkpt lat="46.64598" lon="5.33989">
        <ele>201.2</ele>
        <time>2022-08-23T13:05:41Z</time>
      </trkpt>
      <trkpt lat="46.64614" lon="5.33995">
        <ele>200.4</ele>
        <time>2022-08-23T13:05:43Z</time>
      </trkpt>
      <trkpt lat="46.64629" lon="5.33996">
        <ele>199.8</ele>
        <time>2022-08-23T13:05:45Z</time>
      </trkpt>
      <trkpt lat="46.64644" lon="5.33992">
        <ele>199.2</ele>
        <time>2022-08-23T13:05:47Z</time>
      </trkpt>
      <trkpt lat="46.64657" lon="5.33991">
        <ele>199</ele>
        <time>2022-08-23T13:05:49Z</time>
      </trkpt>
      <trkpt lat="46.64671" lon="5.33995">
        <ele>198.8</ele>
        <time>2022-08-23T13:05:51Z</time>
      </trkpt>
      <trkpt lat="46.64704" lon="5.34016">
        <ele>198.4</ele>
        <time>2022-08-23T13:05:56Z</time>
      </trkpt>
      <trkpt lat="46.64738" lon="5.3404">
        <ele>198.4</ele>
        <time>2022-08-23T13:06:02Z</time>
      </trkpt>
      <trkpt lat="46.64744" lon="5.34042">
        <ele>198.4</ele>
        <time>2022-08-23T13:06:03Z</time>
      </trkpt>
      <trkpt lat="46.64765" lon="5.34048">
        <ele>198.6</ele>
        <time>2022-08-23T13:06:07Z</time>
      </trkpt>
      <trkpt lat="46.64775" lon="5.34048">
        <ele>198.8</ele>
        <time>2022-08-23T13:06:09Z</time>
      </trkpt>
      <trkpt lat="46.64815" lon="5.3405">
        <ele>200.4</ele>
        <time>2022-08-23T13:06:17Z</time>
      </trkpt>
      <trkpt lat="46.64843" lon="5.34054">
        <ele>201.4</ele>
        <time>2022-08-23T13:06:23Z</time>
      </trkpt>
      <trkpt lat="46.64856" lon="5.34055">
        <ele>201.8</ele>
        <time>2022-08-23T13:06:26Z</time>
      </trkpt>
      <trkpt lat="46.64873" lon="5.34056">
        <ele>202.8</ele>
        <time>2022-08-23T13:06:30Z</time>
      </trkpt>
      <trkpt lat="46.64885" lon="5.34056">
        <ele>203.8</ele>
        <time>2022-08-23T13:06:33Z</time>
      </trkpt>
      <trkpt lat="46.64889" lon="5.34057">
        <ele>204</ele>
        <time>2022-08-23T13:06:34Z</time>
      </trkpt>
      <trkpt lat="46.64909" lon="5.3406">
        <ele>205.2</ele>
        <time>2022-08-23T13:06:39Z</time>
      </trkpt>
      <trkpt lat="46.64916" lon="5.34061">
        <ele>205.8</ele>
        <time>2022-08-23T13:06:41Z</time>
      </trkpt>
      <trkpt lat="46.64937" lon="5.34061">
        <ele>206.6</ele>
        <time>2022-08-23T13:06:46Z</time>
      </trkpt>
      <trkpt lat="46.6495" lon="5.34062">
        <ele>207.8</ele>
        <time>2022-08-23T13:06:49Z</time>
      </trkpt>
      <trkpt lat="46.64954" lon="5.34062">
        <ele>208</ele>
        <time>2022-08-23T13:06:50Z</time>
      </trkpt>
      <trkpt lat="46.64984" lon="5.34063">
        <ele>208.8</ele>
        <time>2022-08-23T13:06:57Z</time>
      </trkpt>
      <trkpt lat="46.65005" lon="5.34063">
        <ele>209.4</ele>
        <time>2022-08-23T13:07:02Z</time>
      </trkpt>
      <trkpt lat="46.65018" lon="5.34062">
        <ele>209.8</ele>
        <time>2022-08-23T13:07:05Z</time>
      </trkpt>
      <trkpt lat="46.65059" lon="5.3406">
        <ele>210.8</ele>
        <time>2022-08-23T13:07:14Z</time>
      </trkpt>
      <trkpt lat="46.65063" lon="5.3406">
        <ele>211</ele>
        <time>2022-08-23T13:07:15Z</time>
      </trkpt>
      <trkpt lat="46.65097" lon="5.34062">
        <ele>211.8</ele>
        <time>2022-08-23T13:07:22Z</time>
      </trkpt>
      <trkpt lat="46.65117" lon="5.34065">
        <ele>212</ele>
        <time>2022-08-23T13:07:26Z</time>
      </trkpt>
      <trkpt lat="46.65142" lon="5.3407">
        <ele>212.4</ele>
        <time>2022-08-23T13:07:31Z</time>
      </trkpt>
      <trkpt lat="46.65196" lon="5.34086">
        <ele>213</ele>
        <time>2022-08-23T13:07:41Z</time>
      </trkpt>
      <trkpt lat="46.65224" lon="5.34092">
        <ele>213.2</ele>
        <time>2022-08-23T13:07:47Z</time>
      </trkpt>
      <trkpt lat="46.65229" lon="5.34097">
        <ele>213.4</ele>
        <time>2022-08-23T13:07:50Z</time>
      </trkpt>
      <trkpt lat="46.65234" lon="5.34117">
        <ele>213.4</ele>
        <time>2022-08-23T13:07:54Z</time>
      </trkpt>
      <trkpt lat="46.65241" lon="5.34145">
        <ele>213.6</ele>
        <time>2022-08-23T13:07:58Z</time>
      </trkpt>
      <trkpt lat="46.65253" lon="5.34181">
        <ele>214</ele>
        <time>2022-08-23T13:08:03Z</time>
      </trkpt>
      <trkpt lat="46.6526" lon="5.34195">
        <ele>214.2</ele>
        <time>2022-08-23T13:08:05Z</time>
      </trkpt>
      <trkpt lat="46.65287" lon="5.34248">
        <ele>214.6</ele>
        <time>2022-08-23T13:08:12Z</time>
      </trkpt>
      <trkpt lat="46.65312" lon="5.34294">
        <ele>215</ele>
        <time>2022-08-23T13:08:18Z</time>
      </trkpt>
      <trkpt lat="46.6532" lon="5.3431">
        <ele>215.2</ele>
        <time>2022-08-23T13:08:20Z</time>
      </trkpt>
      <trkpt lat="46.65348" lon="5.34363">
        <ele>215.4</ele>
        <time>2022-08-23T13:08:27Z</time>
      </trkpt>
      <trkpt lat="46.65383" lon="5.34425">
        <ele>215.4</ele>
        <time>2022-08-23T13:08:35Z</time>
      </trkpt>
      <trkpt lat="46.65388" lon="5.34434">
        <ele>215.2</ele>
        <time>2022-08-23T13:08:36Z</time>
      </trkpt>
      <trkpt lat="46.65422" lon="5.34497">
        <ele>214.6</ele>
        <time>2022-08-23T13:08:43Z</time>
      </trkpt>
      <trkpt lat="46.65427" lon="5.34506">
        <ele>214.4</ele>
        <time>2022-08-23T13:08:44Z</time>
      </trkpt>
      <trkpt lat="46.65441" lon="5.34534">
        <ele>214</ele>
        <time>2022-08-23T13:08:47Z</time>
      </trkpt>
      <trkpt lat="46.65478" lon="5.34602">
        <ele>213.6</ele>
        <time>2022-08-23T13:08:55Z</time>
      </trkpt>
      <trkpt lat="46.65514" lon="5.34666">
        <ele>214</ele>
        <time>2022-08-23T13:09:03Z</time>
      </trkpt>
      <trkpt lat="46.65518" lon="5.34674">
        <ele>214.2</ele>
        <time>2022-08-23T13:09:04Z</time>
      </trkpt>
      <trkpt lat="46.65552" lon="5.34734">
        <ele>214.4</ele>
        <time>2022-08-23T13:09:12Z</time>
      </trkpt>
      <trkpt lat="46.65556" lon="5.3474">
        <ele>214.4</ele>
        <time>2022-08-23T13:09:13Z</time>
      </trkpt>
      <trkpt lat="46.65567" lon="5.34744">
        <ele>214.4</ele>
        <time>2022-08-23T13:09:15Z</time>
      </trkpt>
      <trkpt lat="46.65577" lon="5.34734">
        <ele>214.4</ele>
        <time>2022-08-23T13:09:17Z</time>
      </trkpt>
      <trkpt lat="46.65581" lon="5.34726">
        <ele>214.4</ele>
        <time>2022-08-23T13:09:18Z</time>
      </trkpt>
      <trkpt lat="46.65608" lon="5.34675">
        <ele>214.6</ele>
        <time>2022-08-23T13:09:25Z</time>
      </trkpt>
      <trkpt lat="46.65614" lon="5.34659">
        <ele>214.6</ele>
        <time>2022-08-23T13:09:27Z</time>
      </trkpt>
      <trkpt lat="46.65621" lon="5.34635">
        <ele>215</ele>
        <time>2022-08-23T13:09:30Z</time>
      </trkpt>
      <trkpt lat="46.65623" lon="5.34617">
        <ele>215.2</ele>
        <time>2022-08-23T13:09:32Z</time>
      </trkpt>
      <trkpt lat="46.65634" lon="5.34553">
        <ele>215.4</ele>
        <time>2022-08-23T13:09:39Z</time>
      </trkpt>
      <trkpt lat="46.65651" lon="5.34476">
        <ele>215.2</ele>
        <time>2022-08-23T13:09:47Z</time>
      </trkpt>
      <trkpt lat="46.65658" lon="5.34444">
        <ele>215</ele>
        <time>2022-08-23T13:09:50Z</time>
      </trkpt>
      <trkpt lat="46.65667" lon="5.34426">
        <ele>214.8</ele>
        <time>2022-08-23T13:09:52Z</time>
      </trkpt>
      <trkpt lat="46.65679" lon="5.34421">
        <ele>214.2</ele>
        <time>2022-08-23T13:09:54Z</time>
      </trkpt>
      <trkpt lat="46.65692" lon="5.34428">
        <ele>214</ele>
        <time>2022-08-23T13:09:56Z</time>
      </trkpt>
      <trkpt lat="46.65698" lon="5.34433">
        <ele>213.8</ele>
        <time>2022-08-23T13:09:57Z</time>
      </trkpt>
      <trkpt lat="46.65738" lon="5.34475">
        <ele>213.8</ele>
        <time>2022-08-23T13:10:04Z</time>
      </trkpt>
      <trkpt lat="46.65755" lon="5.34489">
        <ele>214.4</ele>
        <time>2022-08-23T13:10:07Z</time>
      </trkpt>
      <trkpt lat="46.65768" lon="5.3449">
        <ele>214.6</ele>
        <time>2022-08-23T13:10:09Z</time>
      </trkpt>
      <trkpt lat="46.65781" lon="5.3448">
        <ele>214.6</ele>
        <time>2022-08-23T13:10:11Z</time>
      </trkpt>
      <trkpt lat="46.65786" lon="5.34472">
        <ele>214.8</ele>
        <time>2022-08-23T13:10:12Z</time>
      </trkpt>
      <trkpt lat="46.65818" lon="5.34417">
        <ele>214.4</ele>
        <time>2022-08-23T13:10:18Z</time>
      </trkpt>
      <trkpt lat="46.65847" lon="5.34365">
        <ele>213</ele>
        <time>2022-08-23T13:10:23Z</time>
      </trkpt>
      <trkpt lat="46.6586" lon="5.34343">
        <ele>212.6</ele>
        <time>2022-08-23T13:10:25Z</time>
      </trkpt>
      <trkpt lat="46.65866" lon="5.34332">
        <ele>211.4</ele>
        <time>2022-08-23T13:10:26Z</time>
      </trkpt>
      <trkpt lat="46.65885" lon="5.343">
        <ele>209.8</ele>
        <time>2022-08-23T13:10:29Z</time>
      </trkpt>
      <trkpt lat="46.65892" lon="5.3429">
        <ele>209.6</ele>
        <time>2022-08-23T13:10:30Z</time>
      </trkpt>
      <trkpt lat="46.65909" lon="5.34275">
        <ele>208.8</ele>
        <time>2022-08-23T13:10:32Z</time>
      </trkpt>
      <trkpt lat="46.65917" lon="5.34269">
        <ele>208</ele>
        <time>2022-08-23T13:10:33Z</time>
      </trkpt>
      <trkpt lat="46.65926" lon="5.34263">
        <ele>207.6</ele>
        <time>2022-08-23T13:10:34Z</time>
      </trkpt>
      <trkpt lat="46.65933" lon="5.34256">
        <ele>207.4</ele>
        <time>2022-08-23T13:10:35Z</time>
      </trkpt>
      <trkpt lat="46.65946" lon="5.34238">
        <ele>206.8</ele>
        <time>2022-08-23T13:10:37Z</time>
      </trkpt>
      <trkpt lat="46.65952" lon="5.34229">
        <ele>206.2</ele>
        <time>2022-08-23T13:10:38Z</time>
      </trkpt>
      <trkpt lat="46.65981" lon="5.34189">
        <ele>205.2</ele>
        <time>2022-08-23T13:10:43Z</time>
      </trkpt>
      <trkpt lat="46.65987" lon="5.34182">
        <ele>205.2</ele>
        <time>2022-08-23T13:10:44Z</time>
      </trkpt>
      <trkpt lat="46.66014" lon="5.34151">
        <ele>205</ele>
        <time>2022-08-23T13:10:49Z</time>
      </trkpt>
      <trkpt lat="46.66032" lon="5.34122">
        <ele>205.8</ele>
        <time>2022-08-23T13:10:54Z</time>
      </trkpt>
      <trkpt lat="46.66039" lon="5.34103">
        <ele>206.2</ele>
        <time>2022-08-23T13:10:57Z</time>
      </trkpt>
      <trkpt lat="46.66043" lon="5.34092">
        <ele>206.4</ele>
        <time>2022-08-23T13:10:59Z</time>
      </trkpt>
      <trkpt lat="46.66046" lon="5.34086">
        <ele>206.8</ele>
        <time>2022-08-23T13:11:00Z</time>
      </trkpt>
      <trkpt lat="46.6605" lon="5.34076">
        <ele>207.4</ele>
        <time>2022-08-23T13:11:02Z</time>
      </trkpt>
      <trkpt lat="46.66068" lon="5.34041">
        <ele>208.4</ele>
        <time>2022-08-23T13:11:09Z</time>
      </trkpt>
      <trkpt lat="46.66082" lon="5.3401">
        <ele>209.8</ele>
        <time>2022-08-23T13:11:15Z</time>
      </trkpt>
      <trkpt lat="46.66089" lon="5.33994">
        <ele>210.4</ele>
        <time>2022-08-23T13:11:18Z</time>
      </trkpt>
      <trkpt lat="46.66093" lon="5.33984">
        <ele>210.8</ele>
        <time>2022-08-23T13:11:20Z</time>
      </trkpt>
      <trkpt lat="46.66101" lon="5.33965">
        <ele>212.2</ele>
        <time>2022-08-23T13:11:24Z</time>
      </trkpt>
      <trkpt lat="46.66107" lon="5.33951">
        <ele>213.2</ele>
        <time>2022-08-23T13:11:27Z</time>
      </trkpt>
      <trkpt lat="46.66111" lon="5.33942">
        <ele>213.4</ele>
        <time>2022-08-23T13:11:29Z</time>
      </trkpt>
      <trkpt lat="46.66125" lon="5.33919">
        <ele>214.4</ele>
        <time>2022-08-23T13:11:34Z</time>
      </trkpt>
      <trkpt lat="46.66128" lon="5.33914">
        <ele>214.6</ele>
        <time>2022-08-23T13:11:35Z</time>
      </trkpt>
      <trkpt lat="46.66134" lon="5.33903">
        <ele>214.8</ele>
        <time>2022-08-23T13:11:37Z</time>
      </trkpt>
      <trkpt lat="46.6615" lon="5.33874">
        <ele>215.4</ele>
        <time>2022-08-23T13:11:42Z</time>
      </trkpt>
      <trkpt lat="46.66162" lon="5.33848">
        <ele>215.6</ele>
        <time>2022-08-23T13:11:46Z</time>
      </trkpt>
      <trkpt lat="46.66173" lon="5.3382">
        <ele>215.6</ele>
        <time>2022-08-23T13:11:50Z</time>
      </trkpt>
      <trkpt lat="46.66188" lon="5.33758">
        <ele>215.8</ele>
        <time>2022-08-23T13:11:58Z</time>
      </trkpt>
      <trkpt lat="46.66208" lon="5.33677">
        <ele>216</ele>
        <time>2022-08-23T13:12:08Z</time>
      </trkpt>
      <trkpt lat="46.6621" lon="5.33668">
        <ele>216</ele>
        <time>2022-08-23T13:12:09Z</time>
      </trkpt>
      <trkpt lat="46.66224" lon="5.33611">
        <ele>216.2</ele>
        <time>2022-08-23T13:12:15Z</time>
      </trkpt>
      <trkpt lat="46.66227" lon="5.336">
        <ele>216</ele>
        <time>2022-08-23T13:12:16Z</time>
      </trkpt>
      <trkpt lat="46.66236" lon="5.33548">
        <ele>214.6</ele>
        <time>2022-08-23T13:12:20Z</time>
      </trkpt>
      <trkpt lat="46.66238" lon="5.33534">
        <ele>214.2</ele>
        <time>2022-08-23T13:12:21Z</time>
      </trkpt>
      <trkpt lat="46.66242" lon="5.33506">
        <ele>213</ele>
        <time>2022-08-23T13:12:23Z</time>
      </trkpt>
      <trkpt lat="46.66245" lon="5.33476">
        <ele>211.4</ele>
        <time>2022-08-23T13:12:25Z</time>
      </trkpt>
      <trkpt lat="46.66246" lon="5.33461">
        <ele>211</ele>
        <time>2022-08-23T13:12:26Z</time>
      </trkpt>
      <trkpt lat="46.66246" lon="5.33447">
        <ele>210.2</ele>
        <time>2022-08-23T13:12:27Z</time>
      </trkpt>
      <trkpt lat="46.66245" lon="5.33404">
        <ele>208.8</ele>
        <time>2022-08-23T13:12:30Z</time>
      </trkpt>
      <trkpt lat="46.66244" lon="5.33391">
        <ele>208.4</ele>
        <time>2022-08-23T13:12:31Z</time>
      </trkpt>
      <trkpt lat="46.66241" lon="5.33364">
        <ele>207.6</ele>
        <time>2022-08-23T13:12:33Z</time>
      </trkpt>
      <trkpt lat="46.66234" lon="5.33327">
        <ele>207</ele>
        <time>2022-08-23T13:12:36Z</time>
      </trkpt>
      <trkpt lat="46.6622" lon="5.33273">
        <ele>206.6</ele>
        <time>2022-08-23T13:12:41Z</time>
      </trkpt>
      <trkpt lat="46.66218" lon="5.33263">
        <ele>206.6</ele>
        <time>2022-08-23T13:12:42Z</time>
      </trkpt>
      <trkpt lat="46.66216" lon="5.33254">
        <ele>206.6</ele>
        <time>2022-08-23T13:12:43Z</time>
      </trkpt>
      <trkpt lat="46.66213" lon="5.33228">
        <ele>206.6</ele>
        <time>2022-08-23T13:12:46Z</time>
      </trkpt>
      <trkpt lat="46.66209" lon="5.33197">
        <ele>208</ele>
        <time>2022-08-23T13:12:50Z</time>
      </trkpt>
      <trkpt lat="46.66206" lon="5.33183">
        <ele>208.6</ele>
        <time>2022-08-23T13:12:52Z</time>
      </trkpt>
      <trkpt lat="46.66203" lon="5.3317">
        <ele>209</ele>
        <time>2022-08-23T13:12:54Z</time>
      </trkpt>
      <trkpt lat="46.662" lon="5.33156">
        <ele>209.8</ele>
        <time>2022-08-23T13:12:56Z</time>
      </trkpt>
      <trkpt lat="46.662" lon="5.33143">
        <ele>210.2</ele>
        <time>2022-08-23T13:12:58Z</time>
      </trkpt>
      <trkpt lat="46.66205" lon="5.33132">
        <ele>210.4</ele>
        <time>2022-08-23T13:13:00Z</time>
      </trkpt>
      <trkpt lat="46.66211" lon="5.33131">
        <ele>210.4</ele>
        <time>2022-08-23T13:13:01Z</time>
      </trkpt>
      <trkpt lat="46.66232" lon="5.33129">
        <ele>210.4</ele>
        <time>2022-08-23T13:13:04Z</time>
      </trkpt>
      <trkpt lat="46.66271" lon="5.3313">
        <ele>210.2</ele>
        <time>2022-08-23T13:13:09Z</time>
      </trkpt>
      <trkpt lat="46.66323" lon="5.33138">
        <ele>209.4</ele>
        <time>2022-08-23T13:13:15Z</time>
      </trkpt>
      <trkpt lat="46.66332" lon="5.33141">
        <ele>209.2</ele>
        <time>2022-08-23T13:13:16Z</time>
      </trkpt>
      <trkpt lat="46.6636" lon="5.33149">
        <ele>208</ele>
        <time>2022-08-23T13:13:19Z</time>
      </trkpt>
      <trkpt lat="46.6637" lon="5.33152">
        <ele>207.8</ele>
        <time>2022-08-23T13:13:20Z</time>
      </trkpt>
      <trkpt lat="46.66388" lon="5.33157">
        <ele>206.8</ele>
        <time>2022-08-23T13:13:22Z</time>
      </trkpt>
      <trkpt lat="46.66406" lon="5.33162">
        <ele>206.2</ele>
        <time>2022-08-23T13:13:24Z</time>
      </trkpt>
      <trkpt lat="46.66425" lon="5.33165">
        <ele>205.4</ele>
        <time>2022-08-23T13:13:26Z</time>
      </trkpt>
      <trkpt lat="46.66452" lon="5.33172">
        <ele>204.2</ele>
        <time>2022-08-23T13:13:29Z</time>
      </trkpt>
      <trkpt lat="46.66468" lon="5.33177">
        <ele>204</ele>
        <time>2022-08-23T13:13:31Z</time>
      </trkpt>
      <trkpt lat="46.66519" lon="5.33208">
        <ele>203.8</ele>
        <time>2022-08-23T13:13:38Z</time>
      </trkpt>
      <trkpt lat="46.66551" lon="5.33224">
        <ele>204</ele>
        <time>2022-08-23T13:13:43Z</time>
      </trkpt>
      <trkpt lat="46.66557" lon="5.33225">
        <ele>204.2</ele>
        <time>2022-08-23T13:13:44Z</time>
      </trkpt>
      <trkpt lat="46.6658" lon="5.33226">
        <ele>204.4</ele>
        <time>2022-08-23T13:13:48Z</time>
      </trkpt>
      <trkpt lat="46.66609" lon="5.33225">
        <ele>205.4</ele>
        <time>2022-08-23T13:13:54Z</time>
      </trkpt>
      <trkpt lat="46.66618" lon="5.33225">
        <ele>205.8</ele>
        <time>2022-08-23T13:13:56Z</time>
      </trkpt>
      <trkpt lat="46.66627" lon="5.33224">
        <ele>206.4</ele>
        <time>2022-08-23T13:13:58Z</time>
      </trkpt>
      <trkpt lat="46.6664" lon="5.33225">
        <ele>207.6</ele>
        <time>2022-08-23T13:14:01Z</time>
      </trkpt>
      <trkpt lat="46.66648" lon="5.33224">
        <ele>208.2</ele>
        <time>2022-08-23T13:14:03Z</time>
      </trkpt>
      <trkpt lat="46.66661" lon="5.33221">
        <ele>209</ele>
        <time>2022-08-23T13:14:06Z</time>
      </trkpt>
      <trkpt lat="46.66668" lon="5.33216">
        <ele>209.2</ele>
        <time>2022-08-23T13:14:08Z</time>
      </trkpt>
      <trkpt lat="46.66674" lon="5.33208">
        <ele>209.6</ele>
        <time>2022-08-23T13:14:10Z</time>
      </trkpt>
      <trkpt lat="46.66676" lon="5.33203">
        <ele>210</ele>
        <time>2022-08-23T13:14:11Z</time>
      </trkpt>
      <trkpt lat="46.66678" lon="5.33198">
        <ele>210.2</ele>
        <time>2022-08-23T13:14:12Z</time>
      </trkpt>
      <trkpt lat="46.66683" lon="5.33179">
        <ele>211.2</ele>
        <time>2022-08-23T13:14:15Z</time>
      </trkpt>
      <trkpt lat="46.66686" lon="5.33157">
        <ele>211.8</ele>
        <time>2022-08-23T13:14:18Z</time>
      </trkpt>
      <trkpt lat="46.66688" lon="5.33106">
        <ele>212</ele>
        <time>2022-08-23T13:14:24Z</time>
      </trkpt>
      <trkpt lat="46.66691" lon="5.33088">
        <ele>211.8</ele>
        <time>2022-08-23T13:14:26Z</time>
      </trkpt>
      <trkpt lat="46.66697" lon="5.33071">
        <ele>211.6</ele>
        <time>2022-08-23T13:14:28Z</time>
      </trkpt>
      <trkpt lat="46.66709" lon="5.33051">
        <ele>211.4</ele>
        <time>2022-08-23T13:14:31Z</time>
      </trkpt>
      <trkpt lat="46.6672" lon="5.33041">
        <ele>211.2</ele>
        <time>2022-08-23T13:14:33Z</time>
      </trkpt>
      <trkpt lat="46.66725" lon="5.33037">
        <ele>211</ele>
        <time>2022-08-23T13:14:34Z</time>
      </trkpt>
      <trkpt lat="46.66734" lon="5.33036">
        <ele>211</ele>
        <time>2022-08-23T13:14:36Z</time>
      </trkpt>
      <trkpt lat="46.66741" lon="5.33045">
        <ele>210.8</ele>
        <time>2022-08-23T13:14:38Z</time>
      </trkpt>
      <trkpt lat="46.66742" lon="5.33052">
        <ele>210.6</ele>
        <time>2022-08-23T13:14:39Z</time>
      </trkpt>
      <trkpt lat="46.66744" lon="5.33058">
        <ele>210.6</ele>
        <time>2022-08-23T13:14:40Z</time>
      </trkpt>
      <trkpt lat="46.66748" lon="5.33073">
        <ele>210.6</ele>
        <time>2022-08-23T13:14:42Z</time>
      </trkpt>
      <trkpt lat="46.6675" lon="5.33082">
        <ele>210.4</ele>
        <time>2022-08-23T13:14:43Z</time>
      </trkpt>
      <trkpt lat="46.6676" lon="5.33108">
        <ele>210.2</ele>
        <time>2022-08-23T13:14:46Z</time>
      </trkpt>
      <trkpt lat="46.66768" lon="5.33124">
        <ele>210.2</ele>
        <time>2022-08-23T13:14:48Z</time>
      </trkpt>
      <trkpt lat="46.66802" lon="5.33186">
        <ele>210.6</ele>
        <time>2022-08-23T13:14:56Z</time>
      </trkpt>
      <trkpt lat="46.66806" lon="5.33194">
        <ele>210.8</ele>
        <time>2022-08-23T13:14:57Z</time>
      </trkpt>
      <trkpt lat="46.66831" lon="5.33244">
        <ele>211.2</ele>
        <time>2022-08-23T13:15:04Z</time>
      </trkpt>
      <trkpt lat="46.66838" lon="5.33257">
        <ele>211.6</ele>
        <time>2022-08-23T13:15:06Z</time>
      </trkpt>
      <trkpt lat="46.66848" lon="5.33275">
        <ele>212.4</ele>
        <time>2022-08-23T13:15:09Z</time>
      </trkpt>
      <trkpt lat="46.66861" lon="5.333">
        <ele>213</ele>
        <time>2022-08-23T13:15:13Z</time>
      </trkpt>
      <trkpt lat="46.66874" lon="5.33325">
        <ele>213.6</ele>
        <time>2022-08-23T13:15:17Z</time>
      </trkpt>
      <trkpt lat="46.66899" lon="5.33374">
        <ele>214.6</ele>
        <time>2022-08-23T13:15:25Z</time>
      </trkpt>
      <trkpt lat="46.66902" lon="5.3338">
        <ele>214.8</ele>
        <time>2022-08-23T13:15:26Z</time>
      </trkpt>
      <trkpt lat="46.66932" lon="5.33437">
        <ele>215.4</ele>
        <time>2022-08-23T13:15:35Z</time>
      </trkpt>
      <trkpt lat="46.66956" lon="5.33484">
        <ele>215.8</ele>
        <time>2022-08-23T13:15:42Z</time>
      </trkpt>
      <trkpt lat="46.66967" lon="5.33504">
        <ele>215.8</ele>
        <time>2022-08-23T13:15:45Z</time>
      </trkpt>
      <trkpt lat="46.67002" lon="5.33569">
        <ele>216.2</ele>
        <time>2022-08-23T13:15:55Z</time>
      </trkpt>
      <trkpt lat="46.67027" lon="5.33623">
        <ele>216.8</ele>
        <time>2022-08-23T13:16:03Z</time>
      </trkpt>
      <trkpt lat="46.67045" lon="5.33671">
        <ele>217</ele>
        <time>2022-08-23T13:16:09Z</time>
      </trkpt>
      <trkpt lat="46.67064" lon="5.33721">
        <ele>216.8</ele>
        <time>2022-08-23T13:16:15Z</time>
      </trkpt>
      <trkpt lat="46.67087" lon="5.33784">
        <ele>216.6</ele>
        <time>2022-08-23T13:16:22Z</time>
      </trkpt>
      <trkpt lat="46.67096" lon="5.33811">
        <ele>216.4</ele>
        <time>2022-08-23T13:16:25Z</time>
      </trkpt>
      <trkpt lat="46.67122" lon="5.33881">
        <ele>216.6</ele>
        <time>2022-08-23T13:16:33Z</time>
      </trkpt>
      <trkpt lat="46.67128" lon="5.33899">
        <ele>216.6</ele>
        <time>2022-08-23T13:16:35Z</time>
      </trkpt>
      <trkpt lat="46.67153" lon="5.33967">
        <ele>216.8</ele>
        <time>2022-08-23T13:16:43Z</time>
      </trkpt>
      <trkpt lat="46.67178" lon="5.34037">
        <ele>217</ele>
        <time>2022-08-23T13:16:51Z</time>
      </trkpt>
      <trkpt lat="46.67185" lon="5.34056">
        <ele>216.8</ele>
        <time>2022-08-23T13:16:53Z</time>
      </trkpt>
      <trkpt lat="46.67209" lon="5.34122">
        <ele>216</ele>
        <time>2022-08-23T13:17:00Z</time>
      </trkpt>
      <trkpt lat="46.67215" lon="5.34141">
        <ele>215.6</ele>
        <time>2022-08-23T13:17:02Z</time>
      </trkpt>
      <trkpt lat="46.67241" lon="5.34213">
        <ele>216</ele>
        <time>2022-08-23T13:17:10Z</time>
      </trkpt>
      <trkpt lat="46.67245" lon="5.34221">
        <ele>216.2</ele>
        <time>2022-08-23T13:17:11Z</time>
      </trkpt>
      <trkpt lat="46.67268" lon="5.34286">
        <ele>217</ele>
        <time>2022-08-23T13:17:18Z</time>
      </trkpt>
      <trkpt lat="46.67281" lon="5.34323">
        <ele>217.4</ele>
        <time>2022-08-23T13:17:22Z</time>
      </trkpt>
      <trkpt lat="46.67296" lon="5.34362">
        <ele>217.8</ele>
        <time>2022-08-23T13:17:26Z</time>
      </trkpt>
      <trkpt lat="46.67313" lon="5.34409">
        <ele>218</ele>
        <time>2022-08-23T13:17:31Z</time>
      </trkpt>
      <trkpt lat="46.67316" lon="5.34418">
        <ele>218</ele>
        <time>2022-08-23T13:17:32Z</time>
      </trkpt>
      <trkpt lat="46.67344" lon="5.34494">
        <ele>218.2</ele>
        <time>2022-08-23T13:17:40Z</time>
      </trkpt>
      <trkpt lat="46.6737" lon="5.34564">
        <ele>217.8</ele>
        <time>2022-08-23T13:17:47Z</time>
      </trkpt>
      <trkpt lat="46.6738" lon="5.34593">
        <ele>217.6</ele>
        <time>2022-08-23T13:17:50Z</time>
      </trkpt>
      <trkpt lat="46.67408" lon="5.34664">
        <ele>217.4</ele>
        <time>2022-08-23T13:17:58Z</time>
      </trkpt>
      <trkpt lat="46.67419" lon="5.34685">
        <ele>217.8</ele>
        <time>2022-08-23T13:18:01Z</time>
      </trkpt>
      <trkpt lat="46.67424" lon="5.34694">
        <ele>218</ele>
        <time>2022-08-23T13:18:03Z</time>
      </trkpt>
      <trkpt lat="46.67427" lon="5.34697">
        <ele>218.2</ele>
        <time>2022-08-23T13:18:06Z</time>
      </trkpt>
      <trkpt lat="46.67427" lon="5.34697">
        <ele>218.2</ele>
        <time>2022-08-23T13:18:10Z</time>
      </trkpt>
      <trkpt lat="46.67429" lon="5.34699">
        <ele>217.6</ele>
        <time>2022-08-23T13:18:43Z</time>
      </trkpt>
      <trkpt lat="46.67436" lon="5.34707">
        <ele>217.6</ele>
        <time>2022-08-23T13:18:46Z</time>
      </trkpt>
      <trkpt lat="46.67454" lon="5.34725">
        <ele>217.6</ele>
        <time>2022-08-23T13:18:50Z</time>
      </trkpt>
      <trkpt lat="46.67481" lon="5.34755">
        <ele>217.8</ele>
        <time>2022-08-23T13:18:55Z</time>
      </trkpt>
      <trkpt lat="46.67519" lon="5.34799">
        <ele>218</ele>
        <time>2022-08-23T13:19:02Z</time>
      </trkpt>
      <trkpt lat="46.67562" lon="5.34851">
        <ele>218</ele>
        <time>2022-08-23T13:19:11Z</time>
      </trkpt>
      <trkpt lat="46.67567" lon="5.34857">
        <ele>218</ele>
        <time>2022-08-23T13:19:12Z</time>
      </trkpt>
      <trkpt lat="46.67604" lon="5.34899">
        <ele>218</ele>
        <time>2022-08-23T13:19:19Z</time>
      </trkpt>
      <trkpt lat="46.67642" lon="5.3495">
        <ele>217.8</ele>
        <time>2022-08-23T13:19:27Z</time>
      </trkpt>
      <trkpt lat="46.67664" lon="5.34997">
        <ele>217.8</ele>
        <time>2022-08-23T13:19:33Z</time>
      </trkpt>
      <trkpt lat="46.67667" lon="5.35005">
        <ele>217.8</ele>
        <time>2022-08-23T13:19:34Z</time>
      </trkpt>
      <trkpt lat="46.67691" lon="5.3508">
        <ele>218.2</ele>
        <time>2022-08-23T13:19:43Z</time>
      </trkpt>
      <trkpt lat="46.67696" lon="5.35097">
        <ele>218.2</ele>
        <time>2022-08-23T13:19:45Z</time>
      </trkpt>
      <trkpt lat="46.6772" lon="5.35172">
        <ele>218.6</ele>
        <time>2022-08-23T13:19:54Z</time>
      </trkpt>
      <trkpt lat="46.67731" lon="5.35205">
        <ele>218.6</ele>
        <time>2022-08-23T13:19:58Z</time>
      </trkpt>
      <trkpt lat="46.67748" lon="5.35265">
        <ele>218.4</ele>
        <time>2022-08-23T13:20:05Z</time>
      </trkpt>
      <trkpt lat="46.67772" lon="5.35333">
        <ele>218.6</ele>
        <time>2022-08-23T13:20:13Z</time>
      </trkpt>
      <trkpt lat="46.67798" lon="5.35411">
        <ele>218.8</ele>
        <time>2022-08-23T13:20:22Z</time>
      </trkpt>
      <trkpt lat="46.67803" lon="5.35429">
        <ele>218.8</ele>
        <time>2022-08-23T13:20:24Z</time>
      </trkpt>
      <trkpt lat="46.67829" lon="5.35506">
        <ele>219.2</ele>
        <time>2022-08-23T13:20:33Z</time>
      </trkpt>
      <trkpt lat="46.67831" lon="5.35515">
        <ele>219.2</ele>
        <time>2022-08-23T13:20:34Z</time>
      </trkpt>
      <trkpt lat="46.67834" lon="5.35524">
        <ele>219.2</ele>
        <time>2022-08-23T13:20:35Z</time>
      </trkpt>
      <trkpt lat="46.67859" lon="5.35602">
        <ele>219.4</ele>
        <time>2022-08-23T13:20:44Z</time>
      </trkpt>
      <trkpt lat="46.67879" lon="5.35661">
        <ele>219.4</ele>
        <time>2022-08-23T13:20:51Z</time>
      </trkpt>
      <trkpt lat="46.67906" lon="5.35717">
        <ele>219.4</ele>
        <time>2022-08-23T13:20:58Z</time>
      </trkpt>
      <trkpt lat="46.67939" lon="5.35773">
        <ele>219.4</ele>
        <time>2022-08-23T13:21:05Z</time>
      </trkpt>
      <trkpt lat="46.67975" lon="5.35832">
        <ele>219.4</ele>
        <time>2022-08-23T13:21:12Z</time>
      </trkpt>
      <trkpt lat="46.67986" lon="5.35849">
        <ele>219.2</ele>
        <time>2022-08-23T13:21:14Z</time>
      </trkpt>
      <trkpt lat="46.68021" lon="5.3591">
        <ele>218.8</ele>
        <time>2022-08-23T13:21:21Z</time>
      </trkpt>
      <trkpt lat="46.68041" lon="5.35941">
        <ele>218.8</ele>
        <time>2022-08-23T13:21:25Z</time>
      </trkpt>
      <trkpt lat="46.68063" lon="5.35969">
        <ele>219</ele>
        <time>2022-08-23T13:21:29Z</time>
      </trkpt>
      <trkpt lat="46.68082" lon="5.35985">
        <ele>219.4</ele>
        <time>2022-08-23T13:21:32Z</time>
      </trkpt>
      <trkpt lat="46.68109" lon="5.36">
        <ele>220</ele>
        <time>2022-08-23T13:21:36Z</time>
      </trkpt>
      <trkpt lat="46.68122" lon="5.36007">
        <ele>220</ele>
        <time>2022-08-23T13:21:38Z</time>
      </trkpt>
      <trkpt lat="46.68157" lon="5.36024">
        <ele>220.4</ele>
        <time>2022-08-23T13:21:43Z</time>
      </trkpt>
      <trkpt lat="46.68192" lon="5.36041">
        <ele>220.4</ele>
        <time>2022-08-23T13:21:48Z</time>
      </trkpt>
      <trkpt lat="46.68248" lon="5.36069">
        <ele>220.4</ele>
        <time>2022-08-23T13:21:56Z</time>
      </trkpt>
      <trkpt lat="46.68255" lon="5.36072">
        <ele>220.4</ele>
        <time>2022-08-23T13:21:57Z</time>
      </trkpt>
      <trkpt lat="46.68304" lon="5.36097">
        <ele>220</ele>
        <time>2022-08-23T13:22:04Z</time>
      </trkpt>
      <trkpt lat="46.68358" lon="5.36126">
        <ele>219.8</ele>
        <time>2022-08-23T13:22:12Z</time>
      </trkpt>
      <trkpt lat="46.68397" lon="5.36155">
        <ele>219.6</ele>
        <time>2022-08-23T13:22:18Z</time>
      </trkpt>
      <trkpt lat="46.68434" lon="5.36189">
        <ele>219.8</ele>
        <time>2022-08-23T13:22:24Z</time>
      </trkpt>
      <trkpt lat="46.68483" lon="5.36232">
        <ele>219.8</ele>
        <time>2022-08-23T13:22:32Z</time>
      </trkpt>
      <trkpt lat="46.68533" lon="5.36277">
        <ele>220.4</ele>
        <time>2022-08-23T13:22:40Z</time>
      </trkpt>
      <trkpt lat="46.68546" lon="5.36288">
        <ele>220.4</ele>
        <time>2022-08-23T13:22:42Z</time>
      </trkpt>
      <trkpt lat="46.68597" lon="5.36333">
        <ele>219.6</ele>
        <time>2022-08-23T13:22:50Z</time>
      </trkpt>
      <trkpt lat="46.68635" lon="5.36368">
        <ele>219.4</ele>
        <time>2022-08-23T13:22:56Z</time>
      </trkpt>
      <trkpt lat="46.68667" lon="5.36396">
        <ele>219.2</ele>
        <time>2022-08-23T13:23:01Z</time>
      </trkpt>
      <trkpt lat="46.68713" lon="5.36437">
        <ele>218.6</ele>
        <time>2022-08-23T13:23:08Z</time>
      </trkpt>
      <trkpt lat="46.6872" lon="5.36443">
        <ele>218.4</ele>
        <time>2022-08-23T13:23:09Z</time>
      </trkpt>
      <trkpt lat="46.68767" lon="5.36485">
        <ele>217.8</ele>
        <time>2022-08-23T13:23:16Z</time>
      </trkpt>
      <trkpt lat="46.68781" lon="5.36496">
        <ele>217.6</ele>
        <time>2022-08-23T13:23:18Z</time>
      </trkpt>
      <trkpt lat="46.68788" lon="5.36502">
        <ele>217.4</ele>
        <time>2022-08-23T13:23:19Z</time>
      </trkpt>
      <trkpt lat="46.68829" lon="5.36538">
        <ele>217</ele>
        <time>2022-08-23T13:23:25Z</time>
      </trkpt>
      <trkpt lat="46.68856" lon="5.36563">
        <ele>216.2</ele>
        <time>2022-08-23T13:23:29Z</time>
      </trkpt>
      <trkpt lat="46.68883" lon="5.36587">
        <ele>215.8</ele>
        <time>2022-08-23T13:23:33Z</time>
      </trkpt>
      <trkpt lat="46.68911" lon="5.36611">
        <ele>215</ele>
        <time>2022-08-23T13:23:37Z</time>
      </trkpt>
      <trkpt lat="46.68937" lon="5.36638">
        <ele>213.8</ele>
        <time>2022-08-23T13:23:41Z</time>
      </trkpt>
      <trkpt lat="46.68944" lon="5.36646">
        <ele>213.6</ele>
        <time>2022-08-23T13:23:42Z</time>
      </trkpt>
      <trkpt lat="46.68964" lon="5.3667">
        <ele>212.8</ele>
        <time>2022-08-23T13:23:45Z</time>
      </trkpt>
      <trkpt lat="46.68985" lon="5.36693">
        <ele>211.6</ele>
        <time>2022-08-23T13:23:48Z</time>
      </trkpt>
      <trkpt lat="46.68991" lon="5.36701">
        <ele>211.2</ele>
        <time>2022-08-23T13:23:49Z</time>
      </trkpt>
      <trkpt lat="46.69006" lon="5.36717">
        <ele>210.6</ele>
        <time>2022-08-23T13:23:51Z</time>
      </trkpt>
      <trkpt lat="46.69026" lon="5.36741">
        <ele>209.2</ele>
        <time>2022-08-23T13:23:54Z</time>
      </trkpt>
      <trkpt lat="46.69033" lon="5.36749">
        <ele>208.8</ele>
        <time>2022-08-23T13:23:55Z</time>
      </trkpt>
      <trkpt lat="46.69039" lon="5.36758">
        <ele>208.6</ele>
        <time>2022-08-23T13:23:56Z</time>
      </trkpt>
      <trkpt lat="46.69045" lon="5.3678">
        <ele>208.2</ele>
        <time>2022-08-23T13:23:58Z</time>
      </trkpt>
      <trkpt lat="46.69047" lon="5.36825">
        <ele>207.2</ele>
        <time>2022-08-23T13:24:02Z</time>
      </trkpt>
      <trkpt lat="46.69047" lon="5.36836">
        <ele>207</ele>
        <time>2022-08-23T13:24:03Z</time>
      </trkpt>
      <trkpt lat="46.69052" lon="5.3692">
        <ele>206.6</ele>
        <time>2022-08-23T13:24:11Z</time>
      </trkpt>
      <trkpt lat="46.69059" lon="5.36976">
        <ele>207</ele>
        <time>2022-08-23T13:24:17Z</time>
      </trkpt>
      <trkpt lat="46.6906" lon="5.36985">
        <ele>207</ele>
        <time>2022-08-23T13:24:18Z</time>
      </trkpt>
      <trkpt lat="46.69062" lon="5.37022">
        <ele>207.4</ele>
        <time>2022-08-23T13:24:22Z</time>
      </trkpt>
      <trkpt lat="46.69061" lon="5.37068">
        <ele>208.4</ele>
        <time>2022-08-23T13:24:27Z</time>
      </trkpt>
      <trkpt lat="46.69059" lon="5.37097">
        <ele>208.6</ele>
        <time>2022-08-23T13:24:30Z</time>
      </trkpt>
      <trkpt lat="46.69056" lon="5.37134">
        <ele>209</ele>
        <time>2022-08-23T13:24:34Z</time>
      </trkpt>
      <trkpt lat="46.69055" lon="5.37151">
        <ele>209.2</ele>
        <time>2022-08-23T13:24:36Z</time>
      </trkpt>
      <trkpt lat="46.69054" lon="5.37159">
        <ele>209.4</ele>
        <time>2022-08-23T13:24:37Z</time>
      </trkpt>
      <trkpt lat="46.69053" lon="5.37177">
        <ele>210</ele>
        <time>2022-08-23T13:24:39Z</time>
      </trkpt>
      <trkpt lat="46.69053" lon="5.37185">
        <ele>210</ele>
        <time>2022-08-23T13:24:40Z</time>
      </trkpt>
      <trkpt lat="46.69052" lon="5.37202">
        <ele>210.6</ele>
        <time>2022-08-23T13:24:42Z</time>
      </trkpt>
      <trkpt lat="46.6905" lon="5.37228">
        <ele>211</ele>
        <time>2022-08-23T13:24:45Z</time>
      </trkpt>
      <trkpt lat="46.69049" lon="5.37237">
        <ele>211</ele>
        <time>2022-08-23T13:24:46Z</time>
      </trkpt>
      <trkpt lat="46.6904" lon="5.37271">
        <ele>211.6</ele>
        <time>2022-08-23T13:24:50Z</time>
      </trkpt>
      <trkpt lat="46.69034" lon="5.37287">
        <ele>211.8</ele>
        <time>2022-08-23T13:24:52Z</time>
      </trkpt>
      <trkpt lat="46.69009" lon="5.37327">
        <ele>212.2</ele>
        <time>2022-08-23T13:24:58Z</time>
      </trkpt>
      <trkpt lat="46.68995" lon="5.37345">
        <ele>212.6</ele>
        <time>2022-08-23T13:25:01Z</time>
      </trkpt>
      <trkpt lat="46.6899" lon="5.37351">
        <ele>212.8</ele>
        <time>2022-08-23T13:25:02Z</time>
      </trkpt>
      <trkpt lat="46.68981" lon="5.37362">
        <ele>213</ele>
        <time>2022-08-23T13:25:04Z</time>
      </trkpt>
      <trkpt lat="46.68948" lon="5.37399">
        <ele>213.8</ele>
        <time>2022-08-23T13:25:11Z</time>
      </trkpt>
      <trkpt lat="46.68935" lon="5.37414">
        <ele>214.2</ele>
        <time>2022-08-23T13:25:14Z</time>
      </trkpt>
      <trkpt lat="46.68922" lon="5.37428">
        <ele>214.8</ele>
        <time>2022-08-23T13:25:17Z</time>
      </trkpt>
      <trkpt lat="46.68918" lon="5.37432">
        <ele>215</ele>
        <time>2022-08-23T13:25:18Z</time>
      </trkpt>
      <trkpt lat="46.68909" lon="5.37441">
        <ele>215.4</ele>
        <time>2022-08-23T13:25:20Z</time>
      </trkpt>
      <trkpt lat="46.68897" lon="5.37453">
        <ele>216.2</ele>
        <time>2022-08-23T13:25:23Z</time>
      </trkpt>
      <trkpt lat="46.68883" lon="5.37465">
        <ele>217.4</ele>
        <time>2022-08-23T13:25:26Z</time>
      </trkpt>
      <trkpt lat="46.68879" lon="5.37469">
        <ele>217.4</ele>
        <time>2022-08-23T13:25:27Z</time>
      </trkpt>
      <trkpt lat="46.68867" lon="5.3748">
        <ele>218.4</ele>
        <time>2022-08-23T13:25:30Z</time>
      </trkpt>
      <trkpt lat="46.68839" lon="5.37508">
        <ele>219.6</ele>
        <time>2022-08-23T13:25:37Z</time>
      </trkpt>
      <trkpt lat="46.6883" lon="5.37517">
        <ele>219.8</ele>
        <time>2022-08-23T13:25:39Z</time>
      </trkpt>
      <trkpt lat="46.68792" lon="5.37555">
        <ele>220.8</ele>
        <time>2022-08-23T13:25:47Z</time>
      </trkpt>
      <trkpt lat="46.68787" lon="5.37561">
        <ele>220.8</ele>
        <time>2022-08-23T13:25:48Z</time>
      </trkpt>
      <trkpt lat="46.68737" lon="5.37612">
        <ele>220.8</ele>
        <time>2022-08-23T13:25:57Z</time>
      </trkpt>
      <trkpt lat="46.68706" lon="5.37644">
        <ele>220.4</ele>
        <time>2022-08-23T13:26:02Z</time>
      </trkpt>
      <trkpt lat="46.68691" lon="5.37658">
        <ele>220.2</ele>
        <time>2022-08-23T13:26:04Z</time>
      </trkpt>
      <trkpt lat="46.6867" lon="5.37679">
        <ele>220</ele>
        <time>2022-08-23T13:26:07Z</time>
      </trkpt>
      <trkpt lat="46.68622" lon="5.37731">
        <ele>220.6</ele>
        <time>2022-08-23T13:26:15Z</time>
      </trkpt>
      <trkpt lat="46.68583" lon="5.3777">
        <ele>221.4</ele>
        <time>2022-08-23T13:26:22Z</time>
      </trkpt>
      <trkpt lat="46.68579" lon="5.37775">
        <ele>221.4</ele>
        <time>2022-08-23T13:26:23Z</time>
      </trkpt>
      <trkpt lat="46.68559" lon="5.37795">
        <ele>221.8</ele>
        <time>2022-08-23T13:26:26Z</time>
      </trkpt>
      <trkpt lat="46.6855" lon="5.37802">
        <ele>221.8</ele>
        <time>2022-08-23T13:26:27Z</time>
      </trkpt>
      <trkpt lat="46.68508" lon="5.37846">
        <ele>222.4</ele>
        <time>2022-08-23T13:26:33Z</time>
      </trkpt>
      <trkpt lat="46.68478" lon="5.37879">
        <ele>222.6</ele>
        <time>2022-08-23T13:26:38Z</time>
      </trkpt>
      <trkpt lat="46.68438" lon="5.3792">
        <ele>222.8</ele>
        <time>2022-08-23T13:26:45Z</time>
      </trkpt>
      <trkpt lat="46.6842" lon="5.37939">
        <ele>222.4</ele>
        <time>2022-08-23T13:26:48Z</time>
      </trkpt>
      <trkpt lat="46.68372" lon="5.3799">
        <ele>221.8</ele>
        <time>2022-08-23T13:26:55Z</time>
      </trkpt>
      <trkpt lat="46.68332" lon="5.38027">
        <ele>220.6</ele>
        <time>2022-08-23T13:27:00Z</time>
      </trkpt>
      <trkpt lat="46.6832" lon="5.38042">
        <ele>220.2</ele>
        <time>2022-08-23T13:27:02Z</time>
      </trkpt>
      <trkpt lat="46.68278" lon="5.38083">
        <ele>219.4</ele>
        <time>2022-08-23T13:27:07Z</time>
      </trkpt>
      <trkpt lat="46.6826" lon="5.38102">
        <ele>219</ele>
        <time>2022-08-23T13:27:09Z</time>
      </trkpt>
      <trkpt lat="46.68239" lon="5.38125">
        <ele>218.4</ele>
        <time>2022-08-23T13:27:12Z</time>
      </trkpt>
      <trkpt lat="46.68205" lon="5.38163">
        <ele>218</ele>
        <time>2022-08-23T13:27:17Z</time>
      </trkpt>
      <trkpt lat="46.68168" lon="5.38201">
        <ele>217.8</ele>
        <time>2022-08-23T13:27:23Z</time>
      </trkpt>
      <trkpt lat="46.68134" lon="5.38237">
        <ele>218.4</ele>
        <time>2022-08-23T13:27:29Z</time>
      </trkpt>
      <trkpt lat="46.68107" lon="5.38263">
        <ele>219.4</ele>
        <time>2022-08-23T13:27:34Z</time>
      </trkpt>
      <trkpt lat="46.6809" lon="5.3828">
        <ele>220</ele>
        <time>2022-08-23T13:27:37Z</time>
      </trkpt>
      <trkpt lat="46.68076" lon="5.38296">
        <ele>220.6</ele>
        <time>2022-08-23T13:27:40Z</time>
      </trkpt>
      <trkpt lat="46.6806" lon="5.38312">
        <ele>221</ele>
        <time>2022-08-23T13:27:43Z</time>
      </trkpt>
      <trkpt lat="46.68038" lon="5.38334">
        <ele>222.2</ele>
        <time>2022-08-23T13:27:47Z</time>
      </trkpt>
      <trkpt lat="46.6801" lon="5.38363">
        <ele>223.2</ele>
        <time>2022-08-23T13:27:52Z</time>
      </trkpt>
      <trkpt lat="46.67999" lon="5.38375">
        <ele>223.6</ele>
        <time>2022-08-23T13:27:54Z</time>
      </trkpt>
      <trkpt lat="46.67953" lon="5.38423">
        <ele>224</ele>
        <time>2022-08-23T13:28:02Z</time>
      </trkpt>
      <trkpt lat="46.67941" lon="5.38436">
        <ele>224.2</ele>
        <time>2022-08-23T13:28:04Z</time>
      </trkpt>
      <trkpt lat="46.67891" lon="5.38487">
        <ele>223.6</ele>
        <time>2022-08-23T13:28:12Z</time>
      </trkpt>
      <trkpt lat="46.67872" lon="5.38506">
        <ele>223.4</ele>
        <time>2022-08-23T13:28:15Z</time>
      </trkpt>
      <trkpt lat="46.67824" lon="5.38557">
        <ele>223.4</ele>
        <time>2022-08-23T13:28:23Z</time>
      </trkpt>
      <trkpt lat="46.67782" lon="5.386">
        <ele>223.2</ele>
        <time>2022-08-23T13:28:30Z</time>
      </trkpt>
      <trkpt lat="46.67745" lon="5.38637">
        <ele>223.2</ele>
        <time>2022-08-23T13:28:36Z</time>
      </trkpt>
      <trkpt lat="46.67711" lon="5.38672">
        <ele>222.8</ele>
        <time>2022-08-23T13:28:41Z</time>
      </trkpt>
      <trkpt lat="46.67705" lon="5.38678">
        <ele>222.8</ele>
        <time>2022-08-23T13:28:42Z</time>
      </trkpt>
      <trkpt lat="46.6767" lon="5.38716">
        <ele>222.4</ele>
        <time>2022-08-23T13:28:47Z</time>
      </trkpt>
      <trkpt lat="46.67645" lon="5.38741">
        <ele>222.2</ele>
        <time>2022-08-23T13:28:50Z</time>
      </trkpt>
      <trkpt lat="46.6763" lon="5.38758">
        <ele>221.4</ele>
        <time>2022-08-23T13:28:52Z</time>
      </trkpt>
      <trkpt lat="46.67616" lon="5.38774">
        <ele>221</ele>
        <time>2022-08-23T13:28:54Z</time>
      </trkpt>
      <trkpt lat="46.67596" lon="5.38793">
        <ele>220.6</ele>
        <time>2022-08-23T13:28:56Z</time>
      </trkpt>
      <trkpt lat="46.67581" lon="5.3881">
        <ele>220</ele>
        <time>2022-08-23T13:28:58Z</time>
      </trkpt>
      <trkpt lat="46.67547" lon="5.38843">
        <ele>218.4</ele>
        <time>2022-08-23T13:29:02Z</time>
      </trkpt>
      <trkpt lat="46.67539" lon="5.38851">
        <ele>218.2</ele>
        <time>2022-08-23T13:29:03Z</time>
      </trkpt>
      <trkpt lat="46.67503" lon="5.38889">
        <ele>217.6</ele>
        <time>2022-08-23T13:29:08Z</time>
      </trkpt>
      <trkpt lat="46.67466" lon="5.38928">
        <ele>217.8</ele>
        <time>2022-08-23T13:29:14Z</time>
      </trkpt>
      <trkpt lat="46.67424" lon="5.38972">
        <ele>218.8</ele>
        <time>2022-08-23T13:29:21Z</time>
      </trkpt>
      <trkpt lat="46.67385" lon="5.39013">
        <ele>218.4</ele>
        <time>2022-08-23T13:29:27Z</time>
      </trkpt>
      <trkpt lat="46.6734" lon="5.3906">
        <ele>218</ele>
        <time>2022-08-23T13:29:34Z</time>
      </trkpt>
      <trkpt lat="46.67328" lon="5.39072">
        <ele>218</ele>
        <time>2022-08-23T13:29:36Z</time>
      </trkpt>
      <trkpt lat="46.67293" lon="5.39108">
        <ele>219.2</ele>
        <time>2022-08-23T13:29:43Z</time>
      </trkpt>
      <trkpt lat="46.67288" lon="5.39113">
        <ele>219.4</ele>
        <time>2022-08-23T13:29:44Z</time>
      </trkpt>
      <trkpt lat="46.67255" lon="5.39149">
        <ele>220.6</ele>
        <time>2022-08-23T13:29:51Z</time>
      </trkpt>
      <trkpt lat="46.67231" lon="5.39173">
        <ele>221</ele>
        <time>2022-08-23T13:29:56Z</time>
      </trkpt>
      <trkpt lat="46.67214" lon="5.39192">
        <ele>221.8</ele>
        <time>2022-08-23T13:30:00Z</time>
      </trkpt>
      <trkpt lat="46.67202" lon="5.39204">
        <ele>222.4</ele>
        <time>2022-08-23T13:30:03Z</time>
      </trkpt>
      <trkpt lat="46.67186" lon="5.39219">
        <ele>222.8</ele>
        <time>2022-08-23T13:30:07Z</time>
      </trkpt>
      <trkpt lat="46.67181" lon="5.39221">
        <ele>222.8</ele>
        <time>2022-08-23T13:30:08Z</time>
      </trkpt>
      <trkpt lat="46.67176" lon="5.39222">
        <ele>222.8</ele>
        <time>2022-08-23T13:30:09Z</time>
      </trkpt>
      <trkpt lat="46.67171" lon="5.39221">
        <ele>222.8</ele>
        <time>2022-08-23T13:30:10Z</time>
      </trkpt>
      <trkpt lat="46.6716" lon="5.3922">
        <ele>222.6</ele>
        <time>2022-08-23T13:30:13Z</time>
      </trkpt>
      <trkpt lat="46.67152" lon="5.39226">
        <ele>222.4</ele>
        <time>2022-08-23T13:30:15Z</time>
      </trkpt>
      <trkpt lat="46.6715" lon="5.39233">
        <ele>222.4</ele>
        <time>2022-08-23T13:30:16Z</time>
      </trkpt>
      <trkpt lat="46.67149" lon="5.39239">
        <ele>222.2</ele>
        <time>2022-08-23T13:30:17Z</time>
      </trkpt>
      <trkpt lat="46.67145" lon="5.39269">
        <ele>221.6</ele>
        <time>2022-08-23T13:30:20Z</time>
      </trkpt>
      <trkpt lat="46.6714" lon="5.39323">
        <ele>220.8</ele>
        <time>2022-08-23T13:30:25Z</time>
      </trkpt>
      <trkpt lat="46.67136" lon="5.39359">
        <ele>220.4</ele>
        <time>2022-08-23T13:30:28Z</time>
      </trkpt>
      <trkpt lat="46.67134" lon="5.39385">
        <ele>220</ele>
        <time>2022-08-23T13:30:30Z</time>
      </trkpt>
      <trkpt lat="46.67131" lon="5.3941">
        <ele>219.4</ele>
        <time>2022-08-23T13:30:32Z</time>
      </trkpt>
      <trkpt lat="46.67125" lon="5.39471">
        <ele>218.2</ele>
        <time>2022-08-23T13:30:37Z</time>
      </trkpt>
      <trkpt lat="46.6712" lon="5.39529">
        <ele>217.2</ele>
        <time>2022-08-23T13:30:42Z</time>
      </trkpt>
      <trkpt lat="46.67117" lon="5.39551">
        <ele>217</ele>
        <time>2022-08-23T13:30:44Z</time>
      </trkpt>
      <trkpt lat="46.67114" lon="5.39573">
        <ele>216.8</ele>
        <time>2022-08-23T13:30:46Z</time>
      </trkpt>
      <trkpt lat="46.67108" lon="5.39634">
        <ele>216.8</ele>
        <time>2022-08-23T13:30:52Z</time>
      </trkpt>
      <trkpt lat="46.67101" lon="5.39705">
        <ele>217.6</ele>
        <time>2022-08-23T13:31:00Z</time>
      </trkpt>
      <trkpt lat="46.67099" lon="5.39729">
        <ele>218.4</ele>
        <time>2022-08-23T13:31:03Z</time>
      </trkpt>
      <trkpt lat="46.67095" lon="5.3976">
        <ele>219</ele>
        <time>2022-08-23T13:31:07Z</time>
      </trkpt>
      <trkpt lat="46.67094" lon="5.39766">
        <ele>219.4</ele>
        <time>2022-08-23T13:31:08Z</time>
      </trkpt>
      <trkpt lat="46.67093" lon="5.39774">
        <ele>219.6</ele>
        <time>2022-08-23T13:31:09Z</time>
      </trkpt>
      <trkpt lat="46.6709" lon="5.39795">
        <ele>220.8</ele>
        <time>2022-08-23T13:31:12Z</time>
      </trkpt>
      <trkpt lat="46.67088" lon="5.39809">
        <ele>221.4</ele>
        <time>2022-08-23T13:31:14Z</time>
      </trkpt>
      <trkpt lat="46.67087" lon="5.39818">
        <ele>222</ele>
        <time>2022-08-23T13:31:15Z</time>
      </trkpt>
      <trkpt lat="46.67087" lon="5.39826">
        <ele>222.2</ele>
        <time>2022-08-23T13:31:16Z</time>
      </trkpt>
      <trkpt lat="46.67086" lon="5.39832">
        <ele>222.6</ele>
        <time>2022-08-23T13:31:17Z</time>
      </trkpt>
      <trkpt lat="46.67084" lon="5.39842">
        <ele>223.2</ele>
        <time>2022-08-23T13:31:18Z</time>
      </trkpt>
      <trkpt lat="46.67081" lon="5.39859">
        <ele>223.8</ele>
        <time>2022-08-23T13:31:20Z</time>
      </trkpt>
      <trkpt lat="46.67078" lon="5.39876">
        <ele>224.2</ele>
        <time>2022-08-23T13:31:22Z</time>
      </trkpt>
      <trkpt lat="46.67077" lon="5.39885">
        <ele>224.2</ele>
        <time>2022-08-23T13:31:23Z</time>
      </trkpt>
      <trkpt lat="46.67075" lon="5.39936">
        <ele>225</ele>
        <time>2022-08-23T13:31:29Z</time>
      </trkpt>
      <trkpt lat="46.67073" lon="5.3999">
        <ele>225.2</ele>
        <time>2022-08-23T13:31:35Z</time>
      </trkpt>
      <trkpt lat="46.67067" lon="5.40067">
        <ele>224.8</ele>
        <time>2022-08-23T13:31:43Z</time>
      </trkpt>
      <trkpt lat="46.67062" lon="5.40113">
        <ele>224.4</ele>
        <time>2022-08-23T13:31:48Z</time>
      </trkpt>
      <trkpt lat="46.67058" lon="5.40119">
        <ele>224.4</ele>
        <time>2022-08-23T13:31:49Z</time>
      </trkpt>
      <trkpt lat="46.67052" lon="5.40123">
        <ele>224.2</ele>
        <time>2022-08-23T13:31:50Z</time>
      </trkpt>
      <trkpt lat="46.67045" lon="5.40123">
        <ele>224.2</ele>
        <time>2022-08-23T13:31:51Z</time>
      </trkpt>
      <trkpt lat="46.6699" lon="5.4012">
        <ele>223.6</ele>
        <time>2022-08-23T13:31:59Z</time>
      </trkpt>
      <trkpt lat="46.66983" lon="5.4012">
        <ele>223.6</ele>
        <time>2022-08-23T13:32:00Z</time>
      </trkpt>
      <trkpt lat="46.66937" lon="5.40113">
        <ele>223.4</ele>
        <time>2022-08-23T13:32:06Z</time>
      </trkpt>
      <trkpt lat="46.66889" lon="5.40105">
        <ele>223.4</ele>
        <time>2022-08-23T13:32:12Z</time>
      </trkpt>
      <trkpt lat="46.66881" lon="5.40107">
        <ele>223.2</ele>
        <time>2022-08-23T13:32:13Z</time>
      </trkpt>
      <trkpt lat="46.66849" lon="5.40113">
        <ele>223.2</ele>
        <time>2022-08-23T13:32:17Z</time>
      </trkpt>
      <trkpt lat="46.66833" lon="5.40111">
        <ele>223</ele>
        <time>2022-08-23T13:32:19Z</time>
      </trkpt>
      <trkpt lat="46.66818" lon="5.40103">
        <ele>222.8</ele>
        <time>2022-08-23T13:32:21Z</time>
      </trkpt>
      <trkpt lat="46.66762" lon="5.40066">
        <ele>222.8</ele>
        <time>2022-08-23T13:32:29Z</time>
      </trkpt>
      <trkpt lat="46.66755" lon="5.40062">
        <ele>222.8</ele>
        <time>2022-08-23T13:32:30Z</time>
      </trkpt>
      <trkpt lat="46.66703" lon="5.40028">
        <ele>223.2</ele>
        <time>2022-08-23T13:32:38Z</time>
      </trkpt>
      <trkpt lat="46.66696" lon="5.40024">
        <ele>223.2</ele>
        <time>2022-08-23T13:32:39Z</time>
      </trkpt>
      <trkpt lat="46.66682" lon="5.40017">
        <ele>223.4</ele>
        <time>2022-08-23T13:32:41Z</time>
      </trkpt>
      <trkpt lat="46.66653" lon="5.40008">
        <ele>223.6</ele>
        <time>2022-08-23T13:32:45Z</time>
      </trkpt>
      <trkpt lat="46.66608" lon="5.3999">
        <ele>223.8</ele>
        <time>2022-08-23T13:32:51Z</time>
      </trkpt>
      <trkpt lat="46.66579" lon="5.39964">
        <ele>223.2</ele>
        <time>2022-08-23T13:32:55Z</time>
      </trkpt>
      <trkpt lat="46.66564" lon="5.39949">
        <ele>222.8</ele>
        <time>2022-08-23T13:32:57Z</time>
      </trkpt>
      <trkpt lat="46.66549" lon="5.39934">
        <ele>222.6</ele>
        <time>2022-08-23T13:32:59Z</time>
      </trkpt>
      <trkpt lat="46.66541" lon="5.39927">
        <ele>222.4</ele>
        <time>2022-08-23T13:33:00Z</time>
      </trkpt>
      <trkpt lat="46.66518" lon="5.39907">
        <ele>222</ele>
        <time>2022-08-23T13:33:03Z</time>
      </trkpt>
      <trkpt lat="46.66479" lon="5.39878">
        <ele>220.8</ele>
        <time>2022-08-23T13:33:08Z</time>
      </trkpt>
      <trkpt lat="46.66456" lon="5.39864">
        <ele>220.2</ele>
        <time>2022-08-23T13:33:11Z</time>
      </trkpt>
      <trkpt lat="46.66449" lon="5.3986">
        <ele>220</ele>
        <time>2022-08-23T13:33:12Z</time>
      </trkpt>
      <trkpt lat="46.66435" lon="5.39855">
        <ele>220.6</ele>
        <time>2022-08-23T13:33:14Z</time>
      </trkpt>
      <trkpt lat="46.66401" lon="5.39837">
        <ele>221.8</ele>
        <time>2022-08-23T13:33:19Z</time>
      </trkpt>
      <trkpt lat="46.66374" lon="5.39801">
        <ele>222.4</ele>
        <time>2022-08-23T13:33:24Z</time>
      </trkpt>
      <trkpt lat="46.66357" lon="5.39749">
        <ele>222.8</ele>
        <time>2022-08-23T13:33:29Z</time>
      </trkpt>
      <trkpt lat="46.66352" lon="5.39738">
        <ele>222.8</ele>
        <time>2022-08-23T13:33:30Z</time>
      </trkpt>
      <trkpt lat="46.66338" lon="5.39711">
        <ele>223</ele>
        <time>2022-08-23T13:33:33Z</time>
      </trkpt>
      <trkpt lat="46.66327" lon="5.39697">
        <ele>222.6</ele>
        <time>2022-08-23T13:33:35Z</time>
      </trkpt>
      <trkpt lat="46.6632" lon="5.3969">
        <ele>222.4</ele>
        <time>2022-08-23T13:33:36Z</time>
      </trkpt>
      <trkpt lat="46.66305" lon="5.39679">
        <ele>222</ele>
        <time>2022-08-23T13:33:38Z</time>
      </trkpt>
      <trkpt lat="46.66297" lon="5.39675">
        <ele>222</ele>
        <time>2022-08-23T13:33:39Z</time>
      </trkpt>
      <trkpt lat="46.66289" lon="5.39671">
        <ele>221.6</ele>
        <time>2022-08-23T13:33:40Z</time>
      </trkpt>
      <trkpt lat="46.66263" lon="5.39667">
        <ele>221</ele>
        <time>2022-08-23T13:33:43Z</time>
      </trkpt>
      <trkpt lat="46.66245" lon="5.39667">
        <ele>220.6</ele>
        <time>2022-08-23T13:33:45Z</time>
      </trkpt>
      <trkpt lat="46.66209" lon="5.39671">
        <ele>219.4</ele>
        <time>2022-08-23T13:33:49Z</time>
      </trkpt>
      <trkpt lat="46.66192" lon="5.39673">
        <ele>219</ele>
        <time>2022-08-23T13:33:51Z</time>
      </trkpt>
      <trkpt lat="46.66174" lon="5.3968">
        <ele>218.4</ele>
        <time>2022-08-23T13:33:53Z</time>
      </trkpt>
      <trkpt lat="46.6614" lon="5.39698">
        <ele>217.4</ele>
        <time>2022-08-23T13:33:57Z</time>
      </trkpt>
      <trkpt lat="46.66121" lon="5.39708">
        <ele>217</ele>
        <time>2022-08-23T13:33:59Z</time>
      </trkpt>
      <trkpt lat="46.66103" lon="5.39718">
        <ele>216.4</ele>
        <time>2022-08-23T13:34:01Z</time>
      </trkpt>
      <trkpt lat="46.66054" lon="5.39746">
        <ele>215.6</ele>
        <time>2022-08-23T13:34:06Z</time>
      </trkpt>
      <trkpt lat="46.66034" lon="5.39757">
        <ele>214.8</ele>
        <time>2022-08-23T13:34:08Z</time>
      </trkpt>
      <trkpt lat="46.66023" lon="5.39761">
        <ele>214</ele>
        <time>2022-08-23T13:34:09Z</time>
      </trkpt>
      <trkpt lat="46.66013" lon="5.39764">
        <ele>213.6</ele>
        <time>2022-08-23T13:34:10Z</time>
      </trkpt>
      <trkpt lat="46.66002" lon="5.39764">
        <ele>212.8</ele>
        <time>2022-08-23T13:34:11Z</time>
      </trkpt>
      <trkpt lat="46.65982" lon="5.39763">
        <ele>212</ele>
        <time>2022-08-23T13:34:13Z</time>
      </trkpt>
      <trkpt lat="46.65963" lon="5.39768">
        <ele>211.4</ele>
        <time>2022-08-23T13:34:15Z</time>
      </trkpt>
      <trkpt lat="46.65954" lon="5.39773">
        <ele>211</ele>
        <time>2022-08-23T13:34:16Z</time>
      </trkpt>
      <trkpt lat="46.6593" lon="5.3979">
        <ele>210.6</ele>
        <time>2022-08-23T13:34:19Z</time>
      </trkpt>
      <trkpt lat="46.65922" lon="5.39796">
        <ele>210.6</ele>
        <time>2022-08-23T13:34:20Z</time>
      </trkpt>
      <trkpt lat="46.659" lon="5.39806">
        <ele>210.8</ele>
        <time>2022-08-23T13:34:23Z</time>
      </trkpt>
      <trkpt lat="46.65866" lon="5.39815">
        <ele>211.6</ele>
        <time>2022-08-23T13:34:28Z</time>
      </trkpt>
      <trkpt lat="46.6586" lon="5.39814">
        <ele>211.8</ele>
        <time>2022-08-23T13:34:29Z</time>
      </trkpt>
      <trkpt lat="46.65854" lon="5.39813">
        <ele>212</ele>
        <time>2022-08-23T13:34:30Z</time>
      </trkpt>
      <trkpt lat="46.6583" lon="5.39812">
        <ele>212.8</ele>
        <time>2022-08-23T13:34:34Z</time>
      </trkpt>
      <trkpt lat="46.65819" lon="5.3981">
        <ele>213.2</ele>
        <time>2022-08-23T13:34:36Z</time>
      </trkpt>
      <trkpt lat="46.65791" lon="5.39804">
        <ele>214.6</ele>
        <time>2022-08-23T13:34:41Z</time>
      </trkpt>
      <trkpt lat="46.65767" lon="5.39796">
        <ele>215.8</ele>
        <time>2022-08-23T13:34:46Z</time>
      </trkpt>
      <trkpt lat="46.65757" lon="5.39792">
        <ele>216</ele>
        <time>2022-08-23T13:34:48Z</time>
      </trkpt>
      <trkpt lat="46.65744" lon="5.39785">
        <ele>216.8</ele>
        <time>2022-08-23T13:34:51Z</time>
      </trkpt>
      <trkpt lat="46.6572" lon="5.39771">
        <ele>217.4</ele>
        <time>2022-08-23T13:34:56Z</time>
      </trkpt>
      <trkpt lat="46.65706" lon="5.39764">
        <ele>218.2</ele>
        <time>2022-08-23T13:34:59Z</time>
      </trkpt>
      <trkpt lat="46.65701" lon="5.39763">
        <ele>218.6</ele>
        <time>2022-08-23T13:35:00Z</time>
      </trkpt>
      <trkpt lat="46.65691" lon="5.39764">
        <ele>219</ele>
        <time>2022-08-23T13:35:02Z</time>
      </trkpt>
      <trkpt lat="46.65681" lon="5.39768">
        <ele>219.4</ele>
        <time>2022-08-23T13:35:04Z</time>
      </trkpt>
      <trkpt lat="46.65673" lon="5.39775">
        <ele>219.6</ele>
        <time>2022-08-23T13:35:06Z</time>
      </trkpt>
      <trkpt lat="46.65666" lon="5.39785">
        <ele>219.6</ele>
        <time>2022-08-23T13:35:08Z</time>
      </trkpt>
      <trkpt lat="46.65657" lon="5.39806">
        <ele>219.8</ele>
        <time>2022-08-23T13:35:11Z</time>
      </trkpt>
      <trkpt lat="46.6565" lon="5.39829">
        <ele>219.8</ele>
        <time>2022-08-23T13:35:14Z</time>
      </trkpt>
      <trkpt lat="46.65636" lon="5.39876">
        <ele>220.2</ele>
        <time>2022-08-23T13:35:20Z</time>
      </trkpt>
      <trkpt lat="46.65632" lon="5.39892">
        <ele>220.4</ele>
        <time>2022-08-23T13:35:22Z</time>
      </trkpt>
      <trkpt lat="46.6562" lon="5.3993">
        <ele>220.8</ele>
        <time>2022-08-23T13:35:27Z</time>
      </trkpt>
      <trkpt lat="46.65609" lon="5.39967">
        <ele>221.2</ele>
        <time>2022-08-23T13:35:32Z</time>
      </trkpt>
      <trkpt lat="46.65602" lon="5.39981">
        <ele>221.6</ele>
        <time>2022-08-23T13:35:34Z</time>
      </trkpt>
      <trkpt lat="46.65583" lon="5.40028">
        <ele>222.6</ele>
        <time>2022-08-23T13:35:40Z</time>
      </trkpt>
      <trkpt lat="46.65579" lon="5.40036">
        <ele>222.8</ele>
        <time>2022-08-23T13:35:41Z</time>
      </trkpt>
      <trkpt lat="46.65565" lon="5.40071">
        <ele>222.8</ele>
        <time>2022-08-23T13:35:45Z</time>
      </trkpt>
      <trkpt lat="46.65558" lon="5.4009">
        <ele>222.8</ele>
        <time>2022-08-23T13:35:47Z</time>
      </trkpt>
      <trkpt lat="46.6555" lon="5.40119">
        <ele>222.6</ele>
        <time>2022-08-23T13:35:50Z</time>
      </trkpt>
      <trkpt lat="46.6554" lon="5.40171">
        <ele>222.4</ele>
        <time>2022-08-23T13:35:55Z</time>
      </trkpt>
      <trkpt lat="46.65539" lon="5.40182">
        <ele>222.2</ele>
        <time>2022-08-23T13:35:56Z</time>
      </trkpt>
      <trkpt lat="46.65534" lon="5.40217">
        <ele>221.8</ele>
        <time>2022-08-23T13:35:59Z</time>
      </trkpt>
      <trkpt lat="46.65531" lon="5.40228">
        <ele>221.8</ele>
        <time>2022-08-23T13:36:00Z</time>
      </trkpt>
      <trkpt lat="46.65526" lon="5.40238">
        <ele>221.6</ele>
        <time>2022-08-23T13:36:01Z</time>
      </trkpt>
      <trkpt lat="46.65521" lon="5.40248">
        <ele>221.4</ele>
        <time>2022-08-23T13:36:02Z</time>
      </trkpt>
      <trkpt lat="46.65492" lon="5.40285">
        <ele>220.6</ele>
        <time>2022-08-23T13:36:06Z</time>
      </trkpt>
      <trkpt lat="46.65461" lon="5.40324">
        <ele>219</ele>
        <time>2022-08-23T13:36:10Z</time>
      </trkpt>
      <trkpt lat="46.65453" lon="5.40335">
        <ele>218.8</ele>
        <time>2022-08-23T13:36:11Z</time>
      </trkpt>
      <trkpt lat="46.65437" lon="5.40357">
        <ele>217.4</ele>
        <time>2022-08-23T13:36:13Z</time>
      </trkpt>
      <trkpt lat="46.65421" lon="5.40378">
        <ele>216</ele>
        <time>2022-08-23T13:36:15Z</time>
      </trkpt>
      <trkpt lat="46.65397" lon="5.40411">
        <ele>214.8</ele>
        <time>2022-08-23T13:36:18Z</time>
      </trkpt>
      <trkpt lat="46.65382" lon="5.40433">
        <ele>213.2</ele>
        <time>2022-08-23T13:36:20Z</time>
      </trkpt>
      <trkpt lat="46.65353" lon="5.40476">
        <ele>212</ele>
        <time>2022-08-23T13:36:24Z</time>
      </trkpt>
      <trkpt lat="46.6534" lon="5.40496">
        <ele>211.8</ele>
        <time>2022-08-23T13:36:26Z</time>
      </trkpt>
      <trkpt lat="46.65311" lon="5.40544">
        <ele>211.2</ele>
        <time>2022-08-23T13:36:31Z</time>
      </trkpt>
      <trkpt lat="46.65301" lon="5.40566">
        <ele>211</ele>
        <time>2022-08-23T13:36:33Z</time>
      </trkpt>
      <trkpt lat="46.6529" lon="5.406">
        <ele>211</ele>
        <time>2022-08-23T13:36:36Z</time>
      </trkpt>
      <trkpt lat="46.65268" lon="5.40674">
        <ele>210.6</ele>
        <time>2022-08-23T13:36:43Z</time>
      </trkpt>
      <trkpt lat="46.65249" lon="5.40718">
        <ele>211.2</ele>
        <time>2022-08-23T13:36:48Z</time>
      </trkpt>
      <trkpt lat="46.65232" lon="5.40752">
        <ele>211.8</ele>
        <time>2022-08-23T13:36:53Z</time>
      </trkpt>
      <trkpt lat="46.65224" lon="5.40765">
        <ele>212.4</ele>
        <time>2022-08-23T13:36:55Z</time>
      </trkpt>
      <trkpt lat="46.65204" lon="5.40794">
        <ele>213</ele>
        <time>2022-08-23T13:37:00Z</time>
      </trkpt>
      <trkpt lat="46.65196" lon="5.40805">
        <ele>213.6</ele>
        <time>2022-08-23T13:37:02Z</time>
      </trkpt>
      <trkpt lat="46.65181" lon="5.40827">
        <ele>214.6</ele>
        <time>2022-08-23T13:37:06Z</time>
      </trkpt>
      <trkpt lat="46.65169" lon="5.40843">
        <ele>215.8</ele>
        <time>2022-08-23T13:37:09Z</time>
      </trkpt>
      <trkpt lat="46.65152" lon="5.4087">
        <ele>217</ele>
        <time>2022-08-23T13:37:14Z</time>
      </trkpt>
      <trkpt lat="46.65135" lon="5.40895">
        <ele>217.4</ele>
        <time>2022-08-23T13:37:19Z</time>
      </trkpt>
      <trkpt lat="46.65123" lon="5.40914">
        <ele>218.2</ele>
        <time>2022-08-23T13:37:23Z</time>
      </trkpt>
      <trkpt lat="46.65107" lon="5.40937">
        <ele>219</ele>
        <time>2022-08-23T13:37:28Z</time>
      </trkpt>
      <trkpt lat="46.65104" lon="5.40942">
        <ele>219.2</ele>
        <time>2022-08-23T13:37:29Z</time>
      </trkpt>
      <trkpt lat="46.65084" lon="5.40972">
        <ele>220.4</ele>
        <time>2022-08-23T13:37:35Z</time>
      </trkpt>
      <trkpt lat="46.65077" lon="5.40982">
        <ele>220.8</ele>
        <time>2022-08-23T13:37:37Z</time>
      </trkpt>
      <trkpt lat="46.65052" lon="5.41013">
        <ele>221</ele>
        <time>2022-08-23T13:37:43Z</time>
      </trkpt>
      <trkpt lat="46.65024" lon="5.41039">
        <ele>221.4</ele>
        <time>2022-08-23T13:37:49Z</time>
      </trkpt>
      <trkpt lat="46.65019" lon="5.41043">
        <ele>221.4</ele>
        <time>2022-08-23T13:37:50Z</time>
      </trkpt>
      <trkpt lat="46.64982" lon="5.41069">
        <ele>221.6</ele>
        <time>2022-08-23T13:37:56Z</time>
      </trkpt>
      <trkpt lat="46.64941" lon="5.41097">
        <ele>222.4</ele>
        <time>2022-08-23T13:38:03Z</time>
      </trkpt>
      <trkpt lat="46.64936" lon="5.41101">
        <ele>222.4</ele>
        <time>2022-08-23T13:38:04Z</time>
      </trkpt>
      <trkpt lat="46.64903" lon="5.41123">
        <ele>223.4</ele>
        <time>2022-08-23T13:38:10Z</time>
      </trkpt>
      <trkpt lat="46.64893" lon="5.4113">
        <ele>224</ele>
        <time>2022-08-23T13:38:12Z</time>
      </trkpt>
      <trkpt lat="46.64871" lon="5.41145">
        <ele>224.6</ele>
        <time>2022-08-23T13:38:16Z</time>
      </trkpt>
      <trkpt lat="46.64832" lon="5.4117">
        <ele>225</ele>
        <time>2022-08-23T13:38:23Z</time>
      </trkpt>
      <trkpt lat="46.64794" lon="5.41196">
        <ele>225.6</ele>
        <time>2022-08-23T13:38:30Z</time>
      </trkpt>
      <trkpt lat="46.64788" lon="5.412">
        <ele>225.8</ele>
        <time>2022-08-23T13:38:31Z</time>
      </trkpt>
      <trkpt lat="46.64739" lon="5.41232">
        <ele>226</ele>
        <time>2022-08-23T13:38:39Z</time>
      </trkpt>
      <trkpt lat="46.64687" lon="5.41268">
        <ele>225.2</ele>
        <time>2022-08-23T13:38:46Z</time>
      </trkpt>
      <trkpt lat="46.64634" lon="5.41304">
        <ele>224.8</ele>
        <time>2022-08-23T13:38:53Z</time>
      </trkpt>
      <trkpt lat="46.64621" lon="5.41312">
        <ele>224.8</ele>
        <time>2022-08-23T13:38:55Z</time>
      </trkpt>
      <trkpt lat="46.64581" lon="5.4134">
        <ele>225.6</ele>
        <time>2022-08-23T13:39:01Z</time>
      </trkpt>
      <trkpt lat="46.64531" lon="5.41373">
        <ele>226</ele>
        <time>2022-08-23T13:39:08Z</time>
      </trkpt>
      <trkpt lat="46.64524" lon="5.41378">
        <ele>226</ele>
        <time>2022-08-23T13:39:09Z</time>
      </trkpt>
      <trkpt lat="46.64473" lon="5.41411">
        <ele>225.8</ele>
        <time>2022-08-23T13:39:16Z</time>
      </trkpt>
      <trkpt lat="46.64451" lon="5.41425">
        <ele>225.4</ele>
        <time>2022-08-23T13:39:19Z</time>
      </trkpt>
      <trkpt lat="46.64403" lon="5.41457">
        <ele>224.8</ele>
        <time>2022-08-23T13:39:26Z</time>
      </trkpt>
      <trkpt lat="46.64347" lon="5.41493">
        <ele>224.8</ele>
        <time>2022-08-23T13:39:34Z</time>
      </trkpt>
      <trkpt lat="46.64327" lon="5.41506">
        <ele>224.8</ele>
        <time>2022-08-23T13:39:37Z</time>
      </trkpt>
      <trkpt lat="46.64313" lon="5.41515">
        <ele>224.6</ele>
        <time>2022-08-23T13:39:39Z</time>
      </trkpt>
      <trkpt lat="46.64259" lon="5.4155">
        <ele>224.8</ele>
        <time>2022-08-23T13:39:47Z</time>
      </trkpt>
      <trkpt lat="46.64209" lon="5.41583">
        <ele>225.6</ele>
        <time>2022-08-23T13:39:55Z</time>
      </trkpt>
      <trkpt lat="46.64197" lon="5.41591">
        <ele>225.6</ele>
        <time>2022-08-23T13:39:57Z</time>
      </trkpt>
      <trkpt lat="46.64184" lon="5.41599">
        <ele>226</ele>
        <time>2022-08-23T13:39:59Z</time>
      </trkpt>
      <trkpt lat="46.64147" lon="5.41623">
        <ele>226.6</ele>
        <time>2022-08-23T13:40:05Z</time>
      </trkpt>
      <trkpt lat="46.64099" lon="5.41653">
        <ele>226.8</ele>
        <time>2022-08-23T13:40:12Z</time>
      </trkpt>
      <trkpt lat="46.64043" lon="5.41686">
        <ele>226.2</ele>
        <time>2022-08-23T13:40:19Z</time>
      </trkpt>
      <trkpt lat="46.63995" lon="5.41717">
        <ele>224.6</ele>
        <time>2022-08-23T13:40:25Z</time>
      </trkpt>
      <trkpt lat="46.63986" lon="5.41721">
        <ele>224.4</ele>
        <time>2022-08-23T13:40:26Z</time>
      </trkpt>
      <trkpt lat="46.63971" lon="5.41731">
        <ele>224</ele>
        <time>2022-08-23T13:40:28Z</time>
      </trkpt>
      <trkpt lat="46.63952" lon="5.41742">
        <ele>223.4</ele>
        <time>2022-08-23T13:40:30Z</time>
      </trkpt>
      <trkpt lat="46.63935" lon="5.41752">
        <ele>222.2</ele>
        <time>2022-08-23T13:40:32Z</time>
      </trkpt>
      <trkpt lat="46.63902" lon="5.41772">
        <ele>221.2</ele>
        <time>2022-08-23T13:40:36Z</time>
      </trkpt>
      <trkpt lat="46.63848" lon="5.41805">
        <ele>220.2</ele>
        <time>2022-08-23T13:40:43Z</time>
      </trkpt>
      <trkpt lat="46.6384" lon="5.4181">
        <ele>220.2</ele>
        <time>2022-08-23T13:40:44Z</time>
      </trkpt>
      <trkpt lat="46.63832" lon="5.41815">
        <ele>220</ele>
        <time>2022-08-23T13:40:45Z</time>
      </trkpt>
      <trkpt lat="46.63781" lon="5.41845">
        <ele>220.2</ele>
        <time>2022-08-23T13:40:52Z</time>
      </trkpt>
      <trkpt lat="46.63765" lon="5.41855">
        <ele>220.4</ele>
        <time>2022-08-23T13:40:54Z</time>
      </trkpt>
      <trkpt lat="46.63717" lon="5.41884">
        <ele>221.4</ele>
        <time>2022-08-23T13:41:01Z</time>
      </trkpt>
      <trkpt lat="46.63691" lon="5.41899">
        <ele>221.8</ele>
        <time>2022-08-23T13:41:05Z</time>
      </trkpt>
      <trkpt lat="46.63672" lon="5.41913">
        <ele>222.8</ele>
        <time>2022-08-23T13:41:08Z</time>
      </trkpt>
      <trkpt lat="46.63648" lon="5.41932">
        <ele>223.6</ele>
        <time>2022-08-23T13:41:12Z</time>
      </trkpt>
      <trkpt lat="46.63636" lon="5.41941">
        <ele>223.8</ele>
        <time>2022-08-23T13:41:14Z</time>
      </trkpt>
      <trkpt lat="46.63596" lon="5.41977">
        <ele>224.8</ele>
        <time>2022-08-23T13:41:21Z</time>
      </trkpt>
      <trkpt lat="46.63585" lon="5.41986">
        <ele>225</ele>
        <time>2022-08-23T13:41:23Z</time>
      </trkpt>
      <trkpt lat="46.63549" lon="5.4202">
        <ele>225.8</ele>
        <time>2022-08-23T13:41:30Z</time>
      </trkpt>
      <trkpt lat="46.63543" lon="5.42023">
        <ele>226</ele>
        <time>2022-08-23T13:41:31Z</time>
      </trkpt>
      <trkpt lat="46.63538" lon="5.42024">
        <ele>226.2</ele>
        <time>2022-08-23T13:41:32Z</time>
      </trkpt>
      <trkpt lat="46.63531" lon="5.42023">
        <ele>226.2</ele>
        <time>2022-08-23T13:41:33Z</time>
      </trkpt>
      <trkpt lat="46.63525" lon="5.4202">
        <ele>226.4</ele>
        <time>2022-08-23T13:41:34Z</time>
      </trkpt>
      <trkpt lat="46.63504" lon="5.42008">
        <ele>226.8</ele>
        <time>2022-08-23T13:41:37Z</time>
      </trkpt>
      <trkpt lat="46.6348" lon="5.41987">
        <ele>227</ele>
        <time>2022-08-23T13:41:41Z</time>
      </trkpt>
      <trkpt lat="46.63467" lon="5.41977">
        <ele>227</ele>
        <time>2022-08-23T13:41:43Z</time>
      </trkpt>
      <trkpt lat="46.63422" lon="5.41953">
        <ele>226.6</ele>
        <time>2022-08-23T13:41:50Z</time>
      </trkpt>
      <trkpt lat="46.63415" lon="5.41949">
        <ele>226.6</ele>
        <time>2022-08-23T13:41:51Z</time>
      </trkpt>
      <trkpt lat="46.63388" lon="5.41927">
        <ele>226.4</ele>
        <time>2022-08-23T13:41:55Z</time>
      </trkpt>
      <trkpt lat="46.6335" lon="5.41888">
        <ele>226.2</ele>
        <time>2022-08-23T13:42:01Z</time>
      </trkpt>
      <trkpt lat="46.63344" lon="5.41881">
        <ele>225.8</ele>
        <time>2022-08-23T13:42:02Z</time>
      </trkpt>
      <trkpt lat="46.63313" lon="5.41834">
        <ele>225.6</ele>
        <time>2022-08-23T13:42:08Z</time>
      </trkpt>
      <trkpt lat="46.6328" lon="5.41785">
        <ele>226</ele>
        <time>2022-08-23T13:42:15Z</time>
      </trkpt>
      <trkpt lat="46.63252" lon="5.41745">
        <ele>226.4</ele>
        <time>2022-08-23T13:42:21Z</time>
      </trkpt>
      <trkpt lat="46.63216" lon="5.41692">
        <ele>226.6</ele>
        <time>2022-08-23T13:42:28Z</time>
      </trkpt>
      <trkpt lat="46.6319" lon="5.41635">
        <ele>226.2</ele>
        <time>2022-08-23T13:42:34Z</time>
      </trkpt>
      <trkpt lat="46.63156" lon="5.41565">
        <ele>226.2</ele>
        <time>2022-08-23T13:42:42Z</time>
      </trkpt>
      <trkpt lat="46.63128" lon="5.41502">
        <ele>226.2</ele>
        <time>2022-08-23T13:42:49Z</time>
      </trkpt>
      <trkpt lat="46.63101" lon="5.41455">
        <ele>226.6</ele>
        <time>2022-08-23T13:42:55Z</time>
      </trkpt>
      <trkpt lat="46.63062" lon="5.41401">
        <ele>226.8</ele>
        <time>2022-08-23T13:43:03Z</time>
      </trkpt>
      <trkpt lat="46.63018" lon="5.41362">
        <ele>226.6</ele>
        <time>2022-08-23T13:43:10Z</time>
      </trkpt>
      <trkpt lat="46.62975" lon="5.41341">
        <ele>225.8</ele>
        <time>2022-08-23T13:43:15Z</time>
      </trkpt>
      <trkpt lat="46.62935" lon="5.41325">
        <ele>224.4</ele>
        <time>2022-08-23T13:43:19Z</time>
      </trkpt>
      <trkpt lat="46.62914" lon="5.41315">
        <ele>224</ele>
        <time>2022-08-23T13:43:21Z</time>
      </trkpt>
      <trkpt lat="46.62892" lon="5.41306">
        <ele>223.2</ele>
        <time>2022-08-23T13:43:23Z</time>
      </trkpt>
      <trkpt lat="46.62881" lon="5.41301">
        <ele>222</ele>
        <time>2022-08-23T13:43:24Z</time>
      </trkpt>
      <trkpt lat="46.62844" lon="5.41285">
        <ele>220.8</ele>
        <time>2022-08-23T13:43:27Z</time>
      </trkpt>
      <trkpt lat="46.62822" lon="5.41276">
        <ele>219.4</ele>
        <time>2022-08-23T13:43:29Z</time>
      </trkpt>
      <trkpt lat="46.62798" lon="5.41266">
        <ele>218.2</ele>
        <time>2022-08-23T13:43:31Z</time>
      </trkpt>
      <trkpt lat="46.62761" lon="5.4125">
        <ele>217.2</ele>
        <time>2022-08-23T13:43:34Z</time>
      </trkpt>
      <trkpt lat="46.62739" lon="5.4124">
        <ele>215.6</ele>
        <time>2022-08-23T13:43:36Z</time>
      </trkpt>
      <trkpt lat="46.62727" lon="5.41235">
        <ele>215.2</ele>
        <time>2022-08-23T13:43:37Z</time>
      </trkpt>
      <trkpt lat="46.62716" lon="5.4123">
        <ele>214.6</ele>
        <time>2022-08-23T13:43:38Z</time>
      </trkpt>
      <trkpt lat="46.62672" lon="5.41211">
        <ele>213.4</ele>
        <time>2022-08-23T13:43:42Z</time>
      </trkpt>
      <trkpt lat="46.62628" lon="5.41192">
        <ele>212.6</ele>
        <time>2022-08-23T13:43:46Z</time>
      </trkpt>
      <trkpt lat="46.62617" lon="5.41187">
        <ele>212</ele>
        <time>2022-08-23T13:43:47Z</time>
      </trkpt>
      <trkpt lat="46.62563" lon="5.41163">
        <ele>210.8</ele>
        <time>2022-08-23T13:43:52Z</time>
      </trkpt>
      <trkpt lat="46.62521" lon="5.41145">
        <ele>210</ele>
        <time>2022-08-23T13:43:56Z</time>
      </trkpt>
      <trkpt lat="46.62511" lon="5.41141">
        <ele>209.8</ele>
        <time>2022-08-23T13:43:57Z</time>
      </trkpt>
      <trkpt lat="46.62493" lon="5.4113">
        <ele>209.6</ele>
        <time>2022-08-23T13:43:59Z</time>
      </trkpt>
      <trkpt lat="46.62483" lon="5.41121">
        <ele>209.2</ele>
        <time>2022-08-23T13:44:00Z</time>
      </trkpt>
      <trkpt lat="46.62474" lon="5.41112">
        <ele>209.2</ele>
        <time>2022-08-23T13:44:01Z</time>
      </trkpt>
      <trkpt lat="46.62467" lon="5.41101">
        <ele>208.8</ele>
        <time>2022-08-23T13:44:02Z</time>
      </trkpt>
      <trkpt lat="46.62461" lon="5.4109">
        <ele>208.8</ele>
        <time>2022-08-23T13:44:03Z</time>
      </trkpt>
      <trkpt lat="46.62441" lon="5.41041">
        <ele>208.4</ele>
        <time>2022-08-23T13:44:07Z</time>
      </trkpt>
      <trkpt lat="46.62419" lon="5.40984">
        <ele>207.8</ele>
        <time>2022-08-23T13:44:12Z</time>
      </trkpt>
      <trkpt lat="46.62409" lon="5.40961">
        <ele>207.8</ele>
        <time>2022-08-23T13:44:14Z</time>
      </trkpt>
      <trkpt lat="46.624" lon="5.40939">
        <ele>207.6</ele>
        <time>2022-08-23T13:44:16Z</time>
      </trkpt>
      <trkpt lat="46.62387" lon="5.40921">
        <ele>207.2</ele>
        <time>2022-08-23T13:44:18Z</time>
      </trkpt>
      <trkpt lat="46.62342" lon="5.40879">
        <ele>207.2</ele>
        <time>2022-08-23T13:44:24Z</time>
      </trkpt>
      <trkpt lat="46.62335" lon="5.40872">
        <ele>207</ele>
        <time>2022-08-23T13:44:25Z</time>
      </trkpt>
      <trkpt lat="46.62319" lon="5.40845">
        <ele>207</ele>
        <time>2022-08-23T13:44:28Z</time>
      </trkpt>
      <trkpt lat="46.62307" lon="5.40827">
        <ele>207</ele>
        <time>2022-08-23T13:44:30Z</time>
      </trkpt>
      <trkpt lat="46.6229" lon="5.40803">
        <ele>206.8</ele>
        <time>2022-08-23T13:44:33Z</time>
      </trkpt>
      <trkpt lat="46.62283" lon="5.40796">
        <ele>206.8</ele>
        <time>2022-08-23T13:44:34Z</time>
      </trkpt>
      <trkpt lat="46.62247" lon="5.40759">
        <ele>206.4</ele>
        <time>2022-08-23T13:44:39Z</time>
      </trkpt>
      <trkpt lat="46.62199" lon="5.40715">
        <ele>206.2</ele>
        <time>2022-08-23T13:44:46Z</time>
      </trkpt>
      <trkpt lat="46.62192" lon="5.40711">
        <ele>206.2</ele>
        <time>2022-08-23T13:44:47Z</time>
      </trkpt>
      <trkpt lat="46.62176" lon="5.40707">
        <ele>206</ele>
        <time>2022-08-23T13:44:49Z</time>
      </trkpt>
      <trkpt lat="46.62161" lon="5.40707">
        <ele>206</ele>
        <time>2022-08-23T13:44:51Z</time>
      </trkpt>
      <trkpt lat="46.62145" lon="5.40713">
        <ele>206</ele>
        <time>2022-08-23T13:44:53Z</time>
      </trkpt>
      <trkpt lat="46.62131" lon="5.40723">
        <ele>206.2</ele>
        <time>2022-08-23T13:44:55Z</time>
      </trkpt>
      <trkpt lat="46.62119" lon="5.40738">
        <ele>206.2</ele>
        <time>2022-08-23T13:44:57Z</time>
      </trkpt>
      <trkpt lat="46.6211" lon="5.40755">
        <ele>206.4</ele>
        <time>2022-08-23T13:44:59Z</time>
      </trkpt>
      <trkpt lat="46.62087" lon="5.40814">
        <ele>206.4</ele>
        <time>2022-08-23T13:45:05Z</time>
      </trkpt>
      <trkpt lat="46.6206" lon="5.40889">
        <ele>206.4</ele>
        <time>2022-08-23T13:45:12Z</time>
      </trkpt>
      <trkpt lat="46.62053" lon="5.40911">
        <ele>206.4</ele>
        <time>2022-08-23T13:45:14Z</time>
      </trkpt>
      <trkpt lat="46.62029" lon="5.40985">
        <ele>206</ele>
        <time>2022-08-23T13:45:21Z</time>
      </trkpt>
      <trkpt lat="46.62022" lon="5.41007">
        <ele>206</ele>
        <time>2022-08-23T13:45:23Z</time>
      </trkpt>
      <trkpt lat="46.62019" lon="5.41017">
        <ele>206</ele>
        <time>2022-08-23T13:45:24Z</time>
      </trkpt>
      <trkpt lat="46.61996" lon="5.41065">
        <ele>205.8</ele>
        <time>2022-08-23T13:45:29Z</time>
      </trkpt>
      <trkpt lat="46.61954" lon="5.41122">
        <ele>205.8</ele>
        <time>2022-08-23T13:45:36Z</time>
      </trkpt>
      <trkpt lat="46.61948" lon="5.4113">
        <ele>205.8</ele>
        <time>2022-08-23T13:45:37Z</time>
      </trkpt>
      <trkpt lat="46.61907" lon="5.41187">
        <ele>205.8</ele>
        <time>2022-08-23T13:45:44Z</time>
      </trkpt>
      <trkpt lat="46.61889" lon="5.41211">
        <ele>205.6</ele>
        <time>2022-08-23T13:45:47Z</time>
      </trkpt>
      <trkpt lat="46.6185" lon="5.4127">
        <ele>205.4</ele>
        <time>2022-08-23T13:45:54Z</time>
      </trkpt>
      <trkpt lat="46.61814" lon="5.41335">
        <ele>205.4</ele>
        <time>2022-08-23T13:46:01Z</time>
      </trkpt>
      <trkpt lat="46.61804" lon="5.41353">
        <ele>205.4</ele>
        <time>2022-08-23T13:46:03Z</time>
      </trkpt>
      <trkpt lat="46.61765" lon="5.41412">
        <ele>205.6</ele>
        <time>2022-08-23T13:46:10Z</time>
      </trkpt>
      <trkpt lat="46.61759" lon="5.41419">
        <ele>205.6</ele>
        <time>2022-08-23T13:46:11Z</time>
      </trkpt>
      <trkpt lat="46.61744" lon="5.41429">
        <ele>205.4</ele>
        <time>2022-08-23T13:46:13Z</time>
      </trkpt>
      <trkpt lat="46.61736" lon="5.41432">
        <ele>205.4</ele>
        <time>2022-08-23T13:46:14Z</time>
      </trkpt>
      <trkpt lat="46.61728" lon="5.41435">
        <ele>205.2</ele>
        <time>2022-08-23T13:46:15Z</time>
      </trkpt>
      <trkpt lat="46.61712" lon="5.41437">
        <ele>205.2</ele>
        <time>2022-08-23T13:46:17Z</time>
      </trkpt>
      <trkpt lat="46.61704" lon="5.41436">
        <ele>205.2</ele>
        <time>2022-08-23T13:46:18Z</time>
      </trkpt>
      <trkpt lat="46.61688" lon="5.41432">
        <ele>205.2</ele>
        <time>2022-08-23T13:46:20Z</time>
      </trkpt>
      <trkpt lat="46.61673" lon="5.41422">
        <ele>205.4</ele>
        <time>2022-08-23T13:46:22Z</time>
      </trkpt>
      <trkpt lat="46.61639" lon="5.41389">
        <ele>205.8</ele>
        <time>2022-08-23T13:46:27Z</time>
      </trkpt>
      <trkpt lat="46.61594" lon="5.41341">
        <ele>206</ele>
        <time>2022-08-23T13:46:34Z</time>
      </trkpt>
      <trkpt lat="46.61586" lon="5.41336">
        <ele>206</ele>
        <time>2022-08-23T13:46:35Z</time>
      </trkpt>
      <trkpt lat="46.61535" lon="5.413">
        <ele>206</ele>
        <time>2022-08-23T13:46:42Z</time>
      </trkpt>
      <trkpt lat="46.61513" lon="5.41286">
        <ele>206</ele>
        <time>2022-08-23T13:46:45Z</time>
      </trkpt>
      <trkpt lat="46.61476" lon="5.41272">
        <ele>206</ele>
        <time>2022-08-23T13:46:50Z</time>
      </trkpt>
      <trkpt lat="46.61421" lon="5.41256">
        <ele>206</ele>
        <time>2022-08-23T13:46:57Z</time>
      </trkpt>
      <trkpt lat="46.61377" lon="5.41244">
        <ele>206.2</ele>
        <time>2022-08-23T13:47:03Z</time>
      </trkpt>
      <trkpt lat="46.61327" lon="5.41229">
        <ele>206.2</ele>
        <time>2022-08-23T13:47:10Z</time>
      </trkpt>
      <trkpt lat="46.61266" lon="5.41213">
        <ele>205.4</ele>
        <time>2022-08-23T13:47:18Z</time>
      </trkpt>
      <trkpt lat="46.61259" lon="5.41211">
        <ele>205.2</ele>
        <time>2022-08-23T13:47:19Z</time>
      </trkpt>
      <trkpt lat="46.61221" lon="5.412">
        <ele>205.2</ele>
        <time>2022-08-23T13:47:24Z</time>
      </trkpt>
      <trkpt lat="46.61184" lon="5.4119">
        <ele>205.4</ele>
        <time>2022-08-23T13:47:29Z</time>
      </trkpt>
      <trkpt lat="46.61125" lon="5.41174">
        <ele>205.6</ele>
        <time>2022-08-23T13:47:37Z</time>
      </trkpt>
      <trkpt lat="46.61111" lon="5.41169">
        <ele>205.6</ele>
        <time>2022-08-23T13:47:39Z</time>
      </trkpt>
      <trkpt lat="46.61053" lon="5.41153">
        <ele>205.8</ele>
        <time>2022-08-23T13:47:47Z</time>
      </trkpt>
      <trkpt lat="46.61046" lon="5.41153">
        <ele>205.8</ele>
        <time>2022-08-23T13:47:48Z</time>
      </trkpt>
      <trkpt lat="46.61011" lon="5.41157">
        <ele>206</ele>
        <time>2022-08-23T13:47:53Z</time>
      </trkpt>
      <trkpt lat="46.60984" lon="5.41176">
        <ele>206</ele>
        <time>2022-08-23T13:47:57Z</time>
      </trkpt>
      <trkpt lat="46.60938" lon="5.41222">
        <ele>206.2</ele>
        <time>2022-08-23T13:48:05Z</time>
      </trkpt>
      <trkpt lat="46.60932" lon="5.41228">
        <ele>206.4</ele>
        <time>2022-08-23T13:48:06Z</time>
      </trkpt>
      <trkpt lat="46.60912" lon="5.41251">
        <ele>206.4</ele>
        <time>2022-08-23T13:48:10Z</time>
      </trkpt>
      <trkpt lat="46.60888" lon="5.41278">
        <ele>206.8</ele>
        <time>2022-08-23T13:48:15Z</time>
      </trkpt>
      <trkpt lat="46.60866" lon="5.41308">
        <ele>207.4</ele>
        <time>2022-08-23T13:48:20Z</time>
      </trkpt>
      <trkpt lat="46.60857" lon="5.4132">
        <ele>207.8</ele>
        <time>2022-08-23T13:48:22Z</time>
      </trkpt>
      <trkpt lat="46.60852" lon="5.41325">
        <ele>207.8</ele>
        <time>2022-08-23T13:48:23Z</time>
      </trkpt>
      <trkpt lat="46.60841" lon="5.41331">
        <ele>207.8</ele>
        <time>2022-08-23T13:48:25Z</time>
      </trkpt>
      <trkpt lat="46.60835" lon="5.41332">
        <ele>208</ele>
        <time>2022-08-23T13:48:26Z</time>
      </trkpt>
      <trkpt lat="46.60829" lon="5.41331">
        <ele>208</ele>
        <time>2022-08-23T13:48:27Z</time>
      </trkpt>
      <trkpt lat="46.60817" lon="5.41325">
        <ele>208</ele>
        <time>2022-08-23T13:48:29Z</time>
      </trkpt>
      <trkpt lat="46.60812" lon="5.41322">
        <ele>208</ele>
        <time>2022-08-23T13:48:30Z</time>
      </trkpt>
      <trkpt lat="46.60789" lon="5.41301">
        <ele>208.4</ele>
        <time>2022-08-23T13:48:35Z</time>
      </trkpt>
      <trkpt lat="46.60786" lon="5.41296">
        <ele>208.6</ele>
        <time>2022-08-23T13:48:36Z</time>
      </trkpt>
      <trkpt lat="46.60779" lon="5.41288">
        <ele>209.2</ele>
        <time>2022-08-23T13:48:38Z</time>
      </trkpt>
      <trkpt lat="46.60768" lon="5.41277">
        <ele>210.4</ele>
        <time>2022-08-23T13:48:41Z</time>
      </trkpt>
      <trkpt lat="46.6076" lon="5.41269">
        <ele>211.2</ele>
        <time>2022-08-23T13:48:43Z</time>
      </trkpt>
      <trkpt lat="46.60751" lon="5.4126">
        <ele>211.6</ele>
        <time>2022-08-23T13:48:45Z</time>
      </trkpt>
      <trkpt lat="46.60733" lon="5.41239">
        <ele>212.2</ele>
        <time>2022-08-23T13:48:49Z</time>
      </trkpt>
      <trkpt lat="46.60699" lon="5.41197">
        <ele>212.2</ele>
        <time>2022-08-23T13:48:56Z</time>
      </trkpt>
      <trkpt lat="46.60688" lon="5.41187">
        <ele>212</ele>
        <time>2022-08-23T13:48:58Z</time>
      </trkpt>
      <trkpt lat="46.6067" lon="5.41177">
        <ele>212</ele>
        <time>2022-08-23T13:49:01Z</time>
      </trkpt>
      <trkpt lat="46.6062" lon="5.4116">
        <ele>212</ele>
        <time>2022-08-23T13:49:09Z</time>
      </trkpt>
      <trkpt lat="46.6059" lon="5.4115">
        <ele>212.4</ele>
        <time>2022-08-23T13:49:14Z</time>
      </trkpt>
      <trkpt lat="46.60567" lon="5.41143">
        <ele>212.6</ele>
        <time>2022-08-23T13:49:18Z</time>
      </trkpt>
      <trkpt lat="46.60556" lon="5.4114">
        <ele>212.8</ele>
        <time>2022-08-23T13:49:20Z</time>
      </trkpt>
      <trkpt lat="46.60533" lon="5.41139">
        <ele>213.8</ele>
        <time>2022-08-23T13:49:24Z</time>
      </trkpt>
      <trkpt lat="46.60522" lon="5.41138">
        <ele>214.4</ele>
        <time>2022-08-23T13:49:26Z</time>
      </trkpt>
      <trkpt lat="46.60511" lon="5.41137">
        <ele>214.8</ele>
        <time>2022-08-23T13:49:28Z</time>
      </trkpt>
      <trkpt lat="46.6048" lon="5.41136">
        <ele>216</ele>
        <time>2022-08-23T13:49:34Z</time>
      </trkpt>
      <trkpt lat="46.60448" lon="5.41125">
        <ele>217.2</ele>
        <time>2022-08-23T13:49:40Z</time>
      </trkpt>
      <trkpt lat="46.60438" lon="5.41117">
        <ele>217.4</ele>
        <time>2022-08-23T13:49:42Z</time>
      </trkpt>
      <trkpt lat="46.6043" lon="5.41105">
        <ele>217.4</ele>
        <time>2022-08-23T13:49:44Z</time>
      </trkpt>
      <trkpt lat="46.60427" lon="5.41099">
        <ele>217.6</ele>
        <time>2022-08-23T13:49:45Z</time>
      </trkpt>
      <trkpt lat="46.60415" lon="5.41065">
        <ele>218.2</ele>
        <time>2022-08-23T13:49:50Z</time>
      </trkpt>
      <trkpt lat="46.60412" lon="5.41058">
        <ele>218.4</ele>
        <time>2022-08-23T13:49:51Z</time>
      </trkpt>
      <trkpt lat="46.60401" lon="5.41037">
        <ele>218.8</ele>
        <time>2022-08-23T13:49:54Z</time>
      </trkpt>
      <trkpt lat="46.60396" lon="5.4103">
        <ele>218.8</ele>
        <time>2022-08-23T13:49:55Z</time>
      </trkpt>
      <trkpt lat="46.6039" lon="5.41024">
        <ele>219.2</ele>
        <time>2022-08-23T13:49:56Z</time>
      </trkpt>
      <trkpt lat="46.60384" lon="5.41018">
        <ele>219.2</ele>
        <time>2022-08-23T13:49:57Z</time>
      </trkpt>
      <trkpt lat="46.60362" lon="5.41004">
        <ele>219</ele>
        <time>2022-08-23T13:50:00Z</time>
      </trkpt>
      <trkpt lat="46.60346" lon="5.40992">
        <ele>218.6</ele>
        <time>2022-08-23T13:50:02Z</time>
      </trkpt>
      <trkpt lat="46.60332" lon="5.40975">
        <ele>218</ele>
        <time>2022-08-23T13:50:04Z</time>
      </trkpt>
      <trkpt lat="46.60313" lon="5.4094">
        <ele>216.6</ele>
        <time>2022-08-23T13:50:07Z</time>
      </trkpt>
      <trkpt lat="46.60306" lon="5.40928">
        <ele>216.6</ele>
        <time>2022-08-23T13:50:08Z</time>
      </trkpt>
      <trkpt lat="46.603" lon="5.40919">
        <ele>215.6</ele>
        <time>2022-08-23T13:50:09Z</time>
      </trkpt>
      <trkpt lat="46.60291" lon="5.40905">
        <ele>215.2</ele>
        <time>2022-08-23T13:50:10Z</time>
      </trkpt>
      <trkpt lat="46.60273" lon="5.40886">
        <ele>214.2</ele>
        <time>2022-08-23T13:50:12Z</time>
      </trkpt>
      <trkpt lat="46.60254" lon="5.4087">
        <ele>212.8</ele>
        <time>2022-08-23T13:50:14Z</time>
      </trkpt>
      <trkpt lat="46.60234" lon="5.40856">
        <ele>211.4</ele>
        <time>2022-08-23T13:50:16Z</time>
      </trkpt>
      <trkpt lat="46.60225" lon="5.40849">
        <ele>210.6</ele>
        <time>2022-08-23T13:50:17Z</time>
      </trkpt>
      <trkpt lat="46.60218" lon="5.40843">
        <ele>210.4</ele>
        <time>2022-08-23T13:50:18Z</time>
      </trkpt>
      <trkpt lat="46.60191" lon="5.40817">
        <ele>209.4</ele>
        <time>2022-08-23T13:50:21Z</time>
      </trkpt>
      <trkpt lat="46.60184" lon="5.40807">
        <ele>209</ele>
        <time>2022-08-23T13:50:22Z</time>
      </trkpt>
      <trkpt lat="46.60179" lon="5.40796">
        <ele>208.8</ele>
        <time>2022-08-23T13:50:23Z</time>
      </trkpt>
      <trkpt lat="46.60173" lon="5.40771">
        <ele>208.6</ele>
        <time>2022-08-23T13:50:25Z</time>
      </trkpt>
      <trkpt lat="46.60172" lon="5.40745">
        <ele>208.2</ele>
        <time>2022-08-23T13:50:27Z</time>
      </trkpt>
      <trkpt lat="46.60174" lon="5.40733">
        <ele>208</ele>
        <time>2022-08-23T13:50:28Z</time>
      </trkpt>
      <trkpt lat="46.60176" lon="5.4072">
        <ele>207.8</ele>
        <time>2022-08-23T13:50:29Z</time>
      </trkpt>
      <trkpt lat="46.60184" lon="5.40699">
        <ele>207.8</ele>
        <time>2022-08-23T13:50:31Z</time>
      </trkpt>
      <trkpt lat="46.60189" lon="5.40689">
        <ele>207.8</ele>
        <time>2022-08-23T13:50:32Z</time>
      </trkpt>
      <trkpt lat="46.60225" lon="5.40628">
        <ele>208.2</ele>
        <time>2022-08-23T13:50:39Z</time>
      </trkpt>
      <trkpt lat="46.60229" lon="5.40618">
        <ele>208.4</ele>
        <time>2022-08-23T13:50:40Z</time>
      </trkpt>
      <trkpt lat="46.60234" lon="5.40598">
        <ele>208.4</ele>
        <time>2022-08-23T13:50:42Z</time>
      </trkpt>
      <trkpt lat="46.60235" lon="5.40587">
        <ele>208.6</ele>
        <time>2022-08-23T13:50:43Z</time>
      </trkpt>
      <trkpt lat="46.60236" lon="5.40577">
        <ele>208.6</ele>
        <time>2022-08-23T13:50:44Z</time>
      </trkpt>
      <trkpt lat="46.60234" lon="5.40556">
        <ele>208.6</ele>
        <time>2022-08-23T13:50:46Z</time>
      </trkpt>
      <trkpt lat="46.60232" lon="5.40546">
        <ele>208.6</ele>
        <time>2022-08-23T13:50:47Z</time>
      </trkpt>
      <trkpt lat="46.60219" lon="5.40476">
        <ele>208.6</ele>
        <time>2022-08-23T13:50:54Z</time>
      </trkpt>
      <trkpt lat="46.60219" lon="5.40431">
        <ele>209</ele>
        <time>2022-08-23T13:50:59Z</time>
      </trkpt>
      <trkpt lat="46.60221" lon="5.40415">
        <ele>209.2</ele>
        <time>2022-08-23T13:51:01Z</time>
      </trkpt>
      <trkpt lat="46.60222" lon="5.40392">
        <ele>210</ele>
        <time>2022-08-23T13:51:04Z</time>
      </trkpt>
      <trkpt lat="46.60222" lon="5.40377">
        <ele>210.4</ele>
        <time>2022-08-23T13:51:06Z</time>
      </trkpt>
      <trkpt lat="46.60222" lon="5.4037">
        <ele>210.8</ele>
        <time>2022-08-23T13:51:07Z</time>
      </trkpt>
      <trkpt lat="46.6022" lon="5.40357">
        <ele>211.6</ele>
        <time>2022-08-23T13:51:09Z</time>
      </trkpt>
      <trkpt lat="46.60218" lon="5.40344">
        <ele>212.2</ele>
        <time>2022-08-23T13:51:11Z</time>
      </trkpt>
      <trkpt lat="46.60214" lon="5.40329">
        <ele>212.6</ele>
        <time>2022-08-23T13:51:13Z</time>
      </trkpt>
      <trkpt lat="46.60206" lon="5.40305">
        <ele>213.2</ele>
        <time>2022-08-23T13:51:16Z</time>
      </trkpt>
      <trkpt lat="46.60186" lon="5.40257">
        <ele>213.4</ele>
        <time>2022-08-23T13:51:22Z</time>
      </trkpt>
      <trkpt lat="46.6018" lon="5.4024">
        <ele>213.2</ele>
        <time>2022-08-23T13:51:24Z</time>
      </trkpt>
      <trkpt lat="46.60176" lon="5.40222">
        <ele>213.2</ele>
        <time>2022-08-23T13:51:26Z</time>
      </trkpt>
      <trkpt lat="46.60176" lon="5.40212">
        <ele>213.2</ele>
        <time>2022-08-23T13:51:27Z</time>
      </trkpt>
      <trkpt lat="46.60176" lon="5.40203">
        <ele>213.2</ele>
        <time>2022-08-23T13:51:28Z</time>
      </trkpt>
      <trkpt lat="46.6018" lon="5.40177">
        <ele>213</ele>
        <time>2022-08-23T13:51:31Z</time>
      </trkpt>
      <trkpt lat="46.60192" lon="5.40109">
        <ele>213</ele>
        <time>2022-08-23T13:51:39Z</time>
      </trkpt>
      <trkpt lat="46.60192" lon="5.40068">
        <ele>213</ele>
        <time>2022-08-23T13:51:43Z</time>
      </trkpt>
      <trkpt lat="46.60188" lon="5.3998">
        <ele>212.6</ele>
        <time>2022-08-23T13:51:51Z</time>
      </trkpt>
      <trkpt lat="46.60185" lon="5.39937">
        <ele>211.2</ele>
        <time>2022-08-23T13:51:55Z</time>
      </trkpt>
      <trkpt lat="46.60183" lon="5.39926">
        <ele>211</ele>
        <time>2022-08-23T13:51:56Z</time>
      </trkpt>
      <trkpt lat="46.60177" lon="5.39905">
        <ele>210.6</ele>
        <time>2022-08-23T13:51:58Z</time>
      </trkpt>
      <trkpt lat="46.60172" lon="5.39896">
        <ele>210.4</ele>
        <time>2022-08-23T13:51:59Z</time>
      </trkpt>
      <trkpt lat="46.60166" lon="5.39887">
        <ele>209.8</ele>
        <time>2022-08-23T13:52:00Z</time>
      </trkpt>
      <trkpt lat="46.6016" lon="5.3988">
        <ele>209.8</ele>
        <time>2022-08-23T13:52:01Z</time>
      </trkpt>
      <trkpt lat="46.60146" lon="5.39867">
        <ele>209.6</ele>
        <time>2022-08-23T13:52:03Z</time>
      </trkpt>
      <trkpt lat="46.60098" lon="5.39823">
        <ele>209</ele>
        <time>2022-08-23T13:52:10Z</time>
      </trkpt>
      <trkpt lat="46.60092" lon="5.39816">
        <ele>208.6</ele>
        <time>2022-08-23T13:52:11Z</time>
      </trkpt>
      <trkpt lat="46.60087" lon="5.39808">
        <ele>208.6</ele>
        <time>2022-08-23T13:52:12Z</time>
      </trkpt>
      <trkpt lat="46.60076" lon="5.3978">
        <ele>208.4</ele>
        <time>2022-08-23T13:52:15Z</time>
      </trkpt>
      <trkpt lat="46.60065" lon="5.39744">
        <ele>208.6</ele>
        <time>2022-08-23T13:52:19Z</time>
      </trkpt>
      <trkpt lat="46.60064" lon="5.39733">
        <ele>208.8</ele>
        <time>2022-08-23T13:52:20Z</time>
      </trkpt>
      <trkpt lat="46.60064" lon="5.39723">
        <ele>209</ele>
        <time>2022-08-23T13:52:21Z</time>
      </trkpt>
      <trkpt lat="46.60069" lon="5.39705">
        <ele>209.2</ele>
        <time>2022-08-23T13:52:23Z</time>
      </trkpt>
      <trkpt lat="46.60085" lon="5.39667">
        <ele>209.6</ele>
        <time>2022-08-23T13:52:28Z</time>
      </trkpt>
      <trkpt lat="46.60088" lon="5.39659">
        <ele>209.8</ele>
        <time>2022-08-23T13:52:29Z</time>
      </trkpt>
      <trkpt lat="46.60089" lon="5.39651">
        <ele>210.2</ele>
        <time>2022-08-23T13:52:30Z</time>
      </trkpt>
      <trkpt lat="46.60091" lon="5.39635">
        <ele>210.6</ele>
        <time>2022-08-23T13:52:32Z</time>
      </trkpt>
      <trkpt lat="46.6009" lon="5.39627">
        <ele>210.6</ele>
        <time>2022-08-23T13:52:33Z</time>
      </trkpt>
      <trkpt lat="46.6009" lon="5.3962">
        <ele>210.8</ele>
        <time>2022-08-23T13:52:34Z</time>
      </trkpt>
      <trkpt lat="46.60086" lon="5.396">
        <ele>212</ele>
        <time>2022-08-23T13:52:37Z</time>
      </trkpt>
      <trkpt lat="46.60084" lon="5.39593">
        <ele>212.4</ele>
        <time>2022-08-23T13:52:38Z</time>
      </trkpt>
      <trkpt lat="46.60075" lon="5.39567">
        <ele>213.2</ele>
        <time>2022-08-23T13:52:42Z</time>
      </trkpt>
      <trkpt lat="46.60066" lon="5.3955">
        <ele>213.6</ele>
        <time>2022-08-23T13:52:45Z</time>
      </trkpt>
      <trkpt lat="46.60049" lon="5.39515">
        <ele>214.2</ele>
        <time>2022-08-23T13:52:51Z</time>
      </trkpt>
      <trkpt lat="46.60043" lon="5.39499">
        <ele>214.6</ele>
        <time>2022-08-23T13:52:54Z</time>
      </trkpt>
      <trkpt lat="46.6004" lon="5.39491">
        <ele>214.8</ele>
        <time>2022-08-23T13:52:55Z</time>
      </trkpt>
      <trkpt lat="46.60036" lon="5.39471">
        <ele>215.2</ele>
        <time>2022-08-23T13:52:58Z</time>
      </trkpt>
      <trkpt lat="46.60035" lon="5.39464">
        <ele>215.8</ele>
        <time>2022-08-23T13:52:59Z</time>
      </trkpt>
      <trkpt lat="46.60035" lon="5.39457">
        <ele>216</ele>
        <time>2022-08-23T13:53:00Z</time>
      </trkpt>
      <trkpt lat="46.60037" lon="5.39427">
        <ele>216.6</ele>
        <time>2022-08-23T13:53:04Z</time>
      </trkpt>
      <trkpt lat="46.60038" lon="5.39419">
        <ele>216.8</ele>
        <time>2022-08-23T13:53:05Z</time>
      </trkpt>
      <trkpt lat="46.60046" lon="5.39373">
        <ele>216.8</ele>
        <time>2022-08-23T13:53:10Z</time>
      </trkpt>
      <trkpt lat="46.60054" lon="5.39324">
        <ele>216.4</ele>
        <time>2022-08-23T13:53:15Z</time>
      </trkpt>
      <trkpt lat="46.60054" lon="5.39306">
        <ele>216.4</ele>
        <time>2022-08-23T13:53:17Z</time>
      </trkpt>
      <trkpt lat="46.60051" lon="5.39268">
        <ele>216.8</ele>
        <time>2022-08-23T13:53:22Z</time>
      </trkpt>
      <trkpt lat="46.60048" lon="5.39256">
        <ele>217</ele>
        <time>2022-08-23T13:53:24Z</time>
      </trkpt>
      <trkpt lat="46.60046" lon="5.3925">
        <ele>217.4</ele>
        <time>2022-08-23T13:53:25Z</time>
      </trkpt>
      <trkpt lat="46.60039" lon="5.39232">
        <ele>218.2</ele>
        <time>2022-08-23T13:53:28Z</time>
      </trkpt>
      <trkpt lat="46.60033" lon="5.39222">
        <ele>218.6</ele>
        <time>2022-08-23T13:53:30Z</time>
      </trkpt>
      <trkpt lat="46.60027" lon="5.39213">
        <ele>219.2</ele>
        <time>2022-08-23T13:53:32Z</time>
      </trkpt>
      <trkpt lat="46.60019" lon="5.39205">
        <ele>219.6</ele>
        <time>2022-08-23T13:53:34Z</time>
      </trkpt>
      <trkpt lat="46.60006" lon="5.39196">
        <ele>220.4</ele>
        <time>2022-08-23T13:53:37Z</time>
      </trkpt>
      <trkpt lat="46.59992" lon="5.39188">
        <ele>221</ele>
        <time>2022-08-23T13:53:40Z</time>
      </trkpt>
      <trkpt lat="46.59986" lon="5.39187">
        <ele>221.4</ele>
        <time>2022-08-23T13:53:41Z</time>
      </trkpt>
      <trkpt lat="46.59948" lon="5.39182">
        <ele>222.2</ele>
        <time>2022-08-23T13:53:48Z</time>
      </trkpt>
      <trkpt lat="46.59943" lon="5.39181">
        <ele>222.2</ele>
        <time>2022-08-23T13:53:49Z</time>
      </trkpt>
      <trkpt lat="46.59933" lon="5.39179">
        <ele>222.4</ele>
        <time>2022-08-23T13:53:51Z</time>
      </trkpt>
      <trkpt lat="46.59924" lon="5.39176">
        <ele>222.4</ele>
        <time>2022-08-23T13:53:53Z</time>
      </trkpt>
      <trkpt lat="46.5992" lon="5.39176">
        <ele>222.6</ele>
        <time>2022-08-23T13:53:54Z</time>
      </trkpt>
      <trkpt lat="46.59915" lon="5.39177">
        <ele>222.8</ele>
        <time>2022-08-23T13:53:55Z</time>
      </trkpt>
      <trkpt lat="46.59906" lon="5.39183">
        <ele>223.2</ele>
        <time>2022-08-23T13:53:57Z</time>
      </trkpt>
      <trkpt lat="46.59876" lon="5.39194">
        <ele>223.6</ele>
        <time>2022-08-23T13:54:02Z</time>
      </trkpt>
      <trkpt lat="46.5984" lon="5.39192">
        <ele>224.6</ele>
        <time>2022-08-23T13:54:08Z</time>
      </trkpt>
      <trkpt lat="46.59822" lon="5.39188">
        <ele>224.8</ele>
        <time>2022-08-23T13:54:11Z</time>
      </trkpt>
      <trkpt lat="46.59803" lon="5.39188">
        <ele>225.2</ele>
        <time>2022-08-23T13:54:14Z</time>
      </trkpt>
      <trkpt lat="46.59796" lon="5.3919">
        <ele>225.2</ele>
        <time>2022-08-23T13:54:15Z</time>
      </trkpt>
      <trkpt lat="46.59772" lon="5.39196">
        <ele>225.4</ele>
        <time>2022-08-23T13:54:19Z</time>
      </trkpt>
      <trkpt lat="46.5976" lon="5.39202">
        <ele>225.6</ele>
        <time>2022-08-23T13:54:21Z</time>
      </trkpt>
      <trkpt lat="46.59749" lon="5.39209">
        <ele>225.6</ele>
        <time>2022-08-23T13:54:23Z</time>
      </trkpt>
      <trkpt lat="46.59744" lon="5.39209">
        <ele>225.8</ele>
        <time>2022-08-23T13:54:24Z</time>
      </trkpt>
      <trkpt lat="46.59738" lon="5.39208">
        <ele>225.8</ele>
        <time>2022-08-23T13:54:25Z</time>
      </trkpt>
      <trkpt lat="46.59714" lon="5.39198">
        <ele>226</ele>
        <time>2022-08-23T13:54:29Z</time>
      </trkpt>
      <trkpt lat="46.59689" lon="5.39194">
        <ele>226.8</ele>
        <time>2022-08-23T13:54:33Z</time>
      </trkpt>
      <trkpt lat="46.59675" lon="5.3919">
        <ele>226.8</ele>
        <time>2022-08-23T13:54:35Z</time>
      </trkpt>
      <trkpt lat="46.59668" lon="5.39189">
        <ele>226.8</ele>
        <time>2022-08-23T13:54:36Z</time>
      </trkpt>
      <trkpt lat="46.59631" lon="5.39183">
        <ele>226.6</ele>
        <time>2022-08-23T13:54:41Z</time>
      </trkpt>
      <trkpt lat="46.59623" lon="5.39183">
        <ele>226.6</ele>
        <time>2022-08-23T13:54:42Z</time>
      </trkpt>
      <trkpt lat="46.59599" lon="5.3919">
        <ele>226.4</ele>
        <time>2022-08-23T13:54:45Z</time>
      </trkpt>
      <trkpt lat="46.59553" lon="5.39208">
        <ele>226</ele>
        <time>2022-08-23T13:54:51Z</time>
      </trkpt>
      <trkpt lat="46.59537" lon="5.39207">
        <ele>225.8</ele>
        <time>2022-08-23T13:54:53Z</time>
      </trkpt>
      <trkpt lat="46.59529" lon="5.39205">
        <ele>225.8</ele>
        <time>2022-08-23T13:54:54Z</time>
      </trkpt>
      <trkpt lat="46.59521" lon="5.39202">
        <ele>225.8</ele>
        <time>2022-08-23T13:54:55Z</time>
      </trkpt>
      <trkpt lat="46.5951" lon="5.3919">
        <ele>225.6</ele>
        <time>2022-08-23T13:54:57Z</time>
      </trkpt>
      <trkpt lat="46.59504" lon="5.39179">
        <ele>225.6</ele>
        <time>2022-08-23T13:54:58Z</time>
      </trkpt>
      <trkpt lat="46.59501" lon="5.39168">
        <ele>225.6</ele>
        <time>2022-08-23T13:54:59Z</time>
      </trkpt>
      <trkpt lat="46.59496" lon="5.39134">
        <ele>225.6</ele>
        <time>2022-08-23T13:55:02Z</time>
      </trkpt>
      <trkpt lat="46.59487" lon="5.39053">
        <ele>225.2</ele>
        <time>2022-08-23T13:55:09Z</time>
      </trkpt>
      <trkpt lat="46.5948" lon="5.38986">
        <ele>224.6</ele>
        <time>2022-08-23T13:55:15Z</time>
      </trkpt>
      <trkpt lat="46.59477" lon="5.38965">
        <ele>224.6</ele>
        <time>2022-08-23T13:55:17Z</time>
      </trkpt>
      <trkpt lat="46.59472" lon="5.38945">
        <ele>224.6</ele>
        <time>2022-08-23T13:55:19Z</time>
      </trkpt>
      <trkpt lat="46.59464" lon="5.38926">
        <ele>224.6</ele>
        <time>2022-08-23T13:55:21Z</time>
      </trkpt>
      <trkpt lat="46.59454" lon="5.38898">
        <ele>224.6</ele>
        <time>2022-08-23T13:55:24Z</time>
      </trkpt>
      <trkpt lat="46.59451" lon="5.38878">
        <ele>224.6</ele>
        <time>2022-08-23T13:55:26Z</time>
      </trkpt>
      <trkpt lat="46.59442" lon="5.38808">
        <ele>224.8</ele>
        <time>2022-08-23T13:55:33Z</time>
      </trkpt>
      <trkpt lat="46.59439" lon="5.38798">
        <ele>225</ele>
        <time>2022-08-23T13:55:34Z</time>
      </trkpt>
      <trkpt lat="46.59431" lon="5.38781">
        <ele>225</ele>
        <time>2022-08-23T13:55:36Z</time>
      </trkpt>
      <trkpt lat="46.59425" lon="5.38773">
        <ele>225</ele>
        <time>2022-08-23T13:55:37Z</time>
      </trkpt>
      <trkpt lat="46.59382" lon="5.38727">
        <ele>225</ele>
        <time>2022-08-23T13:55:44Z</time>
      </trkpt>
      <trkpt lat="46.59338" lon="5.38679">
        <ele>224.4</ele>
        <time>2022-08-23T13:55:51Z</time>
      </trkpt>
      <trkpt lat="46.59307" lon="5.38646">
        <ele>224.2</ele>
        <time>2022-08-23T13:55:56Z</time>
      </trkpt>
      <trkpt lat="46.59259" lon="5.38594">
        <ele>224.4</ele>
        <time>2022-08-23T13:56:04Z</time>
      </trkpt>
      <trkpt lat="46.59248" lon="5.38582">
        <ele>224.6</ele>
        <time>2022-08-23T13:56:06Z</time>
      </trkpt>
      <trkpt lat="46.59203" lon="5.38535">
        <ele>224.4</ele>
        <time>2022-08-23T13:56:14Z</time>
      </trkpt>
      <trkpt lat="46.59197" lon="5.38528">
        <ele>224.4</ele>
        <time>2022-08-23T13:56:15Z</time>
      </trkpt>
      <trkpt lat="46.59167" lon="5.38491">
        <ele>224.2</ele>
        <time>2022-08-23T13:56:20Z</time>
      </trkpt>
      <trkpt lat="46.59151" lon="5.38464">
        <ele>223.6</ele>
        <time>2022-08-23T13:56:23Z</time>
      </trkpt>
      <trkpt lat="46.5913" lon="5.38428">
        <ele>223.2</ele>
        <time>2022-08-23T13:56:27Z</time>
      </trkpt>
      <trkpt lat="46.59122" lon="5.38418">
        <ele>222.8</ele>
        <time>2022-08-23T13:56:28Z</time>
      </trkpt>
      <trkpt lat="46.59107" lon="5.38402">
        <ele>222.4</ele>
        <time>2022-08-23T13:56:30Z</time>
      </trkpt>
      <trkpt lat="46.59099" lon="5.38395">
        <ele>222.2</ele>
        <time>2022-08-23T13:56:31Z</time>
      </trkpt>
      <trkpt lat="46.59073" lon="5.38373">
        <ele>221.4</ele>
        <time>2022-08-23T13:56:34Z</time>
      </trkpt>
      <trkpt lat="46.59048" lon="5.38351">
        <ele>220.2</ele>
        <time>2022-08-23T13:56:37Z</time>
      </trkpt>
      <trkpt lat="46.5903" lon="5.38337">
        <ele>219.4</ele>
        <time>2022-08-23T13:56:39Z</time>
      </trkpt>
      <trkpt lat="46.59013" lon="5.38322">
        <ele>218.8</ele>
        <time>2022-08-23T13:56:41Z</time>
      </trkpt>
      <trkpt lat="46.58963" lon="5.38281">
        <ele>218</ele>
        <time>2022-08-23T13:56:47Z</time>
      </trkpt>
      <trkpt lat="46.58955" lon="5.38274">
        <ele>217.8</ele>
        <time>2022-08-23T13:56:48Z</time>
      </trkpt>
      <trkpt lat="46.58928" lon="5.38247">
        <ele>217.6</ele>
        <time>2022-08-23T13:56:52Z</time>
      </trkpt>
      <trkpt lat="46.58885" lon="5.38194">
        <ele>218</ele>
        <time>2022-08-23T13:56:59Z</time>
      </trkpt>
      <trkpt lat="46.58861" lon="5.38163">
        <ele>219.2</ele>
        <time>2022-08-23T13:57:03Z</time>
      </trkpt>
      <trkpt lat="46.58838" lon="5.38135">
        <ele>219.4</ele>
        <time>2022-08-23T13:57:07Z</time>
      </trkpt>
      <trkpt lat="46.58812" lon="5.38104">
        <ele>220</ele>
        <time>2022-08-23T13:57:11Z</time>
      </trkpt>
      <trkpt lat="46.58786" lon="5.38072">
        <ele>220.6</ele>
        <time>2022-08-23T13:57:15Z</time>
      </trkpt>
      <trkpt lat="46.5877" lon="5.38062">
        <ele>220.8</ele>
        <time>2022-08-23T13:57:17Z</time>
      </trkpt>
      <trkpt lat="46.58762" lon="5.38058">
        <ele>220.8</ele>
        <time>2022-08-23T13:57:18Z</time>
      </trkpt>
      <trkpt lat="46.58719" lon="5.38053">
        <ele>220.8</ele>
        <time>2022-08-23T13:57:23Z</time>
      </trkpt>
      <trkpt lat="46.58659" lon="5.38049">
        <ele>220</ele>
        <time>2022-08-23T13:57:30Z</time>
      </trkpt>
      <trkpt lat="46.5865" lon="5.38049">
        <ele>220</ele>
        <time>2022-08-23T13:57:31Z</time>
      </trkpt>
      <trkpt lat="46.58625" lon="5.38043">
        <ele>219.8</ele>
        <time>2022-08-23T13:57:34Z</time>
      </trkpt>
      <trkpt lat="46.58617" lon="5.38038">
        <ele>219.8</ele>
        <time>2022-08-23T13:57:35Z</time>
      </trkpt>
      <trkpt lat="46.58581" lon="5.38007">
        <ele>219.2</ele>
        <time>2022-08-23T13:57:40Z</time>
      </trkpt>
      <trkpt lat="46.58564" lon="5.38001">
        <ele>219</ele>
        <time>2022-08-23T13:57:42Z</time>
      </trkpt>
      <trkpt lat="46.58556" lon="5.38003">
        <ele>218.8</ele>
        <time>2022-08-23T13:57:43Z</time>
      </trkpt>
      <trkpt lat="46.58547" lon="5.38006">
        <ele>218.6</ele>
        <time>2022-08-23T13:57:44Z</time>
      </trkpt>
      <trkpt lat="46.58524" lon="5.38019">
        <ele>218</ele>
        <time>2022-08-23T13:57:47Z</time>
      </trkpt>
      <trkpt lat="46.58516" lon="5.38024">
        <ele>217.8</ele>
        <time>2022-08-23T13:57:48Z</time>
      </trkpt>
      <trkpt lat="46.585" lon="5.3803">
        <ele>217.6</ele>
        <time>2022-08-23T13:57:50Z</time>
      </trkpt>
      <trkpt lat="46.58482" lon="5.38028">
        <ele>217.4</ele>
        <time>2022-08-23T13:57:52Z</time>
      </trkpt>
      <trkpt lat="46.58474" lon="5.38025">
        <ele>217.6</ele>
        <time>2022-08-23T13:57:53Z</time>
      </trkpt>
      <trkpt lat="46.58427" lon="5.38007">
        <ele>217.4</ele>
        <time>2022-08-23T13:57:58Z</time>
      </trkpt>
      <trkpt lat="46.58397" lon="5.37996">
        <ele>217</ele>
        <time>2022-08-23T13:58:01Z</time>
      </trkpt>
      <trkpt lat="46.58367" lon="5.37985">
        <ele>215.8</ele>
        <time>2022-08-23T13:58:04Z</time>
      </trkpt>
      <trkpt lat="46.58347" lon="5.37977">
        <ele>215</ele>
        <time>2022-08-23T13:58:06Z</time>
      </trkpt>
      <trkpt lat="46.58328" lon="5.37968">
        <ele>214.6</ele>
        <time>2022-08-23T13:58:08Z</time>
      </trkpt>
      <trkpt lat="46.5829" lon="5.37946">
        <ele>213.6</ele>
        <time>2022-08-23T13:58:12Z</time>
      </trkpt>
      <trkpt lat="46.58244" lon="5.37917">
        <ele>212.4</ele>
        <time>2022-08-23T13:58:17Z</time>
      </trkpt>
      <trkpt lat="46.58225" lon="5.37905">
        <ele>211.8</ele>
        <time>2022-08-23T13:58:19Z</time>
      </trkpt>
      <trkpt lat="46.58207" lon="5.37893">
        <ele>211.4</ele>
        <time>2022-08-23T13:58:21Z</time>
      </trkpt>
      <trkpt lat="46.58178" lon="5.37878">
        <ele>210.8</ele>
        <time>2022-08-23T13:58:24Z</time>
      </trkpt>
      <trkpt lat="46.58169" lon="5.37875">
        <ele>210.6</ele>
        <time>2022-08-23T13:58:25Z</time>
      </trkpt>
      <trkpt lat="46.58159" lon="5.37876">
        <ele>210.6</ele>
        <time>2022-08-23T13:58:26Z</time>
      </trkpt>
      <trkpt lat="46.58151" lon="5.37879">
        <ele>210.2</ele>
        <time>2022-08-23T13:58:27Z</time>
      </trkpt>
      <trkpt lat="46.5814" lon="5.37886">
        <ele>210</ele>
        <time>2022-08-23T13:58:28Z</time>
      </trkpt>
      <trkpt lat="46.58115" lon="5.37907">
        <ele>209</ele>
        <time>2022-08-23T13:58:31Z</time>
      </trkpt>
      <trkpt lat="46.58106" lon="5.37911">
        <ele>208.8</ele>
        <time>2022-08-23T13:58:32Z</time>
      </trkpt>
      <trkpt lat="46.5805" lon="5.3793">
        <ele>208.6</ele>
        <time>2022-08-23T13:58:38Z</time>
      </trkpt>
      <trkpt lat="46.58041" lon="5.37932">
        <ele>208.6</ele>
        <time>2022-08-23T13:58:39Z</time>
      </trkpt>
      <trkpt lat="46.58001" lon="5.37948">
        <ele>208.4</ele>
        <time>2022-08-23T13:58:44Z</time>
      </trkpt>
      <trkpt lat="46.57965" lon="5.37976">
        <ele>208.2</ele>
        <time>2022-08-23T13:58:49Z</time>
      </trkpt>
      <trkpt lat="46.57933" lon="5.37996">
        <ele>208.8</ele>
        <time>2022-08-23T13:58:54Z</time>
      </trkpt>
      <trkpt lat="46.57908" lon="5.38026">
        <ele>209.8</ele>
        <time>2022-08-23T13:58:59Z</time>
      </trkpt>
      <trkpt lat="46.57897" lon="5.3805">
        <ele>210.2</ele>
        <time>2022-08-23T13:59:02Z</time>
      </trkpt>
      <trkpt lat="46.57892" lon="5.38067">
        <ele>210.6</ele>
        <time>2022-08-23T13:59:04Z</time>
      </trkpt>
      <trkpt lat="46.57873" lon="5.38131">
        <ele>211.2</ele>
        <time>2022-08-23T13:59:11Z</time>
      </trkpt>
      <trkpt lat="46.57866" lon="5.38148">
        <ele>211.4</ele>
        <time>2022-08-23T13:59:13Z</time>
      </trkpt>
      <trkpt lat="46.57847" lon="5.38191">
        <ele>211.4</ele>
        <time>2022-08-23T13:59:18Z</time>
      </trkpt>
      <trkpt lat="46.57836" lon="5.38205">
        <ele>211.4</ele>
        <time>2022-08-23T13:59:20Z</time>
      </trkpt>
      <trkpt lat="46.5783" lon="5.38211">
        <ele>211.4</ele>
        <time>2022-08-23T13:59:21Z</time>
      </trkpt>
      <trkpt lat="46.57801" lon="5.38237">
        <ele>211.6</ele>
        <time>2022-08-23T13:59:26Z</time>
      </trkpt>
      <trkpt lat="46.57756" lon="5.38283">
        <ele>212</ele>
        <time>2022-08-23T13:59:34Z</time>
      </trkpt>
      <trkpt lat="46.5775" lon="5.38287">
        <ele>212</ele>
        <time>2022-08-23T13:59:35Z</time>
      </trkpt>
      <trkpt lat="46.57731" lon="5.38298">
        <ele>212.2</ele>
        <time>2022-08-23T13:59:38Z</time>
      </trkpt>
      <trkpt lat="46.57719" lon="5.38302">
        <ele>212.2</ele>
        <time>2022-08-23T13:59:40Z</time>
      </trkpt>
      <trkpt lat="46.57712" lon="5.38303">
        <ele>212.4</ele>
        <time>2022-08-23T13:59:41Z</time>
      </trkpt>
      <trkpt lat="46.57657" lon="5.38314">
        <ele>212.6</ele>
        <time>2022-08-23T13:59:49Z</time>
      </trkpt>
      <trkpt lat="46.5765" lon="5.38316">
        <ele>212.6</ele>
        <time>2022-08-23T13:59:50Z</time>
      </trkpt>
      <trkpt lat="46.57637" lon="5.38322">
        <ele>212.6</ele>
        <time>2022-08-23T13:59:52Z</time>
      </trkpt>
      <trkpt lat="46.57629" lon="5.38323">
        <ele>212.6</ele>
        <time>2022-08-23T13:59:53Z</time>
      </trkpt>
      <trkpt lat="46.57622" lon="5.3832">
        <ele>212.4</ele>
        <time>2022-08-23T13:59:54Z</time>
      </trkpt>
      <trkpt lat="46.57616" lon="5.38313">
        <ele>212.4</ele>
        <time>2022-08-23T13:59:55Z</time>
      </trkpt>
      <trkpt lat="46.57612" lon="5.38303">
        <ele>212.2</ele>
        <time>2022-08-23T13:59:56Z</time>
      </trkpt>
      <trkpt lat="46.57599" lon="5.38271">
        <ele>211.4</ele>
        <time>2022-08-23T13:59:59Z</time>
      </trkpt>
      <trkpt lat="46.57587" lon="5.3825">
        <ele>211</ele>
        <time>2022-08-23T14:00:01Z</time>
      </trkpt>
      <trkpt lat="46.57565" lon="5.38223">
        <ele>210.6</ele>
        <time>2022-08-23T14:00:04Z</time>
      </trkpt>
      <trkpt lat="46.57549" lon="5.38208">
        <ele>209.8</ele>
        <time>2022-08-23T14:00:06Z</time>
      </trkpt>
      <trkpt lat="46.57518" lon="5.38184">
        <ele>209</ele>
        <time>2022-08-23T14:00:10Z</time>
      </trkpt>
      <trkpt lat="46.57503" lon="5.38172">
        <ele>208.8</ele>
        <time>2022-08-23T14:00:12Z</time>
      </trkpt>
      <trkpt lat="46.5746" lon="5.38138">
        <ele>208.4</ele>
        <time>2022-08-23T14:00:18Z</time>
      </trkpt>
      <trkpt lat="46.57411" lon="5.381">
        <ele>208.2</ele>
        <time>2022-08-23T14:00:25Z</time>
      </trkpt>
      <trkpt lat="46.57397" lon="5.38089">
        <ele>208.4</ele>
        <time>2022-08-23T14:00:27Z</time>
      </trkpt>
      <trkpt lat="46.57385" lon="5.38077">
        <ele>208.6</ele>
        <time>2022-08-23T14:00:29Z</time>
      </trkpt>
      <trkpt lat="46.57375" lon="5.38061">
        <ele>208.6</ele>
        <time>2022-08-23T14:00:31Z</time>
      </trkpt>
      <trkpt lat="46.5736" lon="5.3803">
        <ele>209.2</ele>
        <time>2022-08-23T14:00:35Z</time>
      </trkpt>
      <trkpt lat="46.57357" lon="5.38022">
        <ele>209.4</ele>
        <time>2022-08-23T14:00:36Z</time>
      </trkpt>
      <trkpt lat="46.5735" lon="5.38008">
        <ele>209.8</ele>
        <time>2022-08-23T14:00:38Z</time>
      </trkpt>
      <trkpt lat="46.57341" lon="5.37988">
        <ele>210.8</ele>
        <time>2022-08-23T14:00:41Z</time>
      </trkpt>
      <trkpt lat="46.57338" lon="5.37981">
        <ele>211</ele>
        <time>2022-08-23T14:00:42Z</time>
      </trkpt>
      <trkpt lat="46.57328" lon="5.3796">
        <ele>211.8</ele>
        <time>2022-08-23T14:00:45Z</time>
      </trkpt>
      <trkpt lat="46.57321" lon="5.37945">
        <ele>212.2</ele>
        <time>2022-08-23T14:00:47Z</time>
      </trkpt>
      <trkpt lat="46.57318" lon="5.37938">
        <ele>212.4</ele>
        <time>2022-08-23T14:00:48Z</time>
      </trkpt>
      <trkpt lat="46.57304" lon="5.37911">
        <ele>213.2</ele>
        <time>2022-08-23T14:00:52Z</time>
      </trkpt>
      <trkpt lat="46.5729" lon="5.37884">
        <ele>213.8</ele>
        <time>2022-08-23T14:00:56Z</time>
      </trkpt>
      <trkpt lat="46.57281" lon="5.37864">
        <ele>214.6</ele>
        <time>2022-08-23T14:00:59Z</time>
      </trkpt>
      <trkpt lat="46.57268" lon="5.37839">
        <ele>215.6</ele>
        <time>2022-08-23T14:01:03Z</time>
      </trkpt>
      <trkpt lat="46.57262" lon="5.37827">
        <ele>216.2</ele>
        <time>2022-08-23T14:01:05Z</time>
      </trkpt>
      <trkpt lat="46.57254" lon="5.3781">
        <ele>216.8</ele>
        <time>2022-08-23T14:01:08Z</time>
      </trkpt>
      <trkpt lat="46.57244" lon="5.37791">
        <ele>218</ele>
        <time>2022-08-23T14:01:11Z</time>
      </trkpt>
      <trkpt lat="46.57238" lon="5.37779">
        <ele>218.4</ele>
        <time>2022-08-23T14:01:13Z</time>
      </trkpt>
      <trkpt lat="46.57235" lon="5.37772">
        <ele>218.8</ele>
        <time>2022-08-23T14:01:14Z</time>
      </trkpt>
      <trkpt lat="46.57231" lon="5.37767">
        <ele>219</ele>
        <time>2022-08-23T14:01:15Z</time>
      </trkpt>
      <trkpt lat="46.57224" lon="5.37758">
        <ele>219.4</ele>
        <time>2022-08-23T14:01:17Z</time>
      </trkpt>
      <trkpt lat="46.5722" lon="5.37755">
        <ele>219.6</ele>
        <time>2022-08-23T14:01:18Z</time>
      </trkpt>
      <trkpt lat="46.57217" lon="5.37754">
        <ele>219.8</ele>
        <time>2022-08-23T14:01:19Z</time>
      </trkpt>
      <trkpt lat="46.57212" lon="5.37754">
        <ele>220.2</ele>
        <time>2022-08-23T14:01:20Z</time>
      </trkpt>
      <trkpt lat="46.57208" lon="5.37757">
        <ele>220.4</ele>
        <time>2022-08-23T14:01:21Z</time>
      </trkpt>
      <trkpt lat="46.57188" lon="5.37779">
        <ele>221</ele>
        <time>2022-08-23T14:01:26Z</time>
      </trkpt>
      <trkpt lat="46.57156" lon="5.37815">
        <ele>220.8</ele>
        <time>2022-08-23T14:01:32Z</time>
      </trkpt>
      <trkpt lat="46.57123" lon="5.37847">
        <ele>220.2</ele>
        <time>2022-08-23T14:01:37Z</time>
      </trkpt>
      <trkpt lat="46.57087" lon="5.37882">
        <ele>218.8</ele>
        <time>2022-08-23T14:01:42Z</time>
      </trkpt>
      <trkpt lat="46.57065" lon="5.37901">
        <ele>218</ele>
        <time>2022-08-23T14:01:45Z</time>
      </trkpt>
      <trkpt lat="46.5703" lon="5.3793">
        <ele>217.8</ele>
        <time>2022-08-23T14:01:50Z</time>
      </trkpt>
      <trkpt lat="46.57004" lon="5.37949">
        <ele>217.8</ele>
        <time>2022-08-23T14:01:54Z</time>
      </trkpt>
      <trkpt lat="46.5696" lon="5.3798">
        <ele>218.4</ele>
        <time>2022-08-23T14:02:01Z</time>
      </trkpt>
      <trkpt lat="46.56947" lon="5.37986">
        <ele>218.8</ele>
        <time>2022-08-23T14:02:03Z</time>
      </trkpt>
      <trkpt lat="46.5694" lon="5.37988">
        <ele>218.8</ele>
        <time>2022-08-23T14:02:04Z</time>
      </trkpt>
      <trkpt lat="46.56934" lon="5.37988">
        <ele>219</ele>
        <time>2022-08-23T14:02:05Z</time>
      </trkpt>
      <trkpt lat="46.56897" lon="5.37981">
        <ele>219.8</ele>
        <time>2022-08-23T14:02:11Z</time>
      </trkpt>
      <trkpt lat="46.5689" lon="5.37979">
        <ele>220</ele>
        <time>2022-08-23T14:02:12Z</time>
      </trkpt>
      <trkpt lat="46.56852" lon="5.37971">
        <ele>221</ele>
        <time>2022-08-23T14:02:18Z</time>
      </trkpt>
      <trkpt lat="46.56811" lon="5.37962">
        <ele>221.6</ele>
        <time>2022-08-23T14:02:24Z</time>
      </trkpt>
      <trkpt lat="46.56762" lon="5.3795">
        <ele>222.2</ele>
        <time>2022-08-23T14:02:31Z</time>
      </trkpt>
      <trkpt lat="46.56748" lon="5.37947">
        <ele>222.4</ele>
        <time>2022-08-23T14:02:33Z</time>
      </trkpt>
      <trkpt lat="46.56692" lon="5.37935">
        <ele>223.2</ele>
        <time>2022-08-23T14:02:41Z</time>
      </trkpt>
      <trkpt lat="46.56636" lon="5.37922">
        <ele>224</ele>
        <time>2022-08-23T14:02:49Z</time>
      </trkpt>
      <trkpt lat="46.56622" lon="5.37919">
        <ele>224.2</ele>
        <time>2022-08-23T14:02:51Z</time>
      </trkpt>
      <trkpt lat="46.56572" lon="5.37916">
        <ele>224.4</ele>
        <time>2022-08-23T14:02:58Z</time>
      </trkpt>
      <trkpt lat="46.56564" lon="5.37918">
        <ele>224.4</ele>
        <time>2022-08-23T14:02:59Z</time>
      </trkpt>
      <trkpt lat="46.5655" lon="5.37924">
        <ele>224.4</ele>
        <time>2022-08-23T14:03:01Z</time>
      </trkpt>
      <trkpt lat="46.56543" lon="5.37929">
        <ele>224.4</ele>
        <time>2022-08-23T14:03:02Z</time>
      </trkpt>
      <trkpt lat="46.56513" lon="5.37948">
        <ele>224</ele>
        <time>2022-08-23T14:03:06Z</time>
      </trkpt>
      <trkpt lat="46.56505" lon="5.3795">
        <ele>224</ele>
        <time>2022-08-23T14:03:07Z</time>
      </trkpt>
      <trkpt lat="46.56499" lon="5.37951">
        <ele>223.8</ele>
        <time>2022-08-23T14:03:08Z</time>
      </trkpt>
      <trkpt lat="46.56472" lon="5.37946">
        <ele>223.4</ele>
        <time>2022-08-23T14:03:11Z</time>
      </trkpt>
      <trkpt lat="46.56423" lon="5.37933">
        <ele>223.2</ele>
        <time>2022-08-23T14:03:17Z</time>
      </trkpt>
      <trkpt lat="46.56399" lon="5.37929">
        <ele>222.8</ele>
        <time>2022-08-23T14:03:20Z</time>
      </trkpt>
      <trkpt lat="46.56382" lon="5.37932">
        <ele>222.6</ele>
        <time>2022-08-23T14:03:22Z</time>
      </trkpt>
      <trkpt lat="46.56365" lon="5.37939">
        <ele>222.4</ele>
        <time>2022-08-23T14:03:24Z</time>
      </trkpt>
      <trkpt lat="46.56357" lon="5.37944">
        <ele>222</ele>
        <time>2022-08-23T14:03:25Z</time>
      </trkpt>
      <trkpt lat="46.5634" lon="5.37951">
        <ele>221.6</ele>
        <time>2022-08-23T14:03:27Z</time>
      </trkpt>
      <trkpt lat="46.56331" lon="5.37952">
        <ele>221.4</ele>
        <time>2022-08-23T14:03:28Z</time>
      </trkpt>
      <trkpt lat="46.56322" lon="5.37952">
        <ele>221.2</ele>
        <time>2022-08-23T14:03:29Z</time>
      </trkpt>
      <trkpt lat="46.56296" lon="5.3795">
        <ele>221</ele>
        <time>2022-08-23T14:03:32Z</time>
      </trkpt>
      <trkpt lat="46.56287" lon="5.37951">
        <ele>221</ele>
        <time>2022-08-23T14:03:33Z</time>
      </trkpt>
      <trkpt lat="46.56246" lon="5.37967">
        <ele>220.6</ele>
        <time>2022-08-23T14:03:38Z</time>
      </trkpt>
      <trkpt lat="46.56203" lon="5.37997">
        <ele>220.8</ele>
        <time>2022-08-23T14:03:44Z</time>
      </trkpt>
      <trkpt lat="46.56182" lon="5.38031">
        <ele>221.2</ele>
        <time>2022-08-23T14:03:48Z</time>
      </trkpt>
      <trkpt lat="46.56148" lon="5.38091">
        <ele>221.6</ele>
        <time>2022-08-23T14:03:55Z</time>
      </trkpt>
      <trkpt lat="46.56135" lon="5.38105">
        <ele>221.6</ele>
        <time>2022-08-23T14:03:57Z</time>
      </trkpt>
      <trkpt lat="46.56121" lon="5.38116">
        <ele>221.6</ele>
        <time>2022-08-23T14:03:59Z</time>
      </trkpt>
      <trkpt lat="46.56068" lon="5.38155">
        <ele>221.8</ele>
        <time>2022-08-23T14:04:07Z</time>
      </trkpt>
      <trkpt lat="46.56055" lon="5.38164">
        <ele>221.8</ele>
        <time>2022-08-23T14:04:09Z</time>
      </trkpt>
      <trkpt lat="46.56029" lon="5.38184">
        <ele>222.2</ele>
        <time>2022-08-23T14:04:13Z</time>
      </trkpt>
      <trkpt lat="46.56017" lon="5.38197">
        <ele>222.4</ele>
        <time>2022-08-23T14:04:15Z</time>
      </trkpt>
      <trkpt lat="46.56008" lon="5.38214">
        <ele>222.4</ele>
        <time>2022-08-23T14:04:17Z</time>
      </trkpt>
      <trkpt lat="46.56006" lon="5.38224">
        <ele>222.4</ele>
        <time>2022-08-23T14:04:18Z</time>
      </trkpt>
      <trkpt lat="46.55994" lon="5.38299">
        <ele>222.4</ele>
        <time>2022-08-23T14:04:25Z</time>
      </trkpt>
      <trkpt lat="46.55984" lon="5.38354">
        <ele>222.8</ele>
        <time>2022-08-23T14:04:31Z</time>
      </trkpt>
      <trkpt lat="46.55982" lon="5.38363">
        <ele>223.4</ele>
        <time>2022-08-23T14:04:32Z</time>
      </trkpt>
      <trkpt lat="46.5598" lon="5.3838">
        <ele>224.2</ele>
        <time>2022-08-23T14:04:34Z</time>
      </trkpt>
      <trkpt lat="46.55978" lon="5.38397">
        <ele>224.4</ele>
        <time>2022-08-23T14:04:36Z</time>
      </trkpt>
      <trkpt lat="46.55972" lon="5.38447">
        <ele>225</ele>
        <time>2022-08-23T14:04:42Z</time>
      </trkpt>
      <trkpt lat="46.55971" lon="5.38471">
        <ele>225.6</ele>
        <time>2022-08-23T14:04:45Z</time>
      </trkpt>
      <trkpt lat="46.55972" lon="5.3849">
        <ele>226</ele>
        <time>2022-08-23T14:04:47Z</time>
      </trkpt>
      <trkpt lat="46.55973" lon="5.38499">
        <ele>226.2</ele>
        <time>2022-08-23T14:04:48Z</time>
      </trkpt>
      <trkpt lat="46.55978" lon="5.3853">
        <ele>226.4</ele>
        <time>2022-08-23T14:04:51Z</time>
      </trkpt>
      <trkpt lat="46.5598" lon="5.3854">
        <ele>226.6</ele>
        <time>2022-08-23T14:04:52Z</time>
      </trkpt>
      <trkpt lat="46.55987" lon="5.38595">
        <ele>226.4</ele>
        <time>2022-08-23T14:04:57Z</time>
      </trkpt>
      <trkpt lat="46.55989" lon="5.38606">
        <ele>226.4</ele>
        <time>2022-08-23T14:04:58Z</time>
      </trkpt>
      <trkpt lat="46.55999" lon="5.3868">
        <ele>226.4</ele>
        <time>2022-08-23T14:05:05Z</time>
      </trkpt>
      <trkpt lat="46.56002" lon="5.38721">
        <ele>226.4</ele>
        <time>2022-08-23T14:05:09Z</time>
      </trkpt>
      <trkpt lat="46.56003" lon="5.38731">
        <ele>226.4</ele>
        <time>2022-08-23T14:05:10Z</time>
      </trkpt>
      <trkpt lat="46.56008" lon="5.38799">
        <ele>225.8</ele>
        <time>2022-08-23T14:05:16Z</time>
      </trkpt>
      <trkpt lat="46.56005" lon="5.38825">
        <ele>225.2</ele>
        <time>2022-08-23T14:05:18Z</time>
      </trkpt>
      <trkpt lat="46.55998" lon="5.38864">
        <ele>224.4</ele>
        <time>2022-08-23T14:05:21Z</time>
      </trkpt>
      <trkpt lat="46.55994" lon="5.38876">
        <ele>223.4</ele>
        <time>2022-08-23T14:05:22Z</time>
      </trkpt>
      <trkpt lat="46.55983" lon="5.38912">
        <ele>222.4</ele>
        <time>2022-08-23T14:05:25Z</time>
      </trkpt>
      <trkpt lat="46.55975" lon="5.38934">
        <ele>222</ele>
        <time>2022-08-23T14:05:27Z</time>
      </trkpt>
      <trkpt lat="46.55959" lon="5.38977">
        <ele>221.4</ele>
        <time>2022-08-23T14:05:31Z</time>
      </trkpt>
      <trkpt lat="46.55952" lon="5.38998">
        <ele>221</ele>
        <time>2022-08-23T14:05:33Z</time>
      </trkpt>
      <trkpt lat="46.55949" lon="5.39008">
        <ele>221.2</ele>
        <time>2022-08-23T14:05:34Z</time>
      </trkpt>
      <trkpt lat="46.55941" lon="5.39049">
        <ele>221</ele>
        <time>2022-08-23T14:05:38Z</time>
      </trkpt>
      <trkpt lat="46.55936" lon="5.39091">
        <ele>221.8</ele>
        <time>2022-08-23T14:05:43Z</time>
      </trkpt>
      <trkpt lat="46.55936" lon="5.39107">
        <ele>222.8</ele>
        <time>2022-08-23T14:05:45Z</time>
      </trkpt>
      <trkpt lat="46.55935" lon="5.39148">
        <ele>223.6</ele>
        <time>2022-08-23T14:05:50Z</time>
      </trkpt>
      <trkpt lat="46.55934" lon="5.39157">
        <ele>223.8</ele>
        <time>2022-08-23T14:05:51Z</time>
      </trkpt>
      <trkpt lat="46.55934" lon="5.3921">
        <ele>225</ele>
        <time>2022-08-23T14:05:57Z</time>
      </trkpt>
      <trkpt lat="46.55933" lon="5.39227">
        <ele>225.4</ele>
        <time>2022-08-23T14:05:59Z</time>
      </trkpt>
      <trkpt lat="46.55924" lon="5.39306">
        <ele>226</ele>
        <time>2022-08-23T14:06:08Z</time>
      </trkpt>
      <trkpt lat="46.55923" lon="5.39315">
        <ele>226.2</ele>
        <time>2022-08-23T14:06:09Z</time>
      </trkpt>
      <trkpt lat="46.55913" lon="5.39399">
        <ele>227</ele>
        <time>2022-08-23T14:06:19Z</time>
      </trkpt>
      <trkpt lat="46.55912" lon="5.39407">
        <ele>227</ele>
        <time>2022-08-23T14:06:20Z</time>
      </trkpt>
      <trkpt lat="46.55907" lon="5.39456">
        <ele>228.2</ele>
        <time>2022-08-23T14:06:26Z</time>
      </trkpt>
      <trkpt lat="46.55904" lon="5.39481">
        <ele>228.6</ele>
        <time>2022-08-23T14:06:29Z</time>
      </trkpt>
      <trkpt lat="46.55899" lon="5.3953">
        <ele>229.2</ele>
        <time>2022-08-23T14:06:35Z</time>
      </trkpt>
      <trkpt lat="46.55895" lon="5.39564">
        <ele>229.8</ele>
        <time>2022-08-23T14:06:39Z</time>
      </trkpt>
      <trkpt lat="46.55883" lon="5.39641">
        <ele>230</ele>
        <time>2022-08-23T14:06:48Z</time>
      </trkpt>
      <trkpt lat="46.55866" lon="5.39707">
        <ele>229.8</ele>
        <time>2022-08-23T14:06:56Z</time>
      </trkpt>
      <trkpt lat="46.55862" lon="5.39723">
        <ele>230.6</ele>
        <time>2022-08-23T14:06:58Z</time>
      </trkpt>
      <trkpt lat="46.5585" lon="5.3977">
        <ele>231.2</ele>
        <time>2022-08-23T14:07:04Z</time>
      </trkpt>
      <trkpt lat="46.55834" lon="5.39833">
        <ele>231.6</ele>
        <time>2022-08-23T14:07:12Z</time>
      </trkpt>
      <trkpt lat="46.55827" lon="5.3986">
        <ele>232</ele>
        <time>2022-08-23T14:07:15Z</time>
      </trkpt>
      <trkpt lat="46.55815" lon="5.39904">
        <ele>232</ele>
        <time>2022-08-23T14:07:20Z</time>
      </trkpt>
      <trkpt lat="46.55811" lon="5.39912">
        <ele>232</ele>
        <time>2022-08-23T14:07:21Z</time>
      </trkpt>
      <trkpt lat="46.55805" lon="5.39916">
        <ele>231.8</ele>
        <time>2022-08-23T14:07:22Z</time>
      </trkpt>
      <trkpt lat="46.55799" lon="5.39915">
        <ele>231.8</ele>
        <time>2022-08-23T14:07:23Z</time>
      </trkpt>
      <trkpt lat="46.55793" lon="5.39912">
        <ele>231.8</ele>
        <time>2022-08-23T14:07:24Z</time>
      </trkpt>
      <trkpt lat="46.55781" lon="5.39902">
        <ele>231.6</ele>
        <time>2022-08-23T14:07:26Z</time>
      </trkpt>
      <trkpt lat="46.55741" lon="5.3987">
        <ele>232.2</ele>
        <time>2022-08-23T14:07:33Z</time>
      </trkpt>
      <trkpt lat="46.55722" lon="5.39851">
        <ele>232.8</ele>
        <time>2022-08-23T14:07:37Z</time>
      </trkpt>
      <trkpt lat="46.55714" lon="5.39842">
        <ele>233.2</ele>
        <time>2022-08-23T14:07:39Z</time>
      </trkpt>
      <trkpt lat="46.55705" lon="5.39834">
        <ele>233.8</ele>
        <time>2022-08-23T14:07:41Z</time>
      </trkpt>
      <trkpt lat="46.55683" lon="5.39813">
        <ele>234.8</ele>
        <time>2022-08-23T14:07:46Z</time>
      </trkpt>
      <trkpt lat="46.55679" lon="5.3981">
        <ele>235.2</ele>
        <time>2022-08-23T14:07:47Z</time>
      </trkpt>
      <trkpt lat="46.55647" lon="5.39785">
        <ele>236</ele>
        <time>2022-08-23T14:07:53Z</time>
      </trkpt>
      <trkpt lat="46.55641" lon="5.39781">
        <ele>236</ele>
        <time>2022-08-23T14:07:54Z</time>
      </trkpt>
      <trkpt lat="46.55593" lon="5.39748">
        <ele>235.6</ele>
        <time>2022-08-23T14:08:01Z</time>
      </trkpt>
      <trkpt lat="46.55559" lon="5.3972">
        <ele>234.8</ele>
        <time>2022-08-23T14:08:06Z</time>
      </trkpt>
      <trkpt lat="46.5554" lon="5.39703">
        <ele>234.8</ele>
        <time>2022-08-23T14:08:09Z</time>
      </trkpt>
      <trkpt lat="46.55491" lon="5.39663">
        <ele>235</ele>
        <time>2022-08-23T14:08:17Z</time>
      </trkpt>
      <trkpt lat="46.55441" lon="5.39622">
        <ele>235</ele>
        <time>2022-08-23T14:08:25Z</time>
      </trkpt>
      <trkpt lat="46.55424" lon="5.39608">
        <ele>235</ele>
        <time>2022-08-23T14:08:28Z</time>
      </trkpt>
      <trkpt lat="46.55404" lon="5.3959">
        <ele>236.2</ele>
        <time>2022-08-23T14:08:32Z</time>
      </trkpt>
      <trkpt lat="46.55383" lon="5.39572">
        <ele>237</ele>
        <time>2022-08-23T14:08:36Z</time>
      </trkpt>
      <trkpt lat="46.55378" lon="5.39568">
        <ele>237.4</ele>
        <time>2022-08-23T14:08:37Z</time>
      </trkpt>
      <trkpt lat="46.55327" lon="5.39526">
        <ele>238.4</ele>
        <time>2022-08-23T14:08:46Z</time>
      </trkpt>
      <trkpt lat="46.55308" lon="5.39512">
        <ele>238.4</ele>
        <time>2022-08-23T14:08:49Z</time>
      </trkpt>
      <trkpt lat="46.5527" lon="5.39483">
        <ele>238.4</ele>
        <time>2022-08-23T14:08:55Z</time>
      </trkpt>
      <trkpt lat="46.55238" lon="5.39455">
        <ele>238.4</ele>
        <time>2022-08-23T14:09:00Z</time>
      </trkpt>
      <trkpt lat="46.55232" lon="5.39447">
        <ele>238.4</ele>
        <time>2022-08-23T14:09:01Z</time>
      </trkpt>
      <trkpt lat="46.55221" lon="5.39433">
        <ele>238.2</ele>
        <time>2022-08-23T14:09:03Z</time>
      </trkpt>
      <trkpt lat="46.55214" lon="5.39428">
        <ele>238.2</ele>
        <time>2022-08-23T14:09:04Z</time>
      </trkpt>
      <trkpt lat="46.55207" lon="5.39426">
        <ele>238.2</ele>
        <time>2022-08-23T14:09:05Z</time>
      </trkpt>
      <trkpt lat="46.55192" lon="5.39425">
        <ele>238</ele>
        <time>2022-08-23T14:09:07Z</time>
      </trkpt>
      <trkpt lat="46.55148" lon="5.39416">
        <ele>238.2</ele>
        <time>2022-08-23T14:09:13Z</time>
      </trkpt>
      <trkpt lat="46.55093" lon="5.39391">
        <ele>238.6</ele>
        <time>2022-08-23T14:09:21Z</time>
      </trkpt>
      <trkpt lat="46.55055" lon="5.39371">
        <ele>238.4</ele>
        <time>2022-08-23T14:09:26Z</time>
      </trkpt>
      <trkpt lat="46.55002" lon="5.39339">
        <ele>237.4</ele>
        <time>2022-08-23T14:09:32Z</time>
      </trkpt>
      <trkpt lat="46.54971" lon="5.39323">
        <ele>235.8</ele>
        <time>2022-08-23T14:09:35Z</time>
      </trkpt>
      <trkpt lat="46.54951" lon="5.39315">
        <ele>234.4</ele>
        <time>2022-08-23T14:09:37Z</time>
      </trkpt>
      <trkpt lat="46.54908" lon="5.39299">
        <ele>233.6</ele>
        <time>2022-08-23T14:09:42Z</time>
      </trkpt>
      <trkpt lat="46.54864" lon="5.39284">
        <ele>235.8</ele>
        <time>2022-08-23T14:09:48Z</time>
      </trkpt>
      <trkpt lat="46.54857" lon="5.39281">
        <ele>236.2</ele>
        <time>2022-08-23T14:09:49Z</time>
      </trkpt>
      <trkpt lat="46.54838" lon="5.39272">
        <ele>237</ele>
        <time>2022-08-23T14:09:52Z</time>
      </trkpt>
      <trkpt lat="46.54812" lon="5.3926">
        <ele>238.2</ele>
        <time>2022-08-23T14:09:56Z</time>
      </trkpt>
      <trkpt lat="46.54787" lon="5.39247">
        <ele>239.2</ele>
        <time>2022-08-23T14:10:00Z</time>
      </trkpt>
      <trkpt lat="46.54756" lon="5.39232">
        <ele>240</ele>
        <time>2022-08-23T14:10:05Z</time>
      </trkpt>
      <trkpt lat="46.54744" lon="5.39226">
        <ele>240.4</ele>
        <time>2022-08-23T14:10:07Z</time>
      </trkpt>
      <trkpt lat="46.54714" lon="5.39211">
        <ele>241</ele>
        <time>2022-08-23T14:10:12Z</time>
      </trkpt>
      <trkpt lat="46.54709" lon="5.39208">
        <ele>241.2</ele>
        <time>2022-08-23T14:10:13Z</time>
      </trkpt>
      <trkpt lat="46.54697" lon="5.39202">
        <ele>241.4</ele>
        <time>2022-08-23T14:10:15Z</time>
      </trkpt>
      <trkpt lat="46.54639" lon="5.39176">
        <ele>242.4</ele>
        <time>2022-08-23T14:10:24Z</time>
      </trkpt>
      <trkpt lat="46.54604" lon="5.3916">
        <ele>242.4</ele>
        <time>2022-08-23T14:10:29Z</time>
      </trkpt>
      <trkpt lat="46.54576" lon="5.39147">
        <ele>242.6</ele>
        <time>2022-08-23T14:10:33Z</time>
      </trkpt>
      <trkpt lat="46.54532" lon="5.39121">
        <ele>243</ele>
        <time>2022-08-23T14:10:40Z</time>
      </trkpt>
      <trkpt lat="46.54517" lon="5.39112">
        <ele>243.4</ele>
        <time>2022-08-23T14:10:43Z</time>
      </trkpt>
      <trkpt lat="46.54512" lon="5.39111">
        <ele>243.8</ele>
        <time>2022-08-23T14:10:44Z</time>
      </trkpt>
      <trkpt lat="46.54507" lon="5.39112">
        <ele>244</ele>
        <time>2022-08-23T14:10:45Z</time>
      </trkpt>
      <trkpt lat="46.54503" lon="5.3912">
        <ele>244.8</ele>
        <time>2022-08-23T14:10:47Z</time>
      </trkpt>
      <trkpt lat="46.54498" lon="5.39137">
        <ele>245.6</ele>
        <time>2022-08-23T14:10:50Z</time>
      </trkpt>
      <trkpt lat="46.54489" lon="5.39147">
        <ele>245.8</ele>
        <time>2022-08-23T14:10:52Z</time>
      </trkpt>
      <trkpt lat="46.54475" lon="5.39144">
        <ele>246</ele>
        <time>2022-08-23T14:10:54Z</time>
      </trkpt>
      <trkpt lat="46.54433" lon="5.39127">
        <ele>245.4</ele>
        <time>2022-08-23T14:10:59Z</time>
      </trkpt>
      <trkpt lat="46.54414" lon="5.39123">
        <ele>244.8</ele>
        <time>2022-08-23T14:11:01Z</time>
      </trkpt>
      <trkpt lat="46.54395" lon="5.39116">
        <ele>243.6</ele>
        <time>2022-08-23T14:11:03Z</time>
      </trkpt>
      <trkpt lat="46.54385" lon="5.39112">
        <ele>243.2</ele>
        <time>2022-08-23T14:11:04Z</time>
      </trkpt>
      <trkpt lat="46.54366" lon="5.39105">
        <ele>242.4</ele>
        <time>2022-08-23T14:11:06Z</time>
      </trkpt>
      <trkpt lat="46.54338" lon="5.39095">
        <ele>241.2</ele>
        <time>2022-08-23T14:11:09Z</time>
      </trkpt>
      <trkpt lat="46.54329" lon="5.3909">
        <ele>240.8</ele>
        <time>2022-08-23T14:11:10Z</time>
      </trkpt>
      <trkpt lat="46.54302" lon="5.39076">
        <ele>240</ele>
        <time>2022-08-23T14:11:13Z</time>
      </trkpt>
      <trkpt lat="46.54269" lon="5.39059">
        <ele>239.8</ele>
        <time>2022-08-23T14:11:17Z</time>
      </trkpt>
      <trkpt lat="46.54214" lon="5.3903">
        <ele>240.2</ele>
        <time>2022-08-23T14:11:24Z</time>
      </trkpt>
      <trkpt lat="46.54171" lon="5.39011">
        <ele>240.4</ele>
        <time>2022-08-23T14:11:30Z</time>
      </trkpt>
      <trkpt lat="46.54113" lon="5.38989">
        <ele>241</ele>
        <time>2022-08-23T14:11:38Z</time>
      </trkpt>
      <trkpt lat="46.54106" lon="5.38986">
        <ele>241</ele>
        <time>2022-08-23T14:11:39Z</time>
      </trkpt>
      <trkpt lat="46.54069" lon="5.38972">
        <ele>241.2</ele>
        <time>2022-08-23T14:11:44Z</time>
      </trkpt>
      <trkpt lat="46.54055" lon="5.38965">
        <ele>241.4</ele>
        <time>2022-08-23T14:11:46Z</time>
      </trkpt>
      <trkpt lat="46.54011" lon="5.38951">
        <ele>241.6</ele>
        <time>2022-08-23T14:11:52Z</time>
      </trkpt>
      <trkpt lat="46.5395" lon="5.38939">
        <ele>241.8</ele>
        <time>2022-08-23T14:12:00Z</time>
      </trkpt>
      <trkpt lat="46.53888" lon="5.38935">
        <ele>242.2</ele>
        <time>2022-08-23T14:12:08Z</time>
      </trkpt>
      <trkpt lat="46.53881" lon="5.38935">
        <ele>242.2</ele>
        <time>2022-08-23T14:12:09Z</time>
      </trkpt>
      <trkpt lat="46.53873" lon="5.38934">
        <ele>242.2</ele>
        <time>2022-08-23T14:12:10Z</time>
      </trkpt>
      <trkpt lat="46.53837" lon="5.38926">
        <ele>242.6</ele>
        <time>2022-08-23T14:12:15Z</time>
      </trkpt>
      <trkpt lat="46.53798" lon="5.38909">
        <ele>243</ele>
        <time>2022-08-23T14:12:20Z</time>
      </trkpt>
      <trkpt lat="46.53741" lon="5.38891">
        <ele>243.2</ele>
        <time>2022-08-23T14:12:27Z</time>
      </trkpt>
      <trkpt lat="46.53687" lon="5.38869">
        <ele>243.2</ele>
        <time>2022-08-23T14:12:34Z</time>
      </trkpt>
      <trkpt lat="46.53673" lon="5.38863">
        <ele>243.2</ele>
        <time>2022-08-23T14:12:36Z</time>
      </trkpt>
      <trkpt lat="46.53658" lon="5.38856">
        <ele>243.4</ele>
        <time>2022-08-23T14:12:38Z</time>
      </trkpt>
      <trkpt lat="46.53616" lon="5.38834">
        <ele>243.6</ele>
        <time>2022-08-23T14:12:44Z</time>
      </trkpt>
      <trkpt lat="46.53568" lon="5.38806">
        <ele>244.2</ele>
        <time>2022-08-23T14:12:51Z</time>
      </trkpt>
      <trkpt lat="46.53562" lon="5.38801">
        <ele>244.2</ele>
        <time>2022-08-23T14:12:52Z</time>
      </trkpt>
      <trkpt lat="46.53556" lon="5.38795">
        <ele>244.2</ele>
        <time>2022-08-23T14:12:53Z</time>
      </trkpt>
      <trkpt lat="46.53545" lon="5.38778">
        <ele>244</ele>
        <time>2022-08-23T14:12:55Z</time>
      </trkpt>
      <trkpt lat="46.53529" lon="5.38752">
        <ele>243.8</ele>
        <time>2022-08-23T14:12:58Z</time>
      </trkpt>
      <trkpt lat="46.53522" lon="5.38746">
        <ele>243.6</ele>
        <time>2022-08-23T14:12:59Z</time>
      </trkpt>
      <trkpt lat="46.53514" lon="5.38742">
        <ele>243.4</ele>
        <time>2022-08-23T14:13:00Z</time>
      </trkpt>
      <trkpt lat="46.53499" lon="5.38743">
        <ele>243</ele>
        <time>2022-08-23T14:13:02Z</time>
      </trkpt>
      <trkpt lat="46.53492" lon="5.38742">
        <ele>242.8</ele>
        <time>2022-08-23T14:13:03Z</time>
      </trkpt>
      <trkpt lat="46.53479" lon="5.38732">
        <ele>242.6</ele>
        <time>2022-08-23T14:13:05Z</time>
      </trkpt>
      <trkpt lat="46.53465" lon="5.38717">
        <ele>242.4</ele>
        <time>2022-08-23T14:13:07Z</time>
      </trkpt>
      <trkpt lat="46.53457" lon="5.38713">
        <ele>242.2</ele>
        <time>2022-08-23T14:13:08Z</time>
      </trkpt>
      <trkpt lat="46.53414" lon="5.38702">
        <ele>242</ele>
        <time>2022-08-23T14:13:13Z</time>
      </trkpt>
      <trkpt lat="46.53362" lon="5.38699">
        <ele>242.4</ele>
        <time>2022-08-23T14:13:19Z</time>
      </trkpt>
      <trkpt lat="46.53311" lon="5.38691">
        <ele>242.2</ele>
        <time>2022-08-23T14:13:25Z</time>
      </trkpt>
      <trkpt lat="46.53253" lon="5.38669">
        <ele>241</ele>
        <time>2022-08-23T14:13:32Z</time>
      </trkpt>
      <trkpt lat="46.53245" lon="5.38666">
        <ele>240.8</ele>
        <time>2022-08-23T14:13:33Z</time>
      </trkpt>
      <trkpt lat="46.53212" lon="5.38649">
        <ele>240</ele>
        <time>2022-08-23T14:13:37Z</time>
      </trkpt>
      <trkpt lat="46.53204" lon="5.38644">
        <ele>239.8</ele>
        <time>2022-08-23T14:13:38Z</time>
      </trkpt>
      <trkpt lat="46.53197" lon="5.38637">
        <ele>239.6</ele>
        <time>2022-08-23T14:13:39Z</time>
      </trkpt>
      <trkpt lat="46.53167" lon="5.38605">
        <ele>238.8</ele>
        <time>2022-08-23T14:13:43Z</time>
      </trkpt>
      <trkpt lat="46.53137" lon="5.38587">
        <ele>238.4</ele>
        <time>2022-08-23T14:13:47Z</time>
      </trkpt>
      <trkpt lat="46.53124" lon="5.3858">
        <ele>237.6</ele>
        <time>2022-08-23T14:13:49Z</time>
      </trkpt>
      <trkpt lat="46.53117" lon="5.38579">
        <ele>236.8</ele>
        <time>2022-08-23T14:13:50Z</time>
      </trkpt>
      <trkpt lat="46.5311" lon="5.38581">
        <ele>236.4</ele>
        <time>2022-08-23T14:13:51Z</time>
      </trkpt>
      <trkpt lat="46.53087" lon="5.38588">
        <ele>235.6</ele>
        <time>2022-08-23T14:13:54Z</time>
      </trkpt>
      <trkpt lat="46.53079" lon="5.3859">
        <ele>235.2</ele>
        <time>2022-08-23T14:13:55Z</time>
      </trkpt>
      <trkpt lat="46.53037" lon="5.38602">
        <ele>234.4</ele>
        <time>2022-08-23T14:14:00Z</time>
      </trkpt>
      <trkpt lat="46.53028" lon="5.38604">
        <ele>234.2</ele>
        <time>2022-08-23T14:14:01Z</time>
      </trkpt>
      <trkpt lat="46.52984" lon="5.38608">
        <ele>233.2</ele>
        <time>2022-08-23T14:14:06Z</time>
      </trkpt>
      <trkpt lat="46.52957" lon="5.38602">
        <ele>232.4</ele>
        <time>2022-08-23T14:14:09Z</time>
      </trkpt>
      <trkpt lat="46.52948" lon="5.38602">
        <ele>232.4</ele>
        <time>2022-08-23T14:14:10Z</time>
      </trkpt>
      <trkpt lat="46.52939" lon="5.38603">
        <ele>232</ele>
        <time>2022-08-23T14:14:11Z</time>
      </trkpt>
      <trkpt lat="46.52923" lon="5.38604">
        <ele>231.6</ele>
        <time>2022-08-23T14:14:13Z</time>
      </trkpt>
      <trkpt lat="46.52916" lon="5.38599">
        <ele>230.8</ele>
        <time>2022-08-23T14:14:14Z</time>
      </trkpt>
      <trkpt lat="46.5291" lon="5.38591">
        <ele>230.6</ele>
        <time>2022-08-23T14:14:15Z</time>
      </trkpt>
      <trkpt lat="46.52906" lon="5.38569">
        <ele>229.4</ele>
        <time>2022-08-23T14:14:17Z</time>
      </trkpt>
      <trkpt lat="46.52907" lon="5.38545">
        <ele>228</ele>
        <time>2022-08-23T14:14:19Z</time>
      </trkpt>
      <trkpt lat="46.52907" lon="5.38507">
        <ele>227.4</ele>
        <time>2022-08-23T14:14:22Z</time>
      </trkpt>
      <trkpt lat="46.52905" lon="5.38453">
        <ele>227.4</ele>
        <time>2022-08-23T14:14:26Z</time>
      </trkpt>
      <trkpt lat="46.52905" lon="5.38441">
        <ele>227.4</ele>
        <time>2022-08-23T14:14:27Z</time>
      </trkpt>
      <trkpt lat="46.52904" lon="5.3839">
        <ele>227</ele>
        <time>2022-08-23T14:14:31Z</time>
      </trkpt>
      <trkpt lat="46.52904" lon="5.38377">
        <ele>227</ele>
        <time>2022-08-23T14:14:32Z</time>
      </trkpt>
      <trkpt lat="46.52903" lon="5.38306">
        <ele>226</ele>
        <time>2022-08-23T14:14:38Z</time>
      </trkpt>
      <trkpt lat="46.52903" lon="5.38295">
        <ele>225.8</ele>
        <time>2022-08-23T14:14:39Z</time>
      </trkpt>
      <trkpt lat="46.529" lon="5.3821">
        <ele>225.2</ele>
        <time>2022-08-23T14:14:46Z</time>
      </trkpt>
      <trkpt lat="46.529" lon="5.38198">
        <ele>225.2</ele>
        <time>2022-08-23T14:14:47Z</time>
      </trkpt>
      <trkpt lat="46.52899" lon="5.38173">
        <ele>224.8</ele>
        <time>2022-08-23T14:14:49Z</time>
      </trkpt>
      <trkpt lat="46.52897" lon="5.38089">
        <ele>224</ele>
        <time>2022-08-23T14:14:56Z</time>
      </trkpt>
      <trkpt lat="46.52895" lon="5.38008">
        <ele>223.8</ele>
        <time>2022-08-23T14:15:03Z</time>
      </trkpt>
      <trkpt lat="46.52894" lon="5.37985">
        <ele>223.8</ele>
        <time>2022-08-23T14:15:05Z</time>
      </trkpt>
      <trkpt lat="46.52892" lon="5.37905">
        <ele>223.4</ele>
        <time>2022-08-23T14:15:12Z</time>
      </trkpt>
      <trkpt lat="46.52891" lon="5.37882">
        <ele>223</ele>
        <time>2022-08-23T14:15:14Z</time>
      </trkpt>
      <trkpt lat="46.5289" lon="5.37835">
        <ele>222.8</ele>
        <time>2022-08-23T14:15:18Z</time>
      </trkpt>
      <trkpt lat="46.52887" lon="5.37752">
        <ele>222.6</ele>
        <time>2022-08-23T14:15:25Z</time>
      </trkpt>
      <trkpt lat="46.52885" lon="5.3767">
        <ele>222.4</ele>
        <time>2022-08-23T14:15:32Z</time>
      </trkpt>
      <trkpt lat="46.52884" lon="5.37626">
        <ele>222</ele>
        <time>2022-08-23T14:15:36Z</time>
      </trkpt>
      <trkpt lat="46.52882" lon="5.37571">
        <ele>221.8</ele>
        <time>2022-08-23T14:15:41Z</time>
      </trkpt>
      <trkpt lat="46.52881" lon="5.37515">
        <ele>221.6</ele>
        <time>2022-08-23T14:15:46Z</time>
      </trkpt>
      <trkpt lat="46.5288" lon="5.3748">
        <ele>220.8</ele>
        <time>2022-08-23T14:15:49Z</time>
      </trkpt>
      <trkpt lat="46.52877" lon="5.37398">
        <ele>220</ele>
        <time>2022-08-23T14:15:56Z</time>
      </trkpt>
      <trkpt lat="46.52876" lon="5.37351">
        <ele>220</ele>
        <time>2022-08-23T14:16:00Z</time>
      </trkpt>
      <trkpt lat="46.52874" lon="5.37282">
        <ele>220</ele>
        <time>2022-08-23T14:16:06Z</time>
      </trkpt>
      <trkpt lat="46.52872" lon="5.37202">
        <ele>219.4</ele>
        <time>2022-08-23T14:16:13Z</time>
      </trkpt>
      <trkpt lat="46.52871" lon="5.37156">
        <ele>219.2</ele>
        <time>2022-08-23T14:16:17Z</time>
      </trkpt>
      <trkpt lat="46.5287" lon="5.3712">
        <ele>219</ele>
        <time>2022-08-23T14:16:20Z</time>
      </trkpt>
      <trkpt lat="46.5287" lon="5.37062">
        <ele>219</ele>
        <time>2022-08-23T14:16:25Z</time>
      </trkpt>
      <trkpt lat="46.52869" lon="5.3705">
        <ele>219</ele>
        <time>2022-08-23T14:16:26Z</time>
      </trkpt>
      <trkpt lat="46.52867" lon="5.36969">
        <ele>218.6</ele>
        <time>2022-08-23T14:16:33Z</time>
      </trkpt>
      <trkpt lat="46.52867" lon="5.36945">
        <ele>218.6</ele>
        <time>2022-08-23T14:16:35Z</time>
      </trkpt>
      <trkpt lat="46.52863" lon="5.36864">
        <ele>218.6</ele>
        <time>2022-08-23T14:16:42Z</time>
      </trkpt>
      <trkpt lat="46.52861" lon="5.3683">
        <ele>218.6</ele>
        <time>2022-08-23T14:16:45Z</time>
      </trkpt>
      <trkpt lat="46.52858" lon="5.36751">
        <ele>218.4</ele>
        <time>2022-08-23T14:16:52Z</time>
      </trkpt>
      <trkpt lat="46.52858" lon="5.36739">
        <ele>218.4</ele>
        <time>2022-08-23T14:16:53Z</time>
      </trkpt>
      <trkpt lat="46.52855" lon="5.36656">
        <ele>218.2</ele>
        <time>2022-08-23T14:17:00Z</time>
      </trkpt>
      <trkpt lat="46.52854" lon="5.36633">
        <ele>218</ele>
        <time>2022-08-23T14:17:02Z</time>
      </trkpt>
      <trkpt lat="46.52854" lon="5.36609">
        <ele>217.8</ele>
        <time>2022-08-23T14:17:04Z</time>
      </trkpt>
      <trkpt lat="46.52851" lon="5.36525">
        <ele>217.6</ele>
        <time>2022-08-23T14:17:11Z</time>
      </trkpt>
      <trkpt lat="46.52849" lon="5.36442">
        <ele>217.2</ele>
        <time>2022-08-23T14:17:18Z</time>
      </trkpt>
      <trkpt lat="46.52848" lon="5.36418">
        <ele>217.2</ele>
        <time>2022-08-23T14:17:20Z</time>
      </trkpt>
      <trkpt lat="46.52847" lon="5.36371">
        <ele>217</ele>
        <time>2022-08-23T14:17:24Z</time>
      </trkpt>
      <trkpt lat="46.52844" lon="5.3629">
        <ele>216.8</ele>
        <time>2022-08-23T14:17:31Z</time>
      </trkpt>
      <trkpt lat="46.52844" lon="5.36279">
        <ele>216.8</ele>
        <time>2022-08-23T14:17:32Z</time>
      </trkpt>
      <trkpt lat="46.52841" lon="5.36191">
        <ele>216.8</ele>
        <time>2022-08-23T14:17:40Z</time>
      </trkpt>
      <trkpt lat="46.5284" lon="5.36169">
        <ele>216.8</ele>
        <time>2022-08-23T14:17:42Z</time>
      </trkpt>
      <trkpt lat="46.52838" lon="5.36094">
        <ele>217.4</ele>
        <time>2022-08-23T14:17:49Z</time>
      </trkpt>
      <trkpt lat="46.52837" lon="5.36074">
        <ele>217.4</ele>
        <time>2022-08-23T14:17:51Z</time>
      </trkpt>
      <trkpt lat="46.52829" lon="5.3606">
        <ele>217.4</ele>
        <time>2022-08-23T14:17:53Z</time>
      </trkpt>
      <trkpt lat="46.52807" lon="5.36051">
        <ele>217.4</ele>
        <time>2022-08-23T14:17:56Z</time>
      </trkpt>
      <trkpt lat="46.52772" lon="5.36043">
        <ele>216.8</ele>
        <time>2022-08-23T14:18:00Z</time>
      </trkpt>
      <trkpt lat="46.52763" lon="5.36045">
        <ele>216.6</ele>
        <time>2022-08-23T14:18:01Z</time>
      </trkpt>
      <trkpt lat="46.52756" lon="5.36051">
        <ele>216.4</ele>
        <time>2022-08-23T14:18:02Z</time>
      </trkpt>
      <trkpt lat="46.52749" lon="5.36059">
        <ele>216.2</ele>
        <time>2022-08-23T14:18:03Z</time>
      </trkpt>
      <trkpt lat="46.52745" lon="5.36071">
        <ele>216</ele>
        <time>2022-08-23T14:18:04Z</time>
      </trkpt>
      <trkpt lat="46.52741" lon="5.36082">
        <ele>216</ele>
        <time>2022-08-23T14:18:05Z</time>
      </trkpt>
      <trkpt lat="46.52734" lon="5.36106">
        <ele>215.4</ele>
        <time>2022-08-23T14:18:07Z</time>
      </trkpt>
      <trkpt lat="46.52727" lon="5.3613">
        <ele>215</ele>
        <time>2022-08-23T14:18:09Z</time>
      </trkpt>
      <trkpt lat="46.5271" lon="5.36187">
        <ele>214.4</ele>
        <time>2022-08-23T14:18:14Z</time>
      </trkpt>
      <trkpt lat="46.52706" lon="5.36197">
        <ele>214.2</ele>
        <time>2022-08-23T14:18:15Z</time>
      </trkpt>
      <trkpt lat="46.527" lon="5.36206">
        <ele>214.2</ele>
        <time>2022-08-23T14:18:16Z</time>
      </trkpt>
      <trkpt lat="46.52688" lon="5.36222">
        <ele>214</ele>
        <time>2022-08-23T14:18:18Z</time>
      </trkpt>
      <trkpt lat="46.52681" lon="5.36229">
        <ele>213.8</ele>
        <time>2022-08-23T14:18:19Z</time>
      </trkpt>
      <trkpt lat="46.52638" lon="5.36258">
        <ele>213</ele>
        <time>2022-08-23T14:18:25Z</time>
      </trkpt>
      <trkpt lat="46.5259" lon="5.36295">
        <ele>212.8</ele>
        <time>2022-08-23T14:18:32Z</time>
      </trkpt>
      <trkpt lat="46.52578" lon="5.3631">
        <ele>212.8</ele>
        <time>2022-08-23T14:18:34Z</time>
      </trkpt>
      <trkpt lat="46.52564" lon="5.36318">
        <ele>212.8</ele>
        <time>2022-08-23T14:18:36Z</time>
      </trkpt>
      <trkpt lat="46.52541" lon="5.36316">
        <ele>212.8</ele>
        <time>2022-08-23T14:18:39Z</time>
      </trkpt>
      <trkpt lat="46.52526" lon="5.36322">
        <ele>213</ele>
        <time>2022-08-23T14:18:41Z</time>
      </trkpt>
      <trkpt lat="46.52519" lon="5.36328">
        <ele>213</ele>
        <time>2022-08-23T14:18:42Z</time>
      </trkpt>
      <trkpt lat="46.52513" lon="5.36334">
        <ele>213</ele>
        <time>2022-08-23T14:18:43Z</time>
      </trkpt>
      <trkpt lat="46.52503" lon="5.36352">
        <ele>213</ele>
        <time>2022-08-23T14:18:45Z</time>
      </trkpt>
      <trkpt lat="46.52497" lon="5.36372">
        <ele>213.2</ele>
        <time>2022-08-23T14:18:47Z</time>
      </trkpt>
      <trkpt lat="46.52494" lon="5.36393">
        <ele>213.4</ele>
        <time>2022-08-23T14:18:49Z</time>
      </trkpt>
      <trkpt lat="46.52484" lon="5.36476">
        <ele>214</ele>
        <time>2022-08-23T14:18:57Z</time>
      </trkpt>
      <trkpt lat="46.52483" lon="5.36486">
        <ele>214.2</ele>
        <time>2022-08-23T14:18:58Z</time>
      </trkpt>
      <trkpt lat="46.52476" lon="5.36552">
        <ele>215.2</ele>
        <time>2022-08-23T14:19:05Z</time>
      </trkpt>
      <trkpt lat="46.52472" lon="5.36625">
        <ele>216</ele>
        <time>2022-08-23T14:19:13Z</time>
      </trkpt>
      <trkpt lat="46.52468" lon="5.36689">
        <ele>216.2</ele>
        <time>2022-08-23T14:19:20Z</time>
      </trkpt>
      <trkpt lat="46.52467" lon="5.36699">
        <ele>216.2</ele>
        <time>2022-08-23T14:19:21Z</time>
      </trkpt>
      <trkpt lat="46.52465" lon="5.36717">
        <ele>216.4</ele>
        <time>2022-08-23T14:19:23Z</time>
      </trkpt>
      <trkpt lat="46.52464" lon="5.36744">
        <ele>216.4</ele>
        <time>2022-08-23T14:19:26Z</time>
      </trkpt>
      <trkpt lat="46.5246" lon="5.36799">
        <ele>216.4</ele>
        <time>2022-08-23T14:19:32Z</time>
      </trkpt>
      <trkpt lat="46.52459" lon="5.36818">
        <ele>216.4</ele>
        <time>2022-08-23T14:19:34Z</time>
      </trkpt>
      <trkpt lat="46.52459" lon="5.36837">
        <ele>216.6</ele>
        <time>2022-08-23T14:19:36Z</time>
      </trkpt>
      <trkpt lat="46.52455" lon="5.36867">
        <ele>216.8</ele>
        <time>2022-08-23T14:19:39Z</time>
      </trkpt>
      <trkpt lat="46.52446" lon="5.36927">
        <ele>217.2</ele>
        <time>2022-08-23T14:19:45Z</time>
      </trkpt>
      <trkpt lat="46.52445" lon="5.36935">
        <ele>217.2</ele>
        <time>2022-08-23T14:19:46Z</time>
      </trkpt>
      <trkpt lat="46.5243" lon="5.37001">
        <ele>217</ele>
        <time>2022-08-23T14:19:53Z</time>
      </trkpt>
      <trkpt lat="46.52406" lon="5.37048">
        <ele>217</ele>
        <time>2022-08-23T14:19:59Z</time>
      </trkpt>
      <trkpt lat="46.52377" lon="5.37088">
        <ele>217.2</ele>
        <time>2022-08-23T14:20:05Z</time>
      </trkpt>
      <trkpt lat="46.52334" lon="5.37133">
        <ele>217.8</ele>
        <time>2022-08-23T14:20:14Z</time>
      </trkpt>
      <trkpt lat="46.52313" lon="5.37154">
        <ele>219</ele>
        <time>2022-08-23T14:20:19Z</time>
      </trkpt>
      <trkpt lat="46.52302" lon="5.37167">
        <ele>219.4</ele>
        <time>2022-08-23T14:20:22Z</time>
      </trkpt>
      <trkpt lat="46.5229" lon="5.37181">
        <ele>220</ele>
        <time>2022-08-23T14:20:25Z</time>
      </trkpt>
      <trkpt lat="46.52273" lon="5.37198">
        <ele>221</ele>
        <time>2022-08-23T14:20:29Z</time>
      </trkpt>
      <trkpt lat="46.52269" lon="5.37202">
        <ele>221.2</ele>
        <time>2022-08-23T14:20:30Z</time>
      </trkpt>
      <trkpt lat="46.52265" lon="5.37207">
        <ele>221.4</ele>
        <time>2022-08-23T14:20:31Z</time>
      </trkpt>
      <trkpt lat="46.52249" lon="5.37223">
        <ele>222.2</ele>
        <time>2022-08-23T14:20:35Z</time>
      </trkpt>
      <trkpt lat="46.52229" lon="5.37242">
        <ele>223.6</ele>
        <time>2022-08-23T14:20:40Z</time>
      </trkpt>
      <trkpt lat="46.52221" lon="5.37248">
        <ele>224.2</ele>
        <time>2022-08-23T14:20:42Z</time>
      </trkpt>
      <trkpt lat="46.52213" lon="5.37255">
        <ele>224.6</ele>
        <time>2022-08-23T14:20:44Z</time>
      </trkpt>
      <trkpt lat="46.52197" lon="5.37267">
        <ele>225.6</ele>
        <time>2022-08-23T14:20:48Z</time>
      </trkpt>
      <trkpt lat="46.52176" lon="5.37283">
        <ele>226.4</ele>
        <time>2022-08-23T14:20:53Z</time>
      </trkpt>
      <trkpt lat="46.52167" lon="5.37289">
        <ele>226.8</ele>
        <time>2022-08-23T14:20:55Z</time>
      </trkpt>
      <trkpt lat="46.52146" lon="5.37304">
        <ele>228</ele>
        <time>2022-08-23T14:21:00Z</time>
      </trkpt>
      <trkpt lat="46.52125" lon="5.37319">
        <ele>229.2</ele>
        <time>2022-08-23T14:21:05Z</time>
      </trkpt>
      <trkpt lat="46.521" lon="5.37336">
        <ele>230.2</ele>
        <time>2022-08-23T14:21:11Z</time>
      </trkpt>
      <trkpt lat="46.52089" lon="5.37346">
        <ele>230.8</ele>
        <time>2022-08-23T14:21:14Z</time>
      </trkpt>
      <trkpt lat="46.52086" lon="5.3735">
        <ele>231.2</ele>
        <time>2022-08-23T14:21:15Z</time>
      </trkpt>
      <trkpt lat="46.52083" lon="5.37354">
        <ele>231.6</ele>
        <time>2022-08-23T14:21:16Z</time>
      </trkpt>
      <trkpt lat="46.52079" lon="5.37366">
        <ele>232.2</ele>
        <time>2022-08-23T14:21:18Z</time>
      </trkpt>
      <trkpt lat="46.52078" lon="5.37373">
        <ele>232.4</ele>
        <time>2022-08-23T14:21:19Z</time>
      </trkpt>
      <trkpt lat="46.52069" lon="5.37414">
        <ele>233.4</ele>
        <time>2022-08-23T14:21:25Z</time>
      </trkpt>
      <trkpt lat="46.52065" lon="5.37429">
        <ele>233.8</ele>
        <time>2022-08-23T14:21:27Z</time>
      </trkpt>
      <trkpt lat="46.52062" lon="5.37444">
        <ele>234</ele>
        <time>2022-08-23T14:21:29Z</time>
      </trkpt>
      <trkpt lat="46.52055" lon="5.37477">
        <ele>234.2</ele>
        <time>2022-08-23T14:21:33Z</time>
      </trkpt>
      <trkpt lat="46.5204" lon="5.37542">
        <ele>234.2</ele>
        <time>2022-08-23T14:21:40Z</time>
      </trkpt>
      <trkpt lat="46.52023" lon="5.37613">
        <ele>234</ele>
        <time>2022-08-23T14:21:48Z</time>
      </trkpt>
      <trkpt lat="46.52019" lon="5.3762">
        <ele>234</ele>
        <time>2022-08-23T14:21:49Z</time>
      </trkpt>
      <trkpt lat="46.52014" lon="5.37626">
        <ele>234</ele>
        <time>2022-08-23T14:21:50Z</time>
      </trkpt>
      <trkpt lat="46.52002" lon="5.37631">
        <ele>234.2</ele>
        <time>2022-08-23T14:21:52Z</time>
      </trkpt>
      <trkpt lat="46.5196" lon="5.37637">
        <ele>234.2</ele>
        <time>2022-08-23T14:21:58Z</time>
      </trkpt>
      <trkpt lat="46.51908" lon="5.37645">
        <ele>234.2</ele>
        <time>2022-08-23T14:22:05Z</time>
      </trkpt>
      <trkpt lat="46.51872" lon="5.37648">
        <ele>234.8</ele>
        <time>2022-08-23T14:22:10Z</time>
      </trkpt>
      <trkpt lat="46.5185" lon="5.37648">
        <ele>235</ele>
        <time>2022-08-23T14:22:13Z</time>
      </trkpt>
      <trkpt lat="46.51794" lon="5.3765">
        <ele>235.2</ele>
        <time>2022-08-23T14:22:20Z</time>
      </trkpt>
      <trkpt lat="46.51751" lon="5.37641">
        <ele>235</ele>
        <time>2022-08-23T14:22:25Z</time>
      </trkpt>
      <trkpt lat="46.51706" lon="5.3763">
        <ele>233.4</ele>
        <time>2022-08-23T14:22:30Z</time>
      </trkpt>
      <trkpt lat="46.51698" lon="5.37631">
        <ele>233.2</ele>
        <time>2022-08-23T14:22:31Z</time>
      </trkpt>
      <trkpt lat="46.51688" lon="5.37635">
        <ele>233</ele>
        <time>2022-08-23T14:22:32Z</time>
      </trkpt>
      <trkpt lat="46.51671" lon="5.37647">
        <ele>232.4</ele>
        <time>2022-08-23T14:22:34Z</time>
      </trkpt>
      <trkpt lat="46.51657" lon="5.37658">
        <ele>232.2</ele>
        <time>2022-08-23T14:22:36Z</time>
      </trkpt>
      <trkpt lat="46.5163" lon="5.3767">
        <ele>231.8</ele>
        <time>2022-08-23T14:22:39Z</time>
      </trkpt>
      <trkpt lat="46.5159" lon="5.37682">
        <ele>232</ele>
        <time>2022-08-23T14:22:44Z</time>
      </trkpt>
      <trkpt lat="46.51582" lon="5.37682">
        <ele>232</ele>
        <time>2022-08-23T14:22:45Z</time>
      </trkpt>
      <trkpt lat="46.5156" lon="5.37684">
        <ele>232.2</ele>
        <time>2022-08-23T14:22:48Z</time>
      </trkpt>
      <trkpt lat="46.51518" lon="5.37693">
        <ele>232.8</ele>
        <time>2022-08-23T14:22:54Z</time>
      </trkpt>
      <trkpt lat="46.51491" lon="5.377">
        <ele>233.8</ele>
        <time>2022-08-23T14:22:58Z</time>
      </trkpt>
      <trkpt lat="46.51466" lon="5.37705">
        <ele>234.4</ele>
        <time>2022-08-23T14:23:02Z</time>
      </trkpt>
      <trkpt lat="46.51429" lon="5.37714">
        <ele>234.8</ele>
        <time>2022-08-23T14:23:08Z</time>
      </trkpt>
      <trkpt lat="46.51411" lon="5.3772">
        <ele>235.2</ele>
        <time>2022-08-23T14:23:11Z</time>
      </trkpt>
      <trkpt lat="46.51369" lon="5.37738">
        <ele>236</ele>
        <time>2022-08-23T14:23:18Z</time>
      </trkpt>
      <trkpt lat="46.51363" lon="5.37741">
        <ele>236.2</ele>
        <time>2022-08-23T14:23:19Z</time>
      </trkpt>
      <trkpt lat="46.51323" lon="5.37761">
        <ele>237</ele>
        <time>2022-08-23T14:23:26Z</time>
      </trkpt>
      <trkpt lat="46.51289" lon="5.37778">
        <ele>238</ele>
        <time>2022-08-23T14:23:32Z</time>
      </trkpt>
      <trkpt lat="46.51284" lon="5.37781">
        <ele>238.2</ele>
        <time>2022-08-23T14:23:33Z</time>
      </trkpt>
      <trkpt lat="46.51236" lon="5.37802">
        <ele>239.4</ele>
        <time>2022-08-23T14:23:41Z</time>
      </trkpt>
      <trkpt lat="46.51231" lon="5.37803">
        <ele>239.4</ele>
        <time>2022-08-23T14:23:42Z</time>
      </trkpt>
      <trkpt lat="46.51223" lon="5.37804">
        <ele>239.8</ele>
        <time>2022-08-23T14:23:43Z</time>
      </trkpt>
      <trkpt lat="46.51205" lon="5.37805">
        <ele>240.2</ele>
        <time>2022-08-23T14:23:46Z</time>
      </trkpt>
      <trkpt lat="46.51198" lon="5.37807">
        <ele>240.4</ele>
        <time>2022-08-23T14:23:47Z</time>
      </trkpt>
      <trkpt lat="46.51192" lon="5.37808">
        <ele>240.6</ele>
        <time>2022-08-23T14:23:48Z</time>
      </trkpt>
      <trkpt lat="46.51175" lon="5.37813">
        <ele>240.8</ele>
        <time>2022-08-23T14:23:51Z</time>
      </trkpt>
      <trkpt lat="46.51164" lon="5.37819">
        <ele>241</ele>
        <time>2022-08-23T14:23:53Z</time>
      </trkpt>
      <trkpt lat="46.51148" lon="5.37831">
        <ele>241.8</ele>
        <time>2022-08-23T14:23:56Z</time>
      </trkpt>
      <trkpt lat="46.5111" lon="5.37858">
        <ele>242.8</ele>
        <time>2022-08-23T14:24:03Z</time>
      </trkpt>
      <trkpt lat="46.51104" lon="5.37861">
        <ele>242.8</ele>
        <time>2022-08-23T14:24:04Z</time>
      </trkpt>
      <trkpt lat="46.51098" lon="5.37863">
        <ele>243</ele>
        <time>2022-08-23T14:24:05Z</time>
      </trkpt>
      <trkpt lat="46.51075" lon="5.37869">
        <ele>243.8</ele>
        <time>2022-08-23T14:24:09Z</time>
      </trkpt>
      <trkpt lat="46.51068" lon="5.3787">
        <ele>244</ele>
        <time>2022-08-23T14:24:10Z</time>
      </trkpt>
      <trkpt lat="46.51032" lon="5.37873">
        <ele>245.2</ele>
        <time>2022-08-23T14:24:16Z</time>
      </trkpt>
      <trkpt lat="46.51021" lon="5.37875">
        <ele>245.6</ele>
        <time>2022-08-23T14:24:18Z</time>
      </trkpt>
      <trkpt lat="46.51004" lon="5.37878">
        <ele>246.2</ele>
        <time>2022-08-23T14:24:21Z</time>
      </trkpt>
      <trkpt lat="46.50968" lon="5.37885">
        <ele>247.2</ele>
        <time>2022-08-23T14:24:27Z</time>
      </trkpt>
      <trkpt lat="46.50962" lon="5.37887">
        <ele>247.4</ele>
        <time>2022-08-23T14:24:28Z</time>
      </trkpt>
      <trkpt lat="46.50916" lon="5.37901">
        <ele>247.8</ele>
        <time>2022-08-23T14:24:35Z</time>
      </trkpt>
      <trkpt lat="46.50911" lon="5.37902">
        <ele>248</ele>
        <time>2022-08-23T14:24:36Z</time>
      </trkpt>
      <trkpt lat="46.50902" lon="5.37903">
        <ele>248</ele>
        <time>2022-08-23T14:24:37Z</time>
      </trkpt>
      <trkpt lat="46.50875" lon="5.37902">
        <ele>247.6</ele>
        <time>2022-08-23T14:24:41Z</time>
      </trkpt>
      <trkpt lat="46.50824" lon="5.37896">
        <ele>247.4</ele>
        <time>2022-08-23T14:24:48Z</time>
      </trkpt>
      <trkpt lat="46.50817" lon="5.37892">
        <ele>247.4</ele>
        <time>2022-08-23T14:24:49Z</time>
      </trkpt>
      <trkpt lat="46.5081" lon="5.37888">
        <ele>247.4</ele>
        <time>2022-08-23T14:24:50Z</time>
      </trkpt>
      <trkpt lat="46.50794" lon="5.37869">
        <ele>247.4</ele>
        <time>2022-08-23T14:24:53Z</time>
      </trkpt>
      <trkpt lat="46.50764" lon="5.37822">
        <ele>247.6</ele>
        <time>2022-08-23T14:24:59Z</time>
      </trkpt>
      <trkpt lat="46.50749" lon="5.37773">
        <ele>247.4</ele>
        <time>2022-08-23T14:25:04Z</time>
      </trkpt>
      <trkpt lat="46.50742" lon="5.37708">
        <ele>246.8</ele>
        <time>2022-08-23T14:25:10Z</time>
      </trkpt>
      <trkpt lat="46.50739" lon="5.37663">
        <ele>246.2</ele>
        <time>2022-08-23T14:25:14Z</time>
      </trkpt>
      <trkpt lat="46.50737" lon="5.37638">
        <ele>246</ele>
        <time>2022-08-23T14:25:16Z</time>
      </trkpt>
      <trkpt lat="46.50735" lon="5.37625">
        <ele>245.6</ele>
        <time>2022-08-23T14:25:17Z</time>
      </trkpt>
      <trkpt lat="46.50727" lon="5.37601">
        <ele>245</ele>
        <time>2022-08-23T14:25:19Z</time>
      </trkpt>
      <trkpt lat="46.50715" lon="5.37582">
        <ele>244.2</ele>
        <time>2022-08-23T14:25:21Z</time>
      </trkpt>
      <trkpt lat="46.5071" lon="5.37575">
        <ele>243.4</ele>
        <time>2022-08-23T14:25:22Z</time>
      </trkpt>
      <trkpt lat="46.50705" lon="5.37569">
        <ele>243</ele>
        <time>2022-08-23T14:25:23Z</time>
      </trkpt>
      <trkpt lat="46.50701" lon="5.37565">
        <ele>242.4</ele>
        <time>2022-08-23T14:25:24Z</time>
      </trkpt>
      <trkpt lat="46.50697" lon="5.37562">
        <ele>242.4</ele>
        <time>2022-08-23T14:25:25Z</time>
      </trkpt>
      <trkpt lat="46.50695" lon="5.3756">
        <ele>242</ele>
        <time>2022-08-23T14:25:26Z</time>
      </trkpt>
      <trkpt lat="46.50695" lon="5.37559">
        <ele>241.2</ele>
        <time>2022-08-23T14:25:29Z</time>
      </trkpt>
      <trkpt lat="46.50692" lon="5.37557">
        <ele>241</ele>
        <time>2022-08-23T14:25:31Z</time>
      </trkpt>
      <trkpt lat="46.50687" lon="5.3756">
        <ele>241</ele>
        <time>2022-08-23T14:25:33Z</time>
      </trkpt>
      <trkpt lat="46.50675" lon="5.37579">
        <ele>240.8</ele>
        <time>2022-08-23T14:25:37Z</time>
      </trkpt>
      <trkpt lat="46.50654" lon="5.37612">
        <ele>241</ele>
        <time>2022-08-23T14:25:42Z</time>
      </trkpt>
      <trkpt lat="46.50622" lon="5.37661">
        <ele>241.6</ele>
        <time>2022-08-23T14:25:49Z</time>
      </trkpt>
      <trkpt lat="46.50587" lon="5.37716">
        <ele>242.4</ele>
        <time>2022-08-23T14:25:57Z</time>
      </trkpt>
      <trkpt lat="46.50575" lon="5.37734">
        <ele>242.6</ele>
        <time>2022-08-23T14:26:00Z</time>
      </trkpt>
      <trkpt lat="46.50559" lon="5.37758">
        <ele>243.8</ele>
        <time>2022-08-23T14:26:04Z</time>
      </trkpt>
      <trkpt lat="46.50541" lon="5.37787">
        <ele>244.6</ele>
        <time>2022-08-23T14:26:09Z</time>
      </trkpt>
      <trkpt lat="46.50537" lon="5.37792">
        <ele>245.2</ele>
        <time>2022-08-23T14:26:10Z</time>
      </trkpt>
      <trkpt lat="46.50516" lon="5.37825">
        <ele>246.2</ele>
        <time>2022-08-23T14:26:16Z</time>
      </trkpt>
      <trkpt lat="46.50509" lon="5.37836">
        <ele>247</ele>
        <time>2022-08-23T14:26:18Z</time>
      </trkpt>
      <trkpt lat="46.50502" lon="5.37846">
        <ele>247.6</ele>
        <time>2022-08-23T14:26:20Z</time>
      </trkpt>
      <trkpt lat="46.50485" lon="5.37872">
        <ele>248.6</ele>
        <time>2022-08-23T14:26:25Z</time>
      </trkpt>
      <trkpt lat="46.50464" lon="5.37902">
        <ele>250</ele>
        <time>2022-08-23T14:26:31Z</time>
      </trkpt>
      <trkpt lat="46.50448" lon="5.37927">
        <ele>251</ele>
        <time>2022-08-23T14:26:36Z</time>
      </trkpt>
      <trkpt lat="46.50444" lon="5.37936">
        <ele>251.2</ele>
        <time>2022-08-23T14:26:38Z</time>
      </trkpt>
      <trkpt lat="46.50427" lon="5.37958">
        <ele>252.2</ele>
        <time>2022-08-23T14:26:43Z</time>
      </trkpt>
      <trkpt lat="46.50424" lon="5.37963">
        <ele>252.4</ele>
        <time>2022-08-23T14:26:44Z</time>
      </trkpt>
      <trkpt lat="46.50411" lon="5.37984">
        <ele>253.6</ele>
        <time>2022-08-23T14:26:48Z</time>
      </trkpt>
      <trkpt lat="46.504" lon="5.38">
        <ele>254.2</ele>
        <time>2022-08-23T14:26:51Z</time>
      </trkpt>
      <trkpt lat="46.50395" lon="5.3801">
        <ele>254.8</ele>
        <time>2022-08-23T14:26:53Z</time>
      </trkpt>
      <trkpt lat="46.50385" lon="5.38025">
        <ele>255.4</ele>
        <time>2022-08-23T14:26:56Z</time>
      </trkpt>
      <trkpt lat="46.50376" lon="5.3803">
        <ele>255.8</ele>
        <time>2022-08-23T14:26:58Z</time>
      </trkpt>
      <trkpt lat="46.50371" lon="5.3803">
        <ele>256</ele>
        <time>2022-08-23T14:26:59Z</time>
      </trkpt>
      <trkpt lat="46.50366" lon="5.38027">
        <ele>256.4</ele>
        <time>2022-08-23T14:27:00Z</time>
      </trkpt>
      <trkpt lat="46.50363" lon="5.38022">
        <ele>256.4</ele>
        <time>2022-08-23T14:27:01Z</time>
      </trkpt>
      <trkpt lat="46.50361" lon="5.38015">
        <ele>256.6</ele>
        <time>2022-08-23T14:27:02Z</time>
      </trkpt>
      <trkpt lat="46.5036" lon="5.38001">
        <ele>256.8</ele>
        <time>2022-08-23T14:27:04Z</time>
      </trkpt>
      <trkpt lat="46.5036" lon="5.37986">
        <ele>257.2</ele>
        <time>2022-08-23T14:27:06Z</time>
      </trkpt>
      <trkpt lat="46.5036" lon="5.37949">
        <ele>258.2</ele>
        <time>2022-08-23T14:27:11Z</time>
      </trkpt>
      <trkpt lat="46.50358" lon="5.37931">
        <ele>258.4</ele>
        <time>2022-08-23T14:27:13Z</time>
      </trkpt>
      <trkpt lat="46.50353" lon="5.37913">
        <ele>258.4</ele>
        <time>2022-08-23T14:27:15Z</time>
      </trkpt>
      <trkpt lat="46.5035" lon="5.37905">
        <ele>258.4</ele>
        <time>2022-08-23T14:27:16Z</time>
      </trkpt>
      <trkpt lat="46.50336" lon="5.37883">
        <ele>258.2</ele>
        <time>2022-08-23T14:27:19Z</time>
      </trkpt>
      <trkpt lat="46.50303" lon="5.37846">
        <ele>258.2</ele>
        <time>2022-08-23T14:27:25Z</time>
      </trkpt>
      <trkpt lat="46.50256" lon="5.378">
        <ele>258</ele>
        <time>2022-08-23T14:27:33Z</time>
      </trkpt>
      <trkpt lat="46.5021" lon="5.37763">
        <ele>257.8</ele>
        <time>2022-08-23T14:27:40Z</time>
      </trkpt>
      <trkpt lat="46.50181" lon="5.37748">
        <ele>257.8</ele>
        <time>2022-08-23T14:27:44Z</time>
      </trkpt>
      <trkpt lat="46.50175" lon="5.37742">
        <ele>257.8</ele>
        <time>2022-08-23T14:27:45Z</time>
      </trkpt>
      <trkpt lat="46.50157" lon="5.37718">
        <ele>257.2</ele>
        <time>2022-08-23T14:27:48Z</time>
      </trkpt>
      <trkpt lat="46.50153" lon="5.37708">
        <ele>257.2</ele>
        <time>2022-08-23T14:27:49Z</time>
      </trkpt>
      <trkpt lat="46.5015" lon="5.37697">
        <ele>257</ele>
        <time>2022-08-23T14:27:50Z</time>
      </trkpt>
      <trkpt lat="46.50146" lon="5.37672">
        <ele>256.8</ele>
        <time>2022-08-23T14:27:52Z</time>
      </trkpt>
      <trkpt lat="46.50145" lon="5.37659">
        <ele>256.6</ele>
        <time>2022-08-23T14:27:53Z</time>
      </trkpt>
      <trkpt lat="46.50143" lon="5.37635">
        <ele>256.2</ele>
        <time>2022-08-23T14:27:55Z</time>
      </trkpt>
      <trkpt lat="46.50143" lon="5.37621">
        <ele>256</ele>
        <time>2022-08-23T14:27:56Z</time>
      </trkpt>
      <trkpt lat="46.50142" lon="5.37596">
        <ele>254.8</ele>
        <time>2022-08-23T14:27:58Z</time>
      </trkpt>
      <trkpt lat="46.5014" lon="5.37569">
        <ele>254.4</ele>
        <time>2022-08-23T14:28:00Z</time>
      </trkpt>
      <trkpt lat="46.50136" lon="5.37544">
        <ele>254.2</ele>
        <time>2022-08-23T14:28:02Z</time>
      </trkpt>
      <trkpt lat="46.5013" lon="5.3752">
        <ele>254</ele>
        <time>2022-08-23T14:28:04Z</time>
      </trkpt>
      <trkpt lat="46.50125" lon="5.37509">
        <ele>253.8</ele>
        <time>2022-08-23T14:28:05Z</time>
      </trkpt>
      <trkpt lat="46.50105" lon="5.3747">
        <ele>253.4</ele>
        <time>2022-08-23T14:28:09Z</time>
      </trkpt>
      <trkpt lat="46.50082" lon="5.3742">
        <ele>252.8</ele>
        <time>2022-08-23T14:28:14Z</time>
      </trkpt>
      <trkpt lat="46.50075" lon="5.37398">
        <ele>252.6</ele>
        <time>2022-08-23T14:28:16Z</time>
      </trkpt>
      <trkpt lat="46.5007" lon="5.37375">
        <ele>252.6</ele>
        <time>2022-08-23T14:28:18Z</time>
      </trkpt>
      <trkpt lat="46.50057" lon="5.37303">
        <ele>251.6</ele>
        <time>2022-08-23T14:28:24Z</time>
      </trkpt>
      <trkpt lat="46.50048" lon="5.37252">
        <ele>251.2</ele>
        <time>2022-08-23T14:28:28Z</time>
      </trkpt>
      <trkpt lat="46.50036" lon="5.37187">
        <ele>250.6</ele>
        <time>2022-08-23T14:28:33Z</time>
      </trkpt>
      <trkpt lat="46.50026" lon="5.37135">
        <ele>250</ele>
        <time>2022-08-23T14:28:37Z</time>
      </trkpt>
      <trkpt lat="46.50021" lon="5.37108">
        <ele>249.6</ele>
        <time>2022-08-23T14:28:39Z</time>
      </trkpt>
      <trkpt lat="46.50006" lon="5.37027">
        <ele>248.2</ele>
        <time>2022-08-23T14:28:45Z</time>
      </trkpt>
      <trkpt lat="46.50003" lon="5.37014">
        <ele>248</ele>
        <time>2022-08-23T14:28:46Z</time>
      </trkpt>
      <trkpt lat="46.49993" lon="5.36958">
        <ele>247</ele>
        <time>2022-08-23T14:28:50Z</time>
      </trkpt>
      <trkpt lat="46.49982" lon="5.36903">
        <ele>246.2</ele>
        <time>2022-08-23T14:28:54Z</time>
      </trkpt>
      <trkpt lat="46.4998" lon="5.36889">
        <ele>245.8</ele>
        <time>2022-08-23T14:28:55Z</time>
      </trkpt>
      <trkpt lat="46.49975" lon="5.36863">
        <ele>244.4</ele>
        <time>2022-08-23T14:28:57Z</time>
      </trkpt>
      <trkpt lat="46.4997" lon="5.36837">
        <ele>243.8</ele>
        <time>2022-08-23T14:28:59Z</time>
      </trkpt>
      <trkpt lat="46.49963" lon="5.36801">
        <ele>243.4</ele>
        <time>2022-08-23T14:29:02Z</time>
      </trkpt>
      <trkpt lat="46.49953" lon="5.36748">
        <ele>242.2</ele>
        <time>2022-08-23T14:29:06Z</time>
      </trkpt>
      <trkpt lat="46.49944" lon="5.36699">
        <ele>241.4</ele>
        <time>2022-08-23T14:29:10Z</time>
      </trkpt>
      <trkpt lat="46.49939" lon="5.36675">
        <ele>241</ele>
        <time>2022-08-23T14:29:12Z</time>
      </trkpt>
      <trkpt lat="46.49935" lon="5.36654">
        <ele>240.6</ele>
        <time>2022-08-23T14:29:14Z</time>
      </trkpt>
      <trkpt lat="46.4993" lon="5.36637">
        <ele>239.8</ele>
        <time>2022-08-23T14:29:16Z</time>
      </trkpt>
      <trkpt lat="46.49914" lon="5.36595">
        <ele>238.8</ele>
        <time>2022-08-23T14:29:21Z</time>
      </trkpt>
      <trkpt lat="46.4991" lon="5.36585">
        <ele>238.6</ele>
        <time>2022-08-23T14:29:22Z</time>
      </trkpt>
      <trkpt lat="46.49894" lon="5.36556">
        <ele>238.2</ele>
        <time>2022-08-23T14:29:25Z</time>
      </trkpt>
      <trkpt lat="46.49876" lon="5.36529">
        <ele>237.4</ele>
        <time>2022-08-23T14:29:28Z</time>
      </trkpt>
      <trkpt lat="46.49852" lon="5.36493">
        <ele>237</ele>
        <time>2022-08-23T14:29:32Z</time>
      </trkpt>
      <trkpt lat="46.4982" lon="5.36438">
        <ele>236.8</ele>
        <time>2022-08-23T14:29:37Z</time>
      </trkpt>
      <trkpt lat="46.49796" lon="5.36382">
        <ele>236.4</ele>
        <time>2022-08-23T14:29:42Z</time>
      </trkpt>
      <trkpt lat="46.49786" lon="5.36358">
        <ele>235.8</ele>
        <time>2022-08-23T14:29:44Z</time>
      </trkpt>
      <trkpt lat="46.4977" lon="5.36319">
        <ele>235.2</ele>
        <time>2022-08-23T14:29:47Z</time>
      </trkpt>
      <trkpt lat="46.4975" lon="5.3627">
        <ele>234.2</ele>
        <time>2022-08-23T14:29:51Z</time>
      </trkpt>
      <trkpt lat="46.4974" lon="5.36248">
        <ele>233.8</ele>
        <time>2022-08-23T14:29:53Z</time>
      </trkpt>
      <trkpt lat="46.49723" lon="5.3621">
        <ele>232.6</ele>
        <time>2022-08-23T14:29:56Z</time>
      </trkpt>
      <trkpt lat="46.49712" lon="5.36191">
        <ele>231.6</ele>
        <time>2022-08-23T14:29:58Z</time>
      </trkpt>
      <trkpt lat="46.49704" lon="5.36178">
        <ele>231.4</ele>
        <time>2022-08-23T14:29:59Z</time>
      </trkpt>
      <trkpt lat="46.49675" lon="5.3613">
        <ele>230.4</ele>
        <time>2022-08-23T14:30:04Z</time>
      </trkpt>
      <trkpt lat="46.49659" lon="5.36098">
        <ele>230</ele>
        <time>2022-08-23T14:30:07Z</time>
      </trkpt>
      <trkpt lat="46.49648" lon="5.36048">
        <ele>229.8</ele>
        <time>2022-08-23T14:30:11Z</time>
      </trkpt>
      <trkpt lat="46.49644" lon="5.35986">
        <ele>229.8</ele>
        <time>2022-08-23T14:30:16Z</time>
      </trkpt>
      <trkpt lat="46.49639" lon="5.35902">
        <ele>230.2</ele>
        <time>2022-08-23T14:30:23Z</time>
      </trkpt>
      <trkpt lat="46.49639" lon="5.35841">
        <ele>230.4</ele>
        <time>2022-08-23T14:30:29Z</time>
      </trkpt>
      <trkpt lat="46.49649" lon="5.358">
        <ele>230.8</ele>
        <time>2022-08-23T14:30:34Z</time>
      </trkpt>
      <trkpt lat="46.49652" lon="5.35791">
        <ele>231</ele>
        <time>2022-08-23T14:30:35Z</time>
      </trkpt>
      <trkpt lat="46.49664" lon="5.35764">
        <ele>231.8</ele>
        <time>2022-08-23T14:30:39Z</time>
      </trkpt>
      <trkpt lat="46.49666" lon="5.35759">
        <ele>232.2</ele>
        <time>2022-08-23T14:30:40Z</time>
      </trkpt>
      <trkpt lat="46.49678" lon="5.3573">
        <ele>233</ele>
        <time>2022-08-23T14:30:44Z</time>
      </trkpt>
      <trkpt lat="46.49685" lon="5.35711">
        <ele>233.6</ele>
        <time>2022-08-23T14:30:47Z</time>
      </trkpt>
      <trkpt lat="46.49694" lon="5.35682">
        <ele>234.2</ele>
        <time>2022-08-23T14:30:51Z</time>
      </trkpt>
      <trkpt lat="46.49698" lon="5.3566">
        <ele>234.4</ele>
        <time>2022-08-23T14:30:54Z</time>
      </trkpt>
      <trkpt lat="46.49696" lon="5.35648">
        <ele>234.6</ele>
        <time>2022-08-23T14:30:56Z</time>
      </trkpt>
      <trkpt lat="46.49691" lon="5.35643">
        <ele>234.8</ele>
        <time>2022-08-23T14:30:57Z</time>
      </trkpt>
      <trkpt lat="46.49686" lon="5.35641">
        <ele>234.8</ele>
        <time>2022-08-23T14:30:58Z</time>
      </trkpt>
      <trkpt lat="46.49671" lon="5.35635">
        <ele>235.2</ele>
        <time>2022-08-23T14:31:01Z</time>
      </trkpt>
      <trkpt lat="46.49661" lon="5.35632">
        <ele>235.4</ele>
        <time>2022-08-23T14:31:03Z</time>
      </trkpt>
      <trkpt lat="46.49618" lon="5.3562">
        <ele>236.2</ele>
        <time>2022-08-23T14:31:11Z</time>
      </trkpt>
      <trkpt lat="46.49608" lon="5.35617">
        <ele>236.8</ele>
        <time>2022-08-23T14:31:13Z</time>
      </trkpt>
      <trkpt lat="46.49586" lon="5.3561">
        <ele>237.2</ele>
        <time>2022-08-23T14:31:17Z</time>
      </trkpt>
      <trkpt lat="46.49565" lon="5.35603">
        <ele>238</ele>
        <time>2022-08-23T14:31:21Z</time>
      </trkpt>
      <trkpt lat="46.49538" lon="5.35593">
        <ele>238.4</ele>
        <time>2022-08-23T14:31:26Z</time>
      </trkpt>
      <trkpt lat="46.4952" lon="5.35585">
        <ele>238.8</ele>
        <time>2022-08-23T14:31:29Z</time>
      </trkpt>
      <trkpt lat="46.49515" lon="5.35583">
        <ele>238.8</ele>
        <time>2022-08-23T14:31:30Z</time>
      </trkpt>
      <trkpt lat="46.49493" lon="5.35575">
        <ele>239.6</ele>
        <time>2022-08-23T14:31:34Z</time>
      </trkpt>
      <trkpt lat="46.4946" lon="5.35564">
        <ele>240.6</ele>
        <time>2022-08-23T14:31:40Z</time>
      </trkpt>
      <trkpt lat="46.49453" lon="5.3556">
        <ele>240.8</ele>
        <time>2022-08-23T14:31:41Z</time>
      </trkpt>
      <trkpt lat="46.49422" lon="5.35545">
        <ele>241</ele>
        <time>2022-08-23T14:31:46Z</time>
      </trkpt>
      <trkpt lat="46.49384" lon="5.35531">
        <ele>241.4</ele>
        <time>2022-08-23T14:31:52Z</time>
      </trkpt>
      <trkpt lat="46.49378" lon="5.3553">
        <ele>241.4</ele>
        <time>2022-08-23T14:31:53Z</time>
      </trkpt>
      <trkpt lat="46.49372" lon="5.3553">
        <ele>241.6</ele>
        <time>2022-08-23T14:31:54Z</time>
      </trkpt>
      <trkpt lat="46.49365" lon="5.35529">
        <ele>241.8</ele>
        <time>2022-08-23T14:31:55Z</time>
      </trkpt>
      <trkpt lat="46.49348" lon="5.35529">
        <ele>242</ele>
        <time>2022-08-23T14:31:58Z</time>
      </trkpt>
      <trkpt lat="46.4933" lon="5.35528">
        <ele>242.4</ele>
        <time>2022-08-23T14:32:01Z</time>
      </trkpt>
      <trkpt lat="46.49317" lon="5.35529">
        <ele>242.6</ele>
        <time>2022-08-23T14:32:03Z</time>
      </trkpt>
      <trkpt lat="46.49311" lon="5.35529">
        <ele>242.6</ele>
        <time>2022-08-23T14:32:04Z</time>
      </trkpt>
      <trkpt lat="46.49271" lon="5.35531">
        <ele>242.8</ele>
        <time>2022-08-23T14:32:10Z</time>
      </trkpt>
      <trkpt lat="46.49231" lon="5.35535">
        <ele>243</ele>
        <time>2022-08-23T14:32:16Z</time>
      </trkpt>
      <trkpt lat="46.49223" lon="5.35536">
        <ele>243</ele>
        <time>2022-08-23T14:32:17Z</time>
      </trkpt>
      <trkpt lat="46.4921" lon="5.35538">
        <ele>243</ele>
        <time>2022-08-23T14:32:19Z</time>
      </trkpt>
      <trkpt lat="46.49195" lon="5.35539">
        <ele>243</ele>
        <time>2022-08-23T14:32:21Z</time>
      </trkpt>
      <trkpt lat="46.49154" lon="5.35545">
        <ele>243</ele>
        <time>2022-08-23T14:32:26Z</time>
      </trkpt>
      <trkpt lat="46.49106" lon="5.35547">
        <ele>242.8</ele>
        <time>2022-08-23T14:32:32Z</time>
      </trkpt>
      <trkpt lat="46.49066" lon="5.35551">
        <ele>242.2</ele>
        <time>2022-08-23T14:32:37Z</time>
      </trkpt>
      <trkpt lat="46.49047" lon="5.35551">
        <ele>241.8</ele>
        <time>2022-08-23T14:32:39Z</time>
      </trkpt>
      <trkpt lat="46.49029" lon="5.35552">
        <ele>241.6</ele>
        <time>2022-08-23T14:32:41Z</time>
      </trkpt>
      <trkpt lat="46.49003" lon="5.35554">
        <ele>240.8</ele>
        <time>2022-08-23T14:32:44Z</time>
      </trkpt>
      <trkpt lat="46.4898" lon="5.35554">
        <ele>240.4</ele>
        <time>2022-08-23T14:32:47Z</time>
      </trkpt>
      <trkpt lat="46.48955" lon="5.35555">
        <ele>239.8</ele>
        <time>2022-08-23T14:32:50Z</time>
      </trkpt>
      <trkpt lat="46.48926" lon="5.35556">
        <ele>239.8</ele>
        <time>2022-08-23T14:32:54Z</time>
      </trkpt>
      <trkpt lat="46.48888" lon="5.35557">
        <ele>240.2</ele>
        <time>2022-08-23T14:33:00Z</time>
      </trkpt>
      <trkpt lat="46.48854" lon="5.35559">
        <ele>241</ele>
        <time>2022-08-23T14:33:06Z</time>
      </trkpt>
      <trkpt lat="46.48849" lon="5.3556">
        <ele>241.2</ele>
        <time>2022-08-23T14:33:07Z</time>
      </trkpt>
      <trkpt lat="46.4884" lon="5.35567">
        <ele>241.4</ele>
        <time>2022-08-23T14:33:09Z</time>
      </trkpt>
      <trkpt lat="46.48835" lon="5.35572">
        <ele>241.4</ele>
        <time>2022-08-23T14:33:10Z</time>
      </trkpt>
      <trkpt lat="46.48831" lon="5.35576">
        <ele>241.6</ele>
        <time>2022-08-23T14:33:11Z</time>
      </trkpt>
      <trkpt lat="46.48828" lon="5.35583">
        <ele>241.6</ele>
        <time>2022-08-23T14:33:12Z</time>
      </trkpt>
      <trkpt lat="46.48818" lon="5.35609">
        <ele>241.6</ele>
        <time>2022-08-23T14:33:15Z</time>
      </trkpt>
      <trkpt lat="46.48793" lon="5.35668">
        <ele>242</ele>
        <time>2022-08-23T14:33:21Z</time>
      </trkpt>
      <trkpt lat="46.48769" lon="5.35719">
        <ele>242.2</ele>
        <time>2022-08-23T14:33:26Z</time>
      </trkpt>
      <trkpt lat="46.4874" lon="5.35786">
        <ele>242</ele>
        <time>2022-08-23T14:33:33Z</time>
      </trkpt>
      <trkpt lat="46.48719" lon="5.35833">
        <ele>242.2</ele>
        <time>2022-08-23T14:33:39Z</time>
      </trkpt>
      <trkpt lat="46.48704" lon="5.35864">
        <ele>242.6</ele>
        <time>2022-08-23T14:33:43Z</time>
      </trkpt>
      <trkpt lat="46.48696" lon="5.35881">
        <ele>242.6</ele>
        <time>2022-08-23T14:33:45Z</time>
      </trkpt>
      <trkpt lat="46.48681" lon="5.35929">
        <ele>243.2</ele>
        <time>2022-08-23T14:33:51Z</time>
      </trkpt>
      <trkpt lat="46.48679" lon="5.35938">
        <ele>243.8</ele>
        <time>2022-08-23T14:33:52Z</time>
      </trkpt>
      <trkpt lat="46.4867" lon="5.36005">
        <ele>244.6</ele>
        <time>2022-08-23T14:33:59Z</time>
      </trkpt>
      <trkpt lat="46.48667" lon="5.36021">
        <ele>244.8</ele>
        <time>2022-08-23T14:34:01Z</time>
      </trkpt>
      <trkpt lat="46.48658" lon="5.36066">
        <ele>245</ele>
        <time>2022-08-23T14:34:05Z</time>
      </trkpt>
      <trkpt lat="46.48643" lon="5.36145">
        <ele>244.2</ele>
        <time>2022-08-23T14:34:12Z</time>
      </trkpt>
      <trkpt lat="46.48639" lon="5.36188">
        <ele>243.8</ele>
        <time>2022-08-23T14:34:16Z</time>
      </trkpt>
      <trkpt lat="46.48638" lon="5.36198">
        <ele>243.6</ele>
        <time>2022-08-23T14:34:17Z</time>
      </trkpt>
      <trkpt lat="46.48634" lon="5.36255">
        <ele>243.6</ele>
        <time>2022-08-23T14:34:23Z</time>
      </trkpt>
      <trkpt lat="46.48626" lon="5.36298">
        <ele>243.8</ele>
        <time>2022-08-23T14:34:28Z</time>
      </trkpt>
      <trkpt lat="46.48623" lon="5.36306">
        <ele>244.2</ele>
        <time>2022-08-23T14:34:29Z</time>
      </trkpt>
      <trkpt lat="46.4862" lon="5.36311">
        <ele>244.2</ele>
        <time>2022-08-23T14:34:30Z</time>
      </trkpt>
      <trkpt lat="46.48611" lon="5.36319">
        <ele>244.8</ele>
        <time>2022-08-23T14:34:32Z</time>
      </trkpt>
      <trkpt lat="46.48606" lon="5.36321">
        <ele>244.8</ele>
        <time>2022-08-23T14:34:33Z</time>
      </trkpt>
      <trkpt lat="46.48574" lon="5.36327">
        <ele>246.4</ele>
        <time>2022-08-23T14:34:39Z</time>
      </trkpt>
      <trkpt lat="46.48564" lon="5.36329">
        <ele>246.8</ele>
        <time>2022-08-23T14:34:41Z</time>
      </trkpt>
      <trkpt lat="46.48553" lon="5.3633">
        <ele>247.4</ele>
        <time>2022-08-23T14:34:43Z</time>
      </trkpt>
      <trkpt lat="46.48522" lon="5.36335">
        <ele>248.4</ele>
        <time>2022-08-23T14:34:49Z</time>
      </trkpt>
      <trkpt lat="46.48506" lon="5.36337">
        <ele>248.8</ele>
        <time>2022-08-23T14:34:52Z</time>
      </trkpt>
      <trkpt lat="46.48447" lon="5.36347">
        <ele>249.2</ele>
        <time>2022-08-23T14:35:02Z</time>
      </trkpt>
      <trkpt lat="46.48429" lon="5.36351">
        <ele>249.4</ele>
        <time>2022-08-23T14:35:05Z</time>
      </trkpt>
      <trkpt lat="46.48405" lon="5.36363">
        <ele>249.8</ele>
        <time>2022-08-23T14:35:09Z</time>
      </trkpt>
      <trkpt lat="46.48369" lon="5.36399">
        <ele>250</ele>
        <time>2022-08-23T14:35:16Z</time>
      </trkpt>
      <trkpt lat="46.48334" lon="5.36437">
        <ele>250.6</ele>
        <time>2022-08-23T14:35:23Z</time>
      </trkpt>
      <trkpt lat="46.48325" lon="5.36447">
        <ele>250.8</ele>
        <time>2022-08-23T14:35:25Z</time>
      </trkpt>
      <trkpt lat="46.48299" lon="5.36475">
        <ele>251.6</ele>
        <time>2022-08-23T14:35:31Z</time>
      </trkpt>
      <trkpt lat="46.48285" lon="5.36491">
        <ele>252</ele>
        <time>2022-08-23T14:35:34Z</time>
      </trkpt>
      <trkpt lat="46.48267" lon="5.3651">
        <ele>252.6</ele>
        <time>2022-08-23T14:35:38Z</time>
      </trkpt>
      <trkpt lat="46.48247" lon="5.36533">
        <ele>253.6</ele>
        <time>2022-08-23T14:35:43Z</time>
      </trkpt>
      <trkpt lat="46.48238" lon="5.36543">
        <ele>253.6</ele>
        <time>2022-08-23T14:35:45Z</time>
      </trkpt>
      <trkpt lat="46.48225" lon="5.36556">
        <ele>254</ele>
        <time>2022-08-23T14:35:48Z</time>
      </trkpt>
      <trkpt lat="46.48214" lon="5.36559">
        <ele>254.2</ele>
        <time>2022-08-23T14:35:50Z</time>
      </trkpt>
      <trkpt lat="46.48203" lon="5.36559">
        <ele>254.4</ele>
        <time>2022-08-23T14:35:52Z</time>
      </trkpt>
      <trkpt lat="46.48194" lon="5.36565">
        <ele>254.6</ele>
        <time>2022-08-23T14:35:54Z</time>
      </trkpt>
      <trkpt lat="46.4819" lon="5.36571">
        <ele>255</ele>
        <time>2022-08-23T14:35:55Z</time>
      </trkpt>
      <trkpt lat="46.48188" lon="5.36578">
        <ele>255.2</ele>
        <time>2022-08-23T14:35:56Z</time>
      </trkpt>
      <trkpt lat="46.48183" lon="5.36594">
        <ele>255.6</ele>
        <time>2022-08-23T14:35:58Z</time>
      </trkpt>
      <trkpt lat="46.48176" lon="5.36607">
        <ele>256</ele>
        <time>2022-08-23T14:36:00Z</time>
      </trkpt>
      <trkpt lat="46.48172" lon="5.36613">
        <ele>256</ele>
        <time>2022-08-23T14:36:01Z</time>
      </trkpt>
      <trkpt lat="46.48168" lon="5.36618">
        <ele>256.2</ele>
        <time>2022-08-23T14:36:02Z</time>
      </trkpt>
      <trkpt lat="46.48143" lon="5.36647">
        <ele>257</ele>
        <time>2022-08-23T14:36:08Z</time>
      </trkpt>
      <trkpt lat="46.48134" lon="5.36658">
        <ele>257</ele>
        <time>2022-08-23T14:36:10Z</time>
      </trkpt>
      <trkpt lat="46.48128" lon="5.36663">
        <ele>257</ele>
        <time>2022-08-23T14:36:11Z</time>
      </trkpt>
      <trkpt lat="46.48119" lon="5.36673">
        <ele>257</ele>
        <time>2022-08-23T14:36:13Z</time>
      </trkpt>
      <trkpt lat="46.48111" lon="5.36681">
        <ele>257.2</ele>
        <time>2022-08-23T14:36:15Z</time>
      </trkpt>
      <trkpt lat="46.481" lon="5.36698">
        <ele>257.6</ele>
        <time>2022-08-23T14:36:19Z</time>
      </trkpt>
      <trkpt lat="46.48104" lon="5.36706">
        <ele>257.8</ele>
        <time>2022-08-23T14:36:21Z</time>
      </trkpt>
      <trkpt lat="46.48112" lon="5.36711">
        <ele>258.2</ele>
        <time>2022-08-23T14:36:23Z</time>
      </trkpt>
      <trkpt lat="46.48116" lon="5.36714">
        <ele>258.4</ele>
        <time>2022-08-23T14:36:24Z</time>
      </trkpt>
      <trkpt lat="46.48135" lon="5.36729">
        <ele>258.8</ele>
        <time>2022-08-23T14:36:29Z</time>
      </trkpt>
      <trkpt lat="46.48143" lon="5.36734">
        <ele>259.2</ele>
        <time>2022-08-23T14:36:31Z</time>
      </trkpt>
      <trkpt lat="46.48162" lon="5.3675">
        <ele>260.2</ele>
        <time>2022-08-23T14:36:36Z</time>
      </trkpt>
      <trkpt lat="46.48165" lon="5.36752">
        <ele>260.4</ele>
        <time>2022-08-23T14:36:37Z</time>
      </trkpt>
      <trkpt lat="46.48183" lon="5.36767">
        <ele>261.6</ele>
        <time>2022-08-23T14:36:42Z</time>
      </trkpt>
      <trkpt lat="46.482" lon="5.36781">
        <ele>263</ele>
        <time>2022-08-23T14:36:47Z</time>
      </trkpt>
      <trkpt lat="46.48217" lon="5.36794">
        <ele>264.2</ele>
        <time>2022-08-23T14:36:52Z</time>
      </trkpt>
      <trkpt lat="46.48223" lon="5.368">
        <ele>264.8</ele>
        <time>2022-08-23T14:36:54Z</time>
      </trkpt>
      <trkpt lat="46.48232" lon="5.36807">
        <ele>265.2</ele>
        <time>2022-08-23T14:36:57Z</time>
      </trkpt>
      <trkpt lat="46.48244" lon="5.36818">
        <ele>266.2</ele>
        <time>2022-08-23T14:37:01Z</time>
      </trkpt>
      <trkpt lat="46.48247" lon="5.3682">
        <ele>266.2</ele>
        <time>2022-08-23T14:37:02Z</time>
      </trkpt>
      <trkpt lat="46.48264" lon="5.36837">
        <ele>267.4</ele>
        <time>2022-08-23T14:37:08Z</time>
      </trkpt>
    </trkseg>
  </trk>
</gpx>